<?xml version="1.0" encoding="UTF-8"?>
<gpx version="1.1" creator="https://www.youtrack.es" xsi:schemaLocation="http://www.topografix.com/GPX/1/1 http://www.topografix.com/GPX/1/1/gpx.xsd http://www.garmin.com/xmlschemas/GpxExtensions/v3 http://www.garmin.com/xmlschemas/GpxExtensionsv3.xsd http://www.garmin.com/xmlschemas/TrackPointExtension/v1 http://www.garmin.com/xmlschemas/TrackPointExtensionv1.xsd" xmlns:gpxtpx="http://www.garmin.com/xmlschemas/TrackPointExtension/v1" xmlns:gpxx="http://www.garmin.com/xmlschemas/GpxExtensions/v3" xmlns:xsi="http://www.w3.org/2001/XMLSchema-instance">
  <metadata>
    <author>
      <name>David Alonso Valverde</name>
      <email id="david.alonso.valverde" domain="gmail.com"/>
    </author>
    <link href="https://www.youtrack.es">
      <text>YouTrack.es</text>
    </link>
    <time>2026-05-08T13:06:06Z</time>
  </metadata>
  <trk>
    <src>https://www.youtrack.es</src>
    <link href="https://www.youtrack.es/ruta/20387-transpyr">
      <text>YouTrack.es</text>
    </link>
    <trkseg>
      <trkpt lat="42.37169334025454" lon="3.159234730702067">
        <time>2021-03-18T10:16:36Z</time>
      </trkpt>
      <trkpt lat="42.37101692031237" lon="3.160787387568604">
        <time>2021-03-18T10:16:36Z</time>
      </trkpt>
      <trkpt lat="42.37033561536286" lon="3.161305370593537">
        <time>2021-03-18T10:16:36Z</time>
      </trkpt>
      <trkpt lat="42.36988475339893" lon="3.160054804398538">
        <time>2021-03-18T10:16:36Z</time>
      </trkpt>
      <trkpt lat="42.36974588778579" lon="3.159130468448137">
        <time>2021-03-18T10:16:36Z</time>
      </trkpt>
      <trkpt lat="42.36904495109967" lon="3.158528379299779">
        <time>2021-03-18T10:16:36Z</time>
      </trkpt>
      <trkpt lat="42.36853595695647" lon="3.157361355840969">
        <time>2021-03-18T10:16:36Z</time>
      </trkpt>
      <trkpt lat="42.36852875054569" lon="3.15732192501982">
        <time>2021-03-18T10:16:36Z</time>
      </trkpt>
      <trkpt lat="42.36756381935093" lon="3.156400641902926">
        <time>2021-03-18T10:16:36Z</time>
      </trkpt>
      <trkpt lat="42.36667804240378" lon="3.155026641943537">
        <time>2021-03-18T10:16:36Z</time>
      </trkpt>
      <trkpt lat="42.3645587889375" lon="3.15340661971667">
        <time>2021-03-18T10:16:36Z</time>
      </trkpt>
      <trkpt lat="42.36381617319287" lon="3.153276860052816">
        <time>2021-03-18T10:16:36Z</time>
      </trkpt>
      <trkpt lat="42.36330959450236" lon="3.152243882618446">
        <time>2021-03-18T10:16:36Z</time>
      </trkpt>
      <trkpt lat="42.36340935657506" lon="3.15132478898069">
        <time>2021-03-18T10:16:36Z</time>
      </trkpt>
      <trkpt lat="42.36282910632917" lon="3.149177199639628">
        <time>2021-03-18T10:16:36Z</time>
      </trkpt>
      <trkpt lat="42.36227738894858" lon="3.147905494706909">
        <time>2021-03-18T10:16:36Z</time>
      </trkpt>
      <trkpt lat="42.36269455619713" lon="3.147607973997539">
        <time>2021-03-18T10:16:36Z</time>
      </trkpt>
      <trkpt lat="42.36293604906125" lon="3.14701344682109">
        <time>2021-03-18T10:16:36Z</time>
      </trkpt>
      <trkpt lat="42.36296353558713" lon="3.146405478250782">
        <time>2021-03-18T10:16:36Z</time>
      </trkpt>
      <trkpt lat="42.36256200946635" lon="3.145349254792906">
        <time>2021-03-18T10:16:36Z</time>
      </trkpt>
      <trkpt lat="42.36185437413886" lon="3.144540916999126">
        <time>2021-03-18T10:16:36Z</time>
      </trkpt>
      <trkpt lat="42.36224599699825" lon="3.140459713194799">
        <time>2021-03-18T10:16:36Z</time>
      </trkpt>
      <trkpt lat="42.36287723188755" lon="3.138812018094259">
        <time>2021-03-18T10:16:36Z</time>
      </trkpt>
      <trkpt lat="42.36471846227814" lon="3.136191200737843">
        <time>2021-03-18T10:16:36Z</time>
      </trkpt>
      <trkpt lat="42.36657824301379" lon="3.133992604522937">
        <time>2021-03-18T10:16:36Z</time>
      </trkpt>
      <trkpt lat="42.36721054233343" lon="3.132328262707591">
        <time>2021-03-18T10:16:36Z</time>
      </trkpt>
      <trkpt lat="42.36814880345079" lon="3.130902177413037">
        <time>2021-03-18T10:16:36Z</time>
      </trkpt>
      <trkpt lat="42.3687048085916" lon="3.12954030340667">
        <time>2021-03-18T10:16:36Z</time>
      </trkpt>
      <trkpt lat="42.36879160677461" lon="3.129113244689661">
        <time>2021-03-18T10:16:36Z</time>
      </trkpt>
      <trkpt lat="42.36841686413389" lon="3.126503653687711">
        <time>2021-03-18T10:16:36Z</time>
      </trkpt>
      <trkpt lat="42.36852651816584" lon="3.125979377281523">
        <time>2021-03-18T10:16:36Z</time>
      </trkpt>
      <trkpt lat="42.36843073203762" lon="3.125209196849073">
        <time>2021-03-18T10:16:36Z</time>
      </trkpt>
      <trkpt lat="42.36859949378386" lon="3.120579564200068">
        <time>2021-03-18T10:16:36Z</time>
      </trkpt>
      <trkpt lat="42.37084021539099" lon="3.115956129644821">
        <time>2021-03-18T10:16:36Z</time>
      </trkpt>
      <trkpt lat="42.36969475258921" lon="3.113761750794812">
        <time>2021-03-18T10:16:36Z</time>
      </trkpt>
      <trkpt lat="42.37067904175257" lon="3.11143352046916">
        <time>2021-03-18T10:16:36Z</time>
      </trkpt>
      <trkpt lat="42.3709273202504" lon="3.109180566517302">
        <time>2021-03-18T10:16:36Z</time>
      </trkpt>
      <trkpt lat="42.37221994887014" lon="3.108405191434402">
        <time>2021-03-18T10:16:36Z</time>
      </trkpt>
      <trkpt lat="42.37218647739484" lon="3.107703440274501">
        <time>2021-03-18T10:16:36Z</time>
      </trkpt>
      <trkpt lat="42.37306124127084" lon="3.106606421666487">
        <time>2021-03-18T10:16:36Z</time>
      </trkpt>
      <trkpt lat="42.37223539840902" lon="3.104973355520115">
        <time>2021-03-18T10:16:36Z</time>
      </trkpt>
      <trkpt lat="42.37223733455618" lon="3.10236893128506">
        <time>2021-03-18T10:16:36Z</time>
      </trkpt>
      <trkpt lat="42.37103475220229" lon="3.100021997666134">
        <time>2021-03-18T10:16:36Z</time>
      </trkpt>
      <trkpt lat="42.369405926373" lon="3.098981677909114">
        <time>2021-03-18T10:16:36Z</time>
      </trkpt>
      <trkpt lat="42.36847670669802" lon="3.097260349422286">
        <time>2021-03-18T10:16:36Z</time>
      </trkpt>
      <trkpt lat="42.36716634831807" lon="3.098804562935087">
        <time>2021-03-18T10:16:36Z</time>
      </trkpt>
      <trkpt lat="42.3667908237424" lon="3.099005038780551">
        <time>2021-03-18T10:16:36Z</time>
      </trkpt>
      <trkpt lat="42.36669047773585" lon="3.098605617027739">
        <time>2021-03-18T10:16:36Z</time>
      </trkpt>
      <trkpt lat="42.36700934528511" lon="3.09752992584589">
        <time>2021-03-18T10:16:36Z</time>
      </trkpt>
      <trkpt lat="42.36791634886594" lon="3.095548255630507">
        <time>2021-03-18T10:16:36Z</time>
      </trkpt>
      <trkpt lat="42.36872404669656" lon="3.094951189038779">
        <time>2021-03-18T10:16:36Z</time>
      </trkpt>
      <trkpt lat="42.3694963503335" lon="3.095355503436361">
        <time>2021-03-18T10:16:36Z</time>
      </trkpt>
      <trkpt lat="42.36993998677909" lon="3.093354636690533">
        <time>2021-03-18T10:16:36Z</time>
      </trkpt>
      <trkpt lat="42.37019604893813" lon="3.093190129289491">
        <time>2021-03-18T10:16:36Z</time>
      </trkpt>
      <trkpt lat="42.370235339175" lon="3.09237335168592">
        <time>2021-03-18T10:16:36Z</time>
      </trkpt>
      <trkpt lat="42.37095371936843" lon="3.092248466727325">
        <time>2021-03-18T10:16:36Z</time>
      </trkpt>
      <trkpt lat="42.37163171462803" lon="3.091391893132511">
        <time>2021-03-18T10:16:36Z</time>
      </trkpt>
      <trkpt lat="42.37245008758325" lon="3.09133307477161">
        <time>2021-03-18T10:16:36Z</time>
      </trkpt>
      <trkpt lat="42.3733256395229" lon="3.087996199865759">
        <time>2021-03-18T10:16:36Z</time>
      </trkpt>
      <trkpt lat="42.37495505927858" lon="3.086693803548906">
        <time>2021-03-18T10:16:36Z</time>
      </trkpt>
      <trkpt lat="42.37573334348598" lon="3.085113966008097">
        <time>2021-03-18T10:16:36Z</time>
      </trkpt>
      <trkpt lat="42.37749149077054" lon="3.084715055234204">
        <time>2021-03-18T10:16:36Z</time>
      </trkpt>
      <trkpt lat="42.37806650475898" lon="3.085347196035748">
        <time>2021-03-18T10:16:36Z</time>
      </trkpt>
      <trkpt lat="42.37961625305624" lon="3.082180374334456">
        <time>2021-03-18T10:16:36Z</time>
      </trkpt>
      <trkpt lat="42.38152490352061" lon="3.08190113595046">
        <time>2021-03-18T10:16:36Z</time>
      </trkpt>
      <trkpt lat="42.38181684397199" lon="3.081454958245558">
        <time>2021-03-18T10:16:36Z</time>
      </trkpt>
      <trkpt lat="42.37926367256623" lon="3.080898567274542">
        <time>2021-03-18T10:16:36Z</time>
      </trkpt>
      <trkpt lat="42.38093707032348" lon="3.078892604554211">
        <time>2021-03-18T10:16:36Z</time>
      </trkpt>
      <trkpt lat="42.38101739803098" lon="3.074529440902973">
        <time>2021-03-18T10:16:36Z</time>
      </trkpt>
      <trkpt lat="42.3804170262006" lon="3.071862717465561">
        <time>2021-03-18T10:16:36Z</time>
      </trkpt>
      <trkpt lat="42.37821211011279" lon="3.070361863459026">
        <time>2021-03-18T10:16:36Z</time>
      </trkpt>
      <trkpt lat="42.37773134845866" lon="3.069434273476541">
        <time>2021-03-18T10:16:36Z</time>
      </trkpt>
      <trkpt lat="42.37638856332494" lon="3.068819344847844">
        <time>2021-03-18T10:16:36Z</time>
      </trkpt>
      <trkpt lat="42.37618476138022" lon="3.067765506212807">
        <time>2021-03-18T10:16:36Z</time>
      </trkpt>
      <trkpt lat="42.37594410441153" lon="3.067804182013849">
        <time>2021-03-18T10:16:36Z</time>
      </trkpt>
      <trkpt lat="42.37576451714715" lon="3.067106867305813">
        <time>2021-03-18T10:16:36Z</time>
      </trkpt>
      <trkpt lat="42.37523978927632" lon="3.067064498776748">
        <time>2021-03-18T10:16:36Z</time>
      </trkpt>
      <trkpt lat="42.37551135349798" lon="3.066043355507206">
        <time>2021-03-18T10:16:36Z</time>
      </trkpt>
      <trkpt lat="42.37691407148819" lon="3.06533539206086">
        <time>2021-03-18T10:16:36Z</time>
      </trkpt>
      <trkpt lat="42.37799956358441" lon="3.061998858611112">
        <time>2021-03-18T10:16:36Z</time>
      </trkpt>
      <trkpt lat="42.38011031109459" lon="3.060687209351787">
        <time>2021-03-18T10:16:36Z</time>
      </trkpt>
      <trkpt lat="42.38246993879604" lon="3.056395983992952">
        <time>2021-03-18T10:16:36Z</time>
      </trkpt>
      <trkpt lat="42.38698081404885" lon="3.052603634363504">
        <time>2021-03-18T10:16:36Z</time>
      </trkpt>
      <trkpt lat="42.38791712869706" lon="3.051302416712916">
        <time>2021-03-18T10:16:36Z</time>
      </trkpt>
      <trkpt lat="42.38767794721358" lon="3.050042767214087">
        <time>2021-03-18T10:16:36Z</time>
      </trkpt>
      <trkpt lat="42.38658298711234" lon="3.047983713890543">
        <time>2021-03-18T10:16:36Z</time>
      </trkpt>
      <trkpt lat="42.38657129126312" lon="3.046689026123128">
        <time>2021-03-18T10:16:36Z</time>
      </trkpt>
      <trkpt lat="42.38768065328134" lon="3.045427318370193">
        <time>2021-03-18T10:16:36Z</time>
      </trkpt>
      <trkpt lat="42.38646837968294" lon="3.045090544237712">
        <time>2021-03-18T10:16:36Z</time>
      </trkpt>
      <trkpt lat="42.3851466885541" lon="3.043346294009879">
        <time>2021-03-18T10:16:36Z</time>
      </trkpt>
      <trkpt lat="42.38427242430503" lon="3.04049921067465">
        <time>2021-03-18T10:16:36Z</time>
      </trkpt>
      <trkpt lat="42.3825095958475" lon="3.03671486557662">
        <time>2021-03-18T10:16:36Z</time>
      </trkpt>
      <trkpt lat="42.38145149573555" lon="3.034006335204813">
        <time>2021-03-18T10:16:36Z</time>
      </trkpt>
      <trkpt lat="42.38045324033445" lon="3.031205817436786">
        <time>2021-03-18T10:16:36Z</time>
      </trkpt>
      <trkpt lat="42.37987713592265" lon="3.03066817963221">
        <time>2021-03-18T10:16:36Z</time>
      </trkpt>
      <trkpt lat="42.37876709129134" lon="3.030235285079865">
        <time>2021-03-18T10:16:36Z</time>
      </trkpt>
      <trkpt lat="42.37901359511929" lon="3.0295570473589">
        <time>2021-03-18T10:16:36Z</time>
      </trkpt>
      <trkpt lat="42.37822944553265" lon="3.028939376248141">
        <time>2021-03-18T10:16:36Z</time>
      </trkpt>
      <trkpt lat="42.37809899513506" lon="3.028319364955334">
        <time>2021-03-18T10:16:36Z</time>
      </trkpt>
      <trkpt lat="42.37842103876656" lon="3.028307284866845">
        <time>2021-03-18T10:16:36Z</time>
      </trkpt>
      <trkpt lat="42.37852640105983" lon="3.028409445073359">
        <time>2021-03-18T10:16:36Z</time>
      </trkpt>
      <trkpt lat="42.37881140117506" lon="3.028330007241646">
        <time>2021-03-18T10:16:36Z</time>
      </trkpt>
      <trkpt lat="42.37882547529898" lon="3.027838730353276">
        <time>2021-03-18T10:16:36Z</time>
      </trkpt>
      <trkpt lat="42.37947512881665" lon="3.027412226438311">
        <time>2021-03-18T10:16:36Z</time>
      </trkpt>
      <trkpt lat="42.37973175146708" lon="3.027041178853014">
        <time>2021-03-18T10:16:36Z</time>
      </trkpt>
      <trkpt lat="42.38122304021481" lon="3.027157528499251">
        <time>2021-03-18T10:16:36Z</time>
      </trkpt>
      <trkpt lat="42.38108658931465" lon="3.02718984857105">
        <time>2021-03-18T10:16:36Z</time>
      </trkpt>
      <trkpt lat="42.38317729374022" lon="3.026984743248125">
        <time>2021-03-18T10:16:36Z</time>
      </trkpt>
      <trkpt lat="42.38553874762692" lon="3.025391383857177">
        <time>2021-03-18T10:16:36Z</time>
      </trkpt>
      <trkpt lat="42.38663843008137" lon="3.024852161260183">
        <time>2021-03-18T10:16:36Z</time>
      </trkpt>
      <trkpt lat="42.3891612098957" lon="3.022997506031908">
        <time>2021-03-18T10:16:36Z</time>
      </trkpt>
      <trkpt lat="42.38866082655997" lon="3.021904801172592">
        <time>2021-03-18T10:16:36Z</time>
      </trkpt>
      <trkpt lat="42.38852086746319" lon="3.020286466943867">
        <time>2021-03-18T10:16:36Z</time>
      </trkpt>
      <trkpt lat="42.3878405559505" lon="3.019153797092615">
        <time>2021-03-18T10:16:36Z</time>
      </trkpt>
      <trkpt lat="42.38847386279461" lon="3.017329974091232">
        <time>2021-03-18T10:16:36Z</time>
      </trkpt>
      <trkpt lat="42.38982565168996" lon="3.016907659688584">
        <time>2021-03-18T10:16:36Z</time>
      </trkpt>
      <trkpt lat="42.39066238970053" lon="3.015668942647523">
        <time>2021-03-18T10:16:36Z</time>
      </trkpt>
      <trkpt lat="42.39011055047352" lon="3.014141567085036">
        <time>2021-03-18T10:16:36Z</time>
      </trkpt>
      <trkpt lat="42.39036161474935" lon="3.013734793081915">
        <time>2021-03-18T10:16:36Z</time>
      </trkpt>
      <trkpt lat="42.3905482847693" lon="3.012559515307873">
        <time>2021-03-18T10:16:36Z</time>
      </trkpt>
      <trkpt lat="42.38920192124398" lon="3.01129801124854">
        <time>2021-03-18T10:16:36Z</time>
      </trkpt>
      <trkpt lat="42.3890996810195" lon="3.01082030831501">
        <time>2021-03-18T10:16:36Z</time>
      </trkpt>
      <trkpt lat="42.3896254962671" lon="3.008701754499712">
        <time>2021-03-18T10:16:36Z</time>
      </trkpt>
      <trkpt lat="42.38937117980086" lon="3.007755508939625">
        <time>2021-03-18T10:16:36Z</time>
      </trkpt>
      <trkpt lat="42.39064364403521" lon="3.00157742955081">
        <time>2021-03-18T10:16:36Z</time>
      </trkpt>
      <trkpt lat="42.39063845693552" lon="3.001082401231914">
        <time>2021-03-18T10:16:36Z</time>
      </trkpt>
      <trkpt lat="42.3906337656293" lon="3.000634711468793">
        <time>2021-03-18T10:16:36Z</time>
      </trkpt>
      <trkpt lat="42.39095803792007" lon="2.999929457623329">
        <time>2021-03-18T10:16:36Z</time>
      </trkpt>
      <trkpt lat="42.39058004222678" lon="2.999681967369159">
        <time>2021-03-18T10:16:36Z</time>
      </trkpt>
      <trkpt lat="42.39032816104804" lon="2.998398038389085">
        <time>2021-03-18T10:16:36Z</time>
      </trkpt>
      <trkpt lat="42.39064653442144" lon="2.996839321777702">
        <time>2021-03-18T10:16:36Z</time>
      </trkpt>
      <trkpt lat="42.39135139282083" lon="2.995627980466404">
        <time>2021-03-18T10:16:36Z</time>
      </trkpt>
      <trkpt lat="42.39106204308014" lon="2.994068952131315">
        <time>2021-03-18T10:16:36Z</time>
      </trkpt>
      <trkpt lat="42.39123922421607" lon="2.993705203583252">
        <time>2021-03-18T10:16:36Z</time>
      </trkpt>
      <trkpt lat="42.39082504823519" lon="2.992829236617889">
        <time>2021-03-18T10:16:36Z</time>
      </trkpt>
      <trkpt lat="42.39303743650368" lon="2.98880571316192">
        <time>2021-03-18T10:16:36Z</time>
      </trkpt>
      <trkpt lat="42.39379268154112" lon="2.986782376402621">
        <time>2021-03-18T10:16:36Z</time>
      </trkpt>
      <trkpt lat="42.39378409445369" lon="2.985992474634767">
        <time>2021-03-18T10:16:36Z</time>
      </trkpt>
      <trkpt lat="42.39394617553239" lon="2.979746452756777">
        <time>2021-03-18T10:16:36Z</time>
      </trkpt>
      <trkpt lat="42.39325239665061" lon="2.97865882703783">
        <time>2021-03-18T10:16:36Z</time>
      </trkpt>
      <trkpt lat="42.39224642859475" lon="2.9784286552509">
        <time>2021-03-18T10:16:36Z</time>
      </trkpt>
      <trkpt lat="42.39290179568334" lon="2.977124471263455">
        <time>2021-03-18T10:16:36Z</time>
      </trkpt>
      <trkpt lat="42.39254912173578" lon="2.976169202845787">
        <time>2021-03-18T10:16:36Z</time>
      </trkpt>
      <trkpt lat="42.39216537298437" lon="2.975853510633735">
        <time>2021-03-18T10:16:36Z</time>
      </trkpt>
      <trkpt lat="42.39229896517164" lon="2.97556181978484">
        <time>2021-03-18T10:16:36Z</time>
      </trkpt>
      <trkpt lat="42.39038682065239" lon="2.974840330438673">
        <time>2021-03-18T10:16:36Z</time>
      </trkpt>
      <trkpt lat="42.38856793979315" lon="2.974255058781254">
        <time>2021-03-18T10:16:36Z</time>
      </trkpt>
      <trkpt lat="42.38704304460612" lon="2.974666418026661">
        <time>2021-03-18T10:16:36Z</time>
      </trkpt>
      <trkpt lat="42.3878421373856" lon="2.973633166056917">
        <time>2021-03-18T10:16:36Z</time>
      </trkpt>
      <trkpt lat="42.38939846381343" lon="2.972249459289771">
        <time>2021-03-18T10:16:36Z</time>
      </trkpt>
      <trkpt lat="42.39130824182574" lon="2.971083646046329">
        <time>2021-03-18T10:16:36Z</time>
      </trkpt>
      <trkpt lat="42.39349397141816" lon="2.965362933600113">
        <time>2021-03-18T10:16:36Z</time>
      </trkpt>
      <trkpt lat="42.39673462871886" lon="2.962839950368759">
        <time>2021-03-18T10:16:36Z</time>
      </trkpt>
      <trkpt lat="42.39818870596223" lon="2.962098840102723">
        <time>2021-03-18T10:16:36Z</time>
      </trkpt>
      <trkpt lat="42.40006846544914" lon="2.961130097875666">
        <time>2021-03-18T10:16:36Z</time>
      </trkpt>
      <trkpt lat="42.40631134614654" lon="2.95702251986558">
        <time>2021-03-18T10:16:36Z</time>
      </trkpt>
      <trkpt lat="42.41259915754483" lon="2.953294006098468">
        <time>2021-03-18T10:16:36Z</time>
      </trkpt>
      <trkpt lat="42.41398052795354" lon="2.952513300390547">
        <time>2021-03-18T10:16:36Z</time>
      </trkpt>
      <trkpt lat="42.4163397032499" lon="2.951477876717445">
        <time>2021-03-18T10:16:36Z</time>
      </trkpt>
      <trkpt lat="42.41864269592971" lon="2.951714332721942">
        <time>2021-03-18T10:16:36Z</time>
      </trkpt>
      <trkpt lat="42.41881004763766" lon="2.951301893612097">
        <time>2021-03-18T10:16:36Z</time>
      </trkpt>
      <trkpt lat="42.41851158212657" lon="2.950917656118055">
        <time>2021-03-18T10:16:36Z</time>
      </trkpt>
      <trkpt lat="42.41959608166952" lon="2.949326911885477">
        <time>2021-03-18T10:16:36Z</time>
      </trkpt>
      <trkpt lat="42.41939987979317" lon="2.947996942803273">
        <time>2021-03-18T10:16:36Z</time>
      </trkpt>
      <trkpt lat="42.41871175893783" lon="2.947106314159618">
        <time>2021-03-18T10:16:36Z</time>
      </trkpt>
      <trkpt lat="42.41896709155353" lon="2.9448017966704">
        <time>2021-03-18T10:16:36Z</time>
      </trkpt>
      <trkpt lat="42.41860507822598" lon="2.94349599195904">
        <time>2021-03-18T10:16:36Z</time>
      </trkpt>
      <trkpt lat="42.41780908337029" lon="2.942935847265671">
        <time>2021-03-18T10:16:36Z</time>
      </trkpt>
      <trkpt lat="42.4216579346158" lon="2.94181115295137">
        <time>2021-03-18T10:16:36Z</time>
      </trkpt>
      <trkpt lat="42.4216981257289" lon="2.937206733369">
        <time>2021-03-18T10:16:36Z</time>
      </trkpt>
      <trkpt lat="42.42193219371906" lon="2.936179261168119">
        <time>2021-03-18T10:16:36Z</time>
      </trkpt>
      <trkpt lat="42.42194053664382" lon="2.934268146606835">
        <time>2021-03-18T10:16:36Z</time>
      </trkpt>
      <trkpt lat="42.42239668772989" lon="2.932967910322335">
        <time>2021-03-18T10:16:36Z</time>
      </trkpt>
      <trkpt lat="42.42344139325599" lon="2.928512386031441">
        <time>2021-03-18T10:16:36Z</time>
      </trkpt>
      <trkpt lat="42.42298282887692" lon="2.926332301514929">
        <time>2021-03-18T10:16:36Z</time>
      </trkpt>
      <trkpt lat="42.42294471618891" lon="2.925426618994209">
        <time>2021-03-18T10:16:36Z</time>
      </trkpt>
      <trkpt lat="42.42141970089444" lon="2.925374289524392">
        <time>2021-03-18T10:16:36Z</time>
      </trkpt>
      <trkpt lat="42.42088372274866" lon="2.924862650503641">
        <time>2021-03-18T10:16:36Z</time>
      </trkpt>
      <trkpt lat="42.41995198823362" lon="2.923781029263508">
        <time>2021-03-18T10:16:36Z</time>
      </trkpt>
      <trkpt lat="42.41972322915989" lon="2.923275405665338">
        <time>2021-03-18T10:16:36Z</time>
      </trkpt>
      <trkpt lat="42.41785090199173" lon="2.922544473575743">
        <time>2021-03-18T10:16:36Z</time>
      </trkpt>
      <trkpt lat="42.41760969670153" lon="2.920578466996029">
        <time>2021-03-18T10:16:36Z</time>
      </trkpt>
      <trkpt lat="42.41814407506959" lon="2.919750259154981">
        <time>2021-03-18T10:16:36Z</time>
      </trkpt>
      <trkpt lat="42.4180464261249" lon="2.919037815166277">
        <time>2021-03-18T10:16:36Z</time>
      </trkpt>
      <trkpt lat="42.41880277469532" lon="2.917961479618387">
        <time>2021-03-18T10:16:36Z</time>
      </trkpt>
      <trkpt lat="42.41841964208135" lon="2.917066660384298">
        <time>2021-03-18T10:16:36Z</time>
      </trkpt>
      <trkpt lat="42.41866327643149" lon="2.915596387712647">
        <time>2021-03-18T10:16:36Z</time>
      </trkpt>
      <trkpt lat="42.41832710713657" lon="2.914510527645924">
        <time>2021-03-18T10:16:36Z</time>
      </trkpt>
      <trkpt lat="42.41640431312326" lon="2.911397985588091">
        <time>2021-03-18T10:16:36Z</time>
      </trkpt>
      <trkpt lat="42.41627444128714" lon="2.910022071238576">
        <time>2021-03-18T10:16:36Z</time>
      </trkpt>
      <trkpt lat="42.41507937598155" lon="2.908269541704882">
        <time>2021-03-18T10:16:36Z</time>
      </trkpt>
      <trkpt lat="42.41330169344791" lon="2.906512312208949">
        <time>2021-03-18T10:16:36Z</time>
      </trkpt>
      <trkpt lat="42.41311698820283" lon="2.90584741566037">
        <time>2021-03-18T10:16:36Z</time>
      </trkpt>
      <trkpt lat="42.40921706319768" lon="2.904425426527606">
        <time>2021-03-18T10:16:36Z</time>
      </trkpt>
      <trkpt lat="42.40305354998655" lon="2.900078346524402">
        <time>2021-03-18T10:16:36Z</time>
      </trkpt>
      <trkpt lat="42.40012771908895" lon="2.897628460314023">
        <time>2021-03-18T10:16:36Z</time>
      </trkpt>
      <trkpt lat="42.39935252915" lon="2.894415968896762">
        <time>2021-03-18T10:16:36Z</time>
      </trkpt>
      <trkpt lat="42.39974321555678" lon="2.893344945587562">
        <time>2021-03-18T10:16:36Z</time>
      </trkpt>
      <trkpt lat="42.40036707624903" lon="2.893102512406831">
        <time>2021-03-18T10:16:36Z</time>
      </trkpt>
      <trkpt lat="42.40014160207318" lon="2.89214248666265">
        <time>2021-03-18T10:16:36Z</time>
      </trkpt>
      <trkpt lat="42.40029612254114" lon="2.891731579751853">
        <time>2021-03-18T10:16:36Z</time>
      </trkpt>
      <trkpt lat="42.39993678008896" lon="2.891002342482623">
        <time>2021-03-18T10:16:36Z</time>
      </trkpt>
      <trkpt lat="42.40019592358021" lon="2.889184067027162">
        <time>2021-03-18T10:16:36Z</time>
      </trkpt>
      <trkpt lat="42.40055151206319" lon="2.888837789707224">
        <time>2021-03-18T10:16:36Z</time>
      </trkpt>
      <trkpt lat="42.40058476023322" lon="2.887988103190298">
        <time>2021-03-18T10:16:36Z</time>
      </trkpt>
      <trkpt lat="42.40229313171957" lon="2.886575797041868">
        <time>2021-03-18T10:16:36Z</time>
      </trkpt>
      <trkpt lat="42.40329266117578" lon="2.884701883325569">
        <time>2021-03-18T10:16:36Z</time>
      </trkpt>
      <trkpt lat="42.40422918250494" lon="2.884008877343809">
        <time>2021-03-18T10:16:36Z</time>
      </trkpt>
      <trkpt lat="42.40508230766094" lon="2.881170006630642">
        <time>2021-03-18T10:16:36Z</time>
      </trkpt>
      <trkpt lat="42.40466064895677" lon="2.878556575117244">
        <time>2021-03-18T10:16:36Z</time>
      </trkpt>
      <trkpt lat="42.40318519306448" lon="2.874057456739469">
        <time>2021-03-18T10:16:36Z</time>
      </trkpt>
      <trkpt lat="42.40322937069109" lon="2.871586201883698">
        <time>2021-03-18T10:16:36Z</time>
      </trkpt>
      <trkpt lat="42.39959824828287" lon="2.864341764101157">
        <time>2021-03-18T10:16:36Z</time>
      </trkpt>
      <trkpt lat="42.39495219545504" lon="2.857277568952854">
        <time>2021-03-18T10:16:36Z</time>
      </trkpt>
      <trkpt lat="42.39485688948737" lon="2.853592253043953">
        <time>2021-03-18T10:16:36Z</time>
      </trkpt>
      <trkpt lat="42.39580024679307" lon="2.852361662598208">
        <time>2021-03-18T10:16:36Z</time>
      </trkpt>
      <trkpt lat="42.39471222316507" lon="2.851042731022253">
        <time>2021-03-18T10:16:36Z</time>
      </trkpt>
      <trkpt lat="42.39626137613874" lon="2.848946711782721">
        <time>2021-03-18T10:16:36Z</time>
      </trkpt>
      <trkpt lat="42.39546487159594" lon="2.848084634933794">
        <time>2021-03-18T10:16:36Z</time>
      </trkpt>
      <trkpt lat="42.39471496682631" lon="2.84872898423411">
        <time>2021-03-18T10:16:36Z</time>
      </trkpt>
      <trkpt lat="42.39537061905076" lon="2.847488409725349">
        <time>2021-03-18T10:16:36Z</time>
      </trkpt>
      <trkpt lat="42.39596513156245" lon="2.847322166758617">
        <time>2021-03-18T10:16:36Z</time>
      </trkpt>
      <trkpt lat="42.39611689314665" lon="2.84697686248768">
        <time>2021-03-18T10:16:36Z</time>
      </trkpt>
      <trkpt lat="42.39599798672656" lon="2.846872350936887">
        <time>2021-03-18T10:16:36Z</time>
      </trkpt>
      <trkpt lat="42.39546955828816" lon="2.847020212348261">
        <time>2021-03-18T10:16:36Z</time>
      </trkpt>
      <trkpt lat="42.39513259949654" lon="2.84633839947638">
        <time>2021-03-18T10:16:36Z</time>
      </trkpt>
      <trkpt lat="42.39467176654405" lon="2.844849820852935">
        <time>2021-03-18T10:16:36Z</time>
      </trkpt>
      <trkpt lat="42.39435916760308" lon="2.844244010260224">
        <time>2021-03-18T10:16:36Z</time>
      </trkpt>
      <trkpt lat="42.39397285746856" lon="2.843888349611992">
        <time>2021-03-18T10:16:36Z</time>
      </trkpt>
      <trkpt lat="42.39393730726243" lon="2.84287659138845">
        <time>2021-03-18T10:16:36Z</time>
      </trkpt>
      <trkpt lat="42.39477193215075" lon="2.841910972662152">
        <time>2021-03-18T10:16:36Z</time>
      </trkpt>
      <trkpt lat="42.39484639122411" lon="2.841703087275687">
        <time>2021-03-18T10:16:36Z</time>
      </trkpt>
      <trkpt lat="42.39422626236321" lon="2.841187734411963">
        <time>2021-03-18T10:16:36Z</time>
      </trkpt>
      <trkpt lat="42.39461398013088" lon="2.839053366277111">
        <time>2021-03-18T10:16:36Z</time>
      </trkpt>
      <trkpt lat="42.3946067447462" lon="2.837385250936733">
        <time>2021-03-18T10:16:36Z</time>
      </trkpt>
      <trkpt lat="42.39564935459649" lon="2.835429885538434">
        <time>2021-03-18T10:16:36Z</time>
      </trkpt>
      <trkpt lat="42.39596502346998" lon="2.833676803867105">
        <time>2021-03-18T10:16:36Z</time>
      </trkpt>
      <trkpt lat="42.39700199566271" lon="2.833058387306444">
        <time>2021-03-18T10:16:36Z</time>
      </trkpt>
      <trkpt lat="42.39739990816184" lon="2.83225125990451">
        <time>2021-03-18T10:16:36Z</time>
      </trkpt>
      <trkpt lat="42.39794418704747" lon="2.832014679057378">
        <time>2021-03-18T10:16:36Z</time>
      </trkpt>
      <trkpt lat="42.3982703103803" lon="2.831354232588004">
        <time>2021-03-18T10:16:36Z</time>
      </trkpt>
      <trkpt lat="42.3985983820014" lon="2.831327391988101">
        <time>2021-03-18T10:16:36Z</time>
      </trkpt>
      <trkpt lat="42.39842143090556" lon="2.830540276701712">
        <time>2021-03-18T10:16:36Z</time>
      </trkpt>
      <trkpt lat="42.39893317356492" lon="2.830397339824817">
        <time>2021-03-18T10:16:36Z</time>
      </trkpt>
      <trkpt lat="42.39945746633003" lon="2.830086515681773">
        <time>2021-03-18T10:16:36Z</time>
      </trkpt>
      <trkpt lat="42.39982495321307" lon="2.830804881256719">
        <time>2021-03-18T10:16:36Z</time>
      </trkpt>
      <trkpt lat="42.40060190684521" lon="2.830577408494073">
        <time>2021-03-18T10:16:36Z</time>
      </trkpt>
      <trkpt lat="42.40154989470757" lon="2.829837498026917">
        <time>2021-03-18T10:16:36Z</time>
      </trkpt>
      <trkpt lat="42.4021849124271" lon="2.827570202149532">
        <time>2021-03-18T10:16:36Z</time>
      </trkpt>
      <trkpt lat="42.40256243367677" lon="2.827358559817972">
        <time>2021-03-18T10:16:36Z</time>
      </trkpt>
      <trkpt lat="42.4029443370375" lon="2.826672386511557">
        <time>2021-03-18T10:16:36Z</time>
      </trkpt>
      <trkpt lat="42.40406138587311" lon="2.825878498395611">
        <time>2021-03-18T10:16:36Z</time>
      </trkpt>
      <trkpt lat="42.40448744424845" lon="2.82489661311305">
        <time>2021-03-18T10:16:36Z</time>
      </trkpt>
      <trkpt lat="42.40464064490916" lon="2.822844647127762">
        <time>2021-03-18T10:16:36Z</time>
      </trkpt>
      <trkpt lat="42.40452039563657" lon="2.821211522194156">
        <time>2021-03-18T10:16:36Z</time>
      </trkpt>
      <trkpt lat="42.40512384142307" lon="2.821121727278912">
        <time>2021-03-18T10:16:36Z</time>
      </trkpt>
      <trkpt lat="42.40570597843536" lon="2.820188326027302">
        <time>2021-03-18T10:16:36Z</time>
      </trkpt>
      <trkpt lat="42.40635042827423" lon="2.819913945125763">
        <time>2021-03-18T10:16:36Z</time>
      </trkpt>
      <trkpt lat="42.40741027907589" lon="2.819051400700039">
        <time>2021-03-18T10:16:36Z</time>
      </trkpt>
      <trkpt lat="42.40781403068486" lon="2.818147965964077">
        <time>2021-03-18T10:16:36Z</time>
      </trkpt>
      <trkpt lat="42.40719233280982" lon="2.817480485429473">
        <time>2021-03-18T10:16:36Z</time>
      </trkpt>
      <trkpt lat="42.40725300266849" lon="2.816709118944767">
        <time>2021-03-18T10:16:36Z</time>
      </trkpt>
      <trkpt lat="42.40773798945902" lon="2.816397802196007">
        <time>2021-03-18T10:16:36Z</time>
      </trkpt>
      <trkpt lat="42.4073915008643" lon="2.814959457293325">
        <time>2021-03-18T10:16:36Z</time>
      </trkpt>
      <trkpt lat="42.40630287918538" lon="2.814320784717699">
        <time>2021-03-18T10:16:36Z</time>
      </trkpt>
      <trkpt lat="42.40630715333433" lon="2.812633198342875">
        <time>2021-03-18T10:16:36Z</time>
      </trkpt>
      <trkpt lat="42.40675772002003" lon="2.811579125045809">
        <time>2021-03-18T10:16:36Z</time>
      </trkpt>
      <trkpt lat="42.40670248574101" lon="2.809642733309832">
        <time>2021-03-18T10:16:36Z</time>
      </trkpt>
      <trkpt lat="42.40615135334203" lon="2.809350845785701">
        <time>2021-03-18T10:16:36Z</time>
      </trkpt>
      <trkpt lat="42.40630734421519" lon="2.8071185189224">
        <time>2021-03-18T10:16:36Z</time>
      </trkpt>
      <trkpt lat="42.40716259571288" lon="2.805794727258772">
        <time>2021-03-18T10:16:36Z</time>
      </trkpt>
      <trkpt lat="42.40682794760139" lon="2.804286479467633">
        <time>2021-03-18T10:16:36Z</time>
      </trkpt>
      <trkpt lat="42.40742625995708" lon="2.802698663371228">
        <time>2021-03-18T10:16:36Z</time>
      </trkpt>
      <trkpt lat="42.4071006396721" lon="2.801869589588142">
        <time>2021-03-18T10:16:36Z</time>
      </trkpt>
      <trkpt lat="42.40763861759505" lon="2.801089733522177">
        <time>2021-03-18T10:16:36Z</time>
      </trkpt>
      <trkpt lat="42.40737729810491" lon="2.799736012260909">
        <time>2021-03-18T10:16:36Z</time>
      </trkpt>
      <trkpt lat="42.40743134294105" lon="2.798932439406632">
        <time>2021-03-18T10:16:36Z</time>
      </trkpt>
      <trkpt lat="42.40826811290486" lon="2.798759201596874">
        <time>2021-03-18T10:16:36Z</time>
      </trkpt>
      <trkpt lat="42.40836621131209" lon="2.798250186946765">
        <time>2021-03-18T10:16:36Z</time>
      </trkpt>
      <trkpt lat="42.40760587927478" lon="2.798202910636018">
        <time>2021-03-18T10:16:36Z</time>
      </trkpt>
      <trkpt lat="42.40704135015393" lon="2.797918044199319">
        <time>2021-03-18T10:16:36Z</time>
      </trkpt>
      <trkpt lat="42.40649638334475" lon="2.799139930608172">
        <time>2021-03-18T10:16:36Z</time>
      </trkpt>
      <trkpt lat="42.40646799119052" lon="2.799706804936171">
        <time>2021-03-18T10:16:36Z</time>
      </trkpt>
      <trkpt lat="42.4061297292081" lon="2.799956540369644">
        <time>2021-03-18T10:16:36Z</time>
      </trkpt>
      <trkpt lat="42.40569826261869" lon="2.800506769370166">
        <time>2021-03-18T10:16:36Z</time>
      </trkpt>
      <trkpt lat="42.40469004351948" lon="2.801098662683148">
        <time>2021-03-18T10:16:36Z</time>
      </trkpt>
      <trkpt lat="42.40534891526833" lon="2.800256754103396">
        <time>2021-03-18T10:16:36Z</time>
      </trkpt>
      <trkpt lat="42.40523755344124" lon="2.799507135022488">
        <time>2021-03-18T10:16:36Z</time>
      </trkpt>
      <trkpt lat="42.40462669232034" lon="2.798901904939877">
        <time>2021-03-18T10:16:36Z</time>
      </trkpt>
      <trkpt lat="42.40471765096906" lon="2.798284166372798">
        <time>2021-03-18T10:16:36Z</time>
      </trkpt>
      <trkpt lat="42.40559652593741" lon="2.797532901151945">
        <time>2021-03-18T10:16:36Z</time>
      </trkpt>
      <trkpt lat="42.40580040594617" lon="2.796603293139437">
        <time>2021-03-18T10:16:36Z</time>
      </trkpt>
      <trkpt lat="42.40677100141627" lon="2.795315280748594">
        <time>2021-03-18T10:16:36Z</time>
      </trkpt>
      <trkpt lat="42.408496930177" lon="2.795098499761732">
        <time>2021-03-18T10:16:36Z</time>
      </trkpt>
      <trkpt lat="42.409801906584" lon="2.791659660380119">
        <time>2021-03-18T10:16:36Z</time>
      </trkpt>
      <trkpt lat="42.41000657656902" lon="2.789704589891857">
        <time>2021-03-18T10:16:36Z</time>
      </trkpt>
      <trkpt lat="42.41098725977485" lon="2.788947813090033">
        <time>2021-03-18T10:16:36Z</time>
      </trkpt>
      <trkpt lat="42.41121496905777" lon="2.788116587298775">
        <time>2021-03-18T10:16:36Z</time>
      </trkpt>
      <trkpt lat="42.41125224931179" lon="2.787446732450385">
        <time>2021-03-18T10:16:36Z</time>
      </trkpt>
      <trkpt lat="42.41170792066021" lon="2.786749329714824">
        <time>2021-03-18T10:16:36Z</time>
      </trkpt>
      <trkpt lat="42.41172989244236" lon="2.785966963245374">
        <time>2021-03-18T10:16:36Z</time>
      </trkpt>
      <trkpt lat="42.41155557790551" lon="2.785643887192584">
        <time>2021-03-18T10:16:36Z</time>
      </trkpt>
      <trkpt lat="42.41162277617043" lon="2.785014271079538">
        <time>2021-03-18T10:16:36Z</time>
      </trkpt>
      <trkpt lat="42.41132334336383" lon="2.784507380217793">
        <time>2021-03-18T10:16:36Z</time>
      </trkpt>
      <trkpt lat="42.41147122528028" lon="2.784000860400904">
        <time>2021-03-18T10:16:36Z</time>
      </trkpt>
      <trkpt lat="42.41088228140333" lon="2.783011402860602">
        <time>2021-03-18T10:16:36Z</time>
      </trkpt>
      <trkpt lat="42.41211043143029" lon="2.783390718664329">
        <time>2021-03-18T10:16:36Z</time>
      </trkpt>
      <trkpt lat="42.41317979158031" lon="2.783508454295953">
        <time>2021-03-18T10:16:36Z</time>
      </trkpt>
      <trkpt lat="42.4139744600755" lon="2.783042589856948">
        <time>2021-03-18T10:16:36Z</time>
      </trkpt>
      <trkpt lat="42.41469826936491" lon="2.782841457105414">
        <time>2021-03-18T10:16:36Z</time>
      </trkpt>
      <trkpt lat="42.41492402599194" lon="2.782210023277529">
        <time>2021-03-18T10:16:36Z</time>
      </trkpt>
      <trkpt lat="42.41481020716866" lon="2.781401546087414">
        <time>2021-03-18T10:16:36Z</time>
      </trkpt>
      <trkpt lat="42.41417561328868" lon="2.780599633353758">
        <time>2021-03-18T10:16:36Z</time>
      </trkpt>
      <trkpt lat="42.4132754139088" lon="2.780898294820215">
        <time>2021-03-18T10:16:36Z</time>
      </trkpt>
      <trkpt lat="42.41265621378546" lon="2.781024073655403">
        <time>2021-03-18T10:16:36Z</time>
      </trkpt>
      <trkpt lat="42.4123052104652" lon="2.780773538224342">
        <time>2021-03-18T10:16:36Z</time>
      </trkpt>
      <trkpt lat="42.41199059196362" lon="2.779982407105726">
        <time>2021-03-18T10:16:36Z</time>
      </trkpt>
      <trkpt lat="42.41195095683055" lon="2.779343779286618">
        <time>2021-03-18T10:16:36Z</time>
      </trkpt>
      <trkpt lat="42.41118023844116" lon="2.778956935625434">
        <time>2021-03-18T10:16:36Z</time>
      </trkpt>
      <trkpt lat="42.41111693951696" lon="2.778384162474625">
        <time>2021-03-18T10:16:36Z</time>
      </trkpt>
      <trkpt lat="42.41132054623769" lon="2.77767787710032">
        <time>2021-03-18T10:16:36Z</time>
      </trkpt>
      <trkpt lat="42.41133470143914" lon="2.777177011663974">
        <time>2021-03-18T10:16:36Z</time>
      </trkpt>
      <trkpt lat="42.41206143719021" lon="2.775882044568299">
        <time>2021-03-18T10:16:36Z</time>
      </trkpt>
      <trkpt lat="42.41215684457892" lon="2.774190223984232">
        <time>2021-03-18T10:16:36Z</time>
      </trkpt>
      <trkpt lat="42.41180050201287" lon="2.773230504646731">
        <time>2021-03-18T10:16:36Z</time>
      </trkpt>
      <trkpt lat="42.41086726401038" lon="2.772695946801702">
        <time>2021-03-18T10:16:36Z</time>
      </trkpt>
      <trkpt lat="42.40951250647144" lon="2.772513559347363">
        <time>2021-03-18T10:16:36Z</time>
      </trkpt>
      <trkpt lat="42.40930248425433" lon="2.772294188563984">
        <time>2021-03-18T10:16:36Z</time>
      </trkpt>
      <trkpt lat="42.40927402802128" lon="2.772002447068882">
        <time>2021-03-18T10:16:36Z</time>
      </trkpt>
      <trkpt lat="42.40998315607913" lon="2.771324941136246">
        <time>2021-03-18T10:16:36Z</time>
      </trkpt>
      <trkpt lat="42.41052257448497" lon="2.770242459470962">
        <time>2021-03-18T10:16:36Z</time>
      </trkpt>
      <trkpt lat="42.41105192063671" lon="2.769900672376116">
        <time>2021-03-18T10:16:36Z</time>
      </trkpt>
      <trkpt lat="42.41148107195134" lon="2.769247391792247">
        <time>2021-03-18T10:16:36Z</time>
      </trkpt>
      <trkpt lat="42.41165954520244" lon="2.765589632999355">
        <time>2021-03-18T10:16:36Z</time>
      </trkpt>
      <trkpt lat="42.41206648530952" lon="2.764883740049282">
        <time>2021-03-18T10:16:36Z</time>
      </trkpt>
      <trkpt lat="42.41215996194407" lon="2.763778949325038">
        <time>2021-03-18T10:16:36Z</time>
      </trkpt>
      <trkpt lat="42.4131093445645" lon="2.76153179113569">
        <time>2021-03-18T10:16:36Z</time>
      </trkpt>
      <trkpt lat="42.41417462614622" lon="2.760447766240302">
        <time>2021-03-18T10:16:36Z</time>
      </trkpt>
      <trkpt lat="42.41428318427213" lon="2.759902826907403">
        <time>2021-03-18T10:16:36Z</time>
      </trkpt>
      <trkpt lat="42.41402060123988" lon="2.75891173011183">
        <time>2021-03-18T10:16:36Z</time>
      </trkpt>
      <trkpt lat="42.41480888729296" lon="2.757328152384622">
        <time>2021-03-18T10:16:36Z</time>
      </trkpt>
      <trkpt lat="42.41497500648234" lon="2.755610239604651">
        <time>2021-03-18T10:16:36Z</time>
      </trkpt>
      <trkpt lat="42.41679274969476" lon="2.75303617506891">
        <time>2021-03-18T10:16:36Z</time>
      </trkpt>
      <trkpt lat="42.41888162482189" lon="2.750252073851183">
        <time>2021-03-18T10:16:36Z</time>
      </trkpt>
      <trkpt lat="42.41983288182854" lon="2.74957948117305">
        <time>2021-03-18T10:16:36Z</time>
      </trkpt>
      <trkpt lat="42.42048269231709" lon="2.748563499586809">
        <time>2021-03-18T10:16:36Z</time>
      </trkpt>
      <trkpt lat="42.42173534998885" lon="2.747400386722547">
        <time>2021-03-18T10:16:36Z</time>
      </trkpt>
      <trkpt lat="42.42092414856383" lon="2.749280408165451">
        <time>2021-03-18T10:16:36Z</time>
      </trkpt>
      <trkpt lat="42.42089652637607" lon="2.749255327617732">
        <time>2021-03-18T10:17:09Z</time>
      </trkpt>
      <trkpt lat="42.42174764149148" lon="2.747579351788114">
        <time>2021-03-18T10:17:09Z</time>
      </trkpt>
      <trkpt lat="42.42061050053331" lon="2.74820393755608">
        <time>2021-03-18T10:17:09Z</time>
      </trkpt>
      <trkpt lat="42.42013496127973" lon="2.749902928341459">
        <time>2021-03-18T10:17:09Z</time>
      </trkpt>
      <trkpt lat="42.41889473790454" lon="2.750364158417131">
        <time>2021-03-18T10:17:09Z</time>
      </trkpt>
      <trkpt lat="42.41702440041281" lon="2.752970806747395">
        <time>2021-03-18T10:17:09Z</time>
      </trkpt>
      <trkpt lat="42.41574773621032" lon="2.753858830979044">
        <time>2021-03-18T10:17:09Z</time>
      </trkpt>
      <trkpt lat="42.41493414547709" lon="2.755741227223063">
        <time>2021-03-18T10:17:09Z</time>
      </trkpt>
      <trkpt lat="42.41448272076719" lon="2.755737474715259">
        <time>2021-03-18T10:17:09Z</time>
      </trkpt>
      <trkpt lat="42.41399957068582" lon="2.756049675973544">
        <time>2021-03-18T10:17:09Z</time>
      </trkpt>
      <trkpt lat="42.41356858185017" lon="2.75628368658825">
        <time>2021-03-18T10:17:09Z</time>
      </trkpt>
      <trkpt lat="42.41322863849108" lon="2.756411647939145">
        <time>2021-03-18T10:17:09Z</time>
      </trkpt>
      <trkpt lat="42.41283691486854" lon="2.756462719672548">
        <time>2021-03-18T10:17:09Z</time>
      </trkpt>
      <trkpt lat="42.41237277807215" lon="2.756611602310106">
        <time>2021-03-18T10:17:09Z</time>
      </trkpt>
      <trkpt lat="42.41215363423147" lon="2.757018473417752">
        <time>2021-03-18T10:17:09Z</time>
      </trkpt>
      <trkpt lat="42.41202397513326" lon="2.757026748487441">
        <time>2021-03-18T10:17:09Z</time>
      </trkpt>
      <trkpt lat="42.41176612327948" lon="2.75769812773242">
        <time>2021-03-18T10:17:09Z</time>
      </trkpt>
      <trkpt lat="42.41150983636825" lon="2.758018421706463">
        <time>2021-03-18T10:17:09Z</time>
      </trkpt>
      <trkpt lat="42.41150319231953" lon="2.758275560808134">
        <time>2021-03-18T10:17:09Z</time>
      </trkpt>
      <trkpt lat="42.41122366569741" lon="2.758534401901314">
        <time>2021-03-18T10:17:09Z</time>
      </trkpt>
      <trkpt lat="42.41084780617891" lon="2.758308144570103">
        <time>2021-03-18T10:17:09Z</time>
      </trkpt>
      <trkpt lat="42.41075459054179" lon="2.758418993993284">
        <time>2021-03-18T10:17:09Z</time>
      </trkpt>
      <trkpt lat="42.41065303532429" lon="2.758476432028731">
        <time>2021-03-18T10:17:09Z</time>
      </trkpt>
      <trkpt lat="42.41067687863284" lon="2.758598820612119">
        <time>2021-03-18T10:17:09Z</time>
      </trkpt>
      <trkpt lat="42.41061615164988" lon="2.758891093334304">
        <time>2021-03-18T10:17:09Z</time>
      </trkpt>
      <trkpt lat="42.41066312303279" lon="2.758943628178598">
        <time>2021-03-18T10:17:09Z</time>
      </trkpt>
      <trkpt lat="42.41068034980653" lon="2.759000123138269">
        <time>2021-03-18T10:17:09Z</time>
      </trkpt>
      <trkpt lat="42.41067760709043" lon="2.75905294727929">
        <time>2021-03-18T10:17:09Z</time>
      </trkpt>
      <trkpt lat="42.4105365607084" lon="2.759145621730184">
        <time>2021-03-18T10:17:09Z</time>
      </trkpt>
      <trkpt lat="42.41064824440247" lon="2.75944808359242">
        <time>2021-03-18T10:17:09Z</time>
      </trkpt>
      <trkpt lat="42.41048458075579" lon="2.759618723814072">
        <time>2021-03-18T10:17:09Z</time>
      </trkpt>
      <trkpt lat="42.41036951608467" lon="2.759591291242198">
        <time>2021-03-18T10:17:09Z</time>
      </trkpt>
      <trkpt lat="42.41032840019448" lon="2.759975139678934">
        <time>2021-03-18T10:17:09Z</time>
      </trkpt>
      <trkpt lat="42.41035007409291" lon="2.760111296928829">
        <time>2021-03-18T10:17:09Z</time>
      </trkpt>
      <trkpt lat="42.4099904003965" lon="2.760571232407871">
        <time>2021-03-18T10:17:09Z</time>
      </trkpt>
      <trkpt lat="42.40960826853711" lon="2.760101053250483">
        <time>2021-03-18T10:17:09Z</time>
      </trkpt>
      <trkpt lat="42.40943548818783" lon="2.759935225714041">
        <time>2021-03-18T10:17:09Z</time>
      </trkpt>
      <trkpt lat="42.40933032225555" lon="2.759407544178194">
        <time>2021-03-18T10:17:09Z</time>
      </trkpt>
      <trkpt lat="42.40936006361505" lon="2.759077861213166">
        <time>2021-03-18T10:17:09Z</time>
      </trkpt>
      <trkpt lat="42.40924280286993" lon="2.759076710775301">
        <time>2021-03-18T10:17:09Z</time>
      </trkpt>
      <trkpt lat="42.40916517307057" lon="2.759246010854037">
        <time>2021-03-18T10:17:09Z</time>
      </trkpt>
      <trkpt lat="42.40906173468324" lon="2.759358395250267">
        <time>2021-03-18T10:17:09Z</time>
      </trkpt>
      <trkpt lat="42.40908213299989" lon="2.759030581769346">
        <time>2021-03-18T10:17:09Z</time>
      </trkpt>
      <trkpt lat="42.40891607575475" lon="2.758666936647471">
        <time>2021-03-18T10:17:09Z</time>
      </trkpt>
      <trkpt lat="42.40893694410127" lon="2.758496493703493">
        <time>2021-03-18T10:17:09Z</time>
      </trkpt>
      <trkpt lat="42.40886137092269" lon="2.758209496474351">
        <time>2021-03-18T10:17:09Z</time>
      </trkpt>
      <trkpt lat="42.40859252083555" lon="2.758500470538854">
        <time>2021-03-18T10:17:09Z</time>
      </trkpt>
      <trkpt lat="42.40845652633291" lon="2.75882176663858">
        <time>2021-03-18T10:17:09Z</time>
      </trkpt>
      <trkpt lat="42.40815309211185" lon="2.759279149021647">
        <time>2021-03-18T10:17:09Z</time>
      </trkpt>
      <trkpt lat="42.40824386846607" lon="2.758341203532311">
        <time>2021-03-18T10:17:09Z</time>
      </trkpt>
      <trkpt lat="42.40786735283231" lon="2.758565881607955">
        <time>2021-03-18T10:17:09Z</time>
      </trkpt>
      <trkpt lat="42.40762807547461" lon="2.758649406993023">
        <time>2021-03-18T10:17:09Z</time>
      </trkpt>
      <trkpt lat="42.40748999379026" lon="2.75907637516732">
        <time>2021-03-18T10:17:09Z</time>
      </trkpt>
      <trkpt lat="42.40738914688064" lon="2.759959342335661">
        <time>2021-03-18T10:17:09Z</time>
      </trkpt>
      <trkpt lat="42.40722228467488" lon="2.760304585179574">
        <time>2021-03-18T10:17:09Z</time>
      </trkpt>
      <trkpt lat="42.40703582649238" lon="2.76089138271008">
        <time>2021-03-18T10:17:09Z</time>
      </trkpt>
      <trkpt lat="42.40694857808904" lon="2.761031892749104">
        <time>2021-03-18T10:17:09Z</time>
      </trkpt>
      <trkpt lat="42.40686007771567" lon="2.760882501037822">
        <time>2021-03-18T10:17:09Z</time>
      </trkpt>
      <trkpt lat="42.40640883182577" lon="2.760769808945545">
        <time>2021-03-18T10:17:09Z</time>
      </trkpt>
      <trkpt lat="42.40611924229572" lon="2.760732734735343">
        <time>2021-03-18T10:17:09Z</time>
      </trkpt>
      <trkpt lat="42.40601895028627" lon="2.760596370779955">
        <time>2021-03-18T10:17:09Z</time>
      </trkpt>
      <trkpt lat="42.4056006104522" lon="2.760790190424669">
        <time>2021-03-18T10:17:09Z</time>
      </trkpt>
      <trkpt lat="42.40555790698882" lon="2.76094171113251">
        <time>2021-03-18T10:17:09Z</time>
      </trkpt>
      <trkpt lat="42.40571600343523" lon="2.761665737655346">
        <time>2021-03-18T10:17:09Z</time>
      </trkpt>
      <trkpt lat="42.40558481613168" lon="2.762081429930487">
        <time>2021-03-18T10:17:09Z</time>
      </trkpt>
      <trkpt lat="42.40499883028519" lon="2.762388959706292">
        <time>2021-03-18T10:17:09Z</time>
      </trkpt>
      <trkpt lat="42.40437218528239" lon="2.762417140261921">
        <time>2021-03-18T10:17:09Z</time>
      </trkpt>
      <trkpt lat="42.40417151280448" lon="2.762286108396144">
        <time>2021-03-18T10:17:09Z</time>
      </trkpt>
      <trkpt lat="42.40403217541876" lon="2.762362609891522">
        <time>2021-03-18T10:17:09Z</time>
      </trkpt>
      <trkpt lat="42.40386820498716" lon="2.761936812039885">
        <time>2021-03-18T10:17:09Z</time>
      </trkpt>
      <trkpt lat="42.4030501076041" lon="2.76184702867792">
        <time>2021-03-18T10:17:09Z</time>
      </trkpt>
      <trkpt lat="42.40281329200621" lon="2.762118115410981">
        <time>2021-03-18T10:17:09Z</time>
      </trkpt>
      <trkpt lat="42.40267835819959" lon="2.761963786829766">
        <time>2021-03-18T10:17:09Z</time>
      </trkpt>
      <trkpt lat="42.40271879890113" lon="2.761709114749062">
        <time>2021-03-18T10:17:09Z</time>
      </trkpt>
      <trkpt lat="42.40261917836808" lon="2.761552292347678">
        <time>2021-03-18T10:17:09Z</time>
      </trkpt>
      <trkpt lat="42.4023872109726" lon="2.761827823355467">
        <time>2021-03-18T10:17:09Z</time>
      </trkpt>
      <trkpt lat="42.40206194082528" lon="2.761502662570909">
        <time>2021-03-18T10:17:09Z</time>
      </trkpt>
      <trkpt lat="42.40153916612416" lon="2.761788191931525">
        <time>2021-03-18T10:17:09Z</time>
      </trkpt>
      <trkpt lat="42.40132335722179" lon="2.761933667260708">
        <time>2021-03-18T10:17:09Z</time>
      </trkpt>
      <trkpt lat="42.40098369461027" lon="2.762075109843134">
        <time>2021-03-18T10:17:09Z</time>
      </trkpt>
      <trkpt lat="42.40059967252275" lon="2.761631655620291">
        <time>2021-03-18T10:17:09Z</time>
      </trkpt>
      <trkpt lat="42.4004566764296" lon="2.761672958696131">
        <time>2021-03-18T10:17:09Z</time>
      </trkpt>
      <trkpt lat="42.39994688587889" lon="2.761210324101198">
        <time>2021-03-18T10:17:09Z</time>
      </trkpt>
      <trkpt lat="42.39976991574807" lon="2.761157160914785">
        <time>2021-03-18T10:17:09Z</time>
      </trkpt>
      <trkpt lat="42.39962851099398" lon="2.760885483595124">
        <time>2021-03-18T10:17:09Z</time>
      </trkpt>
      <trkpt lat="42.39880697339861" lon="2.761451327147577">
        <time>2021-03-18T10:17:09Z</time>
      </trkpt>
      <trkpt lat="42.39819536499295" lon="2.76237818196909">
        <time>2021-03-18T10:17:09Z</time>
      </trkpt>
      <trkpt lat="42.39819430788172" lon="2.762706905403962">
        <time>2021-03-18T10:17:09Z</time>
      </trkpt>
      <trkpt lat="42.39759922213211" lon="2.762860013973545">
        <time>2021-03-18T10:17:09Z</time>
      </trkpt>
      <trkpt lat="42.39682241276802" lon="2.762576399759311">
        <time>2021-03-18T10:17:09Z</time>
      </trkpt>
      <trkpt lat="42.39604282695991" lon="2.763331799978948">
        <time>2021-03-18T10:17:09Z</time>
      </trkpt>
      <trkpt lat="42.39552053443482" lon="2.763109454690507">
        <time>2021-03-18T10:17:09Z</time>
      </trkpt>
      <trkpt lat="42.3950556121269" lon="2.763471555036474">
        <time>2021-03-18T10:17:09Z</time>
      </trkpt>
      <trkpt lat="42.39479864587264" lon="2.763921317611737">
        <time>2021-03-18T10:17:09Z</time>
      </trkpt>
      <trkpt lat="42.3940458589238" lon="2.763896740738641">
        <time>2021-03-18T10:17:09Z</time>
      </trkpt>
      <trkpt lat="42.39376430540104" lon="2.764185758086695">
        <time>2021-03-18T10:17:09Z</time>
      </trkpt>
      <trkpt lat="42.39289144376539" lon="2.764075977590101">
        <time>2021-03-18T10:17:09Z</time>
      </trkpt>
      <trkpt lat="42.39221987113706" lon="2.764645817288529">
        <time>2021-03-18T10:17:09Z</time>
      </trkpt>
      <trkpt lat="42.39195812294513" lon="2.764422325803171">
        <time>2021-03-18T10:17:09Z</time>
      </trkpt>
      <trkpt lat="42.39154343680265" lon="2.765135322658228">
        <time>2021-03-18T10:17:09Z</time>
      </trkpt>
      <trkpt lat="42.39087424958234" lon="2.765197533272628">
        <time>2021-03-18T10:17:09Z</time>
      </trkpt>
      <trkpt lat="42.39033868195391" lon="2.764071476760572">
        <time>2021-03-18T10:17:09Z</time>
      </trkpt>
      <trkpt lat="42.38919526864031" lon="2.764246867136635">
        <time>2021-03-18T10:17:09Z</time>
      </trkpt>
      <trkpt lat="42.38779082924525" lon="2.762935354244547">
        <time>2021-03-18T10:17:09Z</time>
      </trkpt>
      <trkpt lat="42.38737633472803" lon="2.761948762524726">
        <time>2021-03-18T10:17:09Z</time>
      </trkpt>
      <trkpt lat="42.38787308976816" lon="2.760176334224438">
        <time>2021-03-18T10:17:09Z</time>
      </trkpt>
      <trkpt lat="42.38781246246559" lon="2.759490400213067">
        <time>2021-03-18T10:17:09Z</time>
      </trkpt>
      <trkpt lat="42.38717901733889" lon="2.758954965060292">
        <time>2021-03-18T10:17:09Z</time>
      </trkpt>
      <trkpt lat="42.38576053582179" lon="2.753802177447557">
        <time>2021-03-18T10:17:09Z</time>
      </trkpt>
      <trkpt lat="42.38684649675703" lon="2.752059697267393">
        <time>2021-03-18T10:17:09Z</time>
      </trkpt>
      <trkpt lat="42.38636921823783" lon="2.748656836308001">
        <time>2021-03-18T10:17:09Z</time>
      </trkpt>
      <trkpt lat="42.38616033562855" lon="2.748333872857078">
        <time>2021-03-18T10:17:09Z</time>
      </trkpt>
      <trkpt lat="42.38597103862841" lon="2.747065781624858">
        <time>2021-03-18T10:17:09Z</time>
      </trkpt>
      <trkpt lat="42.38573235520632" lon="2.746958438576008">
        <time>2021-03-18T10:17:09Z</time>
      </trkpt>
      <trkpt lat="42.38538802549978" lon="2.746602189756424">
        <time>2021-03-18T10:17:09Z</time>
      </trkpt>
      <trkpt lat="42.38507981797551" lon="2.74692051192345">
        <time>2021-03-18T10:17:09Z</time>
      </trkpt>
      <trkpt lat="42.38465037943043" lon="2.746148249067146">
        <time>2021-03-18T10:17:09Z</time>
      </trkpt>
      <trkpt lat="42.38430365342251" lon="2.746493383688688">
        <time>2021-03-18T10:17:09Z</time>
      </trkpt>
      <trkpt lat="42.38407982572577" lon="2.746923481765202">
        <time>2021-03-18T10:17:09Z</time>
      </trkpt>
      <trkpt lat="42.3835842329045" lon="2.747301998287868">
        <time>2021-03-18T10:17:09Z</time>
      </trkpt>
      <trkpt lat="42.38317593213427" lon="2.74751496702933">
        <time>2021-03-18T10:17:09Z</time>
      </trkpt>
      <trkpt lat="42.38307491477853" lon="2.747823674652994">
        <time>2021-03-18T10:17:09Z</time>
      </trkpt>
      <trkpt lat="42.38264879472083" lon="2.74913037821245">
        <time>2021-03-18T10:17:09Z</time>
      </trkpt>
      <trkpt lat="42.38223667256204" lon="2.749254479530472">
        <time>2021-03-18T10:17:09Z</time>
      </trkpt>
      <trkpt lat="42.38029519602717" lon="2.749824400131964">
        <time>2021-03-18T10:17:09Z</time>
      </trkpt>
      <trkpt lat="42.37945717617565" lon="2.750860915718325">
        <time>2021-03-18T10:17:09Z</time>
      </trkpt>
      <trkpt lat="42.37824917232932" lon="2.749965728070296">
        <time>2021-03-18T10:17:09Z</time>
      </trkpt>
      <trkpt lat="42.37697273168367" lon="2.750406493936781">
        <time>2021-03-18T10:17:09Z</time>
      </trkpt>
      <trkpt lat="42.37717287100455" lon="2.74946720168842">
        <time>2021-03-18T10:17:09Z</time>
      </trkpt>
      <trkpt lat="42.37708381949891" lon="2.74826540109296">
        <time>2021-03-18T10:17:09Z</time>
      </trkpt>
      <trkpt lat="42.37604148250155" lon="2.747099788076113">
        <time>2021-03-18T10:17:09Z</time>
      </trkpt>
      <trkpt lat="42.37560058782034" lon="2.749004198318856">
        <time>2021-03-18T10:17:09Z</time>
      </trkpt>
      <trkpt lat="42.37530725686673" lon="2.748373188504596">
        <time>2021-03-18T10:17:09Z</time>
      </trkpt>
      <trkpt lat="42.37384924945567" lon="2.749431090592167">
        <time>2021-03-18T10:17:09Z</time>
      </trkpt>
      <trkpt lat="42.37290902134387" lon="2.750689637769441">
        <time>2021-03-18T10:17:09Z</time>
      </trkpt>
      <trkpt lat="42.37147112222746" lon="2.753865152289758">
        <time>2021-03-18T10:17:09Z</time>
      </trkpt>
      <trkpt lat="42.36899734192786" lon="2.755487804113026">
        <time>2021-03-18T10:17:09Z</time>
      </trkpt>
      <trkpt lat="42.36842214801029" lon="2.755342090601509">
        <time>2021-03-18T10:17:09Z</time>
      </trkpt>
      <trkpt lat="42.36801293626725" lon="2.754696986277769">
        <time>2021-03-18T10:17:09Z</time>
      </trkpt>
      <trkpt lat="42.36717384469057" lon="2.755920252900126">
        <time>2021-03-18T10:17:09Z</time>
      </trkpt>
      <trkpt lat="42.36627085371718" lon="2.754632731603028">
        <time>2021-03-18T10:17:09Z</time>
      </trkpt>
      <trkpt lat="42.36593729834456" lon="2.754780644420243">
        <time>2021-03-18T10:17:09Z</time>
      </trkpt>
      <trkpt lat="42.36494441403033" lon="2.754910614625961">
        <time>2021-03-18T10:17:09Z</time>
      </trkpt>
      <trkpt lat="42.36473424939853" lon="2.754056479278531">
        <time>2021-03-18T10:17:09Z</time>
      </trkpt>
      <trkpt lat="42.36414723966338" lon="2.754080167755231">
        <time>2021-03-18T10:17:09Z</time>
      </trkpt>
      <trkpt lat="42.36362446003651" lon="2.753694206805031">
        <time>2021-03-18T10:17:09Z</time>
      </trkpt>
      <trkpt lat="42.36332651735373" lon="2.754853015850032">
        <time>2021-03-18T10:17:09Z</time>
      </trkpt>
      <trkpt lat="42.36304674399965" lon="2.754664709979395">
        <time>2021-03-18T10:17:09Z</time>
      </trkpt>
      <trkpt lat="42.36238252606186" lon="2.753024909018178">
        <time>2021-03-18T10:17:09Z</time>
      </trkpt>
      <trkpt lat="42.36273884330202" lon="2.75279794008559">
        <time>2021-03-18T10:17:09Z</time>
      </trkpt>
      <trkpt lat="42.3631066659725" lon="2.752004154861178">
        <time>2021-03-18T10:17:09Z</time>
      </trkpt>
      <trkpt lat="42.36386643678165" lon="2.749909077246504">
        <time>2021-03-18T10:17:09Z</time>
      </trkpt>
      <trkpt lat="42.36333535347031" lon="2.748515717368327">
        <time>2021-03-18T10:17:09Z</time>
      </trkpt>
      <trkpt lat="42.36341678073699" lon="2.746293998866476">
        <time>2021-03-18T10:17:09Z</time>
      </trkpt>
      <trkpt lat="42.36357021792546" lon="2.745300135798752">
        <time>2021-03-18T10:17:09Z</time>
      </trkpt>
      <trkpt lat="42.36415176250198" lon="2.743908709526211">
        <time>2021-03-18T10:17:09Z</time>
      </trkpt>
      <trkpt lat="42.36527512285417" lon="2.742736254645408">
        <time>2021-03-18T10:17:09Z</time>
      </trkpt>
      <trkpt lat="42.36511338879624" lon="2.740641967899624">
        <time>2021-03-18T10:17:09Z</time>
      </trkpt>
      <trkpt lat="42.36572496200235" lon="2.740018813810234">
        <time>2021-03-18T10:17:09Z</time>
      </trkpt>
      <trkpt lat="42.36571114219187" lon="2.739186631633706">
        <time>2021-03-18T10:17:09Z</time>
      </trkpt>
      <trkpt lat="42.36536000986917" lon="2.737548522090694">
        <time>2021-03-18T10:17:09Z</time>
      </trkpt>
      <trkpt lat="42.36516181345537" lon="2.737510926784885">
        <time>2021-03-18T10:17:09Z</time>
      </trkpt>
      <trkpt lat="42.36492967904126" lon="2.738056892686434">
        <time>2021-03-18T10:17:09Z</time>
      </trkpt>
      <trkpt lat="42.36463607381581" lon="2.738367438710549">
        <time>2021-03-18T10:17:09Z</time>
      </trkpt>
      <trkpt lat="42.36430483212177" lon="2.738902937330197">
        <time>2021-03-18T10:17:09Z</time>
      </trkpt>
      <trkpt lat="42.36422556699237" lon="2.738944558159919">
        <time>2021-03-18T10:17:09Z</time>
      </trkpt>
      <trkpt lat="42.36429780700372" lon="2.739469332186193">
        <time>2021-03-18T10:17:09Z</time>
      </trkpt>
      <trkpt lat="42.36419549629378" lon="2.739497808316667">
        <time>2021-03-18T10:17:09Z</time>
      </trkpt>
      <trkpt lat="42.36397888776171" lon="2.739096198450124">
        <time>2021-03-18T10:17:09Z</time>
      </trkpt>
      <trkpt lat="42.364183088212" lon="2.737970787244197">
        <time>2021-03-18T10:17:09Z</time>
      </trkpt>
      <trkpt lat="42.36396221724359" lon="2.737687587498723">
        <time>2021-03-18T10:17:09Z</time>
      </trkpt>
      <trkpt lat="42.3631121778735" lon="2.73738356103358">
        <time>2021-03-18T10:17:09Z</time>
      </trkpt>
      <trkpt lat="42.36310603546199" lon="2.736722013218511">
        <time>2021-03-18T10:17:09Z</time>
      </trkpt>
      <trkpt lat="42.36256991900382" lon="2.737572952389737">
        <time>2021-03-18T10:17:09Z</time>
      </trkpt>
      <trkpt lat="42.36219906868206" lon="2.736067765927448">
        <time>2021-03-18T10:17:09Z</time>
      </trkpt>
      <trkpt lat="42.36207484240339" lon="2.732433235899827">
        <time>2021-03-18T10:17:09Z</time>
      </trkpt>
      <trkpt lat="42.36256421338828" lon="2.731023452266954">
        <time>2021-03-18T10:17:09Z</time>
      </trkpt>
      <trkpt lat="42.36243732545451" lon="2.729808908904312">
        <time>2021-03-18T10:17:09Z</time>
      </trkpt>
      <trkpt lat="42.36269567209524" lon="2.728919952772226">
        <time>2021-03-18T10:17:09Z</time>
      </trkpt>
      <trkpt lat="42.36370226747372" lon="2.728456130062247">
        <time>2021-03-18T10:17:09Z</time>
      </trkpt>
      <trkpt lat="42.36360306269231" lon="2.727994033007746">
        <time>2021-03-18T10:17:09Z</time>
      </trkpt>
      <trkpt lat="42.36304390497302" lon="2.728091817157783">
        <time>2021-03-18T10:17:09Z</time>
      </trkpt>
      <trkpt lat="42.36287378136289" lon="2.728213265187816">
        <time>2021-03-18T10:17:09Z</time>
      </trkpt>
      <trkpt lat="42.36248148255589" lon="2.728183226797001">
        <time>2021-03-18T10:17:09Z</time>
      </trkpt>
      <trkpt lat="42.36158179556169" lon="2.727955285373485">
        <time>2021-03-18T10:17:09Z</time>
      </trkpt>
      <trkpt lat="42.36137770626491" lon="2.727789113219288">
        <time>2021-03-18T10:17:09Z</time>
      </trkpt>
      <trkpt lat="42.36165468920141" lon="2.727693015883899">
        <time>2021-03-18T10:17:09Z</time>
      </trkpt>
      <trkpt lat="42.36229420735828" lon="2.727326968674275">
        <time>2021-03-18T10:17:09Z</time>
      </trkpt>
      <trkpt lat="42.36239780189553" lon="2.727092413723953">
        <time>2021-03-18T10:17:09Z</time>
      </trkpt>
      <trkpt lat="42.36222371446318" lon="2.726472487054394">
        <time>2021-03-18T10:17:09Z</time>
      </trkpt>
      <trkpt lat="42.36226097090948" lon="2.725299065467417">
        <time>2021-03-18T10:17:09Z</time>
      </trkpt>
      <trkpt lat="42.36247406716841" lon="2.72399136994441">
        <time>2021-03-18T10:17:09Z</time>
      </trkpt>
      <trkpt lat="42.36207935601591" lon="2.723137893938521">
        <time>2021-03-18T10:17:09Z</time>
      </trkpt>
      <trkpt lat="42.3615893151576" lon="2.722654764277843">
        <time>2021-03-18T10:17:09Z</time>
      </trkpt>
      <trkpt lat="42.36157860728588" lon="2.721990156073513">
        <time>2021-03-18T10:17:09Z</time>
      </trkpt>
      <trkpt lat="42.361292952733" lon="2.721998515460595">
        <time>2021-03-18T10:17:09Z</time>
      </trkpt>
      <trkpt lat="42.36049404266586" lon="2.72159803528961">
        <time>2021-03-18T10:17:09Z</time>
      </trkpt>
      <trkpt lat="42.36053443348146" lon="2.721030497063375">
        <time>2021-03-18T10:17:09Z</time>
      </trkpt>
      <trkpt lat="42.36084750739947" lon="2.720478818319327">
        <time>2021-03-18T10:17:09Z</time>
      </trkpt>
      <trkpt lat="42.36086369955332" lon="2.719829058918004">
        <time>2021-03-18T10:17:09Z</time>
      </trkpt>
      <trkpt lat="42.36010741727658" lon="2.717455713150689">
        <time>2021-03-18T10:17:09Z</time>
      </trkpt>
      <trkpt lat="42.36027539016152" lon="2.716430642267034">
        <time>2021-03-18T10:17:09Z</time>
      </trkpt>
      <trkpt lat="42.35967111217997" lon="2.715268350526301">
        <time>2021-03-18T10:17:09Z</time>
      </trkpt>
      <trkpt lat="42.35971399595242" lon="2.713133621357307">
        <time>2021-03-18T10:17:09Z</time>
      </trkpt>
      <trkpt lat="42.35948049444843" lon="2.712690622705105">
        <time>2021-03-18T10:17:09Z</time>
      </trkpt>
      <trkpt lat="42.3617690213586" lon="2.709671064302728">
        <time>2021-03-18T10:17:09Z</time>
      </trkpt>
      <trkpt lat="42.36204741960981" lon="2.708452277791513">
        <time>2021-03-18T10:17:09Z</time>
      </trkpt>
      <trkpt lat="42.36260843721901" lon="2.70798974434419">
        <time>2021-03-18T10:17:09Z</time>
      </trkpt>
      <trkpt lat="42.36299374602218" lon="2.70716269393795">
        <time>2021-03-18T10:17:09Z</time>
      </trkpt>
      <trkpt lat="42.36324237718846" lon="2.704980093811358">
        <time>2021-03-18T10:17:09Z</time>
      </trkpt>
      <trkpt lat="42.36284694456733" lon="2.70469157046932">
        <time>2021-03-18T10:17:09Z</time>
      </trkpt>
      <trkpt lat="42.36276590080068" lon="2.703784384632268">
        <time>2021-03-18T10:17:09Z</time>
      </trkpt>
      <trkpt lat="42.36354527696007" lon="2.701953411506952">
        <time>2021-03-18T10:17:09Z</time>
      </trkpt>
      <trkpt lat="42.36368457084261" lon="2.700789257756313">
        <time>2021-03-18T10:17:09Z</time>
      </trkpt>
      <trkpt lat="42.36506150589761" lon="2.69878371807031">
        <time>2021-03-18T10:17:09Z</time>
      </trkpt>
      <trkpt lat="42.3655566172874" lon="2.697112668495896">
        <time>2021-03-18T10:17:09Z</time>
      </trkpt>
      <trkpt lat="42.36502731818066" lon="2.69633788631918">
        <time>2021-03-18T10:17:09Z</time>
      </trkpt>
      <trkpt lat="42.36475868238883" lon="2.694483873317937">
        <time>2021-03-18T10:17:09Z</time>
      </trkpt>
      <trkpt lat="42.36509351363839" lon="2.69392404712955">
        <time>2021-03-18T10:17:09Z</time>
      </trkpt>
      <trkpt lat="42.36465790237658" lon="2.690944311604868">
        <time>2021-03-18T10:17:09Z</time>
      </trkpt>
      <trkpt lat="42.36456697091326" lon="2.688081173260737">
        <time>2021-03-18T10:17:09Z</time>
      </trkpt>
      <trkpt lat="42.36582135832424" lon="2.686160164375353">
        <time>2021-03-18T10:17:09Z</time>
      </trkpt>
      <trkpt lat="42.36630151526671" lon="2.682413508837656">
        <time>2021-03-18T10:17:09Z</time>
      </trkpt>
      <trkpt lat="42.36745123079401" lon="2.679436580722838">
        <time>2021-03-18T10:17:09Z</time>
      </trkpt>
      <trkpt lat="42.36754140138725" lon="2.678015829903806">
        <time>2021-03-18T10:17:09Z</time>
      </trkpt>
      <trkpt lat="42.3666870626466" lon="2.676858996891343">
        <time>2021-03-18T10:17:09Z</time>
      </trkpt>
      <trkpt lat="42.36645598457516" lon="2.675607571306544">
        <time>2021-03-18T10:17:09Z</time>
      </trkpt>
      <trkpt lat="42.363357681266" lon="2.674302175836925">
        <time>2021-03-18T10:17:09Z</time>
      </trkpt>
      <trkpt lat="42.36388610219609" lon="2.673093863190605">
        <time>2021-03-18T10:17:09Z</time>
      </trkpt>
      <trkpt lat="42.36675132622044" lon="2.672500606011823">
        <time>2021-03-18T10:17:09Z</time>
      </trkpt>
      <trkpt lat="42.36641775613088" lon="2.667215022304428">
        <time>2021-03-18T10:17:09Z</time>
      </trkpt>
      <trkpt lat="42.36706881865187" lon="2.663749863806908">
        <time>2021-03-18T10:17:09Z</time>
      </trkpt>
      <trkpt lat="42.36727441700552" lon="2.662072354525584">
        <time>2021-03-18T10:17:09Z</time>
      </trkpt>
      <trkpt lat="42.36807532694115" lon="2.661043833632151">
        <time>2021-03-18T10:17:09Z</time>
      </trkpt>
      <trkpt lat="42.36811431397947" lon="2.65383197579709">
        <time>2021-03-18T10:17:09Z</time>
      </trkpt>
      <trkpt lat="42.36764537808706" lon="2.653841339863752">
        <time>2021-03-18T10:17:09Z</time>
      </trkpt>
      <trkpt lat="42.36578121451664" lon="2.657218964110024">
        <time>2021-03-18T10:17:09Z</time>
      </trkpt>
      <trkpt lat="42.36377052846838" lon="2.658161141210982">
        <time>2021-03-18T10:17:09Z</time>
      </trkpt>
      <trkpt lat="42.36550366898325" lon="2.656554633320845">
        <time>2021-03-18T10:17:09Z</time>
      </trkpt>
      <trkpt lat="42.36618963007356" lon="2.654217278252111">
        <time>2021-03-18T10:17:09Z</time>
      </trkpt>
      <trkpt lat="42.36635646727859" lon="2.651983911636426">
        <time>2021-03-18T10:17:09Z</time>
      </trkpt>
      <trkpt lat="42.36699293488702" lon="2.649889914956713">
        <time>2021-03-18T10:17:09Z</time>
      </trkpt>
      <trkpt lat="42.36623462481423" lon="2.650400092757639">
        <time>2021-03-18T10:17:09Z</time>
      </trkpt>
      <trkpt lat="42.36483170797114" lon="2.648603679556705">
        <time>2021-03-18T10:17:09Z</time>
      </trkpt>
      <trkpt lat="42.36414532132446" lon="2.648568846567252">
        <time>2021-03-18T10:17:09Z</time>
      </trkpt>
      <trkpt lat="42.36346470099167" lon="2.647708524323187">
        <time>2021-03-18T10:17:09Z</time>
      </trkpt>
      <trkpt lat="42.36348804650378" lon="2.647145807663498">
        <time>2021-03-18T10:17:09Z</time>
      </trkpt>
      <trkpt lat="42.3628075283115" lon="2.646488408133085">
        <time>2021-03-18T10:17:09Z</time>
      </trkpt>
      <trkpt lat="42.36270945976467" lon="2.645432239805969">
        <time>2021-03-18T10:17:09Z</time>
      </trkpt>
      <trkpt lat="42.36213017461724" lon="2.644912066814589">
        <time>2021-03-18T10:17:09Z</time>
      </trkpt>
      <trkpt lat="42.3626515092494" lon="2.64393312109614">
        <time>2021-03-18T10:17:09Z</time>
      </trkpt>
      <trkpt lat="42.36289301092942" lon="2.642470408948936">
        <time>2021-03-18T10:17:09Z</time>
      </trkpt>
      <trkpt lat="42.36243182545333" lon="2.64238075446392">
        <time>2021-03-18T10:17:09Z</time>
      </trkpt>
      <trkpt lat="42.36199684568789" lon="2.640280668497232">
        <time>2021-03-18T10:17:09Z</time>
      </trkpt>
      <trkpt lat="42.36166035264349" lon="2.639864930787095">
        <time>2021-03-18T10:17:09Z</time>
      </trkpt>
      <trkpt lat="42.36158870477809" lon="2.639243506206781">
        <time>2021-03-18T10:17:09Z</time>
      </trkpt>
      <trkpt lat="42.36189062900375" lon="2.638608748214872">
        <time>2021-03-18T10:17:09Z</time>
      </trkpt>
      <trkpt lat="42.36188860207707" lon="2.637909320585559">
        <time>2021-03-18T10:17:09Z</time>
      </trkpt>
      <trkpt lat="42.36242012276458" lon="2.637585698653207">
        <time>2021-03-18T10:17:09Z</time>
      </trkpt>
      <trkpt lat="42.36267576275955" lon="2.635884911680169">
        <time>2021-03-18T10:17:09Z</time>
      </trkpt>
      <trkpt lat="42.36241951473009" lon="2.635071290666646">
        <time>2021-03-18T10:17:09Z</time>
      </trkpt>
      <trkpt lat="42.36087127326024" lon="2.635888883736233">
        <time>2021-03-18T10:17:09Z</time>
      </trkpt>
      <trkpt lat="42.36006036370145" lon="2.635987695779121">
        <time>2021-03-18T10:17:09Z</time>
      </trkpt>
      <trkpt lat="42.35875500014491" lon="2.63544123721682">
        <time>2021-03-18T10:17:09Z</time>
      </trkpt>
      <trkpt lat="42.35893063464267" lon="2.634066263223178">
        <time>2021-03-18T10:17:09Z</time>
      </trkpt>
      <trkpt lat="42.35918153757806" lon="2.633811291578261">
        <time>2021-03-18T10:17:09Z</time>
      </trkpt>
      <trkpt lat="42.36000438071724" lon="2.632243281711353">
        <time>2021-03-18T10:17:09Z</time>
      </trkpt>
      <trkpt lat="42.36097852758335" lon="2.630673138735116">
        <time>2021-03-18T10:17:09Z</time>
      </trkpt>
      <trkpt lat="42.36102003220481" lon="2.629940911546773">
        <time>2021-03-18T10:17:09Z</time>
      </trkpt>
      <trkpt lat="42.36041387558075" lon="2.629744392998539">
        <time>2021-03-18T10:17:09Z</time>
      </trkpt>
      <trkpt lat="42.36100052204564" lon="2.62887852674832">
        <time>2021-03-18T10:17:09Z</time>
      </trkpt>
      <trkpt lat="42.36053040184721" lon="2.626743323772731">
        <time>2021-03-18T10:17:09Z</time>
      </trkpt>
      <trkpt lat="42.3622199667449" lon="2.62742174935908">
        <time>2021-03-18T10:17:09Z</time>
      </trkpt>
      <trkpt lat="42.36259004132597" lon="2.627045550589484">
        <time>2021-03-18T10:17:09Z</time>
      </trkpt>
      <trkpt lat="42.36217093244574" lon="2.626023272850004">
        <time>2021-03-18T10:17:09Z</time>
      </trkpt>
      <trkpt lat="42.36313413343491" lon="2.625540948576344">
        <time>2021-03-18T10:17:09Z</time>
      </trkpt>
      <trkpt lat="42.36427896749067" lon="2.625823513142809">
        <time>2021-03-18T10:17:09Z</time>
      </trkpt>
      <trkpt lat="42.36434548968939" lon="2.623727638517857">
        <time>2021-03-18T10:17:09Z</time>
      </trkpt>
      <trkpt lat="42.36476862231295" lon="2.623778369782306">
        <time>2021-03-18T10:17:09Z</time>
      </trkpt>
      <trkpt lat="42.36567098284552" lon="2.624098814469931">
        <time>2021-03-18T10:17:09Z</time>
      </trkpt>
      <trkpt lat="42.36776747134581" lon="2.619457665269853">
        <time>2021-03-18T10:17:09Z</time>
      </trkpt>
      <trkpt lat="42.36939751191133" lon="2.620809857056194">
        <time>2021-03-18T10:17:09Z</time>
      </trkpt>
      <trkpt lat="42.36773443123999" lon="2.617932559352818">
        <time>2021-03-18T10:17:09Z</time>
      </trkpt>
      <trkpt lat="42.36644415929382" lon="2.617695803730551">
        <time>2021-03-18T10:17:09Z</time>
      </trkpt>
      <trkpt lat="42.36787564368974" lon="2.616963331235134">
        <time>2021-03-18T10:17:09Z</time>
      </trkpt>
      <trkpt lat="42.36877377366192" lon="2.61652559258029">
        <time>2021-03-18T10:17:09Z</time>
      </trkpt>
      <trkpt lat="42.36669520864158" lon="2.616328739458946">
        <time>2021-03-18T10:17:09Z</time>
      </trkpt>
      <trkpt lat="42.36598363698001" lon="2.615608328760151">
        <time>2021-03-18T10:17:09Z</time>
      </trkpt>
      <trkpt lat="42.36620524170274" lon="2.611626724041143">
        <time>2021-03-18T10:17:09Z</time>
      </trkpt>
      <trkpt lat="42.36662578883756" lon="2.610454211168249">
        <time>2021-03-18T10:17:09Z</time>
      </trkpt>
      <trkpt lat="42.36647486941377" lon="2.608211723278928">
        <time>2021-03-18T10:17:09Z</time>
      </trkpt>
      <trkpt lat="42.36700719441058" lon="2.605730091826335">
        <time>2021-03-18T10:17:09Z</time>
      </trkpt>
      <trkpt lat="42.36678563309113" lon="2.604180909880709">
        <time>2021-03-18T10:17:09Z</time>
      </trkpt>
      <trkpt lat="42.36736624764549" lon="2.602444967997788">
        <time>2021-03-18T10:17:09Z</time>
      </trkpt>
      <trkpt lat="42.36651093992493" lon="2.602885396161108">
        <time>2021-03-18T10:17:09Z</time>
      </trkpt>
      <trkpt lat="42.36589665089672" lon="2.601531329654447">
        <time>2021-03-18T10:17:09Z</time>
      </trkpt>
      <trkpt lat="42.36484894011595" lon="2.600407509293516">
        <time>2021-03-18T10:17:09Z</time>
      </trkpt>
      <trkpt lat="42.36509627325791" lon="2.597894596748067">
        <time>2021-03-18T10:17:09Z</time>
      </trkpt>
      <trkpt lat="42.3645888267009" lon="2.597601513708969">
        <time>2021-03-18T10:17:09Z</time>
      </trkpt>
      <trkpt lat="42.36480998163754" lon="2.597103570597705">
        <time>2021-03-18T10:17:09Z</time>
      </trkpt>
      <trkpt lat="42.36450230884649" lon="2.596353135431797">
        <time>2021-03-18T10:17:09Z</time>
      </trkpt>
      <trkpt lat="42.36467694048072" lon="2.595207565001481">
        <time>2021-03-18T10:17:09Z</time>
      </trkpt>
      <trkpt lat="42.36439620035552" lon="2.594629105867907">
        <time>2021-03-18T10:17:09Z</time>
      </trkpt>
      <trkpt lat="42.36463965802656" lon="2.594004768498603">
        <time>2021-03-18T10:17:09Z</time>
      </trkpt>
      <trkpt lat="42.36409221820077" lon="2.592489317642739">
        <time>2021-03-18T10:17:09Z</time>
      </trkpt>
      <trkpt lat="42.36455710031368" lon="2.589719681567335">
        <time>2021-03-18T10:17:09Z</time>
      </trkpt>
      <trkpt lat="42.36398519240247" lon="2.587377015253738">
        <time>2021-03-18T10:17:09Z</time>
      </trkpt>
      <trkpt lat="42.36367683944714" lon="2.58650094673345">
        <time>2021-03-18T10:17:09Z</time>
      </trkpt>
      <trkpt lat="42.3638691156231" lon="2.585424777869407">
        <time>2021-03-18T10:17:09Z</time>
      </trkpt>
      <trkpt lat="42.36391995046565" lon="2.58440468479022">
        <time>2021-03-18T10:17:09Z</time>
      </trkpt>
      <trkpt lat="42.364634372914" lon="2.583728591798389">
        <time>2021-03-18T10:17:09Z</time>
      </trkpt>
      <trkpt lat="42.36403868197235" lon="2.58317684337332">
        <time>2021-03-18T10:17:09Z</time>
      </trkpt>
      <trkpt lat="42.36386770378553" lon="2.58232267823526">
        <time>2021-03-18T10:17:09Z</time>
      </trkpt>
      <trkpt lat="42.36345086099266" lon="2.580745419241308">
        <time>2021-03-18T10:17:09Z</time>
      </trkpt>
      <trkpt lat="42.3629203409579" lon="2.581706287860999">
        <time>2021-03-18T10:17:09Z</time>
      </trkpt>
      <trkpt lat="42.36201603522407" lon="2.581642574690339">
        <time>2021-03-18T10:17:09Z</time>
      </trkpt>
      <trkpt lat="42.36204404987891" lon="2.58228457142851">
        <time>2021-03-18T10:17:09Z</time>
      </trkpt>
      <trkpt lat="42.36173594445608" lon="2.58292370841033">
        <time>2021-03-18T10:17:09Z</time>
      </trkpt>
      <trkpt lat="42.36179235073987" lon="2.581947314079902">
        <time>2021-03-18T10:17:09Z</time>
      </trkpt>
      <trkpt lat="42.36162493029246" lon="2.581423469952406">
        <time>2021-03-18T10:17:09Z</time>
      </trkpt>
      <trkpt lat="42.36112296080336" lon="2.582245226964843">
        <time>2021-03-18T10:17:09Z</time>
      </trkpt>
      <trkpt lat="42.36081733534751" lon="2.58231262271982">
        <time>2021-03-18T10:17:09Z</time>
      </trkpt>
      <trkpt lat="42.35970073571153" lon="2.583276897061115">
        <time>2021-03-18T10:17:09Z</time>
      </trkpt>
      <trkpt lat="42.35916381251106" lon="2.58325990060805">
        <time>2021-03-18T10:17:09Z</time>
      </trkpt>
      <trkpt lat="42.3577240785975" lon="2.584017873690589">
        <time>2021-03-18T10:17:09Z</time>
      </trkpt>
      <trkpt lat="42.35884859717227" lon="2.582733360214284">
        <time>2021-03-18T10:17:09Z</time>
      </trkpt>
      <trkpt lat="42.35947416803792" lon="2.582534952797329">
        <time>2021-03-18T10:17:09Z</time>
      </trkpt>
      <trkpt lat="42.36004848240093" lon="2.580982238583265">
        <time>2021-03-18T10:17:09Z</time>
      </trkpt>
      <trkpt lat="42.360064277564" lon="2.579982059195614">
        <time>2021-03-18T10:17:09Z</time>
      </trkpt>
      <trkpt lat="42.36156810303707" lon="2.578838777158872">
        <time>2021-03-18T10:17:09Z</time>
      </trkpt>
      <trkpt lat="42.36136794496812" lon="2.578218170515176">
        <time>2021-03-18T10:17:09Z</time>
      </trkpt>
      <trkpt lat="42.36078130090556" lon="2.577375676337534">
        <time>2021-03-18T10:17:09Z</time>
      </trkpt>
      <trkpt lat="42.36321719690233" lon="2.575771069846615">
        <time>2021-03-18T10:17:09Z</time>
      </trkpt>
      <trkpt lat="42.3628117218421" lon="2.574578439163604">
        <time>2021-03-18T10:17:09Z</time>
      </trkpt>
      <trkpt lat="42.36184690176333" lon="2.573191954408418">
        <time>2021-03-18T10:17:09Z</time>
      </trkpt>
      <trkpt lat="42.36210256330408" lon="2.572521677591748">
        <time>2021-03-18T10:17:09Z</time>
      </trkpt>
      <trkpt lat="42.36390968428425" lon="2.573086257245476">
        <time>2021-03-18T10:17:09Z</time>
      </trkpt>
      <trkpt lat="42.36473832623142" lon="2.572550412884793">
        <time>2021-03-18T10:17:09Z</time>
      </trkpt>
      <trkpt lat="42.3639633946927" lon="2.571282082012065">
        <time>2021-03-18T10:17:09Z</time>
      </trkpt>
      <trkpt lat="42.36286618851055" lon="2.570521272103172">
        <time>2021-03-18T10:17:09Z</time>
      </trkpt>
      <trkpt lat="42.36511890400119" lon="2.569682157064259">
        <time>2021-03-18T10:17:09Z</time>
      </trkpt>
      <trkpt lat="42.36535204434685" lon="2.568710430642052">
        <time>2021-03-18T10:17:09Z</time>
      </trkpt>
      <trkpt lat="42.36666241738684" lon="2.567884117354977">
        <time>2021-03-18T10:17:09Z</time>
      </trkpt>
      <trkpt lat="42.36685697428275" lon="2.567487711343481">
        <time>2021-03-18T10:17:09Z</time>
      </trkpt>
      <trkpt lat="42.36654833493696" lon="2.564411752481042">
        <time>2021-03-18T10:17:09Z</time>
      </trkpt>
      <trkpt lat="42.36831071656895" lon="2.564311065609841">
        <time>2021-03-18T10:17:09Z</time>
      </trkpt>
      <trkpt lat="42.37001310631025" lon="2.565406896773832">
        <time>2021-03-18T10:17:09Z</time>
      </trkpt>
      <trkpt lat="42.37049423677991" lon="2.562505082321185">
        <time>2021-03-18T10:17:09Z</time>
      </trkpt>
      <trkpt lat="42.36852059241004" lon="2.55958308787702">
        <time>2021-03-18T10:17:09Z</time>
      </trkpt>
      <trkpt lat="42.37013376183065" lon="2.561035881292568">
        <time>2021-03-18T10:17:09Z</time>
      </trkpt>
      <trkpt lat="42.37165322043104" lon="2.560966279839247">
        <time>2021-03-18T10:17:09Z</time>
      </trkpt>
      <trkpt lat="42.37307352779748" lon="2.559324205248446">
        <time>2021-03-18T10:17:09Z</time>
      </trkpt>
      <trkpt lat="42.37136207062343" lon="2.559904145736798">
        <time>2021-03-18T10:17:09Z</time>
      </trkpt>
      <trkpt lat="42.37086460299321" lon="2.560059036971816">
        <time>2021-03-18T10:17:09Z</time>
      </trkpt>
      <trkpt lat="42.37019038707948" lon="2.557975904937926">
        <time>2021-03-18T10:17:09Z</time>
      </trkpt>
      <trkpt lat="42.36879660904263" lon="2.556998316129042">
        <time>2021-03-18T10:17:09Z</time>
      </trkpt>
      <trkpt lat="42.36915858077584" lon="2.55208643318638">
        <time>2021-03-18T10:17:09Z</time>
      </trkpt>
      <trkpt lat="42.36755381055109" lon="2.550332514897016">
        <time>2021-03-18T10:17:09Z</time>
      </trkpt>
      <trkpt lat="42.3674054494111" lon="2.549561816722896">
        <time>2021-03-18T10:17:09Z</time>
      </trkpt>
      <trkpt lat="42.3680201617973" lon="2.548998999052328">
        <time>2021-03-18T10:17:09Z</time>
      </trkpt>
      <trkpt lat="42.37342115656406" lon="2.550459832339165">
        <time>2021-03-18T10:17:09Z</time>
      </trkpt>
      <trkpt lat="42.37473447564101" lon="2.551435129953195">
        <time>2021-03-18T10:17:09Z</time>
      </trkpt>
      <trkpt lat="42.37586863844228" lon="2.550228295936314">
        <time>2021-03-18T10:17:09Z</time>
      </trkpt>
      <trkpt lat="42.37492468755268" lon="2.547654796625061">
        <time>2021-03-18T10:17:09Z</time>
      </trkpt>
      <trkpt lat="42.37464834417686" lon="2.54576124470294">
        <time>2021-03-18T10:17:09Z</time>
      </trkpt>
      <trkpt lat="42.37852912015416" lon="2.549493924832267">
        <time>2021-03-18T10:17:09Z</time>
      </trkpt>
      <trkpt lat="42.37969344740599" lon="2.547457796749908">
        <time>2021-03-18T10:17:09Z</time>
      </trkpt>
      <trkpt lat="42.3817599138392" lon="2.547155674731865">
        <time>2021-03-18T10:17:09Z</time>
      </trkpt>
      <trkpt lat="42.38608877057918" lon="2.548241416132451">
        <time>2021-03-18T10:17:09Z</time>
      </trkpt>
      <trkpt lat="42.38612154524685" lon="2.548948946123586">
        <time>2021-03-18T10:17:09Z</time>
      </trkpt>
      <trkpt lat="42.38688293548145" lon="2.547783542387052">
        <time>2021-03-18T10:17:09Z</time>
      </trkpt>
      <trkpt lat="42.38688162495222" lon="2.547293896067882">
        <time>2021-03-18T10:17:09Z</time>
      </trkpt>
      <trkpt lat="42.38783655775213" lon="2.547560182765793">
        <time>2021-03-18T10:17:09Z</time>
      </trkpt>
      <trkpt lat="42.38799877279448" lon="2.548382118083721">
        <time>2021-03-18T10:17:09Z</time>
      </trkpt>
      <trkpt lat="42.38880754133543" lon="2.548711888711146">
        <time>2021-03-18T10:17:09Z</time>
      </trkpt>
      <trkpt lat="42.38911856242655" lon="2.548236327560647">
        <time>2021-03-18T10:17:09Z</time>
      </trkpt>
      <trkpt lat="42.38923253628209" lon="2.547759248621093">
        <time>2021-03-18T10:17:09Z</time>
      </trkpt>
      <trkpt lat="42.39018082317915" lon="2.548499513489058">
        <time>2021-03-18T10:17:09Z</time>
      </trkpt>
      <trkpt lat="42.39114565622099" lon="2.55019611478555">
        <time>2021-03-18T10:17:09Z</time>
      </trkpt>
      <trkpt lat="42.39153367287715" lon="2.54955340104752">
        <time>2021-03-18T10:17:09Z</time>
      </trkpt>
      <trkpt lat="42.39126471533518" lon="2.548354186614383">
        <time>2021-03-18T10:17:09Z</time>
      </trkpt>
      <trkpt lat="42.38946017913991" lon="2.546889931103202">
        <time>2021-03-18T10:17:09Z</time>
      </trkpt>
      <trkpt lat="42.39100289579483" lon="2.547015378079569">
        <time>2021-03-18T10:17:09Z</time>
      </trkpt>
      <trkpt lat="42.38936124925689" lon="2.546216059339692">
        <time>2021-03-18T10:17:09Z</time>
      </trkpt>
      <trkpt lat="42.38957210420316" lon="2.544832036197799">
        <time>2021-03-18T10:17:09Z</time>
      </trkpt>
      <trkpt lat="42.38784941448972" lon="2.54477406981013">
        <time>2021-03-18T10:17:09Z</time>
      </trkpt>
      <trkpt lat="42.38727397130682" lon="2.541954689160086">
        <time>2021-03-18T10:17:09Z</time>
      </trkpt>
      <trkpt lat="42.38424163101168" lon="2.540556734111326">
        <time>2021-03-18T10:17:09Z</time>
      </trkpt>
      <trkpt lat="42.38556896789221" lon="2.53774782393583">
        <time>2021-03-18T10:17:09Z</time>
      </trkpt>
      <trkpt lat="42.38555576363326" lon="2.536732111032405">
        <time>2021-03-18T10:17:09Z</time>
      </trkpt>
      <trkpt lat="42.38621023867705" lon="2.534421574442929">
        <time>2021-03-18T10:17:09Z</time>
      </trkpt>
      <trkpt lat="42.385297761513" lon="2.533441833749475">
        <time>2021-03-18T10:17:09Z</time>
      </trkpt>
      <trkpt lat="42.38526836671223" lon="2.531691467134745">
        <time>2021-03-18T10:17:09Z</time>
      </trkpt>
      <trkpt lat="42.38444563469771" lon="2.530000490909381">
        <time>2021-03-18T10:17:09Z</time>
      </trkpt>
      <trkpt lat="42.38316217947092" lon="2.529935614218521">
        <time>2021-03-18T10:17:09Z</time>
      </trkpt>
      <trkpt lat="42.3836365611566" lon="2.527723391631145">
        <time>2021-03-18T10:17:09Z</time>
      </trkpt>
      <trkpt lat="42.37985499562567" lon="2.526412838489256">
        <time>2021-03-18T10:17:09Z</time>
      </trkpt>
      <trkpt lat="42.37813005133893" lon="2.527134409139247">
        <time>2021-03-18T10:17:09Z</time>
      </trkpt>
      <trkpt lat="42.37802617060608" lon="2.527538636573992">
        <time>2021-03-18T10:17:09Z</time>
      </trkpt>
      <trkpt lat="42.37751034825544" lon="2.527586059050557">
        <time>2021-03-18T10:17:09Z</time>
      </trkpt>
      <trkpt lat="42.37692731245556" lon="2.527445179179089">
        <time>2021-03-18T10:17:09Z</time>
      </trkpt>
      <trkpt lat="42.37638135269132" lon="2.52761101106761">
        <time>2021-03-18T10:17:09Z</time>
      </trkpt>
      <trkpt lat="42.3756341648382" lon="2.52732974740403">
        <time>2021-03-18T10:17:09Z</time>
      </trkpt>
      <trkpt lat="42.3751791345605" lon="2.52639397431925">
        <time>2021-03-18T10:17:09Z</time>
      </trkpt>
      <trkpt lat="42.37287924370251" lon="2.526533003133011">
        <time>2021-03-18T10:17:09Z</time>
      </trkpt>
      <trkpt lat="42.37171519666511" lon="2.52359720359308">
        <time>2021-03-18T10:17:09Z</time>
      </trkpt>
      <trkpt lat="42.37004564844368" lon="2.522398678261639">
        <time>2021-03-18T10:17:09Z</time>
      </trkpt>
      <trkpt lat="42.37017374764217" lon="2.520651178260456">
        <time>2021-03-18T10:17:09Z</time>
      </trkpt>
      <trkpt lat="42.36918459647346" lon="2.52043573194217">
        <time>2021-03-18T10:17:09Z</time>
      </trkpt>
      <trkpt lat="42.36816135977378" lon="2.520122580284485">
        <time>2021-03-18T10:17:09Z</time>
      </trkpt>
      <trkpt lat="42.36697721863607" lon="2.519062136344246">
        <time>2021-03-18T10:17:09Z</time>
      </trkpt>
      <trkpt lat="42.36571475200874" lon="2.519608334016297">
        <time>2021-03-18T10:17:09Z</time>
      </trkpt>
      <trkpt lat="42.36436977033545" lon="2.518494860805483">
        <time>2021-03-18T10:17:09Z</time>
      </trkpt>
      <trkpt lat="42.36199927568523" lon="2.518997725127365">
        <time>2021-03-18T10:17:09Z</time>
      </trkpt>
      <trkpt lat="42.36138641596344" lon="2.519823529916316">
        <time>2021-03-18T10:17:09Z</time>
      </trkpt>
      <trkpt lat="42.3604205207354" lon="2.5196611383532">
        <time>2021-03-18T10:17:09Z</time>
      </trkpt>
      <trkpt lat="42.35934409389989" lon="2.520864225061357">
        <time>2021-03-18T10:17:09Z</time>
      </trkpt>
      <trkpt lat="42.35922562380251" lon="2.520517886575486">
        <time>2021-03-18T10:17:09Z</time>
      </trkpt>
      <trkpt lat="42.35975226068029" lon="2.520035880509146">
        <time>2021-03-18T10:17:09Z</time>
      </trkpt>
      <trkpt lat="42.35940419392649" lon="2.518837058555239">
        <time>2021-03-18T10:17:09Z</time>
      </trkpt>
      <trkpt lat="42.35843875467632" lon="2.517707481926086">
        <time>2021-03-18T10:17:09Z</time>
      </trkpt>
      <trkpt lat="42.3572251264191" lon="2.516971692232533">
        <time>2021-03-18T10:17:09Z</time>
      </trkpt>
      <trkpt lat="42.35619211510444" lon="2.516311021158044">
        <time>2021-03-18T10:17:09Z</time>
      </trkpt>
      <trkpt lat="42.35508269175386" lon="2.516330803461639">
        <time>2021-03-18T10:17:09Z</time>
      </trkpt>
      <trkpt lat="42.35498007526699" lon="2.515086024111024">
        <time>2021-03-18T10:17:09Z</time>
      </trkpt>
      <trkpt lat="42.35551640962024" lon="2.515937403958286">
        <time>2021-03-18T10:17:09Z</time>
      </trkpt>
      <trkpt lat="42.35623883673558" lon="2.515893033119223">
        <time>2021-03-18T10:17:09Z</time>
      </trkpt>
      <trkpt lat="42.35748378529712" lon="2.516215308634497">
        <time>2021-03-18T10:17:09Z</time>
      </trkpt>
      <trkpt lat="42.35920658428048" lon="2.515144359639492">
        <time>2021-03-18T10:17:09Z</time>
      </trkpt>
      <trkpt lat="42.36000461513015" lon="2.516047467991234">
        <time>2021-03-18T10:17:09Z</time>
      </trkpt>
      <trkpt lat="42.3605100173923" lon="2.515575216652439">
        <time>2021-03-18T10:17:09Z</time>
      </trkpt>
      <trkpt lat="42.35963936257856" lon="2.512764366761815">
        <time>2021-03-18T10:17:09Z</time>
      </trkpt>
      <trkpt lat="42.36164252340691" lon="2.513285253810189">
        <time>2021-03-18T10:17:09Z</time>
      </trkpt>
      <trkpt lat="42.36414044779455" lon="2.513338478236336">
        <time>2021-03-18T10:17:09Z</time>
      </trkpt>
      <trkpt lat="42.36615002004339" lon="2.511220255948263">
        <time>2021-03-18T10:17:09Z</time>
      </trkpt>
      <trkpt lat="42.36299411567492" lon="2.505537558187747">
        <time>2021-03-18T10:17:09Z</time>
      </trkpt>
      <trkpt lat="42.36400054190452" lon="2.502322916891331">
        <time>2021-03-18T10:17:09Z</time>
      </trkpt>
      <trkpt lat="42.36288347862324" lon="2.499231833791429">
        <time>2021-03-18T10:17:09Z</time>
      </trkpt>
      <trkpt lat="42.36371205968079" lon="2.497659859681327">
        <time>2021-03-18T10:17:09Z</time>
      </trkpt>
      <trkpt lat="42.36339177256509" lon="2.497248073228671">
        <time>2021-03-18T10:17:09Z</time>
      </trkpt>
      <trkpt lat="42.36413300105671" lon="2.495753561280794">
        <time>2021-03-18T10:17:09Z</time>
      </trkpt>
      <trkpt lat="42.36395783517977" lon="2.493822955230447">
        <time>2021-03-18T10:17:09Z</time>
      </trkpt>
      <trkpt lat="42.35990911378756" lon="2.490932453788968">
        <time>2021-03-18T10:17:09Z</time>
      </trkpt>
      <trkpt lat="42.35970109952505" lon="2.490183728346262">
        <time>2021-03-18T10:17:09Z</time>
      </trkpt>
      <trkpt lat="42.35676107312666" lon="2.488544641006507">
        <time>2021-03-18T10:17:09Z</time>
      </trkpt>
      <trkpt lat="42.35691903545281" lon="2.487326130168777">
        <time>2021-03-18T10:17:09Z</time>
      </trkpt>
      <trkpt lat="42.35637708341491" lon="2.486217696472308">
        <time>2021-03-18T10:17:09Z</time>
      </trkpt>
      <trkpt lat="42.35701135111133" lon="2.485813806009054">
        <time>2021-03-18T10:17:09Z</time>
      </trkpt>
      <trkpt lat="42.35763032992414" lon="2.484722746127333">
        <time>2021-03-18T10:17:09Z</time>
      </trkpt>
      <trkpt lat="42.3575947500358" lon="2.483157617325091">
        <time>2021-03-18T10:17:09Z</time>
      </trkpt>
      <trkpt lat="42.35722821875689" lon="2.481969304690719">
        <time>2021-03-18T10:17:09Z</time>
      </trkpt>
      <trkpt lat="42.3584217479497" lon="2.483424949447051">
        <time>2021-03-18T10:17:09Z</time>
      </trkpt>
      <trkpt lat="42.35945224520826" lon="2.485748462047293">
        <time>2021-03-18T10:17:09Z</time>
      </trkpt>
      <trkpt lat="42.36025096764172" lon="2.486512483617442">
        <time>2021-03-18T10:17:09Z</time>
      </trkpt>
      <trkpt lat="42.36140387793269" lon="2.48699239685765">
        <time>2021-03-18T10:17:09Z</time>
      </trkpt>
      <trkpt lat="42.36331664203114" lon="2.48845997318915">
        <time>2021-03-18T10:17:09Z</time>
      </trkpt>
      <trkpt lat="42.3643506887675" lon="2.487568174098556">
        <time>2021-03-18T10:17:09Z</time>
      </trkpt>
      <trkpt lat="42.36549482181525" lon="2.487592240200187">
        <time>2021-03-18T10:17:09Z</time>
      </trkpt>
      <trkpt lat="42.36569643560335" lon="2.486169081988889">
        <time>2021-03-18T10:17:09Z</time>
      </trkpt>
      <trkpt lat="42.36621686081558" lon="2.485182529897709">
        <time>2021-03-18T10:17:09Z</time>
      </trkpt>
      <trkpt lat="42.3662113781842" lon="2.484091368888661">
        <time>2021-03-18T10:17:09Z</time>
      </trkpt>
      <trkpt lat="42.36468199733127" lon="2.483540340576222">
        <time>2021-03-18T10:17:09Z</time>
      </trkpt>
      <trkpt lat="42.36469848315387" lon="2.482459240824742">
        <time>2021-03-18T10:17:09Z</time>
      </trkpt>
      <trkpt lat="42.36335429409307" lon="2.481515633486575">
        <time>2021-03-18T10:17:09Z</time>
      </trkpt>
      <trkpt lat="42.36248312808006" lon="2.479610459573065">
        <time>2021-03-18T10:17:09Z</time>
      </trkpt>
      <trkpt lat="42.36268628301523" lon="2.476533846076199">
        <time>2021-03-18T10:17:09Z</time>
      </trkpt>
      <trkpt lat="42.36161187855763" lon="2.474377468340245">
        <time>2021-03-18T10:17:09Z</time>
      </trkpt>
      <trkpt lat="42.36184500711579" lon="2.472618213395823">
        <time>2021-03-18T10:17:09Z</time>
      </trkpt>
      <trkpt lat="42.36221553592089" lon="2.47178358443396">
        <time>2021-03-18T10:17:09Z</time>
      </trkpt>
      <trkpt lat="42.36255339387567" lon="2.469466545495265">
        <time>2021-03-18T10:17:09Z</time>
      </trkpt>
      <trkpt lat="42.36519443199408" lon="2.470885271370904">
        <time>2021-03-18T10:17:09Z</time>
      </trkpt>
      <trkpt lat="42.3664006328963" lon="2.465900303208266">
        <time>2021-03-18T10:17:09Z</time>
      </trkpt>
      <trkpt lat="42.36764799128579" lon="2.464872197320862">
        <time>2021-03-18T10:17:09Z</time>
      </trkpt>
      <trkpt lat="42.36817275343768" lon="2.464214980360149">
        <time>2021-03-18T10:17:09Z</time>
      </trkpt>
      <trkpt lat="42.36848491271476" lon="2.460898669266771">
        <time>2021-03-18T10:17:09Z</time>
      </trkpt>
      <trkpt lat="42.36949147967127" lon="2.460879600317292">
        <time>2021-03-18T10:17:09Z</time>
      </trkpt>
      <trkpt lat="42.36962174060382" lon="2.46193878522935">
        <time>2021-03-18T10:17:09Z</time>
      </trkpt>
      <trkpt lat="42.3700345877463" lon="2.462407490252203">
        <time>2021-03-18T10:17:09Z</time>
      </trkpt>
      <trkpt lat="42.3707760882581" lon="2.463299305311704">
        <time>2021-03-18T10:17:09Z</time>
      </trkpt>
      <trkpt lat="42.37091102130145" lon="2.463710566850428">
        <time>2021-03-18T10:17:09Z</time>
      </trkpt>
      <trkpt lat="42.37231231649685" lon="2.465176619064675">
        <time>2021-03-18T10:17:09Z</time>
      </trkpt>
      <trkpt lat="42.37317704650876" lon="2.464963375695333">
        <time>2021-03-18T10:17:09Z</time>
      </trkpt>
      <trkpt lat="42.37441343881388" lon="2.464295572280006">
        <time>2021-03-18T10:17:09Z</time>
      </trkpt>
      <trkpt lat="42.37425633996148" lon="2.463461381565462">
        <time>2021-03-18T10:17:09Z</time>
      </trkpt>
      <trkpt lat="42.37138941266696" lon="2.462645246372215">
        <time>2021-03-18T10:17:09Z</time>
      </trkpt>
      <trkpt lat="42.3716484188629" lon="2.462239895695451">
        <time>2021-03-18T10:17:09Z</time>
      </trkpt>
      <trkpt lat="42.37465249650586" lon="2.462079903378796">
        <time>2021-03-18T10:17:09Z</time>
      </trkpt>
      <trkpt lat="42.3747410294669" lon="2.461351036994768">
        <time>2021-03-18T10:17:09Z</time>
      </trkpt>
      <trkpt lat="42.37180777661958" lon="2.460871174550408">
        <time>2021-03-18T10:17:09Z</time>
      </trkpt>
      <trkpt lat="42.37004590143004" lon="2.457721556085071">
        <time>2021-03-18T10:17:09Z</time>
      </trkpt>
      <trkpt lat="42.36834634306251" lon="2.45675646525384">
        <time>2021-03-18T10:17:09Z</time>
      </trkpt>
      <trkpt lat="42.36714170126684" lon="2.456547761075361">
        <time>2021-03-18T10:17:09Z</time>
      </trkpt>
      <trkpt lat="42.36667088338278" lon="2.455170387757799">
        <time>2021-03-18T10:17:09Z</time>
      </trkpt>
      <trkpt lat="42.36610702468412" lon="2.454514177195251">
        <time>2021-03-18T10:17:09Z</time>
      </trkpt>
      <trkpt lat="42.36578183173106" lon="2.454336091618006">
        <time>2021-03-18T10:17:09Z</time>
      </trkpt>
      <trkpt lat="42.36583292738194" lon="2.453982292561334">
        <time>2021-03-18T10:17:09Z</time>
      </trkpt>
      <trkpt lat="42.36513089101754" lon="2.453487434486097">
        <time>2021-03-18T10:17:09Z</time>
      </trkpt>
      <trkpt lat="42.36497638089432" lon="2.452050237915264">
        <time>2021-03-18T10:17:09Z</time>
      </trkpt>
      <trkpt lat="42.36449271909479" lon="2.450747727659453">
        <time>2021-03-18T10:17:09Z</time>
      </trkpt>
      <trkpt lat="42.36408634769281" lon="2.449588572783668">
        <time>2021-03-18T10:17:09Z</time>
      </trkpt>
      <trkpt lat="42.3624458176728" lon="2.447993723791717">
        <time>2021-03-18T10:17:09Z</time>
      </trkpt>
      <trkpt lat="42.36028283351286" lon="2.446761714209944">
        <time>2021-03-18T10:17:09Z</time>
      </trkpt>
      <trkpt lat="42.35959993355225" lon="2.445152456135926">
        <time>2021-03-18T10:17:09Z</time>
      </trkpt>
      <trkpt lat="42.35846841598823" lon="2.444251634889429">
        <time>2021-03-18T10:17:09Z</time>
      </trkpt>
      <trkpt lat="42.35774826706401" lon="2.442782463153821">
        <time>2021-03-18T10:17:09Z</time>
      </trkpt>
      <trkpt lat="42.35630990935162" lon="2.440056541516267">
        <time>2021-03-18T10:17:09Z</time>
      </trkpt>
      <trkpt lat="42.35568584662234" lon="2.438576369187322">
        <time>2021-03-18T10:17:09Z</time>
      </trkpt>
      <trkpt lat="42.35623244572898" lon="2.437813032281297">
        <time>2021-03-18T10:17:09Z</time>
      </trkpt>
      <trkpt lat="42.355963445268" lon="2.436617018494769">
        <time>2021-03-18T10:17:09Z</time>
      </trkpt>
      <trkpt lat="42.35521858475963" lon="2.435782476459512">
        <time>2021-03-18T10:17:09Z</time>
      </trkpt>
      <trkpt lat="42.35457518435807" lon="2.4347555382277">
        <time>2021-03-18T10:17:09Z</time>
      </trkpt>
      <trkpt lat="42.35386289089247" lon="2.434659174317029">
        <time>2021-03-18T10:17:09Z</time>
      </trkpt>
      <trkpt lat="42.3534681913073" lon="2.434599096760939">
        <time>2021-03-18T10:17:09Z</time>
      </trkpt>
      <trkpt lat="42.35247521549105" lon="2.432831130317914">
        <time>2021-03-18T10:17:09Z</time>
      </trkpt>
      <trkpt lat="42.35104443550348" lon="2.431008083418313">
        <time>2021-03-18T10:17:09Z</time>
      </trkpt>
      <trkpt lat="42.35029173821956" lon="2.430396398412587">
        <time>2021-03-18T10:17:09Z</time>
      </trkpt>
      <trkpt lat="42.34948443510804" lon="2.43035901065088">
        <time>2021-03-18T10:17:09Z</time>
      </trkpt>
      <trkpt lat="42.34872364792982" lon="2.429980868371071">
        <time>2021-03-18T10:17:09Z</time>
      </trkpt>
      <trkpt lat="42.34656404485848" lon="2.430148232406122">
        <time>2021-03-18T10:17:09Z</time>
      </trkpt>
      <trkpt lat="42.34575597512809" lon="2.430314481309426">
        <time>2021-03-18T10:17:09Z</time>
      </trkpt>
      <trkpt lat="42.34528135061304" lon="2.429699221872368">
        <time>2021-03-18T10:17:09Z</time>
      </trkpt>
      <trkpt lat="42.34593917277872" lon="2.42837057703212">
        <time>2021-03-18T10:17:09Z</time>
      </trkpt>
      <trkpt lat="42.34625780101708" lon="2.427604661232277">
        <time>2021-03-18T10:17:09Z</time>
      </trkpt>
      <trkpt lat="42.34661112939954" lon="2.42695998471139">
        <time>2021-03-18T10:17:09Z</time>
      </trkpt>
      <trkpt lat="42.34726791305109" lon="2.424203562085521">
        <time>2021-03-18T10:17:09Z</time>
      </trkpt>
      <trkpt lat="42.34689294461839" lon="2.422873682272608">
        <time>2021-03-18T10:17:09Z</time>
      </trkpt>
      <trkpt lat="42.34728251143514" lon="2.422435762744228">
        <time>2021-03-18T10:17:09Z</time>
      </trkpt>
      <trkpt lat="42.34820715155442" lon="2.421749875750208">
        <time>2021-03-18T10:17:09Z</time>
      </trkpt>
      <trkpt lat="42.34821562378691" lon="2.420310093488873">
        <time>2021-03-18T10:17:09Z</time>
      </trkpt>
      <trkpt lat="42.34811405425257" lon="2.419544636121263">
        <time>2021-03-18T10:17:09Z</time>
      </trkpt>
      <trkpt lat="42.34819092297202" lon="2.418648358484214">
        <time>2021-03-18T10:17:09Z</time>
      </trkpt>
      <trkpt lat="42.34844397084507" lon="2.418321795485852">
        <time>2021-03-18T10:17:09Z</time>
      </trkpt>
      <trkpt lat="42.34850591098652" lon="2.418380793714314">
        <time>2021-03-18T10:17:09Z</time>
      </trkpt>
      <trkpt lat="42.34854225908995" lon="2.418246167298519">
        <time>2021-03-18T10:17:09Z</time>
      </trkpt>
      <trkpt lat="42.34866265346611" lon="2.418367079517216">
        <time>2021-03-18T10:17:09Z</time>
      </trkpt>
      <trkpt lat="42.34870411601552" lon="2.417959774483496">
        <time>2021-03-18T10:17:09Z</time>
      </trkpt>
      <trkpt lat="42.3486919045563" lon="2.417764634207118">
        <time>2021-03-18T10:17:09Z</time>
      </trkpt>
      <trkpt lat="42.34876059571277" lon="2.417072930987656">
        <time>2021-03-18T10:17:09Z</time>
      </trkpt>
      <trkpt lat="42.3490121694477" lon="2.416159808936504">
        <time>2021-03-18T10:17:09Z</time>
      </trkpt>
      <trkpt lat="42.34872036001572" lon="2.414836514873437">
        <time>2021-03-18T10:17:09Z</time>
      </trkpt>
      <trkpt lat="42.34856328465497" lon="2.414724554273267">
        <time>2021-03-18T10:17:09Z</time>
      </trkpt>
      <trkpt lat="42.34821431785402" lon="2.413910269998418">
        <time>2021-03-18T10:17:09Z</time>
      </trkpt>
      <trkpt lat="42.34790023758535" lon="2.413282851564671">
        <time>2021-03-18T10:17:09Z</time>
      </trkpt>
      <trkpt lat="42.34780432494128" lon="2.412938412499301">
        <time>2021-03-18T10:17:09Z</time>
      </trkpt>
      <trkpt lat="42.34788813564997" lon="2.412773295956583">
        <time>2021-03-18T10:17:09Z</time>
      </trkpt>
      <trkpt lat="42.34774522869353" lon="2.412286915205089">
        <time>2021-03-18T10:17:09Z</time>
      </trkpt>
      <trkpt lat="42.34791564161007" lon="2.411790312503988">
        <time>2021-03-18T10:17:09Z</time>
      </trkpt>
      <trkpt lat="42.34822945499503" lon="2.411701684230128">
        <time>2021-03-18T10:17:09Z</time>
      </trkpt>
      <trkpt lat="42.34821880219626" lon="2.411278607371741">
        <time>2021-03-18T10:17:09Z</time>
      </trkpt>
      <trkpt lat="42.34775501422416" lon="2.410882961443541">
        <time>2021-03-18T10:17:09Z</time>
      </trkpt>
      <trkpt lat="42.34746855345297" lon="2.410068169966233">
        <time>2021-03-18T10:17:09Z</time>
      </trkpt>
      <trkpt lat="42.34662150925658" lon="2.409263078152977">
        <time>2021-03-18T10:17:09Z</time>
      </trkpt>
      <trkpt lat="42.34561594065063" lon="2.409580005872045">
        <time>2021-03-18T10:17:09Z</time>
      </trkpt>
      <trkpt lat="42.3449986735037" lon="2.409587966228499">
        <time>2021-03-18T10:17:09Z</time>
      </trkpt>
      <trkpt lat="42.34414018719901" lon="2.40937906247958">
        <time>2021-03-18T10:17:09Z</time>
      </trkpt>
      <trkpt lat="42.34388772829362" lon="2.408940812363682">
        <time>2021-03-18T10:17:09Z</time>
      </trkpt>
      <trkpt lat="42.34334322547273" lon="2.409035666163357">
        <time>2021-03-18T10:17:09Z</time>
      </trkpt>
      <trkpt lat="42.34285331938535" lon="2.408707981449334">
        <time>2021-03-18T10:17:09Z</time>
      </trkpt>
      <trkpt lat="42.34226561132281" lon="2.408953326145154">
        <time>2021-03-18T10:17:09Z</time>
      </trkpt>
      <trkpt lat="42.34227107937677" lon="2.408344772717004">
        <time>2021-03-18T10:17:09Z</time>
      </trkpt>
      <trkpt lat="42.34206425581476" lon="2.40797716667108">
        <time>2021-03-18T10:17:09Z</time>
      </trkpt>
      <trkpt lat="42.34263920001048" lon="2.406649436044197">
        <time>2021-03-18T10:17:09Z</time>
      </trkpt>
      <trkpt lat="42.34260969684149" lon="2.407510114704938">
        <time>2021-03-18T10:17:09Z</time>
      </trkpt>
      <trkpt lat="42.34275854063265" lon="2.407577588363719">
        <time>2021-03-18T10:17:09Z</time>
      </trkpt>
      <trkpt lat="42.34305060668402" lon="2.406902514525229">
        <time>2021-03-18T10:17:09Z</time>
      </trkpt>
      <trkpt lat="42.34311646293491" lon="2.406285969684727">
        <time>2021-03-18T10:17:09Z</time>
      </trkpt>
      <trkpt lat="42.34246166127925" lon="2.40597419738499">
        <time>2021-03-18T10:17:09Z</time>
      </trkpt>
      <trkpt lat="42.34097715836677" lon="2.404038495307643">
        <time>2021-03-18T10:17:09Z</time>
      </trkpt>
      <trkpt lat="42.34199995028749" lon="2.40281478871087">
        <time>2021-03-18T10:17:09Z</time>
      </trkpt>
      <trkpt lat="42.34276928130451" lon="2.40134256323586">
        <time>2021-03-18T10:17:09Z</time>
      </trkpt>
      <trkpt lat="42.34170966534351" lon="2.401638596432456">
        <time>2021-03-18T10:17:09Z</time>
      </trkpt>
      <trkpt lat="42.34024474165199" lon="2.402188635344633">
        <time>2021-03-18T10:17:09Z</time>
      </trkpt>
      <trkpt lat="42.33940110319514" lon="2.399659393867877">
        <time>2021-03-18T10:17:09Z</time>
      </trkpt>
      <trkpt lat="42.33809446075767" lon="2.399342496805406">
        <time>2021-03-18T10:17:09Z</time>
      </trkpt>
      <trkpt lat="42.33960415694278" lon="2.397057047987969">
        <time>2021-03-18T10:17:09Z</time>
      </trkpt>
      <trkpt lat="42.33935261393653" lon="2.396284505008302">
        <time>2021-03-18T10:17:09Z</time>
      </trkpt>
      <trkpt lat="42.33609689877599" lon="2.399698001433921">
        <time>2021-03-18T10:17:09Z</time>
      </trkpt>
      <trkpt lat="42.33479087803973" lon="2.400373484631257">
        <time>2021-03-18T10:17:09Z</time>
      </trkpt>
      <trkpt lat="42.33402562726225" lon="2.401397289071443">
        <time>2021-03-18T10:17:09Z</time>
      </trkpt>
      <trkpt lat="42.33352019716655" lon="2.400784134627065">
        <time>2021-03-18T10:17:09Z</time>
      </trkpt>
      <trkpt lat="42.33382370760062" lon="2.398571453194487">
        <time>2021-03-18T10:17:09Z</time>
      </trkpt>
      <trkpt lat="42.33270027010948" lon="2.398203113560853">
        <time>2021-03-18T10:17:09Z</time>
      </trkpt>
      <trkpt lat="42.33149224888994" lon="2.398463650397698">
        <time>2021-03-18T10:17:09Z</time>
      </trkpt>
      <trkpt lat="42.32837184294139" lon="2.397190692061337">
        <time>2021-03-18T10:17:09Z</time>
      </trkpt>
      <trkpt lat="42.3275465529734" lon="2.397930917298443">
        <time>2021-03-18T10:17:09Z</time>
      </trkpt>
      <trkpt lat="42.32612126895283" lon="2.395738574353259">
        <time>2021-03-18T10:17:09Z</time>
      </trkpt>
      <trkpt lat="42.32522005108906" lon="2.390818085105069">
        <time>2021-03-18T10:17:09Z</time>
      </trkpt>
      <trkpt lat="42.32399818148119" lon="2.388371054115051">
        <time>2021-03-18T10:17:09Z</time>
      </trkpt>
      <trkpt lat="42.32330165112632" lon="2.387723054924824">
        <time>2021-03-18T10:17:09Z</time>
      </trkpt>
      <trkpt lat="42.32382759868423" lon="2.385788213562017">
        <time>2021-03-18T10:17:09Z</time>
      </trkpt>
      <trkpt lat="42.32330291048634" lon="2.383099751870228">
        <time>2021-03-18T10:17:09Z</time>
      </trkpt>
      <trkpt lat="42.32095569632769" lon="2.382645170932316">
        <time>2021-03-18T10:17:09Z</time>
      </trkpt>
      <trkpt lat="42.31584061936361" lon="2.376445543645136">
        <time>2021-03-18T10:17:09Z</time>
      </trkpt>
      <trkpt lat="42.31370449496172" lon="2.373511968495676">
        <time>2021-03-18T10:17:09Z</time>
      </trkpt>
      <trkpt lat="42.31318636286897" lon="2.370607871985466">
        <time>2021-03-18T10:17:09Z</time>
      </trkpt>
      <trkpt lat="42.31364158623474" lon="2.368622987433746">
        <time>2021-03-18T10:17:09Z</time>
      </trkpt>
      <trkpt lat="42.3136813788423" lon="2.365252443214918">
        <time>2021-03-18T10:17:09Z</time>
      </trkpt>
      <trkpt lat="42.31541148651997" lon="2.362751758005832">
        <time>2021-03-18T10:17:09Z</time>
      </trkpt>
      <trkpt lat="42.31695792133119" lon="2.360370118430077">
        <time>2021-03-18T10:17:09Z</time>
      </trkpt>
      <trkpt lat="42.31762019493691" lon="2.35802662111841">
        <time>2021-03-18T10:17:09Z</time>
      </trkpt>
      <trkpt lat="42.31813548796989" lon="2.352463474063249">
        <time>2021-03-18T10:17:09Z</time>
      </trkpt>
      <trkpt lat="42.31940291141237" lon="2.349612042931497">
        <time>2021-03-18T10:17:09Z</time>
      </trkpt>
      <trkpt lat="42.32100962783512" lon="2.345846731498651">
        <time>2021-03-18T10:17:09Z</time>
      </trkpt>
      <trkpt lat="42.31998593640116" lon="2.341985678289178">
        <time>2021-03-18T10:17:09Z</time>
      </trkpt>
      <trkpt lat="42.32030402555819" lon="2.341738764429959">
        <time>2021-03-18T10:17:09Z</time>
      </trkpt>
      <trkpt lat="42.32084869912271" lon="2.339732813178634">
        <time>2021-03-18T10:17:09Z</time>
      </trkpt>
      <trkpt lat="42.3219309312328" lon="2.338092800835425">
        <time>2021-03-18T10:17:09Z</time>
      </trkpt>
      <trkpt lat="42.322402165391" lon="2.337136642439586">
        <time>2021-03-18T10:17:09Z</time>
      </trkpt>
      <trkpt lat="42.32289380913286" lon="2.334750317359566">
        <time>2021-03-18T10:17:09Z</time>
      </trkpt>
      <trkpt lat="42.32439163925792" lon="2.332145360717992">
        <time>2021-03-18T10:17:09Z</time>
      </trkpt>
      <trkpt lat="42.32435769906942" lon="2.331349292642113">
        <time>2021-03-18T10:17:09Z</time>
      </trkpt>
      <trkpt lat="42.32507385322449" lon="2.330123986075023">
        <time>2021-03-18T10:17:09Z</time>
      </trkpt>
      <trkpt lat="42.32355455543004" lon="2.329853125648915">
        <time>2021-03-18T10:17:09Z</time>
      </trkpt>
      <trkpt lat="42.32253903046044" lon="2.3314940759195">
        <time>2021-03-18T10:17:09Z</time>
      </trkpt>
      <trkpt lat="42.32254333052966" lon="2.330601637852214">
        <time>2021-03-18T10:17:09Z</time>
      </trkpt>
      <trkpt lat="42.32244687485257" lon="2.329602276911513">
        <time>2021-03-18T10:17:09Z</time>
      </trkpt>
      <trkpt lat="42.3228621729801" lon="2.327569796419284">
        <time>2021-03-18T10:17:09Z</time>
      </trkpt>
      <trkpt lat="42.32249500060578" lon="2.324724681243011">
        <time>2021-03-18T10:17:09Z</time>
      </trkpt>
      <trkpt lat="42.32051731213965" lon="2.319873536352597">
        <time>2021-03-18T10:17:09Z</time>
      </trkpt>
      <trkpt lat="42.31907486131441" lon="2.318188325736843">
        <time>2021-03-18T10:17:09Z</time>
      </trkpt>
      <trkpt lat="42.31841715570614" lon="2.316039009156889">
        <time>2021-03-18T10:17:09Z</time>
      </trkpt>
      <trkpt lat="42.31913406984602" lon="2.31643491229746">
        <time>2021-03-18T10:17:09Z</time>
      </trkpt>
      <trkpt lat="42.31903706787725" lon="2.315642362514419">
        <time>2021-03-18T10:17:09Z</time>
      </trkpt>
      <trkpt lat="42.31910182222973" lon="2.315540693770675">
        <time>2021-03-18T10:17:09Z</time>
      </trkpt>
      <trkpt lat="42.31965892075058" lon="2.316901743070619">
        <time>2021-03-18T10:17:09Z</time>
      </trkpt>
      <trkpt lat="42.31960988959014" lon="2.316420733148825">
        <time>2021-03-18T10:17:09Z</time>
      </trkpt>
      <trkpt lat="42.32047324120627" lon="2.317323737369523">
        <time>2021-03-18T10:17:09Z</time>
      </trkpt>
      <trkpt lat="42.32149752426795" lon="2.317860981906421">
        <time>2021-03-18T10:17:09Z</time>
      </trkpt>
      <trkpt lat="42.3219789836559" lon="2.317804874286191">
        <time>2021-03-18T10:17:09Z</time>
      </trkpt>
      <trkpt lat="42.32182210205895" lon="2.316903702839346">
        <time>2021-03-18T10:17:09Z</time>
      </trkpt>
      <trkpt lat="42.32132897187407" lon="2.316274177428066">
        <time>2021-03-18T10:17:09Z</time>
      </trkpt>
      <trkpt lat="42.32101089739468" lon="2.315478250630456">
        <time>2021-03-18T10:17:09Z</time>
      </trkpt>
      <trkpt lat="42.32106759309136" lon="2.315132495319254">
        <time>2021-03-18T10:17:09Z</time>
      </trkpt>
      <trkpt lat="42.32120553369907" lon="2.315386473474621">
        <time>2021-03-18T10:17:09Z</time>
      </trkpt>
      <trkpt lat="42.32143604003269" lon="2.31522758861715">
        <time>2021-03-18T10:17:09Z</time>
      </trkpt>
      <trkpt lat="42.32176407351413" lon="2.314643584264073">
        <time>2021-03-18T10:17:09Z</time>
      </trkpt>
      <trkpt lat="42.32180389876152" lon="2.313844849372706">
        <time>2021-03-18T10:17:09Z</time>
      </trkpt>
      <trkpt lat="42.32143987755521" lon="2.313489411595575">
        <time>2021-03-18T10:17:09Z</time>
      </trkpt>
      <trkpt lat="42.3216226236901" lon="2.312528824581004">
        <time>2021-03-18T10:17:09Z</time>
      </trkpt>
      <trkpt lat="42.32136393433446" lon="2.312491265441206">
        <time>2021-03-18T10:17:09Z</time>
      </trkpt>
      <trkpt lat="42.32142953364734" lon="2.311921520648561">
        <time>2021-03-18T10:17:09Z</time>
      </trkpt>
      <trkpt lat="42.3212465471378" lon="2.311381952810212">
        <time>2021-03-18T10:17:09Z</time>
      </trkpt>
      <trkpt lat="42.32169900980137" lon="2.31009480950831">
        <time>2021-03-18T10:17:09Z</time>
      </trkpt>
      <trkpt lat="42.32138501186409" lon="2.308902275665115">
        <time>2021-03-18T10:17:09Z</time>
      </trkpt>
      <trkpt lat="42.32094454911744" lon="2.309440592486753">
        <time>2021-03-18T10:17:09Z</time>
      </trkpt>
      <trkpt lat="42.32078490162397" lon="2.309353244431045">
        <time>2021-03-18T10:17:09Z</time>
      </trkpt>
      <trkpt lat="42.32094937470613" lon="2.308647201383738">
        <time>2021-03-18T10:17:09Z</time>
      </trkpt>
      <trkpt lat="42.32046679142284" lon="2.307547832998891">
        <time>2021-03-18T10:17:09Z</time>
      </trkpt>
      <trkpt lat="42.32004130025486" lon="2.306240289892583">
        <time>2021-03-18T10:17:09Z</time>
      </trkpt>
      <trkpt lat="42.31893690957112" lon="2.304310052295524">
        <time>2021-03-18T10:17:09Z</time>
      </trkpt>
      <trkpt lat="42.31779164748875" lon="2.301361785504861">
        <time>2021-03-18T10:17:09Z</time>
      </trkpt>
      <trkpt lat="42.31739885146808" lon="2.299467111708506">
        <time>2021-03-18T10:17:09Z</time>
      </trkpt>
      <trkpt lat="42.31656250863949" lon="2.299001234584168">
        <time>2021-03-18T10:17:09Z</time>
      </trkpt>
      <trkpt lat="42.31593939482674" lon="2.295674305886974">
        <time>2021-03-18T10:17:09Z</time>
      </trkpt>
      <trkpt lat="42.31524044776236" lon="2.294181420856118">
        <time>2021-03-18T10:17:09Z</time>
      </trkpt>
      <trkpt lat="42.31484369351527" lon="2.293065304676401">
        <time>2021-03-18T10:17:09Z</time>
      </trkpt>
      <trkpt lat="42.31449669324672" lon="2.28885508009735">
        <time>2021-03-18T10:17:09Z</time>
      </trkpt>
      <trkpt lat="42.3143544414669" lon="2.288525198025171">
        <time>2021-03-18T10:17:09Z</time>
      </trkpt>
      <trkpt lat="42.31434563007169" lon="2.288067160082457">
        <time>2021-03-18T10:17:09Z</time>
      </trkpt>
      <trkpt lat="42.314113841385" lon="2.287747962086941">
        <time>2021-03-18T10:17:09Z</time>
      </trkpt>
      <trkpt lat="42.31414854520931" lon="2.287144190226453">
        <time>2021-03-18T10:17:09Z</time>
      </trkpt>
      <trkpt lat="42.31380811973518" lon="2.287225428721025">
        <time>2021-03-18T10:17:09Z</time>
      </trkpt>
      <trkpt lat="42.31346287490311" lon="2.28662353270034">
        <time>2021-03-18T10:17:09Z</time>
      </trkpt>
      <trkpt lat="42.31345562975029" lon="2.285450047234341">
        <time>2021-03-18T10:17:09Z</time>
      </trkpt>
      <trkpt lat="42.31281985678649" lon="2.285277426164682">
        <time>2021-03-18T10:17:09Z</time>
      </trkpt>
      <trkpt lat="42.31250856369784" lon="2.284628965653355">
        <time>2021-03-18T10:17:09Z</time>
      </trkpt>
      <trkpt lat="42.31260100900893" lon="2.28405544810758">
        <time>2021-03-18T10:17:09Z</time>
      </trkpt>
      <trkpt lat="42.31184010390973" lon="2.283034413328395">
        <time>2021-03-18T10:17:09Z</time>
      </trkpt>
      <trkpt lat="42.31175722876763" lon="2.282201725453683">
        <time>2021-03-18T10:17:09Z</time>
      </trkpt>
      <trkpt lat="42.31184431365851" lon="2.28173502726285">
        <time>2021-03-18T10:17:09Z</time>
      </trkpt>
      <trkpt lat="42.31156819057041" lon="2.281685886121094">
        <time>2021-03-18T10:17:09Z</time>
      </trkpt>
      <trkpt lat="42.3113813175488" lon="2.281257767214269">
        <time>2021-03-18T10:17:09Z</time>
      </trkpt>
      <trkpt lat="42.3116378348046" lon="2.280201824962711">
        <time>2021-03-18T10:17:09Z</time>
      </trkpt>
      <trkpt lat="42.31062134710305" lon="2.27890872036719">
        <time>2021-03-18T10:17:09Z</time>
      </trkpt>
      <trkpt lat="42.31061855696137" lon="2.278430978797805">
        <time>2021-03-18T10:17:09Z</time>
      </trkpt>
      <trkpt lat="42.31041928636557" lon="2.27845516034477">
        <time>2021-03-18T10:17:09Z</time>
      </trkpt>
      <trkpt lat="42.30971527383762" lon="2.277968860765585">
        <time>2021-03-18T10:17:09Z</time>
      </trkpt>
      <trkpt lat="42.30956367671433" lon="2.277221519416979">
        <time>2021-03-18T10:17:09Z</time>
      </trkpt>
      <trkpt lat="42.30959314427069" lon="2.276569305776703">
        <time>2021-03-18T10:17:09Z</time>
      </trkpt>
      <trkpt lat="42.30989265746894" lon="2.275740816282794">
        <time>2021-03-18T10:17:09Z</time>
      </trkpt>
      <trkpt lat="42.30912122463363" lon="2.276107767555282">
        <time>2021-03-18T10:17:09Z</time>
      </trkpt>
      <trkpt lat="42.30865134507953" lon="2.276052717320571">
        <time>2021-03-18T10:17:09Z</time>
      </trkpt>
      <trkpt lat="42.30778108466907" lon="2.274858360370871">
        <time>2021-03-18T10:17:09Z</time>
      </trkpt>
      <trkpt lat="42.30758686695307" lon="2.273254816751682">
        <time>2021-03-18T10:17:09Z</time>
      </trkpt>
      <trkpt lat="42.30705937199235" lon="2.272262725473793">
        <time>2021-03-18T10:17:09Z</time>
      </trkpt>
      <trkpt lat="42.30780019524941" lon="2.270486222974926">
        <time>2021-03-18T10:17:09Z</time>
      </trkpt>
      <trkpt lat="42.30733689014593" lon="2.270330231803386">
        <time>2021-03-18T10:17:09Z</time>
      </trkpt>
      <trkpt lat="42.30690127216598" lon="2.270645188933922">
        <time>2021-03-18T10:17:09Z</time>
      </trkpt>
      <trkpt lat="42.30683341279337" lon="2.270605128965819">
        <time>2021-03-18T10:17:22Z</time>
      </trkpt>
      <trkpt lat="42.30632717689556" lon="2.270131704425169">
        <time>2021-03-18T10:17:22Z</time>
      </trkpt>
      <trkpt lat="42.30570358028066" lon="2.268825590075714">
        <time>2021-03-18T10:17:22Z</time>
      </trkpt>
      <trkpt lat="42.30540705771452" lon="2.268982683936414">
        <time>2021-03-18T10:17:22Z</time>
      </trkpt>
      <trkpt lat="42.30540772752697" lon="2.269733048467844">
        <time>2021-03-18T10:17:22Z</time>
      </trkpt>
      <trkpt lat="42.30496494769179" lon="2.268671871373746">
        <time>2021-03-18T10:17:22Z</time>
      </trkpt>
      <trkpt lat="42.30360107423312" lon="2.268542168871268">
        <time>2021-03-18T10:17:22Z</time>
      </trkpt>
      <trkpt lat="42.30210701959261" lon="2.268670194072968">
        <time>2021-03-18T10:17:22Z</time>
      </trkpt>
      <trkpt lat="42.30257143068378" lon="2.267023087823097">
        <time>2021-03-18T10:17:22Z</time>
      </trkpt>
      <trkpt lat="42.30384228680281" lon="2.265629579569009">
        <time>2021-03-18T10:17:22Z</time>
      </trkpt>
      <trkpt lat="42.30382753025344" lon="2.265154821196433">
        <time>2021-03-18T10:17:22Z</time>
      </trkpt>
      <trkpt lat="42.30423456937944" lon="2.26424463905138">
        <time>2021-03-18T10:17:22Z</time>
      </trkpt>
      <trkpt lat="42.30386642005387" lon="2.263383195340376">
        <time>2021-03-18T10:17:22Z</time>
      </trkpt>
      <trkpt lat="42.30380604427899" lon="2.263176942407283">
        <time>2021-03-18T10:17:22Z</time>
      </trkpt>
      <trkpt lat="42.30530226323371" lon="2.260824979130707">
        <time>2021-03-18T10:17:22Z</time>
      </trkpt>
      <trkpt lat="42.30523771196388" lon="2.260115547404022">
        <time>2021-03-18T10:17:22Z</time>
      </trkpt>
      <trkpt lat="42.30587026744617" lon="2.259286242089842">
        <time>2021-03-18T10:17:22Z</time>
      </trkpt>
      <trkpt lat="42.3050946064662" lon="2.258228066029946">
        <time>2021-03-18T10:17:22Z</time>
      </trkpt>
      <trkpt lat="42.30524504766369" lon="2.255663708576683">
        <time>2021-03-18T10:17:22Z</time>
      </trkpt>
      <trkpt lat="42.30598458934529" lon="2.253039192498678">
        <time>2021-03-18T10:17:22Z</time>
      </trkpt>
      <trkpt lat="42.30567411375186" lon="2.253092333001876">
        <time>2021-03-18T10:17:22Z</time>
      </trkpt>
      <trkpt lat="42.30630447321333" lon="2.251859190751844">
        <time>2021-03-18T10:17:22Z</time>
      </trkpt>
      <trkpt lat="42.3065466054882" lon="2.250197709814372">
        <time>2021-03-18T10:17:22Z</time>
      </trkpt>
      <trkpt lat="42.30758253803516" lon="2.249782830452647">
        <time>2021-03-18T10:17:22Z</time>
      </trkpt>
      <trkpt lat="42.30668915467737" lon="2.248176705785143">
        <time>2021-03-18T10:17:22Z</time>
      </trkpt>
      <trkpt lat="42.30770369868066" lon="2.244144035958093">
        <time>2021-03-18T10:17:22Z</time>
      </trkpt>
      <trkpt lat="42.30788767554822" lon="2.242045865330113">
        <time>2021-03-18T10:17:22Z</time>
      </trkpt>
      <trkpt lat="42.3086218947666" lon="2.241169663248464">
        <time>2021-03-18T10:17:22Z</time>
      </trkpt>
      <trkpt lat="42.30956092513459" lon="2.240679538553754">
        <time>2021-03-18T10:17:22Z</time>
      </trkpt>
      <trkpt lat="42.30815904725175" lon="2.239406090845311">
        <time>2021-03-18T10:17:22Z</time>
      </trkpt>
      <trkpt lat="42.30822663157689" lon="2.237984579272518">
        <time>2021-03-18T10:17:22Z</time>
      </trkpt>
      <trkpt lat="42.30986199676663" lon="2.234460463451935">
        <time>2021-03-18T10:17:22Z</time>
      </trkpt>
      <trkpt lat="42.30988222688606" lon="2.231350982739719">
        <time>2021-03-18T10:17:22Z</time>
      </trkpt>
      <trkpt lat="42.31314059085305" lon="2.227814290384662">
        <time>2021-03-18T10:17:22Z</time>
      </trkpt>
      <trkpt lat="42.3132956762347" lon="2.225447078751048">
        <time>2021-03-18T10:17:22Z</time>
      </trkpt>
      <trkpt lat="42.31344250969156" lon="2.223816791016098">
        <time>2021-03-18T10:17:22Z</time>
      </trkpt>
      <trkpt lat="42.31294678021927" lon="2.221989221929972">
        <time>2021-03-18T10:17:22Z</time>
      </trkpt>
      <trkpt lat="42.31335763513055" lon="2.220913198949475">
        <time>2021-03-18T10:17:22Z</time>
      </trkpt>
      <trkpt lat="42.3131147182426" lon="2.220341813582434">
        <time>2021-03-18T10:17:22Z</time>
      </trkpt>
      <trkpt lat="42.31341775140394" lon="2.216224962300037">
        <time>2021-03-18T10:17:22Z</time>
      </trkpt>
      <trkpt lat="42.31229818269684" lon="2.214852344017122">
        <time>2021-03-18T10:17:22Z</time>
      </trkpt>
      <trkpt lat="42.31237042379773" lon="2.214097423561614">
        <time>2021-03-18T10:17:22Z</time>
      </trkpt>
      <trkpt lat="42.31277310932171" lon="2.213059120825525">
        <time>2021-03-18T10:17:22Z</time>
      </trkpt>
      <trkpt lat="42.31376141829493" lon="2.212676935294862">
        <time>2021-03-18T10:17:22Z</time>
      </trkpt>
      <trkpt lat="42.3140998179651" lon="2.211747136781599">
        <time>2021-03-18T10:17:22Z</time>
      </trkpt>
      <trkpt lat="42.31468073353608" lon="2.211327682036861">
        <time>2021-03-18T10:17:22Z</time>
      </trkpt>
      <trkpt lat="42.31601336279373" lon="2.210510531763454">
        <time>2021-03-18T10:17:22Z</time>
      </trkpt>
      <trkpt lat="42.31562471440172" lon="2.209221091918396">
        <time>2021-03-18T10:17:22Z</time>
      </trkpt>
      <trkpt lat="42.31671511711353" lon="2.207846541653546">
        <time>2021-03-18T10:17:22Z</time>
      </trkpt>
      <trkpt lat="42.31623189857783" lon="2.205856030212992">
        <time>2021-03-18T10:17:22Z</time>
      </trkpt>
      <trkpt lat="42.31608377906208" lon="2.207395777180379">
        <time>2021-03-18T10:17:22Z</time>
      </trkpt>
      <trkpt lat="42.31586754862637" lon="2.206559080192925">
        <time>2021-03-18T10:17:22Z</time>
      </trkpt>
      <trkpt lat="42.31563258628501" lon="2.20524961080852">
        <time>2021-03-18T10:17:22Z</time>
      </trkpt>
      <trkpt lat="42.31510645870921" lon="2.203907548070458">
        <time>2021-03-18T10:17:22Z</time>
      </trkpt>
      <trkpt lat="42.31558624568779" lon="2.201414221312681">
        <time>2021-03-18T10:17:22Z</time>
      </trkpt>
      <trkpt lat="42.31513625791642" lon="2.200833183542923">
        <time>2021-03-18T10:17:22Z</time>
      </trkpt>
      <trkpt lat="42.31519238526612" lon="2.197888219816941">
        <time>2021-03-18T10:17:22Z</time>
      </trkpt>
      <trkpt lat="42.31566378519962" lon="2.196850232764951">
        <time>2021-03-18T10:17:22Z</time>
      </trkpt>
      <trkpt lat="42.3152978368695" lon="2.195537072024405">
        <time>2021-03-18T10:17:22Z</time>
      </trkpt>
      <trkpt lat="42.31519677576273" lon="2.196970512496845">
        <time>2021-03-18T10:17:22Z</time>
      </trkpt>
      <trkpt lat="42.31440950974674" lon="2.199400296183998">
        <time>2021-03-18T10:17:22Z</time>
      </trkpt>
      <trkpt lat="42.31441781540541" lon="2.198147980830141">
        <time>2021-03-18T10:17:22Z</time>
      </trkpt>
      <trkpt lat="42.31473874652924" lon="2.197229442565891">
        <time>2021-03-18T10:17:22Z</time>
      </trkpt>
      <trkpt lat="42.31449410537491" lon="2.19547541301063">
        <time>2021-03-18T10:17:22Z</time>
      </trkpt>
      <trkpt lat="42.31415377338649" lon="2.195037101544288">
        <time>2021-03-18T10:17:22Z</time>
      </trkpt>
      <trkpt lat="42.31414102686353" lon="2.194436710618393">
        <time>2021-03-18T10:17:22Z</time>
      </trkpt>
      <trkpt lat="42.31548592488469" lon="2.193963961733134">
        <time>2021-03-18T10:17:22Z</time>
      </trkpt>
      <trkpt lat="42.31483174663416" lon="2.192776532513063">
        <time>2021-03-18T10:17:22Z</time>
      </trkpt>
      <trkpt lat="42.31585264313102" lon="2.190311373539731">
        <time>2021-03-18T10:17:22Z</time>
      </trkpt>
      <trkpt lat="42.31569331943773" lon="2.189338545355841">
        <time>2021-03-18T10:17:22Z</time>
      </trkpt>
      <trkpt lat="42.31622024464519" lon="2.188692435826722">
        <time>2021-03-18T10:17:22Z</time>
      </trkpt>
      <trkpt lat="42.31589205797445" lon="2.188166454863219">
        <time>2021-03-18T10:17:22Z</time>
      </trkpt>
      <trkpt lat="42.31622989037697" lon="2.187259410619564">
        <time>2021-03-18T10:17:22Z</time>
      </trkpt>
      <trkpt lat="42.3162357785513" lon="2.186311379273438">
        <time>2021-03-18T10:17:22Z</time>
      </trkpt>
      <trkpt lat="42.31699419867064" lon="2.185375357085519">
        <time>2021-03-18T10:17:22Z</time>
      </trkpt>
      <trkpt lat="42.31702336805522" lon="2.183963033638088">
        <time>2021-03-18T10:17:22Z</time>
      </trkpt>
      <trkpt lat="42.31748929558064" lon="2.183095499103898">
        <time>2021-03-18T10:17:22Z</time>
      </trkpt>
      <trkpt lat="42.31788582655814" lon="2.183115820565511">
        <time>2021-03-18T10:17:22Z</time>
      </trkpt>
      <trkpt lat="42.3183633541579" lon="2.181991055090733">
        <time>2021-03-18T10:17:22Z</time>
      </trkpt>
      <trkpt lat="42.31836863453777" lon="2.180771042922223">
        <time>2021-03-18T10:17:22Z</time>
      </trkpt>
      <trkpt lat="42.31788606577687" lon="2.179653268155077">
        <time>2021-03-18T10:17:22Z</time>
      </trkpt>
      <trkpt lat="42.31718255396734" lon="2.1785718248384">
        <time>2021-03-18T10:17:22Z</time>
      </trkpt>
      <trkpt lat="42.31713013501577" lon="2.175606348728907">
        <time>2021-03-18T10:17:22Z</time>
      </trkpt>
      <trkpt lat="42.31685458207382" lon="2.174520061757492">
        <time>2021-03-18T10:17:22Z</time>
      </trkpt>
      <trkpt lat="42.31747055400724" lon="2.173544000407268">
        <time>2021-03-18T10:17:22Z</time>
      </trkpt>
      <trkpt lat="42.31854956228241" lon="2.17349840837352">
        <time>2021-03-18T10:17:22Z</time>
      </trkpt>
      <trkpt lat="42.31728770014318" lon="2.172905492958295">
        <time>2021-03-18T10:17:22Z</time>
      </trkpt>
      <trkpt lat="42.31707466736886" lon="2.171756492236467">
        <time>2021-03-18T10:17:22Z</time>
      </trkpt>
      <trkpt lat="42.31558823090149" lon="2.172112878204584">
        <time>2021-03-18T10:17:22Z</time>
      </trkpt>
      <trkpt lat="42.31700661874556" lon="2.170688830642693">
        <time>2021-03-18T10:17:22Z</time>
      </trkpt>
      <trkpt lat="42.31617010428876" lon="2.1701996543005">
        <time>2021-03-18T10:17:22Z</time>
      </trkpt>
      <trkpt lat="42.3143365482404" lon="2.171105344883211">
        <time>2021-03-18T10:17:22Z</time>
      </trkpt>
      <trkpt lat="42.31303312393279" lon="2.171210669053136">
        <time>2021-03-18T10:17:22Z</time>
      </trkpt>
      <trkpt lat="42.31253267044898" lon="2.171396044499629">
        <time>2021-03-18T10:17:22Z</time>
      </trkpt>
      <trkpt lat="42.31126975393988" lon="2.171689816418361">
        <time>2021-03-18T10:17:22Z</time>
      </trkpt>
      <trkpt lat="42.30926575454826" lon="2.171892510214628">
        <time>2021-03-18T10:17:22Z</time>
      </trkpt>
      <trkpt lat="42.30859502276014" lon="2.170682649896698">
        <time>2021-03-18T10:17:22Z</time>
      </trkpt>
      <trkpt lat="42.31278441421896" lon="2.169054756080451">
        <time>2021-03-18T10:17:22Z</time>
      </trkpt>
      <trkpt lat="42.31545865489508" lon="2.16749095700318">
        <time>2021-03-18T10:17:22Z</time>
      </trkpt>
      <trkpt lat="42.31892324611505" lon="2.167897884761469">
        <time>2021-03-18T10:17:22Z</time>
      </trkpt>
      <trkpt lat="42.32029866212328" lon="2.169254078318925">
        <time>2021-03-18T10:17:22Z</time>
      </trkpt>
      <trkpt lat="42.33088204580979" lon="2.169393577301051">
        <time>2021-03-18T10:17:22Z</time>
      </trkpt>
      <trkpt lat="42.33426796114941" lon="2.171155519355568">
        <time>2021-03-18T10:17:22Z</time>
      </trkpt>
      <trkpt lat="42.33894113250566" lon="2.171447134982294">
        <time>2021-03-18T10:17:22Z</time>
      </trkpt>
      <trkpt lat="42.3412652636832" lon="2.167712397297681">
        <time>2021-03-18T10:17:22Z</time>
      </trkpt>
      <trkpt lat="42.34495737233988" lon="2.164762933732058">
        <time>2021-03-18T10:17:22Z</time>
      </trkpt>
      <trkpt lat="42.34785590199476" lon="2.165309263500983">
        <time>2021-03-18T10:17:22Z</time>
      </trkpt>
      <trkpt lat="42.35005483041002" lon="2.168190276044855">
        <time>2021-03-18T10:17:22Z</time>
      </trkpt>
      <trkpt lat="42.35227863413645" lon="2.16870667400157">
        <time>2021-03-18T10:17:22Z</time>
      </trkpt>
      <trkpt lat="42.35370342782291" lon="2.169141329485296">
        <time>2021-03-18T10:17:22Z</time>
      </trkpt>
      <trkpt lat="42.35595572656336" lon="2.17088213630483">
        <time>2021-03-18T10:17:22Z</time>
      </trkpt>
      <trkpt lat="42.35618272082177" lon="2.170272582876878">
        <time>2021-03-18T10:17:22Z</time>
      </trkpt>
      <trkpt lat="42.35422768987107" lon="2.168720700419577">
        <time>2021-03-18T10:17:22Z</time>
      </trkpt>
      <trkpt lat="42.35064616525189" lon="2.164426817760803">
        <time>2021-03-18T10:17:22Z</time>
      </trkpt>
      <trkpt lat="42.35191009544233" lon="2.163822079676694">
        <time>2021-03-18T10:17:22Z</time>
      </trkpt>
      <trkpt lat="42.35388565663688" lon="2.165869987423037">
        <time>2021-03-18T10:17:22Z</time>
      </trkpt>
      <trkpt lat="42.35574939790332" lon="2.167709705500795">
        <time>2021-03-18T10:17:22Z</time>
      </trkpt>
      <trkpt lat="42.3542561794035" lon="2.164295830673306">
        <time>2021-03-18T10:17:22Z</time>
      </trkpt>
      <trkpt lat="42.35241885727267" lon="2.162603067389322">
        <time>2021-03-18T10:17:22Z</time>
      </trkpt>
      <trkpt lat="42.35207636846096" lon="2.161650771260408">
        <time>2021-03-18T10:17:22Z</time>
      </trkpt>
      <trkpt lat="42.35148170048077" lon="2.161594481875375">
        <time>2021-03-18T10:17:22Z</time>
      </trkpt>
      <trkpt lat="42.35046326717195" lon="2.159875883706539">
        <time>2021-03-18T10:17:22Z</time>
      </trkpt>
      <trkpt lat="42.35165926505308" lon="2.160961978590308">
        <time>2021-03-18T10:17:22Z</time>
      </trkpt>
      <trkpt lat="42.35292218589827" lon="2.160723071740625">
        <time>2021-03-18T10:17:22Z</time>
      </trkpt>
      <trkpt lat="42.35353392178826" lon="2.161938485500881">
        <time>2021-03-18T10:17:22Z</time>
      </trkpt>
      <trkpt lat="42.35634270978532" lon="2.163624509296958">
        <time>2021-03-18T10:17:22Z</time>
      </trkpt>
      <trkpt lat="42.35675110772952" lon="2.16305290185282">
        <time>2021-03-18T10:17:22Z</time>
      </trkpt>
      <trkpt lat="42.35467470334461" lon="2.1617654090364">
        <time>2021-03-18T10:17:22Z</time>
      </trkpt>
      <trkpt lat="42.35359199377373" lon="2.159862405871391">
        <time>2021-03-18T10:17:22Z</time>
      </trkpt>
      <trkpt lat="42.35555986996117" lon="2.161164397347484">
        <time>2021-03-18T10:17:22Z</time>
      </trkpt>
      <trkpt lat="42.35750911926391" lon="2.160556190852516">
        <time>2021-03-18T10:17:22Z</time>
      </trkpt>
      <trkpt lat="42.35709983009237" lon="2.160217882469389">
        <time>2021-03-18T10:17:22Z</time>
      </trkpt>
      <trkpt lat="42.35578224634451" lon="2.160507842049175">
        <time>2021-03-18T10:17:22Z</time>
      </trkpt>
      <trkpt lat="42.35468952982461" lon="2.158408889603465">
        <time>2021-03-18T10:17:22Z</time>
      </trkpt>
      <trkpt lat="42.35400042526916" lon="2.157607610644321">
        <time>2021-03-18T10:17:22Z</time>
      </trkpt>
      <trkpt lat="42.35376535924433" lon="2.156416219822603">
        <time>2021-03-18T10:17:22Z</time>
      </trkpt>
      <trkpt lat="42.35283200010145" lon="2.15663734667743">
        <time>2021-03-18T10:17:22Z</time>
      </trkpt>
      <trkpt lat="42.35256839005577" lon="2.156116154469299">
        <time>2021-03-18T10:17:22Z</time>
      </trkpt>
      <trkpt lat="42.35276150856679" lon="2.155503565907222">
        <time>2021-03-18T10:17:22Z</time>
      </trkpt>
      <trkpt lat="42.35396518624036" lon="2.155276796252408">
        <time>2021-03-18T10:17:22Z</time>
      </trkpt>
      <trkpt lat="42.35450549051079" lon="2.156440945202687">
        <time>2021-03-18T10:17:22Z</time>
      </trkpt>
      <trkpt lat="42.35595938739346" lon="2.157864816310207">
        <time>2021-03-18T10:17:22Z</time>
      </trkpt>
      <trkpt lat="42.35806648298807" lon="2.156946964357305">
        <time>2021-03-18T10:17:22Z</time>
      </trkpt>
      <trkpt lat="42.35647890074648" lon="2.156316229499002">
        <time>2021-03-18T10:17:22Z</time>
      </trkpt>
      <trkpt lat="42.35622405876958" lon="2.154543728581422">
        <time>2021-03-18T10:17:22Z</time>
      </trkpt>
      <trkpt lat="42.35493613679304" lon="2.151421553033983">
        <time>2021-03-18T10:17:22Z</time>
      </trkpt>
      <trkpt lat="42.35456882248547" lon="2.151241828367394">
        <time>2021-03-18T10:17:22Z</time>
      </trkpt>
      <trkpt lat="42.35348836612733" lon="2.151552959487002">
        <time>2021-03-18T10:17:22Z</time>
      </trkpt>
      <trkpt lat="42.35347111103324" lon="2.151003222748691">
        <time>2021-03-18T10:17:22Z</time>
      </trkpt>
      <trkpt lat="42.3552585595767" lon="2.150718501184346">
        <time>2021-03-18T10:17:22Z</time>
      </trkpt>
      <trkpt lat="42.35625645010726" lon="2.152028190527382">
        <time>2021-03-18T10:17:22Z</time>
      </trkpt>
      <trkpt lat="42.35858169137738" lon="2.153713719780772">
        <time>2021-03-18T10:17:22Z</time>
      </trkpt>
      <trkpt lat="42.35848728074103" lon="2.152990143380495">
        <time>2021-03-18T10:17:22Z</time>
      </trkpt>
      <trkpt lat="42.35698146647111" lon="2.151752925333923">
        <time>2021-03-18T10:17:22Z</time>
      </trkpt>
      <trkpt lat="42.35649213098154" lon="2.149937138427369">
        <time>2021-03-18T10:17:22Z</time>
      </trkpt>
      <trkpt lat="42.3575628706262" lon="2.14631246251705">
        <time>2021-03-18T10:17:22Z</time>
      </trkpt>
      <trkpt lat="42.35754929694529" lon="2.150000474366343">
        <time>2021-03-18T10:17:22Z</time>
      </trkpt>
      <trkpt lat="42.3606998688108" lon="2.153734552598203">
        <time>2021-03-18T10:17:22Z</time>
      </trkpt>
      <trkpt lat="42.36256126842048" lon="2.153980100925914">
        <time>2021-03-18T10:17:22Z</time>
      </trkpt>
      <trkpt lat="42.36195345687885" lon="2.15307253214031">
        <time>2021-03-18T10:17:22Z</time>
      </trkpt>
      <trkpt lat="42.36099635735922" lon="2.153442087323985">
        <time>2021-03-18T10:17:22Z</time>
      </trkpt>
      <trkpt lat="42.35958288567529" lon="2.14918653103257">
        <time>2021-03-18T10:17:22Z</time>
      </trkpt>
      <trkpt lat="42.35973264841891" lon="2.145926496897745">
        <time>2021-03-18T10:17:22Z</time>
      </trkpt>
      <trkpt lat="42.36029580593279" lon="2.149225010747564">
        <time>2021-03-18T10:17:22Z</time>
      </trkpt>
      <trkpt lat="42.36159306472281" lon="2.151223944816494">
        <time>2021-03-18T10:17:22Z</time>
      </trkpt>
      <trkpt lat="42.36389280721333" lon="2.151506106958665">
        <time>2021-03-18T10:17:22Z</time>
      </trkpt>
      <trkpt lat="42.36444562722686" lon="2.1527505352984">
        <time>2021-03-18T10:17:22Z</time>
      </trkpt>
      <trkpt lat="42.36535686689117" lon="2.153515637284407">
        <time>2021-03-18T10:17:22Z</time>
      </trkpt>
      <trkpt lat="42.36735379470316" lon="2.158524783129221">
        <time>2021-03-18T10:17:22Z</time>
      </trkpt>
      <trkpt lat="42.36754719716692" lon="2.158097732220246">
        <time>2021-03-18T10:17:22Z</time>
      </trkpt>
      <trkpt lat="42.36696320074005" lon="2.156903966010102">
        <time>2021-03-18T10:17:22Z</time>
      </trkpt>
      <trkpt lat="42.36677910826067" lon="2.154447015268624">
        <time>2021-03-18T10:17:22Z</time>
      </trkpt>
      <trkpt lat="42.36661234669919" lon="2.152890737752566">
        <time>2021-03-18T10:17:22Z</time>
      </trkpt>
      <trkpt lat="42.36582820006488" lon="2.151603829396607">
        <time>2021-03-18T10:17:22Z</time>
      </trkpt>
      <trkpt lat="42.36699396835049" lon="2.151972734911043">
        <time>2021-03-18T10:17:22Z</time>
      </trkpt>
      <trkpt lat="42.36535874355157" lon="2.148154447998734">
        <time>2021-03-18T10:17:22Z</time>
      </trkpt>
      <trkpt lat="42.36570502810279" lon="2.143291318098575">
        <time>2021-03-18T10:17:22Z</time>
      </trkpt>
      <trkpt lat="42.36530824698098" lon="2.141567894351182">
        <time>2021-03-18T10:17:22Z</time>
      </trkpt>
      <trkpt lat="42.3660381271461" lon="2.140209870992975">
        <time>2021-03-18T10:17:22Z</time>
      </trkpt>
      <trkpt lat="42.36532465464288" lon="2.139006134859565">
        <time>2021-03-18T10:17:22Z</time>
      </trkpt>
      <trkpt lat="42.36588931260661" lon="2.138311627801821">
        <time>2021-03-18T10:17:22Z</time>
      </trkpt>
      <trkpt lat="42.36592179758087" lon="2.13781049817005">
        <time>2021-03-18T10:17:22Z</time>
      </trkpt>
      <trkpt lat="42.36664379122804" lon="2.13717116980638">
        <time>2021-03-18T10:17:22Z</time>
      </trkpt>
      <trkpt lat="42.36636633436446" lon="2.136388478655988">
        <time>2021-03-18T10:17:22Z</time>
      </trkpt>
      <trkpt lat="42.36795960339257" lon="2.135603884677482">
        <time>2021-03-18T10:17:22Z</time>
      </trkpt>
      <trkpt lat="42.36802642525591" lon="2.134685263554992">
        <time>2021-03-18T10:17:22Z</time>
      </trkpt>
      <trkpt lat="42.36933423078199" lon="2.132082093502634">
        <time>2021-03-18T10:17:22Z</time>
      </trkpt>
      <trkpt lat="42.37151721024664" lon="2.127351301849696">
        <time>2021-03-18T10:17:22Z</time>
      </trkpt>
      <trkpt lat="42.37169747285203" lon="2.124302393047768">
        <time>2021-03-18T10:17:22Z</time>
      </trkpt>
      <trkpt lat="42.37217116833075" lon="2.12410121965986">
        <time>2021-03-18T10:17:22Z</time>
      </trkpt>
      <trkpt lat="42.37245886746695" lon="2.122633794967981">
        <time>2021-03-18T10:17:22Z</time>
      </trkpt>
      <trkpt lat="42.3749273946336" lon="2.121362721326221">
        <time>2021-03-18T10:17:22Z</time>
      </trkpt>
      <trkpt lat="42.37733606574118" lon="2.121599618476318">
        <time>2021-03-18T10:17:22Z</time>
      </trkpt>
      <trkpt lat="42.37846620336934" lon="2.121675818870032">
        <time>2021-03-18T10:17:22Z</time>
      </trkpt>
      <trkpt lat="42.37871667818872" lon="2.121804201743884">
        <time>2021-03-18T10:17:22Z</time>
      </trkpt>
      <trkpt lat="42.38024874759005" lon="2.120896693144436">
        <time>2021-03-18T10:17:22Z</time>
      </trkpt>
      <trkpt lat="42.38268667313311" lon="2.118330694998452">
        <time>2021-03-18T10:17:22Z</time>
      </trkpt>
      <trkpt lat="42.38328524945455" lon="2.116919300095621">
        <time>2021-03-18T10:17:22Z</time>
      </trkpt>
      <trkpt lat="42.38286154212133" lon="2.116342519221999">
        <time>2021-03-18T10:17:22Z</time>
      </trkpt>
      <trkpt lat="42.38255687335688" lon="2.115742209807261">
        <time>2021-03-18T10:17:22Z</time>
      </trkpt>
      <trkpt lat="42.38240868449396" lon="2.115126357173891">
        <time>2021-03-18T10:17:22Z</time>
      </trkpt>
      <trkpt lat="42.38150860402417" lon="2.113356468100252">
        <time>2021-03-18T10:17:22Z</time>
      </trkpt>
      <trkpt lat="42.38126891064298" lon="2.112044654002863">
        <time>2021-03-18T10:17:22Z</time>
      </trkpt>
      <trkpt lat="42.38207310626692" lon="2.112460808254322">
        <time>2021-03-18T10:17:22Z</time>
      </trkpt>
      <trkpt lat="42.38232843271702" lon="2.112375441567802">
        <time>2021-03-18T10:17:22Z</time>
      </trkpt>
      <trkpt lat="42.38229426195158" lon="2.111357015647066">
        <time>2021-03-18T10:17:22Z</time>
      </trkpt>
      <trkpt lat="42.3818555160716" lon="2.109123362582897">
        <time>2021-03-18T10:17:22Z</time>
      </trkpt>
      <trkpt lat="42.38216120275749" lon="2.108101516845131">
        <time>2021-03-18T10:17:22Z</time>
      </trkpt>
      <trkpt lat="42.38186197844662" lon="2.107621676419498">
        <time>2021-03-18T10:17:22Z</time>
      </trkpt>
      <trkpt lat="42.38184292536841" lon="2.107101174516459">
        <time>2021-03-18T10:17:22Z</time>
      </trkpt>
      <trkpt lat="42.38037866960772" lon="2.105233072975361">
        <time>2021-03-18T10:17:22Z</time>
      </trkpt>
      <trkpt lat="42.37961070998001" lon="2.104133825730832">
        <time>2021-03-18T10:17:22Z</time>
      </trkpt>
      <trkpt lat="42.37917801811323" lon="2.103383055478425">
        <time>2021-03-18T10:17:22Z</time>
      </trkpt>
      <trkpt lat="42.37911621534057" lon="2.102813600867479">
        <time>2021-03-18T10:17:22Z</time>
      </trkpt>
      <trkpt lat="42.37849992497051" lon="2.102136091708124">
        <time>2021-03-18T10:17:22Z</time>
      </trkpt>
      <trkpt lat="42.37835754681483" lon="2.101467343562384">
        <time>2021-03-18T10:17:22Z</time>
      </trkpt>
      <trkpt lat="42.37747774766676" lon="2.099462281440969">
        <time>2021-03-18T10:17:22Z</time>
      </trkpt>
      <trkpt lat="42.37665835035695" lon="2.097935325452598">
        <time>2021-03-18T10:17:22Z</time>
      </trkpt>
      <trkpt lat="42.37640674902817" lon="2.096579798386764">
        <time>2021-03-18T10:17:22Z</time>
      </trkpt>
      <trkpt lat="42.37551161995324" lon="2.094619736749308">
        <time>2021-03-18T10:17:22Z</time>
      </trkpt>
      <trkpt lat="42.37518608630664" lon="2.092801148019221">
        <time>2021-03-18T10:17:22Z</time>
      </trkpt>
      <trkpt lat="42.37463644474313" lon="2.090076378293473">
        <time>2021-03-18T10:17:22Z</time>
      </trkpt>
      <trkpt lat="42.37500565095725" lon="2.086337938202438">
        <time>2021-03-18T10:17:22Z</time>
      </trkpt>
      <trkpt lat="42.37454826847767" lon="2.084756269031902">
        <time>2021-03-18T10:17:22Z</time>
      </trkpt>
      <trkpt lat="42.37337668230538" lon="2.085261228782376">
        <time>2021-03-18T10:17:22Z</time>
      </trkpt>
      <trkpt lat="42.37204043296961" lon="2.086932380684516">
        <time>2021-03-18T10:17:22Z</time>
      </trkpt>
      <trkpt lat="42.37050963190774" lon="2.087539902333384">
        <time>2021-03-18T10:17:22Z</time>
      </trkpt>
      <trkpt lat="42.36643578554277" lon="2.086447163838474">
        <time>2021-03-18T10:17:22Z</time>
      </trkpt>
      <trkpt lat="42.36563514008304" lon="2.085973852266538">
        <time>2021-03-18T10:17:22Z</time>
      </trkpt>
      <trkpt lat="42.36376281307063" lon="2.08193235976132">
        <time>2021-03-18T10:17:22Z</time>
      </trkpt>
      <trkpt lat="42.36551843189574" lon="2.079274878517299">
        <time>2021-03-18T10:17:22Z</time>
      </trkpt>
      <trkpt lat="42.36468974790238" lon="2.074792864604249">
        <time>2021-03-18T10:17:22Z</time>
      </trkpt>
      <trkpt lat="42.36388152478424" lon="2.068979588084747">
        <time>2021-03-18T10:17:22Z</time>
      </trkpt>
      <trkpt lat="42.36592281930764" lon="2.066865234208666">
        <time>2021-03-18T10:17:22Z</time>
      </trkpt>
      <trkpt lat="42.36337336186711" lon="2.062864333310304">
        <time>2021-03-18T10:17:22Z</time>
      </trkpt>
      <trkpt lat="42.36307045990169" lon="2.060121142777296">
        <time>2021-03-18T10:17:22Z</time>
      </trkpt>
      <trkpt lat="42.35931110930546" lon="2.057068332676164">
        <time>2021-03-18T10:17:22Z</time>
      </trkpt>
      <trkpt lat="42.35900759369313" lon="2.055026947561356">
        <time>2021-03-18T10:17:22Z</time>
      </trkpt>
      <trkpt lat="42.35949142731819" lon="2.054845002096501">
        <time>2021-03-18T10:17:22Z</time>
      </trkpt>
      <trkpt lat="42.35953325234574" lon="2.053228279736714">
        <time>2021-03-18T10:17:22Z</time>
      </trkpt>
      <trkpt lat="42.35884805041363" lon="2.053740540397424">
        <time>2021-03-18T10:17:22Z</time>
      </trkpt>
      <trkpt lat="42.3591287109597" lon="2.053131070574854">
        <time>2021-03-18T10:17:22Z</time>
      </trkpt>
      <trkpt lat="42.36038789892115" lon="2.052159133174891">
        <time>2021-03-18T10:17:22Z</time>
      </trkpt>
      <trkpt lat="42.36007621994461" lon="2.050146476681365">
        <time>2021-03-18T10:17:22Z</time>
      </trkpt>
      <trkpt lat="42.35844236812475" lon="2.048596511801462">
        <time>2021-03-18T10:17:22Z</time>
      </trkpt>
      <trkpt lat="42.35911693228467" lon="2.042561165496439">
        <time>2021-03-18T10:17:22Z</time>
      </trkpt>
      <trkpt lat="42.35897205069219" lon="2.038611039441367">
        <time>2021-03-18T10:17:22Z</time>
      </trkpt>
      <trkpt lat="42.35765777575825" lon="2.036424804168151">
        <time>2021-03-18T10:17:22Z</time>
      </trkpt>
      <trkpt lat="42.35870836092518" lon="2.032779181632618">
        <time>2021-03-18T10:17:22Z</time>
      </trkpt>
      <trkpt lat="42.3577856562489" lon="2.031845021353047">
        <time>2021-03-18T10:17:22Z</time>
      </trkpt>
      <trkpt lat="42.3561655347626" lon="2.028592054788472">
        <time>2021-03-18T10:17:22Z</time>
      </trkpt>
      <trkpt lat="42.35613952493739" lon="2.027802606797253">
        <time>2021-03-18T10:17:22Z</time>
      </trkpt>
      <trkpt lat="42.35570523170213" lon="2.025516152626037">
        <time>2021-03-18T10:17:22Z</time>
      </trkpt>
      <trkpt lat="42.35585897734841" lon="2.023222529494175">
        <time>2021-03-18T10:17:22Z</time>
      </trkpt>
      <trkpt lat="42.35562931341308" lon="2.023862772603884">
        <time>2021-03-18T10:17:33Z</time>
      </trkpt>
      <trkpt lat="42.35582915983957" lon="2.023303734025295">
        <time>2021-03-18T10:17:33Z</time>
      </trkpt>
      <trkpt lat="42.3567584199947" lon="2.018902114998094">
        <time>2021-03-18T10:17:33Z</time>
      </trkpt>
      <trkpt lat="42.35734786524775" lon="2.016758298350729">
        <time>2021-03-18T10:17:33Z</time>
      </trkpt>
      <trkpt lat="42.35828872462711" lon="2.015777236337022">
        <time>2021-03-18T10:17:33Z</time>
      </trkpt>
      <trkpt lat="42.35958299853731" lon="2.012234733038418">
        <time>2021-03-18T10:17:33Z</time>
      </trkpt>
      <trkpt lat="42.3632417984274" lon="2.01381723631316">
        <time>2021-03-18T10:17:33Z</time>
      </trkpt>
      <trkpt lat="42.36470337903706" lon="2.015814049817126">
        <time>2021-03-18T10:17:33Z</time>
      </trkpt>
      <trkpt lat="42.37300145606927" lon="2.01681234411857">
        <time>2021-03-18T10:17:33Z</time>
      </trkpt>
      <trkpt lat="42.37845935621207" lon="2.015172055714067">
        <time>2021-03-18T10:17:33Z</time>
      </trkpt>
      <trkpt lat="42.38087498794783" lon="2.012783870382795">
        <time>2021-03-18T10:17:33Z</time>
      </trkpt>
      <trkpt lat="42.38288657547359" lon="2.012265866322069">
        <time>2021-03-18T10:17:33Z</time>
      </trkpt>
      <trkpt lat="42.38382729549365" lon="2.011182272781213">
        <time>2021-03-18T10:17:33Z</time>
      </trkpt>
      <trkpt lat="42.38466302356351" lon="2.009733585706452">
        <time>2021-03-18T10:17:33Z</time>
      </trkpt>
      <trkpt lat="42.38951208515334" lon="2.005540926988327">
        <time>2021-03-18T10:17:33Z</time>
      </trkpt>
      <trkpt lat="42.39055261307463" lon="2.005780254716443">
        <time>2021-03-18T10:17:33Z</time>
      </trkpt>
      <trkpt lat="42.39168893280402" lon="2.005318468346939">
        <time>2021-03-18T10:17:33Z</time>
      </trkpt>
      <trkpt lat="42.39268459287225" lon="2.005155916585029">
        <time>2021-03-18T10:17:33Z</time>
      </trkpt>
      <trkpt lat="42.39413046417791" lon="2.003503667147262">
        <time>2021-03-18T10:17:33Z</time>
      </trkpt>
      <trkpt lat="42.39462633959419" lon="2.003476269515039">
        <time>2021-03-18T10:17:33Z</time>
      </trkpt>
      <trkpt lat="42.39488304825166" lon="2.002554502371925">
        <time>2021-03-18T10:17:33Z</time>
      </trkpt>
      <trkpt lat="42.39597109541965" lon="2.001647619393792">
        <time>2021-03-18T10:17:33Z</time>
      </trkpt>
      <trkpt lat="42.39636416220579" lon="2.001664456310432">
        <time>2021-03-18T10:17:33Z</time>
      </trkpt>
      <trkpt lat="42.39672006875191" lon="2.00090561562934">
        <time>2021-03-18T10:17:33Z</time>
      </trkpt>
      <trkpt lat="42.39786933263852" lon="2.000363686890376">
        <time>2021-03-18T10:17:33Z</time>
      </trkpt>
      <trkpt lat="42.39814800088158" lon="2.000103281922188">
        <time>2021-03-18T10:17:33Z</time>
      </trkpt>
      <trkpt lat="42.40083489182278" lon="1.998610808170023">
        <time>2021-03-18T10:17:33Z</time>
      </trkpt>
      <trkpt lat="42.4020803111524" lon="1.996659938305589">
        <time>2021-03-18T10:17:33Z</time>
      </trkpt>
      <trkpt lat="42.40277093602474" lon="1.995969395213522">
        <time>2021-03-18T10:17:33Z</time>
      </trkpt>
      <trkpt lat="42.40366893815655" lon="1.993439944612527">
        <time>2021-03-18T10:17:33Z</time>
      </trkpt>
      <trkpt lat="42.40433497167039" lon="1.992847579808279">
        <time>2021-03-18T10:17:33Z</time>
      </trkpt>
      <trkpt lat="42.40407448698279" lon="1.992342607019455">
        <time>2021-03-18T10:17:33Z</time>
      </trkpt>
      <trkpt lat="42.40517010034608" lon="1.99073007581575">
        <time>2021-03-18T10:17:33Z</time>
      </trkpt>
      <trkpt lat="42.40564793888305" lon="1.990511092619554">
        <time>2021-03-18T10:17:33Z</time>
      </trkpt>
      <trkpt lat="42.40605520970553" lon="1.990159590905618">
        <time>2021-03-18T10:17:33Z</time>
      </trkpt>
      <trkpt lat="42.40500194335002" lon="1.989027896191438">
        <time>2021-03-18T10:17:33Z</time>
      </trkpt>
      <trkpt lat="42.40649436864909" lon="1.988372834942893">
        <time>2021-03-18T10:17:33Z</time>
      </trkpt>
      <trkpt lat="42.40673336690746" lon="1.987487096162452">
        <time>2021-03-18T10:17:33Z</time>
      </trkpt>
      <trkpt lat="42.40753219037678" lon="1.987707231973273">
        <time>2021-03-18T10:17:33Z</time>
      </trkpt>
      <trkpt lat="42.40876810740922" lon="1.987644403616256">
        <time>2021-03-18T10:17:33Z</time>
      </trkpt>
      <trkpt lat="42.40982254349478" lon="1.987246705607491">
        <time>2021-03-18T10:17:33Z</time>
      </trkpt>
      <trkpt lat="42.41008644797704" lon="1.985830083043356">
        <time>2021-03-18T10:17:33Z</time>
      </trkpt>
      <trkpt lat="42.41060457612494" lon="1.983427399588202">
        <time>2021-03-18T10:17:33Z</time>
      </trkpt>
      <trkpt lat="42.41321454701666" lon="1.979183536487503">
        <time>2021-03-18T10:17:33Z</time>
      </trkpt>
      <trkpt lat="42.41368322816379" lon="1.971210122812512">
        <time>2021-03-18T10:17:33Z</time>
      </trkpt>
      <trkpt lat="42.4158890424748" lon="1.966250484149272">
        <time>2021-03-18T10:17:33Z</time>
      </trkpt>
      <trkpt lat="42.41512749339486" lon="1.963461548737779">
        <time>2021-03-18T10:17:33Z</time>
      </trkpt>
      <trkpt lat="42.41617127085156" lon="1.960212741890615">
        <time>2021-03-18T10:17:33Z</time>
      </trkpt>
      <trkpt lat="42.41813286268835" lon="1.95707312810874">
        <time>2021-03-18T10:17:33Z</time>
      </trkpt>
      <trkpt lat="42.41863528916606" lon="1.953747696012649">
        <time>2021-03-18T10:17:33Z</time>
      </trkpt>
      <trkpt lat="42.41879694651647" lon="1.95105570001755">
        <time>2021-03-18T10:17:33Z</time>
      </trkpt>
      <trkpt lat="42.41887033966063" lon="1.948755440386998">
        <time>2021-03-18T10:17:33Z</time>
      </trkpt>
      <trkpt lat="42.41861646744544" lon="1.942245670513565">
        <time>2021-03-18T10:17:33Z</time>
      </trkpt>
      <trkpt lat="42.42083216508857" lon="1.937640803024043">
        <time>2021-03-18T10:17:33Z</time>
      </trkpt>
      <trkpt lat="42.42220578577476" lon="1.935100853516185">
        <time>2021-03-18T10:17:33Z</time>
      </trkpt>
      <trkpt lat="42.42333995301202" lon="1.933740198256562">
        <time>2021-03-18T10:17:33Z</time>
      </trkpt>
      <trkpt lat="42.42396911749228" lon="1.93288782224277">
        <time>2021-03-18T10:17:33Z</time>
      </trkpt>
      <trkpt lat="42.42515528907117" lon="1.932277661506274">
        <time>2021-03-18T10:17:33Z</time>
      </trkpt>
      <trkpt lat="42.42783698744766" lon="1.929090854980287">
        <time>2021-03-18T10:17:33Z</time>
      </trkpt>
      <trkpt lat="42.42644566570933" lon="1.92690291054278">
        <time>2021-03-18T10:17:33Z</time>
      </trkpt>
      <trkpt lat="42.42542039822195" lon="1.92360486553109">
        <time>2021-03-18T10:17:33Z</time>
      </trkpt>
      <trkpt lat="42.42619366997535" lon="1.914434677160875">
        <time>2021-03-18T10:17:33Z</time>
      </trkpt>
      <trkpt lat="42.42270358034681" lon="1.904606111432228">
        <time>2021-03-18T10:17:33Z</time>
      </trkpt>
      <trkpt lat="42.41702230714388" lon="1.891401921404317">
        <time>2021-03-18T10:17:33Z</time>
      </trkpt>
      <trkpt lat="42.41966609952936" lon="1.885795949569913">
        <time>2021-03-18T10:17:33Z</time>
      </trkpt>
      <trkpt lat="42.41602708316768" lon="1.87652006129293">
        <time>2021-03-18T10:17:33Z</time>
      </trkpt>
      <trkpt lat="42.41791748232646" lon="1.860550400420036">
        <time>2021-03-18T10:17:33Z</time>
      </trkpt>
      <trkpt lat="42.41540171360501" lon="1.856981320386899">
        <time>2021-03-18T10:17:33Z</time>
      </trkpt>
      <trkpt lat="42.41201855898847" lon="1.855665411826282">
        <time>2021-03-18T10:17:33Z</time>
      </trkpt>
      <trkpt lat="42.40916914082905" lon="1.853230270014386">
        <time>2021-03-18T10:17:33Z</time>
      </trkpt>
      <trkpt lat="42.40987573121142" lon="1.845218442425805">
        <time>2021-03-18T10:17:33Z</time>
      </trkpt>
      <trkpt lat="42.40765816164601" lon="1.843613382574136">
        <time>2021-03-18T10:17:33Z</time>
      </trkpt>
      <trkpt lat="42.40358006879546" lon="1.845043902063841">
        <time>2021-03-18T10:17:33Z</time>
      </trkpt>
      <trkpt lat="42.40131246525115" lon="1.844631836208064">
        <time>2021-03-18T10:17:33Z</time>
      </trkpt>
      <trkpt lat="42.39916906477494" lon="1.843982440185907">
        <time>2021-03-18T10:17:33Z</time>
      </trkpt>
      <trkpt lat="42.39624871716399" lon="1.840872378414131">
        <time>2021-03-18T10:17:33Z</time>
      </trkpt>
      <trkpt lat="42.39352128614669" lon="1.834498416204313">
        <time>2021-03-18T10:17:33Z</time>
      </trkpt>
      <trkpt lat="42.39078569502188" lon="1.831890759060957">
        <time>2021-03-18T10:17:33Z</time>
      </trkpt>
      <trkpt lat="42.38613406610158" lon="1.829310054362276">
        <time>2021-03-18T10:17:33Z</time>
      </trkpt>
      <trkpt lat="42.38023028806619" lon="1.822906746811102">
        <time>2021-03-18T10:17:33Z</time>
      </trkpt>
      <trkpt lat="42.37741550247561" lon="1.817003208290466">
        <time>2021-03-18T10:17:33Z</time>
      </trkpt>
      <trkpt lat="42.37486857919436" lon="1.815175410501464">
        <time>2021-03-18T10:17:33Z</time>
      </trkpt>
      <trkpt lat="42.37259205017173" lon="1.813889779675246">
        <time>2021-03-18T10:17:33Z</time>
      </trkpt>
      <trkpt lat="42.37103193418805" lon="1.811010712268226">
        <time>2021-03-18T10:17:33Z</time>
      </trkpt>
      <trkpt lat="42.37194361731691" lon="1.806618454175173">
        <time>2021-03-18T10:17:33Z</time>
      </trkpt>
      <trkpt lat="42.37068804883243" lon="1.803350050288477">
        <time>2021-03-18T10:17:33Z</time>
      </trkpt>
      <trkpt lat="42.37026969526087" lon="1.799147017585421">
        <time>2021-03-18T10:17:33Z</time>
      </trkpt>
      <trkpt lat="42.37367818689587" lon="1.787749991349901">
        <time>2021-03-18T10:17:33Z</time>
      </trkpt>
      <trkpt lat="42.37511548080702" lon="1.780933122908432">
        <time>2021-03-18T10:17:33Z</time>
      </trkpt>
      <trkpt lat="42.37451539115614" lon="1.7774377590749">
        <time>2021-03-18T10:17:33Z</time>
      </trkpt>
      <trkpt lat="42.37296699814305" lon="1.774898094510391">
        <time>2021-03-18T10:17:33Z</time>
      </trkpt>
      <trkpt lat="42.37456771876123" lon="1.770932752107077">
        <time>2021-03-18T10:17:33Z</time>
      </trkpt>
      <trkpt lat="42.37323615953661" lon="1.766503906565353">
        <time>2021-03-18T10:17:33Z</time>
      </trkpt>
      <trkpt lat="42.37278114383527" lon="1.761611750401642">
        <time>2021-03-18T10:17:33Z</time>
      </trkpt>
      <trkpt lat="42.37352140755385" lon="1.759039178797179">
        <time>2021-03-18T10:17:33Z</time>
      </trkpt>
      <trkpt lat="42.3733387081576" lon="1.756784499842441">
        <time>2021-03-18T10:17:33Z</time>
      </trkpt>
      <trkpt lat="42.37392483721323" lon="1.752657969385543">
        <time>2021-03-18T10:17:33Z</time>
      </trkpt>
      <trkpt lat="42.37286726251848" lon="1.744408295083757">
        <time>2021-03-18T10:17:33Z</time>
      </trkpt>
      <trkpt lat="42.37339907681754" lon="1.740364372415388">
        <time>2021-03-18T10:17:33Z</time>
      </trkpt>
      <trkpt lat="42.3694841040418" lon="1.733325439059463">
        <time>2021-03-18T10:17:33Z</time>
      </trkpt>
      <trkpt lat="42.36831847541186" lon="1.726072463276076">
        <time>2021-03-18T10:17:33Z</time>
      </trkpt>
      <trkpt lat="42.36696409462132" lon="1.72316142498036">
        <time>2021-03-18T10:17:33Z</time>
      </trkpt>
      <trkpt lat="42.3668558560147" lon="1.722498552195417">
        <time>2021-03-18T10:17:33Z</time>
      </trkpt>
      <trkpt lat="42.36648356325465" lon="1.719596687972462">
        <time>2021-03-18T10:17:33Z</time>
      </trkpt>
      <trkpt lat="42.36525463796735" lon="1.715578623927596">
        <time>2021-03-18T10:17:33Z</time>
      </trkpt>
      <trkpt lat="42.36501271014579" lon="1.713544235472599">
        <time>2021-03-18T10:17:33Z</time>
      </trkpt>
      <trkpt lat="42.36450360848058" lon="1.712154399781565">
        <time>2021-03-18T10:17:33Z</time>
      </trkpt>
      <trkpt lat="42.36445445577677" lon="1.711977215612488">
        <time>2021-03-18T10:17:33Z</time>
      </trkpt>
      <trkpt lat="42.36404141651612" lon="1.709786921670351">
        <time>2021-03-18T10:17:33Z</time>
      </trkpt>
      <trkpt lat="42.36408873404023" lon="1.705952024230368">
        <time>2021-03-18T10:17:33Z</time>
      </trkpt>
      <trkpt lat="42.36369667420632" lon="1.705183563564847">
        <time>2021-03-18T10:17:33Z</time>
      </trkpt>
      <trkpt lat="42.35934423449846" lon="1.702395281732185">
        <time>2021-03-18T10:17:33Z</time>
      </trkpt>
      <trkpt lat="42.35900698137075" lon="1.701365008391145">
        <time>2021-03-18T10:17:33Z</time>
      </trkpt>
      <trkpt lat="42.35979319916325" lon="1.698656135110177">
        <time>2021-03-18T10:17:33Z</time>
      </trkpt>
      <trkpt lat="42.3597289956609" lon="1.695079110234496">
        <time>2021-03-18T10:17:33Z</time>
      </trkpt>
      <trkpt lat="42.35958122796581" lon="1.692731747701686">
        <time>2021-03-18T10:17:33Z</time>
      </trkpt>
      <trkpt lat="42.36042092933268" lon="1.690636795811362">
        <time>2021-03-18T10:17:33Z</time>
      </trkpt>
      <trkpt lat="42.36038392522153" lon="1.687567631607838">
        <time>2021-03-18T10:17:33Z</time>
      </trkpt>
      <trkpt lat="42.3595605059009" lon="1.684803346589472">
        <time>2021-03-18T10:17:33Z</time>
      </trkpt>
      <trkpt lat="42.35964400205257" lon="1.683572311551824">
        <time>2021-03-18T10:17:33Z</time>
      </trkpt>
      <trkpt lat="42.36057708724014" lon="1.682554126440221">
        <time>2021-03-18T10:17:33Z</time>
      </trkpt>
      <trkpt lat="42.36420752744508" lon="1.681242867371335">
        <time>2021-03-18T10:17:33Z</time>
      </trkpt>
      <trkpt lat="42.36617315076661" lon="1.678679061534105">
        <time>2021-03-18T10:17:33Z</time>
      </trkpt>
      <trkpt lat="42.36623679569028" lon="1.677196968537775">
        <time>2021-03-18T10:17:33Z</time>
      </trkpt>
      <trkpt lat="42.36592706734911" lon="1.675450942133476">
        <time>2021-03-18T10:17:33Z</time>
      </trkpt>
      <trkpt lat="42.36306949237734" lon="1.670291119776255">
        <time>2021-03-18T10:17:33Z</time>
      </trkpt>
      <trkpt lat="42.36234838431015" lon="1.668029723692823">
        <time>2021-03-18T10:17:33Z</time>
      </trkpt>
      <trkpt lat="42.36224712589546" lon="1.667224096476345">
        <time>2021-03-18T10:17:33Z</time>
      </trkpt>
      <trkpt lat="42.36402664123971" lon="1.664235515448354">
        <time>2021-03-18T10:17:33Z</time>
      </trkpt>
      <trkpt lat="42.36430327861302" lon="1.662771397697516">
        <time>2021-03-18T10:17:33Z</time>
      </trkpt>
      <trkpt lat="42.36470966570839" lon="1.660739521775121">
        <time>2021-03-18T10:17:33Z</time>
      </trkpt>
      <trkpt lat="42.36657462381495" lon="1.658754650793446">
        <time>2021-03-18T10:17:33Z</time>
      </trkpt>
      <trkpt lat="42.36679880359173" lon="1.65637306787487">
        <time>2021-03-18T10:17:33Z</time>
      </trkpt>
      <trkpt lat="42.3661842749022" lon="1.654768558593971">
        <time>2021-03-18T10:17:33Z</time>
      </trkpt>
      <trkpt lat="42.3643888350611" lon="1.654391106585922">
        <time>2021-03-18T10:17:33Z</time>
      </trkpt>
      <trkpt lat="42.36411162994494" lon="1.654031953944035">
        <time>2021-03-18T10:17:33Z</time>
      </trkpt>
      <trkpt lat="42.36416912720274" lon="1.65102129689811">
        <time>2021-03-18T10:17:33Z</time>
      </trkpt>
      <trkpt lat="42.36547745587893" lon="1.648921115914428">
        <time>2021-03-18T10:17:33Z</time>
      </trkpt>
      <trkpt lat="42.36702701098606" lon="1.647328927988045">
        <time>2021-03-18T10:17:33Z</time>
      </trkpt>
      <trkpt lat="42.3698887061444" lon="1.64673531502624">
        <time>2021-03-18T10:17:33Z</time>
      </trkpt>
      <trkpt lat="42.37292119118874" lon="1.643394231786508">
        <time>2021-03-18T10:17:33Z</time>
      </trkpt>
      <trkpt lat="42.37402848339953" lon="1.638443836530088">
        <time>2021-03-18T10:17:33Z</time>
      </trkpt>
      <trkpt lat="42.37450757951896" lon="1.63614119130991">
        <time>2021-03-18T10:17:33Z</time>
      </trkpt>
      <trkpt lat="42.3742244299531" lon="1.634664406002588">
        <time>2021-03-18T10:17:33Z</time>
      </trkpt>
      <trkpt lat="42.37444444683602" lon="1.632779225522028">
        <time>2021-03-18T10:17:33Z</time>
      </trkpt>
      <trkpt lat="42.37278938036238" lon="1.629818222073396">
        <time>2021-03-18T10:17:33Z</time>
      </trkpt>
      <trkpt lat="42.37267161232251" lon="1.627346363243554">
        <time>2021-03-18T10:17:33Z</time>
      </trkpt>
      <trkpt lat="42.37257639334818" lon="1.621711622826114">
        <time>2021-03-18T10:17:33Z</time>
      </trkpt>
      <trkpt lat="42.3712057224178" lon="1.619636000481914">
        <time>2021-03-18T10:17:33Z</time>
      </trkpt>
      <trkpt lat="42.36962444723963" lon="1.61531239185883">
        <time>2021-03-18T10:17:33Z</time>
      </trkpt>
      <trkpt lat="42.36910478908211" lon="1.610911912908821">
        <time>2021-03-18T10:17:33Z</time>
      </trkpt>
      <trkpt lat="42.37063569102732" lon="1.608521734592652">
        <time>2021-03-18T10:17:33Z</time>
      </trkpt>
      <trkpt lat="42.37098966461939" lon="1.606462143771101">
        <time>2021-03-18T10:17:33Z</time>
      </trkpt>
      <trkpt lat="42.37134371721851" lon="1.600976793896958">
        <time>2021-03-18T10:17:33Z</time>
      </trkpt>
      <trkpt lat="42.37056739705474" lon="1.598566746329484">
        <time>2021-03-18T10:17:33Z</time>
      </trkpt>
      <trkpt lat="42.3692660055402" lon="1.59750211764953">
        <time>2021-03-18T10:17:33Z</time>
      </trkpt>
      <trkpt lat="42.3687638652858" lon="1.59616792097349">
        <time>2021-03-18T10:17:33Z</time>
      </trkpt>
      <trkpt lat="42.36846833574041" lon="1.592182874245545">
        <time>2021-03-18T10:17:33Z</time>
      </trkpt>
      <trkpt lat="42.36714442651535" lon="1.589407701024419">
        <time>2021-03-18T10:17:33Z</time>
      </trkpt>
      <trkpt lat="42.36673883311623" lon="1.588107512172257">
        <time>2021-03-18T10:17:33Z</time>
      </trkpt>
      <trkpt lat="42.36397717804863" lon="1.588154020697927">
        <time>2021-03-18T10:17:33Z</time>
      </trkpt>
      <trkpt lat="42.36238553401186" lon="1.587755250677663">
        <time>2021-03-18T10:17:33Z</time>
      </trkpt>
      <trkpt lat="42.36060198188493" lon="1.585792515611069">
        <time>2021-03-18T10:17:33Z</time>
      </trkpt>
      <trkpt lat="42.36050767755635" lon="1.58296718060212">
        <time>2021-03-18T10:17:33Z</time>
      </trkpt>
      <trkpt lat="42.35901639406259" lon="1.580069639336397">
        <time>2021-03-18T10:17:33Z</time>
      </trkpt>
      <trkpt lat="42.35927465683047" lon="1.578443322390923">
        <time>2021-03-18T10:17:33Z</time>
      </trkpt>
      <trkpt lat="42.36154009065452" lon="1.57634616114722">
        <time>2021-03-18T10:17:33Z</time>
      </trkpt>
      <trkpt lat="42.36222454413836" lon="1.573879259692328">
        <time>2021-03-18T10:17:33Z</time>
      </trkpt>
      <trkpt lat="42.36151364814604" lon="1.572101113838229">
        <time>2021-03-18T10:17:33Z</time>
      </trkpt>
      <trkpt lat="42.36003686253348" lon="1.569461348413219">
        <time>2021-03-18T10:17:33Z</time>
      </trkpt>
      <trkpt lat="42.35901785168143" lon="1.565979795061545">
        <time>2021-03-18T10:17:33Z</time>
      </trkpt>
      <trkpt lat="42.35971849415638" lon="1.563095146931262">
        <time>2021-03-18T10:17:33Z</time>
      </trkpt>
      <trkpt lat="42.35943599883773" lon="1.5581937675253">
        <time>2021-03-18T10:17:33Z</time>
      </trkpt>
      <trkpt lat="42.35854832341181" lon="1.555325164396344">
        <time>2021-03-18T10:17:33Z</time>
      </trkpt>
      <trkpt lat="42.35786601737264" lon="1.550232752990723">
        <time>2021-03-18T10:17:33Z</time>
      </trkpt>
      <trkpt lat="42.35867328313038" lon="1.547519300554541">
        <time>2021-03-18T10:17:33Z</time>
      </trkpt>
      <trkpt lat="42.35881190552131" lon="1.544016460019431">
        <time>2021-03-18T10:17:33Z</time>
      </trkpt>
      <trkpt lat="42.35822447429567" lon="1.542116795445925">
        <time>2021-03-18T10:17:33Z</time>
      </trkpt>
      <trkpt lat="42.35661015698639" lon="1.5408730438637">
        <time>2021-03-18T10:17:33Z</time>
      </trkpt>
      <trkpt lat="42.35689241966792" lon="1.537786764493871">
        <time>2021-03-18T10:17:33Z</time>
      </trkpt>
      <trkpt lat="42.35665449044103" lon="1.536257110748882">
        <time>2021-03-18T10:17:33Z</time>
      </trkpt>
      <trkpt lat="42.35708811091459" lon="1.533688979238073">
        <time>2021-03-18T10:17:33Z</time>
      </trkpt>
      <trkpt lat="42.35664838194845" lon="1.529909732559029">
        <time>2021-03-18T10:17:33Z</time>
      </trkpt>
      <trkpt lat="42.35587070553728" lon="1.525873614404376">
        <time>2021-03-18T10:17:33Z</time>
      </trkpt>
      <trkpt lat="42.35963122048974" lon="1.517605102513262">
        <time>2021-03-18T10:17:33Z</time>
      </trkpt>
      <trkpt lat="42.36041152188518" lon="1.512831817301952">
        <time>2021-03-18T10:17:33Z</time>
      </trkpt>
      <trkpt lat="42.35811973405953" lon="1.508991263965838">
        <time>2021-03-18T10:17:33Z</time>
      </trkpt>
      <trkpt lat="42.35745881814258" lon="1.507438168353961">
        <time>2021-03-18T10:17:33Z</time>
      </trkpt>
      <trkpt lat="42.35748117452311" lon="1.504900229561796">
        <time>2021-03-18T10:17:33Z</time>
      </trkpt>
      <trkpt lat="42.35682317214651" lon="1.505267851774248">
        <time>2021-03-18T10:17:33Z</time>
      </trkpt>
      <trkpt lat="42.35650578869851" lon="1.504010191115732">
        <time>2021-03-18T10:17:33Z</time>
      </trkpt>
      <trkpt lat="42.35632204233136" lon="1.501355361317993">
        <time>2021-03-18T10:17:33Z</time>
      </trkpt>
      <trkpt lat="42.35700968052201" lon="1.498253139318588">
        <time>2021-03-18T10:17:33Z</time>
      </trkpt>
      <trkpt lat="42.35872705947212" lon="1.491931359303536">
        <time>2021-03-18T10:17:33Z</time>
      </trkpt>
      <trkpt lat="42.35857961249924" lon="1.489581534476476">
        <time>2021-03-18T10:17:33Z</time>
      </trkpt>
      <trkpt lat="42.35816477282591" lon="1.487273848162196">
        <time>2021-03-18T10:17:33Z</time>
      </trkpt>
      <trkpt lat="42.35798084308194" lon="1.484682408507052">
        <time>2021-03-18T10:17:33Z</time>
      </trkpt>
      <trkpt lat="42.35805431140192" lon="1.483662297620769">
        <time>2021-03-18T10:17:33Z</time>
      </trkpt>
      <trkpt lat="42.35913189693011" lon="1.481357317482253">
        <time>2021-03-18T10:17:33Z</time>
      </trkpt>
      <trkpt lat="42.35986964926889" lon="1.479129333319171">
        <time>2021-03-18T10:17:33Z</time>
      </trkpt>
      <trkpt lat="42.35977003849756" lon="1.475844957660211">
        <time>2021-03-18T10:17:33Z</time>
      </trkpt>
      <trkpt lat="42.35893570066098" lon="1.473481771553609">
        <time>2021-03-18T10:17:33Z</time>
      </trkpt>
      <trkpt lat="42.35825932009859" lon="1.470089888838011">
        <time>2021-03-18T10:17:33Z</time>
      </trkpt>
      <trkpt lat="42.35713185839916" lon="1.466850017104575">
        <time>2021-03-18T10:17:33Z</time>
      </trkpt>
      <trkpt lat="42.35855857422449" lon="1.465484012784557">
        <time>2021-03-18T10:17:33Z</time>
      </trkpt>
      <trkpt lat="42.35825735228886" lon="1.464201717914191">
        <time>2021-03-18T10:17:33Z</time>
      </trkpt>
      <trkpt lat="42.3584381052906" lon="1.463617766627545">
        <time>2021-03-18T10:17:33Z</time>
      </trkpt>
      <trkpt lat="42.35796525434072" lon="1.460652397802174">
        <time>2021-03-18T10:17:33Z</time>
      </trkpt>
      <trkpt lat="42.35640134447515" lon="1.460831777865197">
        <time>2021-03-18T10:17:33Z</time>
      </trkpt>
      <trkpt lat="42.35620570434544" lon="1.460110836059323">
        <time>2021-03-18T10:17:33Z</time>
      </trkpt>
      <trkpt lat="42.35645916053284" lon="1.459558425545091">
        <time>2021-03-18T10:17:33Z</time>
      </trkpt>
      <trkpt lat="42.35637001463694" lon="1.45924886637973">
        <time>2021-03-18T10:17:33Z</time>
      </trkpt>
      <trkpt lat="42.35423742304281" lon="1.460482007686037">
        <time>2021-03-18T10:17:33Z</time>
      </trkpt>
      <trkpt lat="42.35338236378993" lon="1.460578928469556">
        <time>2021-03-18T10:17:33Z</time>
      </trkpt>
      <trkpt lat="42.35242350600814" lon="1.459248813545613">
        <time>2021-03-18T10:17:33Z</time>
      </trkpt>
      <trkpt lat="42.35201395916498" lon="1.459932016763572">
        <time>2021-03-18T10:17:33Z</time>
      </trkpt>
      <trkpt lat="42.35180286048325" lon="1.459361647937942">
        <time>2021-03-18T10:17:33Z</time>
      </trkpt>
      <trkpt lat="42.34957969091092" lon="1.456694727591381">
        <time>2021-03-18T10:17:33Z</time>
      </trkpt>
      <trkpt lat="42.34821217461897" lon="1.455500744366791">
        <time>2021-03-18T10:17:33Z</time>
      </trkpt>
      <trkpt lat="42.34783820723276" lon="1.454355327524557">
        <time>2021-03-18T10:17:33Z</time>
      </trkpt>
      <trkpt lat="42.3470271992847" lon="1.452683322999864">
        <time>2021-03-18T10:17:33Z</time>
      </trkpt>
      <trkpt lat="42.34661255652336" lon="1.451230734867925">
        <time>2021-03-18T10:17:33Z</time>
      </trkpt>
      <trkpt lat="42.34654406928691" lon="1.447043659431198">
        <time>2021-03-18T10:17:33Z</time>
      </trkpt>
      <trkpt lat="42.34541948771308" lon="1.442931233268892">
        <time>2021-03-18T10:17:33Z</time>
      </trkpt>
      <trkpt lat="42.34428126338166" lon="1.440487237329624">
        <time>2021-03-18T10:17:33Z</time>
      </trkpt>
      <trkpt lat="42.3419502098205" lon="1.438252509213287">
        <time>2021-03-18T10:17:33Z</time>
      </trkpt>
      <trkpt lat="42.34079284961552" lon="1.437390166235681">
        <time>2021-03-18T10:17:33Z</time>
      </trkpt>
      <trkpt lat="42.33953118753425" lon="1.433111531169176">
        <time>2021-03-18T10:17:33Z</time>
      </trkpt>
      <trkpt lat="42.33706741931302" lon="1.430039761281103">
        <time>2021-03-18T10:17:33Z</time>
      </trkpt>
      <trkpt lat="42.33531047537439" lon="1.428894930250648">
        <time>2021-03-18T10:17:33Z</time>
      </trkpt>
      <trkpt lat="42.33456347083279" lon="1.427697853831278">
        <time>2021-03-18T10:17:33Z</time>
      </trkpt>
      <trkpt lat="42.33412170119485" lon="1.426132491407735">
        <time>2021-03-18T10:17:33Z</time>
      </trkpt>
      <trkpt lat="42.33346146790333" lon="1.425200117534047">
        <time>2021-03-18T10:17:33Z</time>
      </trkpt>
      <trkpt lat="42.33305986984742" lon="1.423857098156218">
        <time>2021-03-18T10:17:33Z</time>
      </trkpt>
      <trkpt lat="42.33213936785661" lon="1.422401175733137">
        <time>2021-03-18T10:17:33Z</time>
      </trkpt>
      <trkpt lat="42.33208796893349" lon="1.419220619342099">
        <time>2021-03-18T10:17:33Z</time>
      </trkpt>
      <trkpt lat="42.33179890823408" lon="1.417933562986866">
        <time>2021-03-18T10:17:33Z</time>
      </trkpt>
      <trkpt lat="42.3321424369416" lon="1.415878311407022">
        <time>2021-03-18T10:17:33Z</time>
      </trkpt>
      <trkpt lat="42.3309825503182" lon="1.4140081243792">
        <time>2021-03-18T10:17:33Z</time>
      </trkpt>
      <trkpt lat="42.32931282833852" lon="1.413045594138869">
        <time>2021-03-18T10:17:33Z</time>
      </trkpt>
      <trkpt lat="42.32945112301325" lon="1.411858546034757">
        <time>2021-03-18T10:17:33Z</time>
      </trkpt>
      <trkpt lat="42.32739088098916" lon="1.411304140543521">
        <time>2021-03-18T10:17:33Z</time>
      </trkpt>
      <trkpt lat="42.32650349668764" lon="1.410654975752039">
        <time>2021-03-18T10:17:33Z</time>
      </trkpt>
      <trkpt lat="42.32603721041646" lon="1.409532100042465">
        <time>2021-03-18T10:17:33Z</time>
      </trkpt>
      <trkpt lat="42.32573390692993" lon="1.407188920988038">
        <time>2021-03-18T10:17:33Z</time>
      </trkpt>
      <trkpt lat="42.32482850635546" lon="1.405360513852922">
        <time>2021-03-18T10:17:33Z</time>
      </trkpt>
      <trkpt lat="42.32417073151179" lon="1.403705525484333">
        <time>2021-03-18T10:17:33Z</time>
      </trkpt>
      <trkpt lat="42.32309392950024" lon="1.402971668395516">
        <time>2021-03-18T10:17:33Z</time>
      </trkpt>
      <trkpt lat="42.3227395770362" lon="1.402027977059102">
        <time>2021-03-18T10:17:33Z</time>
      </trkpt>
      <trkpt lat="42.32264681346483" lon="1.400402762334763">
        <time>2021-03-18T10:17:33Z</time>
      </trkpt>
      <trkpt lat="42.32278723730166" lon="1.399082241981577">
        <time>2021-03-18T10:17:33Z</time>
      </trkpt>
      <trkpt lat="42.32348528887203" lon="1.397447369856519">
        <time>2021-03-18T10:17:33Z</time>
      </trkpt>
      <trkpt lat="42.32240803174817" lon="1.394078787707218">
        <time>2021-03-18T10:17:33Z</time>
      </trkpt>
      <trkpt lat="42.31998343352162" lon="1.391475054715006">
        <time>2021-03-18T10:17:33Z</time>
      </trkpt>
      <trkpt lat="42.31842500211631" lon="1.390455578550738">
        <time>2021-03-18T10:17:33Z</time>
      </trkpt>
      <trkpt lat="42.31673150011711" lon="1.388884118387781">
        <time>2021-03-18T10:17:33Z</time>
      </trkpt>
      <trkpt lat="42.31669394436881" lon="1.387351607263598">
        <time>2021-03-18T10:17:33Z</time>
      </trkpt>
      <trkpt lat="42.31607221237911" lon="1.386401763526235">
        <time>2021-03-18T10:17:33Z</time>
      </trkpt>
      <trkpt lat="42.31517521672414" lon="1.384829972700281">
        <time>2021-03-18T10:17:33Z</time>
      </trkpt>
      <trkpt lat="42.31382870216302" lon="1.383334319294036">
        <time>2021-03-18T10:17:33Z</time>
      </trkpt>
      <trkpt lat="42.31429488015662" lon="1.382322764482102">
        <time>2021-03-18T10:17:33Z</time>
      </trkpt>
      <trkpt lat="42.31441168832023" lon="1.382033252786126">
        <time>2021-03-18T10:17:33Z</time>
      </trkpt>
      <trkpt lat="42.31475665056205" lon="1.382027217485826">
        <time>2021-03-18T10:17:33Z</time>
      </trkpt>
      <trkpt lat="42.3152108528204" lon="1.381741081655756">
        <time>2021-03-18T10:17:33Z</time>
      </trkpt>
      <trkpt lat="42.31493534954625" lon="1.380972546360153">
        <time>2021-03-18T10:17:33Z</time>
      </trkpt>
      <trkpt lat="42.31405646201527" lon="1.380132935213265">
        <time>2021-03-18T10:17:33Z</time>
      </trkpt>
      <trkpt lat="42.31392643497998" lon="1.380054913729671">
        <time>2021-03-18T10:17:33Z</time>
      </trkpt>
      <trkpt lat="42.30870410278089" lon="1.375190910586894">
        <time>2021-03-18T10:17:33Z</time>
      </trkpt>
      <trkpt lat="42.30776085329014" lon="1.37404635794709">
        <time>2021-03-18T10:17:33Z</time>
      </trkpt>
      <trkpt lat="42.30630800864181" lon="1.371302379519352">
        <time>2021-03-18T10:17:33Z</time>
      </trkpt>
      <trkpt lat="42.30437027119982" lon="1.368998532221137">
        <time>2021-03-18T10:17:33Z</time>
      </trkpt>
      <trkpt lat="42.30200501844219" lon="1.367373207931142">
        <time>2021-03-18T10:17:33Z</time>
      </trkpt>
      <trkpt lat="42.30072492614337" lon="1.36702742916808">
        <time>2021-03-18T10:17:33Z</time>
      </trkpt>
      <trkpt lat="42.29886455479296" lon="1.364785878346082">
        <time>2021-03-18T10:17:33Z</time>
      </trkpt>
      <trkpt lat="42.29741857505217" lon="1.364099452713987">
        <time>2021-03-18T10:17:33Z</time>
      </trkpt>
      <trkpt lat="42.29609185409257" lon="1.364685462944069">
        <time>2021-03-18T10:17:33Z</time>
      </trkpt>
      <trkpt lat="42.29506396433224" lon="1.365934823008452">
        <time>2021-03-18T10:17:33Z</time>
      </trkpt>
      <trkpt lat="42.29380051071052" lon="1.367089180624648">
        <time>2021-03-18T10:17:33Z</time>
      </trkpt>
      <trkpt lat="42.29225893303259" lon="1.368135876678558">
        <time>2021-03-18T10:17:33Z</time>
      </trkpt>
      <trkpt lat="42.29000669239685" lon="1.367633548691631">
        <time>2021-03-18T10:17:33Z</time>
      </trkpt>
      <trkpt lat="42.29029421816395" lon="1.366631198232058">
        <time>2021-03-18T10:17:33Z</time>
      </trkpt>
      <trkpt lat="42.29013124959739" lon="1.366067983635977">
        <time>2021-03-18T10:17:33Z</time>
      </trkpt>
      <trkpt lat="42.28971739152211" lon="1.365611459218807">
        <time>2021-03-18T10:17:33Z</time>
      </trkpt>
      <trkpt lat="42.28878273157913" lon="1.363753831076338">
        <time>2021-03-18T10:17:33Z</time>
      </trkpt>
      <trkpt lat="42.28846020492527" lon="1.362833323440722">
        <time>2021-03-18T10:17:33Z</time>
      </trkpt>
      <trkpt lat="42.28803838375688" lon="1.361673797418064">
        <time>2021-03-18T10:17:33Z</time>
      </trkpt>
      <trkpt lat="42.29086286471924" lon="1.355935440062335">
        <time>2021-03-18T10:17:33Z</time>
      </trkpt>
      <trkpt lat="42.29115784658704" lon="1.354529726863532">
        <time>2021-03-18T10:17:33Z</time>
      </trkpt>
      <trkpt lat="42.29116114420304" lon="1.353834259676232">
        <time>2021-03-18T10:17:33Z</time>
      </trkpt>
      <trkpt lat="42.29179591950665" lon="1.352823321416208">
        <time>2021-03-18T10:17:33Z</time>
      </trkpt>
      <trkpt lat="42.29251007289529" lon="1.349647126461302">
        <time>2021-03-18T10:17:33Z</time>
      </trkpt>
      <trkpt lat="42.29307968288259" lon="1.348024872794922">
        <time>2021-03-18T10:17:33Z</time>
      </trkpt>
      <trkpt lat="42.29389751913912" lon="1.347061674802716">
        <time>2021-03-18T10:17:33Z</time>
      </trkpt>
      <trkpt lat="42.29390037810627" lon="1.345739098391048">
        <time>2021-03-18T10:17:33Z</time>
      </trkpt>
      <trkpt lat="42.29310550941915" lon="1.345002006975604">
        <time>2021-03-18T10:17:33Z</time>
      </trkpt>
      <trkpt lat="42.29294415905243" lon="1.342820301158079">
        <time>2021-03-18T10:17:33Z</time>
      </trkpt>
      <trkpt lat="42.29225701960716" lon="1.341718025665677">
        <time>2021-03-18T10:17:33Z</time>
      </trkpt>
      <trkpt lat="42.29210744283126" lon="1.340559213956847">
        <time>2021-03-18T10:17:33Z</time>
      </trkpt>
      <trkpt lat="42.29229273908081" lon="1.338846226613055">
        <time>2021-03-18T10:17:33Z</time>
      </trkpt>
      <trkpt lat="42.29128296312756" lon="1.3332308384431">
        <time>2021-03-18T10:17:33Z</time>
      </trkpt>
      <trkpt lat="42.29101957928437" lon="1.330570207691364">
        <time>2021-03-18T10:17:33Z</time>
      </trkpt>
      <trkpt lat="42.29214503286077" lon="1.328562027960558">
        <time>2021-03-18T10:17:33Z</time>
      </trkpt>
      <trkpt lat="42.2923322413065" lon="1.327000092988437">
        <time>2021-03-18T10:17:33Z</time>
      </trkpt>
      <trkpt lat="42.2924143290488" lon="1.326292462720575">
        <time>2021-03-18T10:17:33Z</time>
      </trkpt>
      <trkpt lat="42.29166101729193" lon="1.324723570418602">
        <time>2021-03-18T10:17:33Z</time>
      </trkpt>
      <trkpt lat="42.29170104110973" lon="1.323853521187701">
        <time>2021-03-18T10:17:33Z</time>
      </trkpt>
      <trkpt lat="42.29121980505168" lon="1.323278642212078">
        <time>2021-03-18T10:17:33Z</time>
      </trkpt>
      <trkpt lat="42.29192207092655" lon="1.321970813314499">
        <time>2021-03-18T10:17:33Z</time>
      </trkpt>
      <trkpt lat="42.29242928454042" lon="1.321947542262434">
        <time>2021-03-18T10:17:33Z</time>
      </trkpt>
      <trkpt lat="42.29283232856479" lon="1.32022929000124">
        <time>2021-03-18T10:17:33Z</time>
      </trkpt>
      <trkpt lat="42.29397961631538" lon="1.318444486601087">
        <time>2021-03-18T10:17:33Z</time>
      </trkpt>
      <trkpt lat="42.29393674021643" lon="1.316172397423385">
        <time>2021-03-18T10:17:33Z</time>
      </trkpt>
      <trkpt lat="42.29427482294673" lon="1.315842917759953">
        <time>2021-03-18T10:17:33Z</time>
      </trkpt>
      <trkpt lat="42.29485541265678" lon="1.314245737773085">
        <time>2021-03-18T10:17:33Z</time>
      </trkpt>
      <trkpt lat="42.29490171558916" lon="1.314097379246362">
        <time>2021-03-18T10:17:33Z</time>
      </trkpt>
      <trkpt lat="42.29516661669607" lon="1.312302082923178">
        <time>2021-03-18T10:17:33Z</time>
      </trkpt>
      <trkpt lat="42.29652901845837" lon="1.312269080334096">
        <time>2021-03-18T10:17:33Z</time>
      </trkpt>
      <trkpt lat="42.29655600007496" lon="1.311480594908165">
        <time>2021-03-18T10:17:33Z</time>
      </trkpt>
      <trkpt lat="42.29705959556855" lon="1.309500103728551">
        <time>2021-03-18T10:17:33Z</time>
      </trkpt>
      <trkpt lat="42.29685715578628" lon="1.308083261080826">
        <time>2021-03-18T10:17:33Z</time>
      </trkpt>
      <trkpt lat="42.29723022524805" lon="1.306801824514228">
        <time>2021-03-18T10:17:33Z</time>
      </trkpt>
      <trkpt lat="42.29779209027467" lon="1.306576793788015">
        <time>2021-03-18T10:17:33Z</time>
      </trkpt>
      <trkpt lat="42.297732851968" lon="1.305604294746738">
        <time>2021-03-18T10:17:33Z</time>
      </trkpt>
      <trkpt lat="42.29820060763379" lon="1.30509837934053">
        <time>2021-03-18T10:17:33Z</time>
      </trkpt>
      <trkpt lat="42.29827064605204" lon="1.304973347459641">
        <time>2021-03-18T10:17:33Z</time>
      </trkpt>
      <trkpt lat="42.2983250575883" lon="1.303592099948594">
        <time>2021-03-18T10:17:33Z</time>
      </trkpt>
      <trkpt lat="42.298395897114" lon="1.303460403582761">
        <time>2021-03-18T10:17:33Z</time>
      </trkpt>
      <trkpt lat="42.29856705082031" lon="1.30216244318474">
        <time>2021-03-18T10:17:33Z</time>
      </trkpt>
      <trkpt lat="42.29858690081025" lon="1.301987543172667">
        <time>2021-03-18T10:17:33Z</time>
      </trkpt>
      <trkpt lat="42.29857813412475" lon="1.301357203969134">
        <time>2021-03-18T10:17:33Z</time>
      </trkpt>
      <trkpt lat="42.29865042724949" lon="1.30125660793663">
        <time>2021-03-18T10:17:33Z</time>
      </trkpt>
      <trkpt lat="42.29899973197649" lon="1.300491204294163">
        <time>2021-03-18T10:17:33Z</time>
      </trkpt>
      <trkpt lat="42.29903761843038" lon="1.300239269148518">
        <time>2021-03-18T10:17:33Z</time>
      </trkpt>
      <trkpt lat="42.29914618608454" lon="1.299265185215563">
        <time>2021-03-18T10:17:33Z</time>
      </trkpt>
      <trkpt lat="42.2991405987656" lon="1.299135342101423">
        <time>2021-03-18T10:17:33Z</time>
      </trkpt>
      <trkpt lat="42.29899755584359" lon="1.298390958256119">
        <time>2021-03-18T10:17:33Z</time>
      </trkpt>
      <trkpt lat="42.29803599490767" lon="1.296683447922173">
        <time>2021-03-18T10:17:33Z</time>
      </trkpt>
      <trkpt lat="42.3002837478823" lon="1.295673774268249">
        <time>2021-03-18T10:17:33Z</time>
      </trkpt>
      <trkpt lat="42.30057575062894" lon="1.29424193167262">
        <time>2021-03-18T10:17:33Z</time>
      </trkpt>
      <trkpt lat="42.30264063022583" lon="1.291772246144856">
        <time>2021-03-18T10:17:33Z</time>
      </trkpt>
      <trkpt lat="42.30271502240767" lon="1.291767272318305">
        <time>2021-03-18T10:17:33Z</time>
      </trkpt>
      <trkpt lat="42.30351413841267" lon="1.29167520708243">
        <time>2021-03-18T10:17:33Z</time>
      </trkpt>
      <trkpt lat="42.30524285137373" lon="1.289772749068405">
        <time>2021-03-18T10:17:33Z</time>
      </trkpt>
      <trkpt lat="42.30644837625734" lon="1.289773529001064">
        <time>2021-03-18T10:17:33Z</time>
      </trkpt>
      <trkpt lat="42.30796706697681" lon="1.288427493633237">
        <time>2021-03-18T10:17:33Z</time>
      </trkpt>
      <trkpt lat="42.30952271031392" lon="1.290004009907964">
        <time>2021-03-18T10:17:33Z</time>
      </trkpt>
      <trkpt lat="42.31060311443817" lon="1.289240401427656">
        <time>2021-03-18T10:17:33Z</time>
      </trkpt>
      <trkpt lat="42.31160156877095" lon="1.2891433309745">
        <time>2021-03-18T10:17:33Z</time>
      </trkpt>
      <trkpt lat="42.31252847563614" lon="1.28879947558316">
        <time>2021-03-18T10:17:33Z</time>
      </trkpt>
      <trkpt lat="42.31347217503617" lon="1.289073761791426">
        <time>2021-03-18T10:17:33Z</time>
      </trkpt>
      <trkpt lat="42.31448521561509" lon="1.288703419651651">
        <time>2021-03-18T10:17:33Z</time>
      </trkpt>
      <trkpt lat="42.31521880690076" lon="1.287648619131923">
        <time>2021-03-18T10:17:33Z</time>
      </trkpt>
      <trkpt lat="42.31485955263356" lon="1.286704508977488">
        <time>2021-03-18T10:17:33Z</time>
      </trkpt>
      <trkpt lat="42.31497455353987" lon="1.285338737839783">
        <time>2021-03-18T10:17:33Z</time>
      </trkpt>
      <trkpt lat="42.31511418128293" lon="1.284635732219226">
        <time>2021-03-18T10:17:33Z</time>
      </trkpt>
      <trkpt lat="42.31599502335121" lon="1.28352622589573">
        <time>2021-03-18T10:17:33Z</time>
      </trkpt>
      <trkpt lat="42.31633854790408" lon="1.283079160741774">
        <time>2021-03-18T10:17:33Z</time>
      </trkpt>
      <trkpt lat="42.31527502350269" lon="1.283438546922888">
        <time>2021-03-18T10:17:33Z</time>
      </trkpt>
      <trkpt lat="42.31464842924082" lon="1.284124237667392">
        <time>2021-03-18T10:17:33Z</time>
      </trkpt>
      <trkpt lat="42.31452822309142" lon="1.284195908706056">
        <time>2021-03-18T10:17:33Z</time>
      </trkpt>
      <trkpt lat="42.31404360087747" lon="1.284640414902847">
        <time>2021-03-18T10:17:33Z</time>
      </trkpt>
      <trkpt lat="42.31389218507223" lon="1.285746036662352">
        <time>2021-03-18T10:17:33Z</time>
      </trkpt>
      <trkpt lat="42.3138960503419" lon="1.285811234887291">
        <time>2021-03-18T10:17:33Z</time>
      </trkpt>
      <trkpt lat="42.31401690490029" lon="1.28682831333931">
        <time>2021-03-18T10:17:33Z</time>
      </trkpt>
      <trkpt lat="42.31388883947665" lon="1.287348216834146">
        <time>2021-03-18T10:17:33Z</time>
      </trkpt>
      <trkpt lat="42.31362432361522" lon="1.287236650939043">
        <time>2021-03-18T10:17:33Z</time>
      </trkpt>
      <trkpt lat="42.3134160951935" lon="1.286827427585899">
        <time>2021-03-18T10:17:33Z</time>
      </trkpt>
      <trkpt lat="42.31363324134095" lon="1.285233503786931">
        <time>2021-03-18T10:17:33Z</time>
      </trkpt>
      <trkpt lat="42.31364741803841" lon="1.284494281314657">
        <time>2021-03-18T10:17:33Z</time>
      </trkpt>
      <trkpt lat="42.31455371169621" lon="1.283576999548413">
        <time>2021-03-18T10:17:33Z</time>
      </trkpt>
      <trkpt lat="42.31480175473526" lon="1.283113001730525">
        <time>2021-03-18T10:17:33Z</time>
      </trkpt>
      <trkpt lat="42.31516884831941" lon="1.281818651188738">
        <time>2021-03-18T10:17:33Z</time>
      </trkpt>
      <trkpt lat="42.31524753517328" lon="1.280926259415101">
        <time>2021-03-18T10:17:33Z</time>
      </trkpt>
      <trkpt lat="42.31420370807842" lon="1.282805389938186">
        <time>2021-03-18T10:17:33Z</time>
      </trkpt>
      <trkpt lat="42.31462098294784" lon="1.280835708935606">
        <time>2021-03-18T10:17:33Z</time>
      </trkpt>
      <trkpt lat="42.31288430541813" lon="1.283206288263943">
        <time>2021-03-18T10:17:33Z</time>
      </trkpt>
      <trkpt lat="42.31120383760189" lon="1.284767794882071">
        <time>2021-03-18T10:17:33Z</time>
      </trkpt>
      <trkpt lat="42.30947986762719" lon="1.284555203277951">
        <time>2021-03-18T10:17:33Z</time>
      </trkpt>
      <trkpt lat="42.30799070982883" lon="1.286182006461234">
        <time>2021-03-18T10:17:33Z</time>
      </trkpt>
      <trkpt lat="42.30933688204475" lon="1.284283968497735">
        <time>2021-03-18T10:17:33Z</time>
      </trkpt>
      <trkpt lat="42.31071612149505" lon="1.283801608424311">
        <time>2021-03-18T10:17:33Z</time>
      </trkpt>
      <trkpt lat="42.31078223565911" lon="1.283767098871695">
        <time>2021-03-18T10:17:33Z</time>
      </trkpt>
      <trkpt lat="42.31133912328636" lon="1.282973072568547">
        <time>2021-03-18T10:17:33Z</time>
      </trkpt>
      <trkpt lat="42.31216152207432" lon="1.281838861887892">
        <time>2021-03-18T10:17:33Z</time>
      </trkpt>
      <trkpt lat="42.31256935449314" lon="1.280314155927285">
        <time>2021-03-18T10:17:33Z</time>
      </trkpt>
      <trkpt lat="42.31225487809267" lon="1.279173943895693">
        <time>2021-03-18T10:17:33Z</time>
      </trkpt>
      <trkpt lat="42.31244179245496" lon="1.277113499660623">
        <time>2021-03-18T10:17:33Z</time>
      </trkpt>
      <trkpt lat="42.31180121404456" lon="1.27997551953198">
        <time>2021-03-18T10:17:33Z</time>
      </trkpt>
      <trkpt lat="42.31151982551901" lon="1.281016608812384">
        <time>2021-03-18T10:17:33Z</time>
      </trkpt>
      <trkpt lat="42.3111888013324" lon="1.281631288223535">
        <time>2021-03-18T10:17:33Z</time>
      </trkpt>
      <trkpt lat="42.31061487843606" lon="1.281581486904846">
        <time>2021-03-18T10:17:33Z</time>
      </trkpt>
      <trkpt lat="42.30988736139748" lon="1.281454378565452">
        <time>2021-03-18T10:17:33Z</time>
      </trkpt>
      <trkpt lat="42.30955272403352" lon="1.281242064809316">
        <time>2021-03-18T10:17:33Z</time>
      </trkpt>
      <trkpt lat="42.30869672853793" lon="1.282245105588531">
        <time>2021-03-18T10:17:33Z</time>
      </trkpt>
      <trkpt lat="42.30867588789759" lon="1.282275520270964">
        <time>2021-03-18T10:17:33Z</time>
      </trkpt>
      <trkpt lat="42.30809781340526" lon="1.282602676154907">
        <time>2021-03-18T10:17:33Z</time>
      </trkpt>
      <trkpt lat="42.30759710679715" lon="1.281890492952795">
        <time>2021-03-18T10:17:33Z</time>
      </trkpt>
      <trkpt lat="42.30601575368592" lon="1.28219138962965">
        <time>2021-03-18T10:17:33Z</time>
      </trkpt>
      <trkpt lat="42.30451674135911" lon="1.283133289753107">
        <time>2021-03-18T10:17:33Z</time>
      </trkpt>
      <trkpt lat="42.30242380330626" lon="1.283461879982872">
        <time>2021-03-18T10:17:33Z</time>
      </trkpt>
      <trkpt lat="42.30162893680696" lon="1.283079956262963">
        <time>2021-03-18T10:17:33Z</time>
      </trkpt>
      <trkpt lat="42.30116049904928" lon="1.280569083636307">
        <time>2021-03-18T10:17:33Z</time>
      </trkpt>
      <trkpt lat="42.30025714277372" lon="1.27821233055248">
        <time>2021-03-18T10:17:33Z</time>
      </trkpt>
      <trkpt lat="42.30035739852257" lon="1.276693180309818">
        <time>2021-03-18T10:17:33Z</time>
      </trkpt>
      <trkpt lat="42.2989896432636" lon="1.276013829237421">
        <time>2021-03-18T10:17:33Z</time>
      </trkpt>
      <trkpt lat="42.29732039105054" lon="1.276113292095251">
        <time>2021-03-18T10:17:33Z</time>
      </trkpt>
      <trkpt lat="42.29716420673159" lon="1.275088085156289">
        <time>2021-03-18T10:17:33Z</time>
      </trkpt>
      <trkpt lat="42.29718289733519" lon="1.275000819477326">
        <time>2021-03-18T10:17:33Z</time>
      </trkpt>
      <trkpt lat="42.29777161208563" lon="1.27387503258124">
        <time>2021-03-18T10:17:33Z</time>
      </trkpt>
      <trkpt lat="42.29706303297945" lon="1.272352759279067">
        <time>2021-03-18T10:17:33Z</time>
      </trkpt>
      <trkpt lat="42.29604635005997" lon="1.269962466693484">
        <time>2021-03-18T10:17:33Z</time>
      </trkpt>
      <trkpt lat="42.29544995142148" lon="1.269289365021904">
        <time>2021-03-18T10:17:33Z</time>
      </trkpt>
      <trkpt lat="42.29454422260177" lon="1.269146307829032">
        <time>2021-03-18T10:17:33Z</time>
      </trkpt>
      <trkpt lat="42.29408750123602" lon="1.268498862137633">
        <time>2021-03-18T10:17:33Z</time>
      </trkpt>
      <trkpt lat="42.29394112372136" lon="1.265700062616251">
        <time>2021-03-18T10:17:33Z</time>
      </trkpt>
      <trkpt lat="42.2937338176289" lon="1.264751571859895">
        <time>2021-03-18T10:17:33Z</time>
      </trkpt>
      <trkpt lat="42.29212171810305" lon="1.26458447578166">
        <time>2021-03-18T10:17:33Z</time>
      </trkpt>
      <trkpt lat="42.29206207775776" lon="1.263100862119917">
        <time>2021-03-18T10:17:33Z</time>
      </trkpt>
      <trkpt lat="42.29132765998052" lon="1.262536924220039">
        <time>2021-03-18T10:17:33Z</time>
      </trkpt>
      <trkpt lat="42.29053471541668" lon="1.262360750655542">
        <time>2021-03-18T10:17:33Z</time>
      </trkpt>
      <trkpt lat="42.29006987958732" lon="1.261013831668059">
        <time>2021-03-18T10:17:33Z</time>
      </trkpt>
      <trkpt lat="42.28964597265135" lon="1.259440636111693">
        <time>2021-03-18T10:17:33Z</time>
      </trkpt>
      <trkpt lat="42.28951218559217" lon="1.258774440075037">
        <time>2021-03-18T10:17:33Z</time>
      </trkpt>
      <trkpt lat="42.28981835906967" lon="1.257733818310558">
        <time>2021-03-18T10:17:33Z</time>
      </trkpt>
      <trkpt lat="42.29024216443317" lon="1.259358644677611">
        <time>2021-03-18T10:17:33Z</time>
      </trkpt>
      <trkpt lat="42.2906202853768" lon="1.258861039860979">
        <time>2021-03-18T10:17:33Z</time>
      </trkpt>
      <trkpt lat="42.29014601929278" lon="1.255708329343148">
        <time>2021-03-18T10:17:33Z</time>
      </trkpt>
      <trkpt lat="42.28926874308041" lon="1.253442934211104">
        <time>2021-03-18T10:17:33Z</time>
      </trkpt>
      <trkpt lat="42.28981281290345" lon="1.252071184825423">
        <time>2021-03-18T10:17:33Z</time>
      </trkpt>
      <trkpt lat="42.29050041013399" lon="1.250814477961071">
        <time>2021-03-18T10:17:33Z</time>
      </trkpt>
      <trkpt lat="42.29482482190216" lon="1.246761382970221">
        <time>2021-03-18T10:17:33Z</time>
      </trkpt>
      <trkpt lat="42.29437799929355" lon="1.2459798778792">
        <time>2021-03-18T10:17:33Z</time>
      </trkpt>
      <trkpt lat="42.29294623454694" lon="1.246601805884575">
        <time>2021-03-18T10:17:33Z</time>
      </trkpt>
      <trkpt lat="42.29195412410218" lon="1.246493295643822">
        <time>2021-03-18T10:17:33Z</time>
      </trkpt>
      <trkpt lat="42.2906169670057" lon="1.246439403532549">
        <time>2021-03-18T10:17:33Z</time>
      </trkpt>
      <trkpt lat="42.28816301189016" lon="1.247749070344568">
        <time>2021-03-18T10:17:33Z</time>
      </trkpt>
      <trkpt lat="42.28950043607889" lon="1.245991424608752">
        <time>2021-03-18T10:17:33Z</time>
      </trkpt>
      <trkpt lat="42.28982164833018" lon="1.24465961640883">
        <time>2021-03-18T10:17:33Z</time>
      </trkpt>
      <trkpt lat="42.29129838416753" lon="1.243688094312359">
        <time>2021-03-18T10:17:33Z</time>
      </trkpt>
      <trkpt lat="42.29131606835749" lon="1.243633817976453">
        <time>2021-03-18T10:17:33Z</time>
      </trkpt>
      <trkpt lat="42.29194931301849" lon="1.242965696209422">
        <time>2021-03-18T10:17:33Z</time>
      </trkpt>
      <trkpt lat="42.29192795583552" lon="1.242130950063156">
        <time>2021-03-18T10:17:33Z</time>
      </trkpt>
      <trkpt lat="42.29290917018443" lon="1.240781481572983">
        <time>2021-03-18T10:17:33Z</time>
      </trkpt>
      <trkpt lat="42.29297975070687" lon="1.240679021853235">
        <time>2021-03-18T10:17:33Z</time>
      </trkpt>
      <trkpt lat="42.29342674889988" lon="1.239569460321022">
        <time>2021-03-18T10:17:33Z</time>
      </trkpt>
      <trkpt lat="42.29491153034604" lon="1.236536065514622">
        <time>2021-03-18T10:17:33Z</time>
      </trkpt>
      <trkpt lat="42.29514605240681" lon="1.235338984011378">
        <time>2021-03-18T10:17:33Z</time>
      </trkpt>
      <trkpt lat="42.29553042550843" lon="1.234302766803219">
        <time>2021-03-18T10:17:33Z</time>
      </trkpt>
      <trkpt lat="42.29566109158417" lon="1.232830067017818">
        <time>2021-03-18T10:17:33Z</time>
      </trkpt>
      <trkpt lat="42.29535670398649" lon="1.231770244386923">
        <time>2021-03-18T10:17:33Z</time>
      </trkpt>
      <trkpt lat="42.29354670263773" lon="1.231948986762144">
        <time>2021-03-18T10:17:33Z</time>
      </trkpt>
      <trkpt lat="42.29344595015081" lon="1.231250175261558">
        <time>2021-03-18T10:17:33Z</time>
      </trkpt>
      <trkpt lat="42.29261300293163" lon="1.23161008806326">
        <time>2021-03-18T10:17:33Z</time>
      </trkpt>
      <trkpt lat="42.29141724548104" lon="1.2298246981598">
        <time>2021-03-18T10:17:33Z</time>
      </trkpt>
      <trkpt lat="42.28952453726905" lon="1.231377864133814">
        <time>2021-03-18T10:17:33Z</time>
      </trkpt>
      <trkpt lat="42.28858250537832" lon="1.232477702094299">
        <time>2021-03-18T10:17:33Z</time>
      </trkpt>
      <trkpt lat="42.28759537495346" lon="1.232682034821897">
        <time>2021-03-18T10:17:33Z</time>
      </trkpt>
      <trkpt lat="42.28622127775743" lon="1.234049867021283">
        <time>2021-03-18T10:17:33Z</time>
      </trkpt>
      <trkpt lat="42.28611542620391" lon="1.234105595139883">
        <time>2021-03-18T10:17:33Z</time>
      </trkpt>
      <trkpt lat="42.28440836220943" lon="1.236594417800545">
        <time>2021-03-18T10:17:33Z</time>
      </trkpt>
      <trkpt lat="42.28500617017561" lon="1.234004886897377">
        <time>2021-03-18T10:17:33Z</time>
      </trkpt>
      <trkpt lat="42.28350992664082" lon="1.232866048346235">
        <time>2021-03-18T10:17:33Z</time>
      </trkpt>
      <trkpt lat="42.283289594805" lon="1.230765666152844">
        <time>2021-03-18T10:17:33Z</time>
      </trkpt>
      <trkpt lat="42.28185713654486" lon="1.230152435517093">
        <time>2021-03-18T10:17:33Z</time>
      </trkpt>
      <trkpt lat="42.28157840972949" lon="1.226510150889191">
        <time>2021-03-18T10:17:33Z</time>
      </trkpt>
      <trkpt lat="42.28259681581703" lon="1.225768316860885">
        <time>2021-03-18T10:17:33Z</time>
      </trkpt>
      <trkpt lat="42.28255295756372" lon="1.224216874843169">
        <time>2021-03-18T10:17:33Z</time>
      </trkpt>
      <trkpt lat="42.28193686313333" lon="1.223074226334338">
        <time>2021-03-18T10:17:33Z</time>
      </trkpt>
      <trkpt lat="42.28278516940149" lon="1.221720382805773">
        <time>2021-03-18T10:17:33Z</time>
      </trkpt>
      <trkpt lat="42.28265334207837" lon="1.221019810251045">
        <time>2021-03-18T10:17:33Z</time>
      </trkpt>
      <trkpt lat="42.28395669330575" lon="1.219868935443051">
        <time>2021-03-18T10:17:33Z</time>
      </trkpt>
      <trkpt lat="42.2841147056506" lon="1.219086528951956">
        <time>2021-03-18T10:17:33Z</time>
      </trkpt>
      <trkpt lat="42.28544935767048" lon="1.217495755619116">
        <time>2021-03-18T10:17:33Z</time>
      </trkpt>
      <trkpt lat="42.28508247439316" lon="1.216795644055193">
        <time>2021-03-18T10:17:33Z</time>
      </trkpt>
      <trkpt lat="42.28419298329519" lon="1.216395085970752">
        <time>2021-03-18T10:17:33Z</time>
      </trkpt>
      <trkpt lat="42.28393504321415" lon="1.213872237481874">
        <time>2021-03-18T10:17:33Z</time>
      </trkpt>
      <trkpt lat="42.28336830008745" lon="1.213112987535741">
        <time>2021-03-18T10:17:33Z</time>
      </trkpt>
      <trkpt lat="42.28367787934848" lon="1.212171047820894">
        <time>2021-03-18T10:17:33Z</time>
      </trkpt>
      <trkpt lat="42.28264826149027" lon="1.211557727764672">
        <time>2021-03-18T10:17:33Z</time>
      </trkpt>
      <trkpt lat="42.28274842185472" lon="1.206823648657425">
        <time>2021-03-18T10:17:33Z</time>
      </trkpt>
      <trkpt lat="42.28408897454212" lon="1.203572679359042">
        <time>2021-03-18T10:17:33Z</time>
      </trkpt>
      <trkpt lat="42.28382714222468" lon="1.203299867034531">
        <time>2021-03-18T10:17:33Z</time>
      </trkpt>
      <trkpt lat="42.28277277502894" lon="1.204693405601451">
        <time>2021-03-18T10:17:33Z</time>
      </trkpt>
      <trkpt lat="42.2805466320464" lon="1.205115461353878">
        <time>2021-03-18T10:17:33Z</time>
      </trkpt>
      <trkpt lat="42.28083644981025" lon="1.203943571368007">
        <time>2021-03-18T10:17:33Z</time>
      </trkpt>
      <trkpt lat="42.28057094545215" lon="1.202884701255016">
        <time>2021-03-18T10:17:33Z</time>
      </trkpt>
      <trkpt lat="42.28130645356841" lon="1.200896120126791">
        <time>2021-03-18T10:17:33Z</time>
      </trkpt>
      <trkpt lat="42.28130234305699" lon="1.20076478033347">
        <time>2021-03-18T10:17:33Z</time>
      </trkpt>
      <trkpt lat="42.28103264339793" lon="1.199053936206123">
        <time>2021-03-18T10:17:33Z</time>
      </trkpt>
      <trkpt lat="42.28057320992137" lon="1.197958062928199">
        <time>2021-03-18T10:17:33Z</time>
      </trkpt>
      <trkpt lat="42.28009425416552" lon="1.195463739854292">
        <time>2021-03-18T10:17:33Z</time>
      </trkpt>
      <trkpt lat="42.27972224636309" lon="1.195126082207909">
        <time>2021-03-18T10:17:33Z</time>
      </trkpt>
      <trkpt lat="42.27946309686347" lon="1.194577858929795">
        <time>2021-03-18T10:17:33Z</time>
      </trkpt>
      <trkpt lat="42.27798364834049" lon="1.193556844464241">
        <time>2021-03-18T10:17:33Z</time>
      </trkpt>
      <trkpt lat="42.27661445800398" lon="1.192048573713167">
        <time>2021-03-18T10:17:33Z</time>
      </trkpt>
      <trkpt lat="42.27615124223103" lon="1.192041745495116">
        <time>2021-03-18T10:17:33Z</time>
      </trkpt>
      <trkpt lat="42.27518360387513" lon="1.1923344886912">
        <time>2021-03-18T10:17:33Z</time>
      </trkpt>
      <trkpt lat="42.27484113506043" lon="1.192957804326287">
        <time>2021-03-18T10:17:33Z</time>
      </trkpt>
      <trkpt lat="42.2744979186656" lon="1.192780120616241">
        <time>2021-03-18T10:17:33Z</time>
      </trkpt>
      <trkpt lat="42.27575843464934" lon="1.187578193584533">
        <time>2021-03-18T10:17:33Z</time>
      </trkpt>
      <trkpt lat="42.27614923085134" lon="1.187056824130823">
        <time>2021-03-18T10:17:33Z</time>
      </trkpt>
      <trkpt lat="42.27623591343863" lon="1.187470655524536">
        <time>2021-03-18T10:17:33Z</time>
      </trkpt>
      <trkpt lat="42.2762241824303" lon="1.187371517628424">
        <time>2021-03-18T10:17:47Z</time>
      </trkpt>
      <trkpt lat="42.27617026605008" lon="1.187087888785472">
        <time>2021-03-18T10:17:47Z</time>
      </trkpt>
      <trkpt lat="42.27642093404749" lon="1.186894013111057">
        <time>2021-03-18T10:17:47Z</time>
      </trkpt>
      <trkpt lat="42.27654332912717" lon="1.186293357912238">
        <time>2021-03-18T10:17:47Z</time>
      </trkpt>
      <trkpt lat="42.27704164624655" lon="1.18567233476603">
        <time>2021-03-18T10:17:47Z</time>
      </trkpt>
      <trkpt lat="42.27717367550932" lon="1.185061536907099">
        <time>2021-03-18T10:17:47Z</time>
      </trkpt>
      <trkpt lat="42.27735877544873" lon="1.184667692194956">
        <time>2021-03-18T10:17:47Z</time>
      </trkpt>
      <trkpt lat="42.27786739823268" lon="1.184566671142833">
        <time>2021-03-18T10:17:47Z</time>
      </trkpt>
      <trkpt lat="42.27798764646709" lon="1.184411678387003">
        <time>2021-03-18T10:17:47Z</time>
      </trkpt>
      <trkpt lat="42.27809264858544" lon="1.183686779016473">
        <time>2021-03-18T10:17:47Z</time>
      </trkpt>
      <trkpt lat="42.27842385026167" lon="1.182663034575813">
        <time>2021-03-18T10:17:47Z</time>
      </trkpt>
      <trkpt lat="42.27808979710673" lon="1.182051763690644">
        <time>2021-03-18T10:17:47Z</time>
      </trkpt>
      <trkpt lat="42.27842527647789" lon="1.179991726533525">
        <time>2021-03-18T10:17:47Z</time>
      </trkpt>
      <trkpt lat="42.27862738517349" lon="1.179293524235967">
        <time>2021-03-18T10:17:47Z</time>
      </trkpt>
      <trkpt lat="42.27963674752271" lon="1.17837899758414">
        <time>2021-03-18T10:17:47Z</time>
      </trkpt>
      <trkpt lat="42.28061819553803" lon="1.178231088802317">
        <time>2021-03-18T10:17:47Z</time>
      </trkpt>
      <trkpt lat="42.28080839997028" lon="1.178097694442759">
        <time>2021-03-18T10:17:47Z</time>
      </trkpt>
      <trkpt lat="42.28164607239554" lon="1.176922860569993">
        <time>2021-03-18T10:17:47Z</time>
      </trkpt>
      <trkpt lat="42.28221509265161" lon="1.177254682693352">
        <time>2021-03-18T10:17:47Z</time>
      </trkpt>
      <trkpt lat="42.28250006898477" lon="1.177206049715427">
        <time>2021-03-18T10:17:47Z</time>
      </trkpt>
      <trkpt lat="42.2827776355326" lon="1.176903968808818">
        <time>2021-03-18T10:17:47Z</time>
      </trkpt>
      <trkpt lat="42.28367820831532" lon="1.177445648817326">
        <time>2021-03-18T10:17:47Z</time>
      </trkpt>
      <trkpt lat="42.28400068271012" lon="1.177363472887345">
        <time>2021-03-18T10:17:47Z</time>
      </trkpt>
      <trkpt lat="42.28586604654111" lon="1.174945652037713">
        <time>2021-03-18T10:17:47Z</time>
      </trkpt>
      <trkpt lat="42.2863503323848" lon="1.173165527744402">
        <time>2021-03-18T10:17:47Z</time>
      </trkpt>
      <trkpt lat="42.28635432840139" lon="1.171865645368504">
        <time>2021-03-18T10:17:47Z</time>
      </trkpt>
      <trkpt lat="42.28646203428555" lon="1.171017729151944">
        <time>2021-03-18T10:17:47Z</time>
      </trkpt>
      <trkpt lat="42.28737739771809" lon="1.168168167365771">
        <time>2021-03-18T10:17:47Z</time>
      </trkpt>
      <trkpt lat="42.28796877407028" lon="1.165935074363618">
        <time>2021-03-18T10:17:47Z</time>
      </trkpt>
      <trkpt lat="42.28827457155644" lon="1.163685667450642">
        <time>2021-03-18T10:17:47Z</time>
      </trkpt>
      <trkpt lat="42.2881929425224" lon="1.162158236470305">
        <time>2021-03-18T10:17:47Z</time>
      </trkpt>
      <trkpt lat="42.28749746868967" lon="1.1605204322259">
        <time>2021-03-18T10:17:47Z</time>
      </trkpt>
      <trkpt lat="42.2852653518009" lon="1.159118818924438">
        <time>2021-03-18T10:17:47Z</time>
      </trkpt>
      <trkpt lat="42.28509035850204" lon="1.159257078438476">
        <time>2021-03-18T10:17:47Z</time>
      </trkpt>
      <trkpt lat="42.28534664648898" lon="1.159832614715113">
        <time>2021-03-18T10:17:47Z</time>
      </trkpt>
      <trkpt lat="42.28487797957419" lon="1.159489117696124">
        <time>2021-03-18T10:17:47Z</time>
      </trkpt>
      <trkpt lat="42.28395820645149" lon="1.158668457916772">
        <time>2021-03-18T10:17:47Z</time>
      </trkpt>
      <trkpt lat="42.28242452137091" lon="1.156924372436634">
        <time>2021-03-18T10:17:47Z</time>
      </trkpt>
      <trkpt lat="42.28231960427124" lon="1.156531287281948">
        <time>2021-03-18T10:17:47Z</time>
      </trkpt>
      <trkpt lat="42.28296054110476" lon="1.15600222591707">
        <time>2021-03-18T10:17:47Z</time>
      </trkpt>
      <trkpt lat="42.28300390171341" lon="1.155198122165626">
        <time>2021-03-18T10:17:47Z</time>
      </trkpt>
      <trkpt lat="42.28303733980069" lon="1.154442071447974">
        <time>2021-03-18T10:17:47Z</time>
      </trkpt>
      <trkpt lat="42.28284331580225" lon="1.154258334155773">
        <time>2021-03-18T10:17:47Z</time>
      </trkpt>
      <trkpt lat="42.28159452271682" lon="1.154692929970649">
        <time>2021-03-18T10:17:47Z</time>
      </trkpt>
      <trkpt lat="42.28068460627345" lon="1.155560119800634">
        <time>2021-03-18T10:17:47Z</time>
      </trkpt>
      <trkpt lat="42.28116513312556" lon="1.15362910350433">
        <time>2021-03-18T10:17:47Z</time>
      </trkpt>
      <trkpt lat="42.28135461267381" lon="1.152376323694799">
        <time>2021-03-18T10:17:47Z</time>
      </trkpt>
      <trkpt lat="42.28117463318842" lon="1.150423967926966">
        <time>2021-03-18T10:17:47Z</time>
      </trkpt>
      <trkpt lat="42.28106920154679" lon="1.148114532496134">
        <time>2021-03-18T10:17:47Z</time>
      </trkpt>
      <trkpt lat="42.28088898711194" lon="1.147911248617364">
        <time>2021-03-18T10:17:47Z</time>
      </trkpt>
      <trkpt lat="42.28067045688695" lon="1.145825816610442">
        <time>2021-03-18T10:17:47Z</time>
      </trkpt>
      <trkpt lat="42.28023691064369" lon="1.143450625236859">
        <time>2021-03-18T10:17:47Z</time>
      </trkpt>
      <trkpt lat="42.28007417106458" lon="1.143476059397337">
        <time>2021-03-18T10:17:47Z</time>
      </trkpt>
      <trkpt lat="42.27991236754797" lon="1.143830672459572">
        <time>2021-03-18T10:17:47Z</time>
      </trkpt>
      <trkpt lat="42.27937532618493" lon="1.144057173875155">
        <time>2021-03-18T10:17:47Z</time>
      </trkpt>
      <trkpt lat="42.27862618658445" lon="1.143916247748087">
        <time>2021-03-18T10:17:47Z</time>
      </trkpt>
      <trkpt lat="42.2782283237701" lon="1.14357331748562">
        <time>2021-03-18T10:17:47Z</time>
      </trkpt>
      <trkpt lat="42.27748504229013" lon="1.14429283219911">
        <time>2021-03-18T10:17:47Z</time>
      </trkpt>
      <trkpt lat="42.27680499468893" lon="1.14567298111778">
        <time>2021-03-18T10:17:47Z</time>
      </trkpt>
      <trkpt lat="42.27652109784768" lon="1.145710053175844">
        <time>2021-03-18T10:17:47Z</time>
      </trkpt>
      <trkpt lat="42.27597410139605" lon="1.146185524073877">
        <time>2021-03-18T10:17:47Z</time>
      </trkpt>
      <trkpt lat="42.27555828486616" lon="1.146319850695223">
        <time>2021-03-18T10:17:47Z</time>
      </trkpt>
      <trkpt lat="42.2749556164874" lon="1.145668403687665">
        <time>2021-03-18T10:17:47Z</time>
      </trkpt>
      <trkpt lat="42.27458167634968" lon="1.145919345912625">
        <time>2021-03-18T10:17:47Z</time>
      </trkpt>
      <trkpt lat="42.27437796104195" lon="1.146891435469455">
        <time>2021-03-18T10:17:47Z</time>
      </trkpt>
      <trkpt lat="42.27436903175731" lon="1.146915891474196">
        <time>2021-03-18T10:17:47Z</time>
      </trkpt>
      <trkpt lat="42.27326253190557" lon="1.146982140781836">
        <time>2021-03-18T10:17:47Z</time>
      </trkpt>
      <trkpt lat="42.27305691167663" lon="1.144936802112424">
        <time>2021-03-18T10:17:47Z</time>
      </trkpt>
      <trkpt lat="42.27274113798936" lon="1.14315845166858">
        <time>2021-03-18T10:17:47Z</time>
      </trkpt>
      <trkpt lat="42.2689327441277" lon="1.142352912799431">
        <time>2021-03-18T10:17:47Z</time>
      </trkpt>
      <trkpt lat="42.26843458609654" lon="1.141568470989982">
        <time>2021-03-18T10:17:47Z</time>
      </trkpt>
      <trkpt lat="42.26905333627315" lon="1.141178992044087">
        <time>2021-03-18T10:17:47Z</time>
      </trkpt>
      <trkpt lat="42.27206773781536" lon="1.136486408951385">
        <time>2021-03-18T10:17:47Z</time>
      </trkpt>
      <trkpt lat="42.27091351882113" lon="1.130889085946014">
        <time>2021-03-18T10:17:47Z</time>
      </trkpt>
      <trkpt lat="42.27113607088278" lon="1.129858296795478">
        <time>2021-03-18T10:17:47Z</time>
      </trkpt>
      <trkpt lat="42.27168036256095" lon="1.129780149456159">
        <time>2021-03-18T10:17:47Z</time>
      </trkpt>
      <trkpt lat="42.27386364835149" lon="1.126666006780828">
        <time>2021-03-18T10:17:47Z</time>
      </trkpt>
      <trkpt lat="42.27505234923421" lon="1.127184236155081">
        <time>2021-03-18T10:17:47Z</time>
      </trkpt>
      <trkpt lat="42.27634209774872" lon="1.128520097628261">
        <time>2021-03-18T10:17:47Z</time>
      </trkpt>
      <trkpt lat="42.27704350605153" lon="1.126620261752263">
        <time>2021-03-18T10:17:47Z</time>
      </trkpt>
      <trkpt lat="42.27793218514933" lon="1.123949168361651">
        <time>2021-03-18T10:17:47Z</time>
      </trkpt>
      <trkpt lat="42.2781336404747" lon="1.123211804400901">
        <time>2021-03-18T10:17:47Z</time>
      </trkpt>
      <trkpt lat="42.27667873561706" lon="1.120503013058389">
        <time>2021-03-18T10:17:47Z</time>
      </trkpt>
      <trkpt lat="42.27667031015395" lon="1.120490801847527">
        <time>2021-03-18T10:17:47Z</time>
      </trkpt>
      <trkpt lat="42.27581553650241" lon="1.119764867241">
        <time>2021-03-18T10:17:47Z</time>
      </trkpt>
      <trkpt lat="42.2760594638093" lon="1.119149788565608">
        <time>2021-03-18T10:17:47Z</time>
      </trkpt>
      <trkpt lat="42.27720756913409" lon="1.119001003897122">
        <time>2021-03-18T10:17:47Z</time>
      </trkpt>
      <trkpt lat="42.27831266142719" lon="1.119148464847932">
        <time>2021-03-18T10:17:47Z</time>
      </trkpt>
      <trkpt lat="42.2788103380053" lon="1.118251542835531">
        <time>2021-03-18T10:17:47Z</time>
      </trkpt>
      <trkpt lat="42.27905264059043" lon="1.116428480661189">
        <time>2021-03-18T10:17:47Z</time>
      </trkpt>
      <trkpt lat="42.27903457596977" lon="1.116336655621097">
        <time>2021-03-18T10:17:47Z</time>
      </trkpt>
      <trkpt lat="42.27902480882958" lon="1.116327677777649">
        <time>2021-03-18T10:17:47Z</time>
      </trkpt>
      <trkpt lat="42.27907168849817" lon="1.113211357793305">
        <time>2021-03-18T10:17:47Z</time>
      </trkpt>
      <trkpt lat="42.28055207326808" lon="1.111692008179883">
        <time>2021-03-18T10:17:47Z</time>
      </trkpt>
      <trkpt lat="42.28113105281177" lon="1.104054530247036">
        <time>2021-03-18T10:17:47Z</time>
      </trkpt>
      <trkpt lat="42.28399015628832" lon="1.103717755715734">
        <time>2021-03-18T10:17:47Z</time>
      </trkpt>
      <trkpt lat="42.28549171131844" lon="1.101232720917815">
        <time>2021-03-18T10:17:47Z</time>
      </trkpt>
      <trkpt lat="42.2894481469134" lon="1.088914827093432">
        <time>2021-03-18T10:17:47Z</time>
      </trkpt>
      <trkpt lat="42.29156063627472" lon="1.085633419178582">
        <time>2021-03-18T10:17:47Z</time>
      </trkpt>
      <trkpt lat="42.29251600460035" lon="1.08248620018081">
        <time>2021-03-18T10:17:47Z</time>
      </trkpt>
      <trkpt lat="42.29267393285205" lon="1.082339310021034">
        <time>2021-03-18T10:17:47Z</time>
      </trkpt>
      <trkpt lat="42.29261091097794" lon="1.08213005764231">
        <time>2021-03-18T10:17:47Z</time>
      </trkpt>
      <trkpt lat="42.29279039774592" lon="1.081957991763065">
        <time>2021-03-18T10:17:47Z</time>
      </trkpt>
      <trkpt lat="42.2934327414515" lon="1.081358125848784">
        <time>2021-03-18T10:17:47Z</time>
      </trkpt>
      <trkpt lat="42.29299115314488" lon="1.083150541424827">
        <time>2021-03-18T10:17:47Z</time>
      </trkpt>
      <trkpt lat="42.29452527388449" lon="1.081789253145187">
        <time>2021-03-18T10:17:47Z</time>
      </trkpt>
      <trkpt lat="42.29389707122195" lon="1.083001132369519">
        <time>2021-03-18T10:17:47Z</time>
      </trkpt>
      <trkpt lat="42.29325420016718" lon="1.087326323900748">
        <time>2021-03-18T10:17:47Z</time>
      </trkpt>
      <trkpt lat="42.29460177561022" lon="1.08440076384118">
        <time>2021-03-18T10:17:47Z</time>
      </trkpt>
      <trkpt lat="42.29527521006135" lon="1.084329552611747">
        <time>2021-03-18T10:17:47Z</time>
      </trkpt>
      <trkpt lat="42.29636218494946" lon="1.083417508437683">
        <time>2021-03-18T10:17:47Z</time>
      </trkpt>
      <trkpt lat="42.2958453054768" lon="1.082556963482209">
        <time>2021-03-18T10:17:47Z</time>
      </trkpt>
      <trkpt lat="42.29577349876469" lon="1.082549470811205">
        <time>2021-03-18T10:17:47Z</time>
      </trkpt>
      <trkpt lat="42.2954096408184" lon="1.081409938088442">
        <time>2021-03-18T10:17:47Z</time>
      </trkpt>
      <trkpt lat="42.29543932927801" lon="1.081341015186936">
        <time>2021-03-18T10:17:47Z</time>
      </trkpt>
      <trkpt lat="42.29510174326162" lon="1.080440546838051">
        <time>2021-03-18T10:17:47Z</time>
      </trkpt>
      <trkpt lat="42.29508085848652" lon="1.080368335730857">
        <time>2021-03-18T10:17:47Z</time>
      </trkpt>
      <trkpt lat="42.29518380224774" lon="1.079171271906192">
        <time>2021-03-18T10:17:47Z</time>
      </trkpt>
      <trkpt lat="42.29525782407957" lon="1.07906547256992">
        <time>2021-03-18T10:17:47Z</time>
      </trkpt>
      <trkpt lat="42.2949855247345" lon="1.078387680945014">
        <time>2021-03-18T10:17:47Z</time>
      </trkpt>
      <trkpt lat="42.29486935429198" lon="1.078312373467141">
        <time>2021-03-18T10:17:47Z</time>
      </trkpt>
      <trkpt lat="42.29452394739536" lon="1.077562026480057">
        <time>2021-03-18T10:17:47Z</time>
      </trkpt>
      <trkpt lat="42.29455115039873" lon="1.077050901430732">
        <time>2021-03-18T10:17:47Z</time>
      </trkpt>
      <trkpt lat="42.29516248174032" lon="1.076358645860385">
        <time>2021-03-18T10:17:47Z</time>
      </trkpt>
      <trkpt lat="42.29555681839222" lon="1.075953938054997">
        <time>2021-03-18T10:17:47Z</time>
      </trkpt>
      <trkpt lat="42.29558241294759" lon="1.075920953516836">
        <time>2021-03-18T10:17:47Z</time>
      </trkpt>
      <trkpt lat="42.29565821299291" lon="1.075746402827094">
        <time>2021-03-18T10:17:47Z</time>
      </trkpt>
      <trkpt lat="42.29587335469019" lon="1.075421516233586">
        <time>2021-03-18T10:17:47Z</time>
      </trkpt>
      <trkpt lat="42.29604680593332" lon="1.075196540100663">
        <time>2021-03-18T10:17:47Z</time>
      </trkpt>
      <trkpt lat="42.29686284581026" lon="1.074800925552581">
        <time>2021-03-18T10:17:47Z</time>
      </trkpt>
      <trkpt lat="42.29673914063354" lon="1.073948867207661">
        <time>2021-03-18T10:17:47Z</time>
      </trkpt>
      <trkpt lat="42.29581476589721" lon="1.072603004520925">
        <time>2021-03-18T10:17:47Z</time>
      </trkpt>
      <trkpt lat="42.29598989588865" lon="1.072231016730014">
        <time>2021-03-18T10:17:47Z</time>
      </trkpt>
      <trkpt lat="42.29591368867251" lon="1.07222300645667">
        <time>2021-03-18T10:17:47Z</time>
      </trkpt>
      <trkpt lat="42.2958700959181" lon="1.072219169895861">
        <time>2021-03-18T10:17:47Z</time>
      </trkpt>
      <trkpt lat="42.29582722053228" lon="1.072214481245493">
        <time>2021-03-18T10:17:47Z</time>
      </trkpt>
      <trkpt lat="42.29579495264559" lon="1.072211447455034">
        <time>2021-03-18T10:17:47Z</time>
      </trkpt>
      <trkpt lat="42.29600831948699" lon="1.072369859361406">
        <time>2021-03-18T10:17:47Z</time>
      </trkpt>
      <trkpt lat="42.29623963201431" lon="1.071354968851295">
        <time>2021-03-18T10:17:47Z</time>
      </trkpt>
      <trkpt lat="42.29581260190597" lon="1.070605410950467">
        <time>2021-03-18T10:17:47Z</time>
      </trkpt>
      <trkpt lat="42.2958263324517" lon="1.069725896119562">
        <time>2021-03-18T10:17:47Z</time>
      </trkpt>
      <trkpt lat="42.2965434642711" lon="1.068861875948752">
        <time>2021-03-18T10:17:47Z</time>
      </trkpt>
      <trkpt lat="42.29577031887839" lon="1.068147277081553">
        <time>2021-03-18T10:17:47Z</time>
      </trkpt>
      <trkpt lat="42.29564982009216" lon="1.067410221539853">
        <time>2021-03-18T10:17:47Z</time>
      </trkpt>
      <trkpt lat="42.2956370659715" lon="1.067361059146357">
        <time>2021-03-18T10:17:47Z</time>
      </trkpt>
      <trkpt lat="42.29530721941738" lon="1.066494534781435">
        <time>2021-03-18T10:17:47Z</time>
      </trkpt>
      <trkpt lat="42.29538455441286" lon="1.066000499476549">
        <time>2021-03-18T10:17:47Z</time>
      </trkpt>
      <trkpt lat="42.29516331001405" lon="1.065224494025472">
        <time>2021-03-18T10:17:47Z</time>
      </trkpt>
      <trkpt lat="42.29520306515915" lon="1.064035306538049">
        <time>2021-03-18T10:17:47Z</time>
      </trkpt>
      <trkpt lat="42.29511489010071" lon="1.062767434993337">
        <time>2021-03-18T10:17:47Z</time>
      </trkpt>
      <trkpt lat="42.29542474388382" lon="1.062493368138906">
        <time>2021-03-18T10:17:47Z</time>
      </trkpt>
      <trkpt lat="42.29515576004386" lon="1.061899036035494">
        <time>2021-03-18T10:17:47Z</time>
      </trkpt>
      <trkpt lat="42.29517530280087" lon="1.060804175445285">
        <time>2021-03-18T10:17:47Z</time>
      </trkpt>
      <trkpt lat="42.29516398865948" lon="1.060130489807929">
        <time>2021-03-18T10:17:47Z</time>
      </trkpt>
      <trkpt lat="42.2954718798307" lon="1.059254036119244">
        <time>2021-03-18T10:17:47Z</time>
      </trkpt>
      <trkpt lat="42.29536125265042" lon="1.058170061993684">
        <time>2021-03-18T10:17:47Z</time>
      </trkpt>
      <trkpt lat="42.29532055840395" lon="1.057155639796561">
        <time>2021-03-18T10:17:47Z</time>
      </trkpt>
      <trkpt lat="42.29574732150697" lon="1.056605813137719">
        <time>2021-03-18T10:17:47Z</time>
      </trkpt>
      <trkpt lat="42.29564733097485" lon="1.054637828493132">
        <time>2021-03-18T10:17:47Z</time>
      </trkpt>
      <trkpt lat="42.29511285105667" lon="1.053815582023601">
        <time>2021-03-18T10:17:47Z</time>
      </trkpt>
      <trkpt lat="42.29593878447017" lon="1.054297705716929">
        <time>2021-03-18T10:17:47Z</time>
      </trkpt>
      <trkpt lat="42.29620815876191" lon="1.055487915619744">
        <time>2021-03-18T10:17:47Z</time>
      </trkpt>
      <trkpt lat="42.29613128670773" lon="1.055707298474686">
        <time>2021-03-18T10:17:47Z</time>
      </trkpt>
      <trkpt lat="42.29630695834277" lon="1.056218702310745">
        <time>2021-03-18T10:17:47Z</time>
      </trkpt>
      <trkpt lat="42.29630972846387" lon="1.056961207451377">
        <time>2021-03-18T10:17:47Z</time>
      </trkpt>
      <trkpt lat="42.29624585839949" lon="1.05745847898157">
        <time>2021-03-18T10:17:47Z</time>
      </trkpt>
      <trkpt lat="42.29624604016267" lon="1.057493969362604">
        <time>2021-03-18T10:17:47Z</time>
      </trkpt>
      <trkpt lat="42.29625627225616" lon="1.058422773760297">
        <time>2021-03-18T10:17:47Z</time>
      </trkpt>
      <trkpt lat="42.29627047185694" lon="1.058495393024379">
        <time>2021-03-18T10:17:47Z</time>
      </trkpt>
      <trkpt lat="42.29666331265129" lon="1.059488232784664">
        <time>2021-03-18T10:17:47Z</time>
      </trkpt>
      <trkpt lat="42.29653883045013" lon="1.060821878710738">
        <time>2021-03-18T10:17:47Z</time>
      </trkpt>
      <trkpt lat="42.29663501762923" lon="1.061099938686663">
        <time>2021-03-18T10:17:47Z</time>
      </trkpt>
      <trkpt lat="42.29706023240544" lon="1.059559956991478">
        <time>2021-03-18T10:17:47Z</time>
      </trkpt>
      <trkpt lat="42.29692404032234" lon="1.057982111992042">
        <time>2021-03-18T10:17:47Z</time>
      </trkpt>
      <trkpt lat="42.29744828594996" lon="1.056376038866289">
        <time>2021-03-18T10:17:47Z</time>
      </trkpt>
      <trkpt lat="42.297435964775" lon="1.055390211085781">
        <time>2021-03-18T10:17:47Z</time>
      </trkpt>
      <trkpt lat="42.2973916083405" lon="1.055402229976643">
        <time>2021-03-18T10:17:47Z</time>
      </trkpt>
      <trkpt lat="42.29707175037746" lon="1.055286518294547">
        <time>2021-03-18T10:17:47Z</time>
      </trkpt>
      <trkpt lat="42.29721603661706" lon="1.05317528274756">
        <time>2021-03-18T10:17:47Z</time>
      </trkpt>
      <trkpt lat="42.29633164775547" lon="1.051889517163238">
        <time>2021-03-18T10:17:47Z</time>
      </trkpt>
      <trkpt lat="42.29628011883361" lon="1.048465411764179">
        <time>2021-03-18T10:17:47Z</time>
      </trkpt>
      <trkpt lat="42.29604684281894" lon="1.048076898026258">
        <time>2021-03-18T10:17:47Z</time>
      </trkpt>
      <trkpt lat="42.29625010905101" lon="1.0468078427165">
        <time>2021-03-18T10:17:47Z</time>
      </trkpt>
      <trkpt lat="42.29605054066889" lon="1.046146301780748">
        <time>2021-03-18T10:17:47Z</time>
      </trkpt>
      <trkpt lat="42.29584163367409" lon="1.044484390876375">
        <time>2021-03-18T10:17:47Z</time>
      </trkpt>
      <trkpt lat="42.29547226902388" lon="1.042930397473356">
        <time>2021-03-18T10:17:47Z</time>
      </trkpt>
      <trkpt lat="42.29613793102296" lon="1.044027202548958">
        <time>2021-03-18T10:17:47Z</time>
      </trkpt>
      <trkpt lat="42.29628718780502" lon="1.044015991195613">
        <time>2021-03-18T10:17:47Z</time>
      </trkpt>
      <trkpt lat="42.29639938311319" lon="1.044897205117885">
        <time>2021-03-18T10:17:47Z</time>
      </trkpt>
      <trkpt lat="42.29643095174497" lon="1.045021898078562">
        <time>2021-03-18T10:17:47Z</time>
      </trkpt>
      <trkpt lat="42.29672716177922" lon="1.045854554220038">
        <time>2021-03-18T10:17:47Z</time>
      </trkpt>
      <trkpt lat="42.29725467613454" lon="1.046369826654798">
        <time>2021-03-18T10:17:47Z</time>
      </trkpt>
      <trkpt lat="42.29736979120392" lon="1.047021365808727">
        <time>2021-03-18T10:17:47Z</time>
      </trkpt>
      <trkpt lat="42.29722633726665" lon="1.048034931055659">
        <time>2021-03-18T10:17:47Z</time>
      </trkpt>
      <trkpt lat="42.29808587150223" lon="1.050763627323199">
        <time>2021-03-18T10:17:47Z</time>
      </trkpt>
      <trkpt lat="42.29902008021563" lon="1.051807716107429">
        <time>2021-03-18T10:17:47Z</time>
      </trkpt>
      <trkpt lat="42.29906996428601" lon="1.052005908117533">
        <time>2021-03-18T10:17:47Z</time>
      </trkpt>
      <trkpt lat="42.29994130584509" lon="1.053930322701659">
        <time>2021-03-18T10:17:47Z</time>
      </trkpt>
      <trkpt lat="42.30002016698642" lon="1.055604021721937">
        <time>2021-03-18T10:17:47Z</time>
      </trkpt>
      <trkpt lat="42.30027228721155" lon="1.057066098206279">
        <time>2021-03-18T10:17:47Z</time>
      </trkpt>
      <trkpt lat="42.30074667903144" lon="1.057838978782337">
        <time>2021-03-18T10:17:47Z</time>
      </trkpt>
      <trkpt lat="42.30061575260294" lon="1.056579933097788">
        <time>2021-03-18T10:17:47Z</time>
      </trkpt>
      <trkpt lat="42.30083416747167" lon="1.054432216949981">
        <time>2021-03-18T10:17:47Z</time>
      </trkpt>
      <trkpt lat="42.30083297292775" lon="1.053757440058498">
        <time>2021-03-18T10:17:47Z</time>
      </trkpt>
      <trkpt lat="42.30120559975413" lon="1.05230874594217">
        <time>2021-03-18T10:17:47Z</time>
      </trkpt>
      <trkpt lat="42.30130737010985" lon="1.051862969892516">
        <time>2021-03-18T10:17:47Z</time>
      </trkpt>
      <trkpt lat="42.30140779113714" lon="1.051972491594124">
        <time>2021-03-18T10:17:47Z</time>
      </trkpt>
      <trkpt lat="42.30125421254314" lon="1.052996178029484">
        <time>2021-03-18T10:17:47Z</time>
      </trkpt>
      <trkpt lat="42.30151903540164" lon="1.053644847520285">
        <time>2021-03-18T10:17:47Z</time>
      </trkpt>
      <trkpt lat="42.30151916887725" lon="1.053713258825166">
        <time>2021-03-18T10:17:47Z</time>
      </trkpt>
      <trkpt lat="42.30150387244125" lon="1.055172318014175">
        <time>2021-03-18T10:17:47Z</time>
      </trkpt>
      <trkpt lat="42.3017862691398" lon="1.056386580820399">
        <time>2021-03-18T10:17:47Z</time>
      </trkpt>
      <trkpt lat="42.30182173065905" lon="1.056430870549423">
        <time>2021-03-18T10:17:47Z</time>
      </trkpt>
      <trkpt lat="42.30266363532601" lon="1.058444019368929">
        <time>2021-03-18T10:17:47Z</time>
      </trkpt>
      <trkpt lat="42.30284002413159" lon="1.059480187780562">
        <time>2021-03-18T10:17:47Z</time>
      </trkpt>
      <trkpt lat="42.30326081201656" lon="1.060896894718364">
        <time>2021-03-18T10:17:47Z</time>
      </trkpt>
      <trkpt lat="42.30378726247398" lon="1.06183761844568">
        <time>2021-03-18T10:17:47Z</time>
      </trkpt>
      <trkpt lat="42.30372029451188" lon="1.063054307411198">
        <time>2021-03-18T10:17:47Z</time>
      </trkpt>
      <trkpt lat="42.30450245125788" lon="1.062744041658288">
        <time>2021-03-18T10:17:47Z</time>
      </trkpt>
      <trkpt lat="42.3056197501284" lon="1.062328071722491">
        <time>2021-03-18T10:17:47Z</time>
      </trkpt>
      <trkpt lat="42.30616339865009" lon="1.062379252105163">
        <time>2021-03-18T10:17:47Z</time>
      </trkpt>
      <trkpt lat="42.30679498759712" lon="1.06213320096652">
        <time>2021-03-18T10:17:47Z</time>
      </trkpt>
      <trkpt lat="42.3074801939202" lon="1.062614215799465">
        <time>2021-03-18T10:17:47Z</time>
      </trkpt>
      <trkpt lat="42.307137302093" lon="1.061912344436475">
        <time>2021-03-18T10:17:47Z</time>
      </trkpt>
      <trkpt lat="42.30716643063054" lon="1.06142317992374">
        <time>2021-03-18T10:17:47Z</time>
      </trkpt>
      <trkpt lat="42.30809585599217" lon="1.061786431566945">
        <time>2021-03-18T10:17:47Z</time>
      </trkpt>
      <trkpt lat="42.30833379518756" lon="1.062379166151679">
        <time>2021-03-18T10:17:47Z</time>
      </trkpt>
      <trkpt lat="42.30801929150226" lon="1.06334577407758">
        <time>2021-03-18T10:17:47Z</time>
      </trkpt>
      <trkpt lat="42.308674551281" lon="1.063276351365701">
        <time>2021-03-18T10:17:47Z</time>
      </trkpt>
      <trkpt lat="42.30953915243205" lon="1.062831224033387">
        <time>2021-03-18T10:17:47Z</time>
      </trkpt>
      <trkpt lat="42.31093164205277" lon="1.062851044697517">
        <time>2021-03-18T10:17:47Z</time>
      </trkpt>
      <trkpt lat="42.3122981612761" lon="1.06276937960393">
        <time>2021-03-18T10:17:47Z</time>
      </trkpt>
      <trkpt lat="42.31325986180175" lon="1.061862318269786">
        <time>2021-03-18T10:17:47Z</time>
      </trkpt>
      <trkpt lat="42.31442066844976" lon="1.061294244650961">
        <time>2021-03-18T10:17:47Z</time>
      </trkpt>
      <trkpt lat="42.31539300715271" lon="1.061906635581547">
        <time>2021-03-18T10:17:47Z</time>
      </trkpt>
      <trkpt lat="42.31614570994263" lon="1.063136129923643">
        <time>2021-03-18T10:17:47Z</time>
      </trkpt>
      <trkpt lat="42.3175389585838" lon="1.063414867703301">
        <time>2021-03-18T10:17:47Z</time>
      </trkpt>
      <trkpt lat="42.31828209293614" lon="1.064860014792577">
        <time>2021-03-18T10:17:47Z</time>
      </trkpt>
      <trkpt lat="42.31864548426808" lon="1.064888832308111">
        <time>2021-03-18T10:17:47Z</time>
      </trkpt>
      <trkpt lat="42.3196609222848" lon="1.066070579543679">
        <time>2021-03-18T10:17:47Z</time>
      </trkpt>
      <trkpt lat="42.32012686929375" lon="1.066063330915041">
        <time>2021-03-18T10:17:47Z</time>
      </trkpt>
      <trkpt lat="42.32154640266011" lon="1.066393999061326">
        <time>2021-03-18T10:17:47Z</time>
      </trkpt>
      <trkpt lat="42.3224254174419" lon="1.066320703537056">
        <time>2021-03-18T10:17:47Z</time>
      </trkpt>
      <trkpt lat="42.32348797503973" lon="1.066782188635471">
        <time>2021-03-18T10:17:47Z</time>
      </trkpt>
      <trkpt lat="42.32376898878323" lon="1.065657640150519">
        <time>2021-03-18T10:17:47Z</time>
      </trkpt>
      <trkpt lat="42.32362154835872" lon="1.065216693934499">
        <time>2021-03-18T10:17:47Z</time>
      </trkpt>
      <trkpt lat="42.3235014582047" lon="1.064860352919503">
        <time>2021-03-18T10:17:47Z</time>
      </trkpt>
      <trkpt lat="42.32424170368301" lon="1.065482138051026">
        <time>2021-03-18T10:17:47Z</time>
      </trkpt>
      <trkpt lat="42.32497531748398" lon="1.065878583487905">
        <time>2021-03-18T10:17:47Z</time>
      </trkpt>
      <trkpt lat="42.3256112161212" lon="1.06624022588945">
        <time>2021-03-18T10:17:47Z</time>
      </trkpt>
      <trkpt lat="42.32682383003676" lon="1.06711566901764">
        <time>2021-03-18T10:17:47Z</time>
      </trkpt>
      <trkpt lat="42.32793581326992" lon="1.066738130479468">
        <time>2021-03-18T10:17:47Z</time>
      </trkpt>
      <trkpt lat="42.32939980190962" lon="1.066975781956525">
        <time>2021-03-18T10:17:47Z</time>
      </trkpt>
      <trkpt lat="42.33069374010758" lon="1.066824114092317">
        <time>2021-03-18T10:17:47Z</time>
      </trkpt>
      <trkpt lat="42.32984304166408" lon="1.066398856462827">
        <time>2021-03-18T10:17:47Z</time>
      </trkpt>
      <trkpt lat="42.32944375825987" lon="1.066580056219966">
        <time>2021-03-18T10:17:47Z</time>
      </trkpt>
      <trkpt lat="42.32811641846899" lon="1.065515191609516">
        <time>2021-03-18T10:17:47Z</time>
      </trkpt>
      <trkpt lat="42.32805467536415" lon="1.065211886504984">
        <time>2021-03-18T10:17:47Z</time>
      </trkpt>
      <trkpt lat="42.32730203331295" lon="1.065029508859039">
        <time>2021-03-18T10:17:47Z</time>
      </trkpt>
      <trkpt lat="42.32772051968772" lon="1.064837654382413">
        <time>2021-03-18T10:17:47Z</time>
      </trkpt>
      <trkpt lat="42.32825470826214" lon="1.064550332480942">
        <time>2021-03-18T10:17:47Z</time>
      </trkpt>
      <trkpt lat="42.32850805111753" lon="1.065256378676351">
        <time>2021-03-18T10:17:47Z</time>
      </trkpt>
      <trkpt lat="42.32933697517305" lon="1.065448473016206">
        <time>2021-03-18T10:17:47Z</time>
      </trkpt>
      <trkpt lat="42.33015518542586" lon="1.064943011607618">
        <time>2021-03-18T10:17:47Z</time>
      </trkpt>
      <trkpt lat="42.33016254701869" lon="1.063249139556195">
        <time>2021-03-18T10:17:47Z</time>
      </trkpt>
      <trkpt lat="42.32998667954725" lon="1.062399046607701">
        <time>2021-03-18T10:17:47Z</time>
      </trkpt>
      <trkpt lat="42.33044901623381" lon="1.061932542773318">
        <time>2021-03-18T10:17:47Z</time>
      </trkpt>
      <trkpt lat="42.33078388981262" lon="1.058607964913809">
        <time>2021-03-18T10:17:47Z</time>
      </trkpt>
      <trkpt lat="42.33105877812053" lon="1.058302769703325">
        <time>2021-03-18T10:17:47Z</time>
      </trkpt>
      <trkpt lat="42.33055968332124" lon="1.057268444676198">
        <time>2021-03-18T10:17:47Z</time>
      </trkpt>
      <trkpt lat="42.33059627707965" lon="1.057015778230832">
        <time>2021-03-18T10:17:47Z</time>
      </trkpt>
      <trkpt lat="42.33132104537769" lon="1.056650463041813">
        <time>2021-03-18T10:17:47Z</time>
      </trkpt>
      <trkpt lat="42.33167072862962" lon="1.055804360659656">
        <time>2021-03-18T10:17:47Z</time>
      </trkpt>
      <trkpt lat="42.33155535589566" lon="1.054683700254742">
        <time>2021-03-18T10:17:47Z</time>
      </trkpt>
      <trkpt lat="42.33152817067585" lon="1.054637185563323">
        <time>2021-03-18T10:17:47Z</time>
      </trkpt>
      <trkpt lat="42.33130999119368" lon="1.054660230480697">
        <time>2021-03-18T10:17:47Z</time>
      </trkpt>
      <trkpt lat="42.33096587414875" lon="1.056029194691028">
        <time>2021-03-18T10:17:47Z</time>
      </trkpt>
      <trkpt lat="42.33020107577409" lon="1.056501362194984">
        <time>2021-03-18T10:17:47Z</time>
      </trkpt>
      <trkpt lat="42.32956907014348" lon="1.057323524119804">
        <time>2021-03-18T10:17:47Z</time>
      </trkpt>
      <trkpt lat="42.32970834119799" lon="1.058929498766192">
        <time>2021-03-18T10:17:47Z</time>
      </trkpt>
      <trkpt lat="42.32928019298073" lon="1.059454703443901">
        <time>2021-03-18T10:17:47Z</time>
      </trkpt>
      <trkpt lat="42.32894763508613" lon="1.06021189819544">
        <time>2021-03-18T10:17:47Z</time>
      </trkpt>
      <trkpt lat="42.32832702644013" lon="1.060639583649452">
        <time>2021-03-18T10:17:47Z</time>
      </trkpt>
      <trkpt lat="42.32831775200378" lon="1.060254165213326">
        <time>2021-03-18T10:17:47Z</time>
      </trkpt>
      <trkpt lat="42.32881167911319" lon="1.059587221196972">
        <time>2021-03-18T10:17:47Z</time>
      </trkpt>
      <trkpt lat="42.32914647272805" lon="1.058925341141028">
        <time>2021-03-18T10:17:47Z</time>
      </trkpt>
      <trkpt lat="42.32894633163553" lon="1.058395618794481">
        <time>2021-03-18T10:17:47Z</time>
      </trkpt>
      <trkpt lat="42.32873462182631" lon="1.057931434667485">
        <time>2021-03-18T10:17:47Z</time>
      </trkpt>
      <trkpt lat="42.32872818075897" lon="1.05791479212566">
        <time>2021-03-18T10:17:47Z</time>
      </trkpt>
      <trkpt lat="42.32869095378488" lon="1.05719782255127">
        <time>2021-03-18T10:17:47Z</time>
      </trkpt>
      <trkpt lat="42.32867854877956" lon="1.057165323229736">
        <time>2021-03-18T10:17:47Z</time>
      </trkpt>
      <trkpt lat="42.3285541115733" lon="1.056804473532593">
        <time>2021-03-18T10:17:47Z</time>
      </trkpt>
      <trkpt lat="42.32874864095827" lon="1.056032837201222">
        <time>2021-03-18T10:17:47Z</time>
      </trkpt>
      <trkpt lat="42.32830595298116" lon="1.055594107683406">
        <time>2021-03-18T10:17:47Z</time>
      </trkpt>
      <trkpt lat="42.32850359934238" lon="1.05208468696204">
        <time>2021-03-18T10:17:47Z</time>
      </trkpt>
      <trkpt lat="42.32820391593958" lon="1.051149950664057">
        <time>2021-03-18T10:17:47Z</time>
      </trkpt>
      <trkpt lat="42.32858641653895" lon="1.050598423946421">
        <time>2021-03-18T10:17:47Z</time>
      </trkpt>
      <trkpt lat="42.32840342235512" lon="1.048845891975856">
        <time>2021-03-18T10:17:47Z</time>
      </trkpt>
      <trkpt lat="42.32864901388086" lon="1.047973377669891">
        <time>2021-03-18T10:17:47Z</time>
      </trkpt>
      <trkpt lat="42.32841261341909" lon="1.045421753938305">
        <time>2021-03-18T10:17:47Z</time>
      </trkpt>
      <trkpt lat="42.32819255697379" lon="1.044043836860187">
        <time>2021-03-18T10:17:47Z</time>
      </trkpt>
      <trkpt lat="42.32841304778523" lon="1.043505259681712">
        <time>2021-03-18T10:17:47Z</time>
      </trkpt>
      <trkpt lat="42.32841284009421" lon="1.043459044989998">
        <time>2021-03-18T10:17:47Z</time>
      </trkpt>
      <trkpt lat="42.32822077476149" lon="1.042825617806613">
        <time>2021-03-18T10:17:47Z</time>
      </trkpt>
      <trkpt lat="42.32868612271098" lon="1.042058610392012">
        <time>2021-03-18T10:17:47Z</time>
      </trkpt>
      <trkpt lat="42.32872170665529" lon="1.041800592295463">
        <time>2021-03-18T10:17:47Z</time>
      </trkpt>
      <trkpt lat="42.32999884248468" lon="1.039728231633788">
        <time>2021-03-18T10:17:47Z</time>
      </trkpt>
      <trkpt lat="42.33037385282562" lon="1.038404318985218">
        <time>2021-03-18T10:17:47Z</time>
      </trkpt>
      <trkpt lat="42.32996098008297" lon="1.035071279730204">
        <time>2021-03-18T10:17:47Z</time>
      </trkpt>
      <trkpt lat="42.32967137209226" lon="1.034312007523037">
        <time>2021-03-18T10:17:47Z</time>
      </trkpt>
      <trkpt lat="42.32998998109868" lon="1.033123371820472">
        <time>2021-03-18T10:17:47Z</time>
      </trkpt>
      <trkpt lat="42.32948251786129" lon="1.031171236531674">
        <time>2021-03-18T10:17:47Z</time>
      </trkpt>
      <trkpt lat="42.32873007521124" lon="1.031484073256319">
        <time>2021-03-18T10:17:47Z</time>
      </trkpt>
      <trkpt lat="42.32723380445491" lon="1.031082183447967">
        <time>2021-03-18T10:17:47Z</time>
      </trkpt>
      <trkpt lat="42.32626728559745" lon="1.029755564086563">
        <time>2021-03-18T10:17:47Z</time>
      </trkpt>
      <trkpt lat="42.32574625865832" lon="1.026555148728274">
        <time>2021-03-18T10:17:47Z</time>
      </trkpt>
      <trkpt lat="42.32588489289658" lon="1.025690926366141">
        <time>2021-03-18T10:17:47Z</time>
      </trkpt>
      <trkpt lat="42.32574900844065" lon="1.023821335933393">
        <time>2021-03-18T10:17:47Z</time>
      </trkpt>
      <trkpt lat="42.32574381785846" lon="1.023166539343983">
        <time>2021-03-18T10:17:47Z</time>
      </trkpt>
      <trkpt lat="42.32660578693342" lon="1.024769855975383">
        <time>2021-03-18T10:17:47Z</time>
      </trkpt>
      <trkpt lat="42.32701298683258" lon="1.026138867315314">
        <time>2021-03-18T10:17:47Z</time>
      </trkpt>
      <trkpt lat="42.32792211348907" lon="1.026889052941433">
        <time>2021-03-18T10:17:47Z</time>
      </trkpt>
      <trkpt lat="42.32798560101962" lon="1.026975380361686">
        <time>2021-03-18T10:17:47Z</time>
      </trkpt>
      <trkpt lat="42.32828953701064" lon="1.027604020214639">
        <time>2021-03-18T10:17:47Z</time>
      </trkpt>
      <trkpt lat="42.32916799385283" lon="1.027346800908564">
        <time>2021-03-18T10:17:47Z</time>
      </trkpt>
      <trkpt lat="42.32929857858706" lon="1.026417057092708">
        <time>2021-03-18T10:17:47Z</time>
      </trkpt>
      <trkpt lat="42.32988788501161" lon="1.026007696943889">
        <time>2021-03-18T10:17:47Z</time>
      </trkpt>
      <trkpt lat="42.33021031658512" lon="1.023884077539423">
        <time>2021-03-18T10:17:47Z</time>
      </trkpt>
      <trkpt lat="42.33062150461222" lon="1.023630472416861">
        <time>2021-03-18T10:17:47Z</time>
      </trkpt>
      <trkpt lat="42.33131849297882" lon="1.025851848701198">
        <time>2021-03-18T10:17:47Z</time>
      </trkpt>
      <trkpt lat="42.33186112002134" lon="1.026633839869977">
        <time>2021-03-18T10:17:47Z</time>
      </trkpt>
      <trkpt lat="42.33252467153699" lon="1.02825719532222">
        <time>2021-03-18T10:17:47Z</time>
      </trkpt>
      <trkpt lat="42.33249618528745" lon="1.025764525411159">
        <time>2021-03-18T10:17:47Z</time>
      </trkpt>
      <trkpt lat="42.33179698008158" lon="1.024940284752653">
        <time>2021-03-18T10:17:47Z</time>
      </trkpt>
      <trkpt lat="42.33228711372559" lon="1.023443123732994">
        <time>2021-03-18T10:17:47Z</time>
      </trkpt>
      <trkpt lat="42.3323743188362" lon="1.02338417938779">
        <time>2021-03-18T10:17:47Z</time>
      </trkpt>
      <trkpt lat="42.33257381341014" lon="1.022973025799934">
        <time>2021-03-18T10:17:47Z</time>
      </trkpt>
      <trkpt lat="42.33252215857045" lon="1.021672997133776">
        <time>2021-03-18T10:17:47Z</time>
      </trkpt>
      <trkpt lat="42.33201612072264" lon="1.020709357338776">
        <time>2021-03-18T10:17:47Z</time>
      </trkpt>
      <trkpt lat="42.332317442667" lon="1.019733112726946">
        <time>2021-03-18T10:17:47Z</time>
      </trkpt>
      <trkpt lat="42.33367158067311" lon="1.019323216903043">
        <time>2021-03-18T10:17:47Z</time>
      </trkpt>
      <trkpt lat="42.33410681611858" lon="1.01844628199975">
        <time>2021-03-18T10:17:47Z</time>
      </trkpt>
      <trkpt lat="42.3345730477933" lon="1.016595746582907">
        <time>2021-03-18T10:17:47Z</time>
      </trkpt>
      <trkpt lat="42.33292596047225" lon="1.016082352758914">
        <time>2021-03-18T10:17:47Z</time>
      </trkpt>
      <trkpt lat="42.33279440216717" lon="1.015260349414522">
        <time>2021-03-18T10:17:47Z</time>
      </trkpt>
      <trkpt lat="42.33316999630191" lon="1.014634009331044">
        <time>2021-03-18T10:17:47Z</time>
      </trkpt>
      <trkpt lat="42.33308094836264" lon="1.012400421210364">
        <time>2021-03-18T10:17:47Z</time>
      </trkpt>
      <trkpt lat="42.33206570353105" lon="1.007275866359698">
        <time>2021-03-18T10:17:47Z</time>
      </trkpt>
      <trkpt lat="42.32961972793522" lon="1.004564170382993">
        <time>2021-03-18T10:17:47Z</time>
      </trkpt>
      <trkpt lat="42.32937375953918" lon="1.003584063101299">
        <time>2021-03-18T10:17:47Z</time>
      </trkpt>
      <trkpt lat="42.32952195028366" lon="0.9995820095784413">
        <time>2021-03-18T10:17:47Z</time>
      </trkpt>
      <trkpt lat="42.32885998779761" lon="0.9988062470849779">
        <time>2021-03-18T10:17:47Z</time>
      </trkpt>
      <trkpt lat="42.3287695065333" lon="0.997183243701929">
        <time>2021-03-18T10:17:47Z</time>
      </trkpt>
      <trkpt lat="42.32884753367245" lon="0.9967277294717136">
        <time>2021-03-18T10:17:47Z</time>
      </trkpt>
      <trkpt lat="42.32868187930918" lon="0.9954547090117871">
        <time>2021-03-18T10:17:47Z</time>
      </trkpt>
      <trkpt lat="42.32756831728976" lon="0.9944832543254334">
        <time>2021-03-18T10:17:47Z</time>
      </trkpt>
      <trkpt lat="42.32752398169951" lon="0.9941783028063567">
        <time>2021-03-18T10:17:47Z</time>
      </trkpt>
      <trkpt lat="42.32798520511516" lon="0.9937532655968084">
        <time>2021-03-18T10:17:47Z</time>
      </trkpt>
      <trkpt lat="42.32779713590698" lon="0.9920132268327331">
        <time>2021-03-18T10:17:47Z</time>
      </trkpt>
      <trkpt lat="42.32731251327616" lon="0.9906335377344844">
        <time>2021-03-18T10:17:47Z</time>
      </trkpt>
      <trkpt lat="42.32666718539055" lon="0.9908682212859365">
        <time>2021-03-18T10:17:47Z</time>
      </trkpt>
      <trkpt lat="42.32610855943911" lon="0.9905425385066513">
        <time>2021-03-18T10:17:47Z</time>
      </trkpt>
      <trkpt lat="42.32633733910705" lon="0.9895573406408431">
        <time>2021-03-18T10:17:47Z</time>
      </trkpt>
      <trkpt lat="42.32631024035787" lon="0.987891345860612">
        <time>2021-03-18T10:17:47Z</time>
      </trkpt>
      <trkpt lat="42.32691328548928" lon="0.9869184922682672">
        <time>2021-03-18T10:17:47Z</time>
      </trkpt>
      <trkpt lat="42.32696658476381" lon="0.986319658661885">
        <time>2021-03-18T10:17:47Z</time>
      </trkpt>
      <trkpt lat="42.32756309488782" lon="0.9842458986962566">
        <time>2021-03-18T10:17:47Z</time>
      </trkpt>
      <trkpt lat="42.32768178979999" lon="0.983188376764772">
        <time>2021-03-18T10:17:47Z</time>
      </trkpt>
      <trkpt lat="42.32843766652031" lon="0.982314058529381">
        <time>2021-03-18T10:17:47Z</time>
      </trkpt>
      <trkpt lat="42.32883554386811" lon="0.9819146543865021">
        <time>2021-03-18T10:17:47Z</time>
      </trkpt>
      <trkpt lat="42.32882909783979" lon="0.9798454690894376">
        <time>2021-03-18T10:17:47Z</time>
      </trkpt>
      <trkpt lat="42.32885336591745" lon="0.9790141808046293">
        <time>2021-03-18T10:17:47Z</time>
      </trkpt>
      <trkpt lat="42.3293967690667" lon="0.9778036066005891">
        <time>2021-03-18T10:17:47Z</time>
      </trkpt>
      <trkpt lat="42.32863391497773" lon="0.9783582880338937">
        <time>2021-03-18T10:17:47Z</time>
      </trkpt>
      <trkpt lat="42.33011320142663" lon="0.9765658942040756">
        <time>2021-03-18T10:17:47Z</time>
      </trkpt>
      <trkpt lat="42.32842990843155" lon="0.9767964105292437">
        <time>2021-03-18T10:17:47Z</time>
      </trkpt>
      <trkpt lat="42.3278300386263" lon="0.9756918165401673">
        <time>2021-03-18T10:17:47Z</time>
      </trkpt>
      <trkpt lat="42.32831508967329" lon="0.9751495374887242">
        <time>2021-03-18T10:17:47Z</time>
      </trkpt>
      <trkpt lat="42.32899074168034" lon="0.9737398913370177">
        <time>2021-03-18T10:17:47Z</time>
      </trkpt>
      <trkpt lat="42.32889983648194" lon="0.9730748749303353">
        <time>2021-03-18T10:17:47Z</time>
      </trkpt>
      <trkpt lat="42.32959968040182" lon="0.971753456586848">
        <time>2021-03-18T10:17:47Z</time>
      </trkpt>
      <trkpt lat="42.3293142272295" lon="0.9702857250550956">
        <time>2021-03-18T10:17:47Z</time>
      </trkpt>
      <trkpt lat="42.32974168615671" lon="0.9697066022101763">
        <time>2021-03-18T10:17:47Z</time>
      </trkpt>
      <trkpt lat="42.32969168434147" lon="0.9673730342474918">
        <time>2021-03-18T10:17:47Z</time>
      </trkpt>
      <trkpt lat="42.3288131053477" lon="0.9663087179374474">
        <time>2021-03-18T10:17:47Z</time>
      </trkpt>
      <trkpt lat="42.32879808011276" lon="0.9655333924825094">
        <time>2021-03-18T10:17:47Z</time>
      </trkpt>
      <trkpt lat="42.3279316053745" lon="0.9643833356695475">
        <time>2021-03-18T10:17:47Z</time>
      </trkpt>
      <trkpt lat="42.32663970250081" lon="0.9641544806731739">
        <time>2021-03-18T10:17:47Z</time>
      </trkpt>
      <trkpt lat="42.32624981333097" lon="0.9646706010901784">
        <time>2021-03-18T10:17:47Z</time>
      </trkpt>
      <trkpt lat="42.32560124507396" lon="0.9631014726787934">
        <time>2021-03-18T10:17:47Z</time>
      </trkpt>
      <trkpt lat="42.32470710281092" lon="0.9602947945879747">
        <time>2021-03-18T10:17:47Z</time>
      </trkpt>
      <trkpt lat="42.32469664750758" lon="0.9590422608309424">
        <time>2021-03-18T10:17:47Z</time>
      </trkpt>
      <trkpt lat="42.32499820988314" lon="0.9596222163550472">
        <time>2021-03-18T10:17:47Z</time>
      </trkpt>
      <trkpt lat="42.32529487146268" lon="0.9587866873140727">
        <time>2021-03-18T10:17:47Z</time>
      </trkpt>
      <trkpt lat="42.32554575718115" lon="0.9600240160675888">
        <time>2021-03-18T10:17:47Z</time>
      </trkpt>
      <trkpt lat="42.32577771775707" lon="0.9583730964456194">
        <time>2021-03-18T10:17:47Z</time>
      </trkpt>
      <trkpt lat="42.32595649302886" lon="0.9580388603512779">
        <time>2021-03-18T10:17:47Z</time>
      </trkpt>
      <trkpt lat="42.3253548525022" lon="0.9559308724882531">
        <time>2021-03-18T10:17:47Z</time>
      </trkpt>
      <trkpt lat="42.32558278568542" lon="0.9548249229667505">
        <time>2021-03-18T10:17:47Z</time>
      </trkpt>
      <trkpt lat="42.32556652670369" lon="0.9544069132965927">
        <time>2021-03-18T10:17:47Z</time>
      </trkpt>
      <trkpt lat="42.32613812443337" lon="0.9529064495732431">
        <time>2021-03-18T10:17:47Z</time>
      </trkpt>
      <trkpt lat="42.32632409435011" lon="0.951102517862974">
        <time>2021-03-18T10:17:47Z</time>
      </trkpt>
      <trkpt lat="42.32616275623692" lon="0.9493601597761248">
        <time>2021-03-18T10:17:47Z</time>
      </trkpt>
      <trkpt lat="42.32615398820388" lon="0.9476906642578742">
        <time>2021-03-18T10:17:47Z</time>
      </trkpt>
      <trkpt lat="42.32588048629759" lon="0.9475605666247477">
        <time>2021-03-18T10:17:47Z</time>
      </trkpt>
      <trkpt lat="42.32589443604681" lon="0.947169903621361">
        <time>2021-03-18T10:17:47Z</time>
      </trkpt>
      <trkpt lat="42.32575826156171" lon="0.946616889428642">
        <time>2021-03-18T10:17:47Z</time>
      </trkpt>
      <trkpt lat="42.3257789605324" lon="0.946478672183193">
        <time>2021-03-18T10:17:47Z</time>
      </trkpt>
      <trkpt lat="42.32543412384592" lon="0.9441993769798551">
        <time>2021-03-18T10:17:47Z</time>
      </trkpt>
      <trkpt lat="42.32577155666635" lon="0.9436700205852966">
        <time>2021-03-18T10:17:47Z</time>
      </trkpt>
      <trkpt lat="42.32574449534905" lon="0.9430988379149152">
        <time>2021-03-18T10:17:47Z</time>
      </trkpt>
      <trkpt lat="42.32549668223582" lon="0.9428141650531519">
        <time>2021-03-18T10:17:47Z</time>
      </trkpt>
      <trkpt lat="42.3259337912509" lon="0.9419163680125209">
        <time>2021-03-18T10:17:47Z</time>
      </trkpt>
      <trkpt lat="42.32695264777515" lon="0.9423084489044942">
        <time>2021-03-18T10:17:47Z</time>
      </trkpt>
      <trkpt lat="42.32580285021184" lon="0.9411103966619616">
        <time>2021-03-18T10:17:47Z</time>
      </trkpt>
      <trkpt lat="42.32574598366526" lon="0.9400773368174531">
        <time>2021-03-18T10:17:47Z</time>
      </trkpt>
      <trkpt lat="42.32613584215405" lon="0.9393544587256675">
        <time>2021-03-18T10:17:47Z</time>
      </trkpt>
      <trkpt lat="42.32469149966721" lon="0.9377229784465535">
        <time>2021-03-18T10:17:47Z</time>
      </trkpt>
      <trkpt lat="42.3246069233774" lon="0.9370130974992685">
        <time>2021-03-18T10:17:47Z</time>
      </trkpt>
      <trkpt lat="42.32531576739812" lon="0.9366590110550632">
        <time>2021-03-18T10:17:47Z</time>
      </trkpt>
      <trkpt lat="42.3249932990608" lon="0.936255233723573">
        <time>2021-03-18T10:17:47Z</time>
      </trkpt>
      <trkpt lat="42.32563299489633" lon="0.935303415097557">
        <time>2021-03-18T10:17:47Z</time>
      </trkpt>
      <trkpt lat="42.32583527535984" lon="0.9345523393261002">
        <time>2021-03-18T10:17:47Z</time>
      </trkpt>
      <trkpt lat="42.32714223809725" lon="0.9330091490231163">
        <time>2021-03-18T10:17:47Z</time>
      </trkpt>
      <trkpt lat="42.32673459923761" lon="0.9322576160733442">
        <time>2021-03-18T10:17:47Z</time>
      </trkpt>
      <trkpt lat="42.32747558795879" lon="0.9323582429544119">
        <time>2021-03-18T10:17:47Z</time>
      </trkpt>
      <trkpt lat="42.32796997355589" lon="0.9318200333131577">
        <time>2021-03-18T10:17:47Z</time>
      </trkpt>
      <trkpt lat="42.32692267877901" lon="0.9316572611235308">
        <time>2021-03-18T10:17:47Z</time>
      </trkpt>
      <trkpt lat="42.32682452059166" lon="0.9317072146885552">
        <time>2021-03-18T10:17:47Z</time>
      </trkpt>
      <trkpt lat="42.32928313910016" lon="0.9310039350907573">
        <time>2021-03-18T10:17:47Z</time>
      </trkpt>
      <trkpt lat="42.33045195853369" lon="0.9300218342695699">
        <time>2021-03-18T10:17:47Z</time>
      </trkpt>
      <trkpt lat="42.32969248791334" lon="0.9301026414815516">
        <time>2021-03-18T10:17:47Z</time>
      </trkpt>
      <trkpt lat="42.3309545585422" lon="0.9278415709891141">
        <time>2021-03-18T10:17:47Z</time>
      </trkpt>
      <trkpt lat="42.33167514222883" lon="0.9271286511829846">
        <time>2021-03-18T10:17:47Z</time>
      </trkpt>
      <trkpt lat="42.33159735666318" lon="0.9253989530258">
        <time>2021-03-18T10:17:47Z</time>
      </trkpt>
      <trkpt lat="42.33144562693138" lon="0.9269594460244002">
        <time>2021-03-18T10:17:47Z</time>
      </trkpt>
      <trkpt lat="42.33026527072129" lon="0.9277424956571356">
        <time>2021-03-18T10:17:47Z</time>
      </trkpt>
      <trkpt lat="42.32988920867547" lon="0.9285042094948204">
        <time>2021-03-18T10:17:47Z</time>
      </trkpt>
      <trkpt lat="42.32840835852761" lon="0.9291780688567908">
        <time>2021-03-18T10:17:47Z</time>
      </trkpt>
      <trkpt lat="42.32985472141804" lon="0.9272141563531688">
        <time>2021-03-18T10:17:47Z</time>
      </trkpt>
      <trkpt lat="42.32765843246335" lon="0.9284494129525367">
        <time>2021-03-18T10:17:47Z</time>
      </trkpt>
      <trkpt lat="42.33033042821541" lon="0.9253055388526032">
        <time>2021-03-18T10:17:47Z</time>
      </trkpt>
      <trkpt lat="42.33044564787571" lon="0.9236760435428382">
        <time>2021-03-18T10:17:47Z</time>
      </trkpt>
      <trkpt lat="42.3291285548116" lon="0.922814546987325">
        <time>2021-03-18T10:17:47Z</time>
      </trkpt>
      <trkpt lat="42.32888889488341" lon="0.9212887960725946">
        <time>2021-03-18T10:17:47Z</time>
      </trkpt>
      <trkpt lat="42.32844158421435" lon="0.9208346851742299">
        <time>2021-03-18T10:17:47Z</time>
      </trkpt>
      <trkpt lat="42.32823696059476" lon="0.919762007677023">
        <time>2021-03-18T10:17:47Z</time>
      </trkpt>
      <trkpt lat="42.32793247634385" lon="0.9193907836464676">
        <time>2021-03-18T10:17:47Z</time>
      </trkpt>
      <trkpt lat="42.32839763443926" lon="0.91864397011717">
        <time>2021-03-18T10:17:47Z</time>
      </trkpt>
      <trkpt lat="42.32873112845089" lon="0.9176218280046">
        <time>2021-03-18T10:17:47Z</time>
      </trkpt>
      <trkpt lat="42.32873384560786" lon="0.9168734904962594">
        <time>2021-03-18T10:17:47Z</time>
      </trkpt>
      <trkpt lat="42.32829930860228" lon="0.9159069215150861">
        <time>2021-03-18T10:17:47Z</time>
      </trkpt>
      <trkpt lat="42.32837461972215" lon="0.9150101706369118">
        <time>2021-03-18T10:17:47Z</time>
      </trkpt>
      <trkpt lat="42.32792329510217" lon="0.9145933810606799">
        <time>2021-03-18T10:17:47Z</time>
      </trkpt>
      <trkpt lat="42.3281927980532" lon="0.9142282566465165">
        <time>2021-03-18T10:17:47Z</time>
      </trkpt>
      <trkpt lat="42.32879136487764" lon="0.9147848101055756">
        <time>2021-03-18T10:17:47Z</time>
      </trkpt>
      <trkpt lat="42.3295185535365" lon="0.9149589403561342">
        <time>2021-03-18T10:17:47Z</time>
      </trkpt>
      <trkpt lat="42.32952481705382" lon="0.9150139552224168">
        <time>2021-03-18T10:17:47Z</time>
      </trkpt>
      <trkpt lat="42.32969864656268" lon="0.9154887261403566">
        <time>2021-03-18T10:17:47Z</time>
      </trkpt>
      <trkpt lat="42.333014039897" lon="0.9160097747922813">
        <time>2021-03-18T10:17:47Z</time>
      </trkpt>
      <trkpt lat="42.33438096568021" lon="0.9176316775437443">
        <time>2021-03-18T10:17:47Z</time>
      </trkpt>
      <trkpt lat="42.33505133426198" lon="0.9182112051793845">
        <time>2021-03-18T10:17:47Z</time>
      </trkpt>
      <trkpt lat="42.33641395541893" lon="0.9159778567675181">
        <time>2021-03-18T10:17:47Z</time>
      </trkpt>
      <trkpt lat="42.33704286502912" lon="0.9151375407236495">
        <time>2021-03-18T10:17:47Z</time>
      </trkpt>
      <trkpt lat="42.33617993793329" lon="0.9139367692011358">
        <time>2021-03-18T10:17:47Z</time>
      </trkpt>
      <trkpt lat="42.33672623374269" lon="0.912376436043596">
        <time>2021-03-18T10:17:47Z</time>
      </trkpt>
      <trkpt lat="42.33621027754825" lon="0.9110764677380545">
        <time>2021-03-18T10:17:47Z</time>
      </trkpt>
      <trkpt lat="42.33533358220329" lon="0.911049539070039">
        <time>2021-03-18T10:17:47Z</time>
      </trkpt>
      <trkpt lat="42.33537634815888" lon="0.9085821277872674">
        <time>2021-03-18T10:17:47Z</time>
      </trkpt>
      <trkpt lat="42.33457544572719" lon="0.9053263367994568">
        <time>2021-03-18T10:17:47Z</time>
      </trkpt>
      <trkpt lat="42.33425893400818" lon="0.9045434783569251">
        <time>2021-03-18T10:17:47Z</time>
      </trkpt>
      <trkpt lat="42.33463324904496" lon="0.9025176592048956">
        <time>2021-03-18T10:17:47Z</time>
      </trkpt>
      <trkpt lat="42.33318225146939" lon="0.9008526029470243">
        <time>2021-03-18T10:17:47Z</time>
      </trkpt>
      <trkpt lat="42.33265384736931" lon="0.899236196943578">
        <time>2021-03-18T10:17:47Z</time>
      </trkpt>
      <trkpt lat="42.33207993519515" lon="0.8980421588617893">
        <time>2021-03-18T10:17:47Z</time>
      </trkpt>
      <trkpt lat="42.33175992806886" lon="0.8976948648577343">
        <time>2021-03-18T10:17:47Z</time>
      </trkpt>
      <trkpt lat="42.33301044942037" lon="0.8972720039276427">
        <time>2021-03-18T10:17:47Z</time>
      </trkpt>
      <trkpt lat="42.33191113753986" lon="0.8965110781405627">
        <time>2021-03-18T10:17:47Z</time>
      </trkpt>
      <trkpt lat="42.33110500940452" lon="0.8952204485065973">
        <time>2021-03-18T10:17:47Z</time>
      </trkpt>
      <trkpt lat="42.33065327970449" lon="0.8944774931304167">
        <time>2021-03-18T10:17:47Z</time>
      </trkpt>
      <trkpt lat="42.32964463797644" lon="0.8936878758565903">
        <time>2021-03-18T10:17:47Z</time>
      </trkpt>
      <trkpt lat="42.32945482116026" lon="0.8930547073081785">
        <time>2021-03-18T10:17:47Z</time>
      </trkpt>
      <trkpt lat="42.32939791158083" lon="0.8924598784888982">
        <time>2021-03-18T10:17:47Z</time>
      </trkpt>
      <trkpt lat="42.328696049812" lon="0.8906674447560992">
        <time>2021-03-18T10:17:47Z</time>
      </trkpt>
      <trkpt lat="42.32828829840019" lon="0.8898443038343751">
        <time>2021-03-18T10:17:47Z</time>
      </trkpt>
      <trkpt lat="42.32827156319233" lon="0.889062690313589">
        <time>2021-03-18T10:17:47Z</time>
      </trkpt>
      <trkpt lat="42.32776183285957" lon="0.8885630140353951">
        <time>2021-03-18T10:17:47Z</time>
      </trkpt>
      <trkpt lat="42.32840092122919" lon="0.8887386896135996">
        <time>2021-03-18T10:17:47Z</time>
      </trkpt>
      <trkpt lat="42.32889745159355" lon="0.889182815923768">
        <time>2021-03-18T10:17:47Z</time>
      </trkpt>
      <trkpt lat="42.32929244778064" lon="0.889247969955298">
        <time>2021-03-18T10:17:47Z</time>
      </trkpt>
      <trkpt lat="42.32985899850465" lon="0.8908774433424393">
        <time>2021-03-18T10:17:47Z</time>
      </trkpt>
      <trkpt lat="42.33086341158874" lon="0.8910446736996014">
        <time>2021-03-18T10:17:47Z</time>
      </trkpt>
      <trkpt lat="42.33132222182026" lon="0.8911273841967726">
        <time>2021-03-18T10:17:47Z</time>
      </trkpt>
      <trkpt lat="42.33125062953178" lon="0.8892008127663242">
        <time>2021-03-18T10:17:47Z</time>
      </trkpt>
      <trkpt lat="42.33062140925237" lon="0.8885567023220631">
        <time>2021-03-18T10:17:47Z</time>
      </trkpt>
      <trkpt lat="42.33101299244644" lon="0.8872977853524922">
        <time>2021-03-18T10:17:47Z</time>
      </trkpt>
      <trkpt lat="42.32958843376367" lon="0.887887351722616">
        <time>2021-03-18T10:17:47Z</time>
      </trkpt>
      <trkpt lat="42.33049055288724" lon="0.8866965117374948">
        <time>2021-03-18T10:17:47Z</time>
      </trkpt>
      <trkpt lat="42.33113411939606" lon="0.8864177723732847">
        <time>2021-03-18T10:17:47Z</time>
      </trkpt>
      <trkpt lat="42.33122089001997" lon="0.8850229153941247">
        <time>2021-03-18T10:17:47Z</time>
      </trkpt>
      <trkpt lat="42.33171718806208" lon="0.884420295815187">
        <time>2021-03-18T10:17:47Z</time>
      </trkpt>
      <trkpt lat="42.33219816392835" lon="0.8839226523696353">
        <time>2021-03-18T10:17:47Z</time>
      </trkpt>
      <trkpt lat="42.33253795322302" lon="0.8833469552294759">
        <time>2021-03-18T10:17:47Z</time>
      </trkpt>
      <trkpt lat="42.33287320490424" lon="0.8831449325957941">
        <time>2021-03-18T10:17:47Z</time>
      </trkpt>
      <trkpt lat="42.33335974130036" lon="0.8821601266944867">
        <time>2021-03-18T10:17:47Z</time>
      </trkpt>
      <trkpt lat="42.33196187117378" lon="0.8831426719624935">
        <time>2021-03-18T10:17:47Z</time>
      </trkpt>
      <trkpt lat="42.33094415751707" lon="0.8835431806969307">
        <time>2021-03-18T10:17:47Z</time>
      </trkpt>
      <trkpt lat="42.33124030416314" lon="0.8828317928761598">
        <time>2021-03-18T10:17:47Z</time>
      </trkpt>
      <trkpt lat="42.33071278311839" lon="0.8832004869183763">
        <time>2021-03-18T10:17:47Z</time>
      </trkpt>
      <trkpt lat="42.33101534215853" lon="0.8826674775122845">
        <time>2021-03-18T10:17:47Z</time>
      </trkpt>
      <trkpt lat="42.33117158168523" lon="0.8813256734604158">
        <time>2021-03-18T10:17:47Z</time>
      </trkpt>
      <trkpt lat="42.33167227786271" lon="0.8802336760512786">
        <time>2021-03-18T10:17:47Z</time>
      </trkpt>
      <trkpt lat="42.33202725460189" lon="0.8776754769878536">
        <time>2021-03-18T10:17:47Z</time>
      </trkpt>
      <trkpt lat="42.33105452217227" lon="0.8761689934811723">
        <time>2021-03-18T10:17:47Z</time>
      </trkpt>
      <trkpt lat="42.33214506212694" lon="0.8765177640014965">
        <time>2021-03-18T10:17:47Z</time>
      </trkpt>
      <trkpt lat="42.33265754867392" lon="0.8760944582229468">
        <time>2021-03-18T10:17:47Z</time>
      </trkpt>
      <trkpt lat="42.33244396254206" lon="0.8745141742098994">
        <time>2021-03-18T10:17:47Z</time>
      </trkpt>
      <trkpt lat="42.33283248471209" lon="0.8732170127586469">
        <time>2021-03-18T10:17:47Z</time>
      </trkpt>
      <trkpt lat="42.33201416605139" lon="0.8712168776631191">
        <time>2021-03-18T10:17:47Z</time>
      </trkpt>
      <trkpt lat="42.33191890353054" lon="0.8707733363918679">
        <time>2021-03-18T10:17:47Z</time>
      </trkpt>
      <trkpt lat="42.33087422798032" lon="0.8716224289368224">
        <time>2021-03-18T10:17:47Z</time>
      </trkpt>
      <trkpt lat="42.33110345960493" lon="0.8705063650942391">
        <time>2021-03-18T10:17:47Z</time>
      </trkpt>
      <trkpt lat="42.33058303740942" lon="0.8698520812025734">
        <time>2021-03-18T10:17:47Z</time>
      </trkpt>
      <trkpt lat="42.33135498056787" lon="0.8696230233147162">
        <time>2021-03-18T10:17:47Z</time>
      </trkpt>
      <trkpt lat="42.33208707583266" lon="0.8682613707668407">
        <time>2021-03-18T10:17:47Z</time>
      </trkpt>
      <trkpt lat="42.33210350003739" lon="0.8666421287559056">
        <time>2021-03-18T10:17:47Z</time>
      </trkpt>
      <trkpt lat="42.332680278748" lon="0.8657323534357664">
        <time>2021-03-18T10:17:47Z</time>
      </trkpt>
      <trkpt lat="42.33284611169827" lon="0.8648695844256116">
        <time>2021-03-18T10:17:47Z</time>
      </trkpt>
      <trkpt lat="42.33309353755141" lon="0.8655986860207698">
        <time>2021-03-18T10:17:47Z</time>
      </trkpt>
      <trkpt lat="42.33279238629272" lon="0.8637728072804274">
        <time>2021-03-18T10:17:47Z</time>
      </trkpt>
      <trkpt lat="42.33299927561492" lon="0.8623244992620127">
        <time>2021-03-18T10:17:47Z</time>
      </trkpt>
      <trkpt lat="42.3338817147076" lon="0.8600519372154469">
        <time>2021-03-18T10:17:47Z</time>
      </trkpt>
      <trkpt lat="42.33339986784917" lon="0.8586471954315722">
        <time>2021-03-18T10:17:47Z</time>
      </trkpt>
      <trkpt lat="42.33348283683561" lon="0.8554662108920374">
        <time>2021-03-18T10:17:47Z</time>
      </trkpt>
      <trkpt lat="42.33354371773137" lon="0.8540757018268463">
        <time>2021-03-18T10:17:47Z</time>
      </trkpt>
      <trkpt lat="42.33420928413596" lon="0.8507580792725089">
        <time>2021-03-18T10:17:47Z</time>
      </trkpt>
      <trkpt lat="42.33467369796956" lon="0.8498772758385598">
        <time>2021-03-18T10:17:47Z</time>
      </trkpt>
      <trkpt lat="42.33750126741266" lon="0.8479433432009076">
        <time>2021-03-18T10:17:47Z</time>
      </trkpt>
      <trkpt lat="42.33802240809226" lon="0.8470187749440128">
        <time>2021-03-18T10:17:47Z</time>
      </trkpt>
      <trkpt lat="42.34041624996466" lon="0.8448953396889225">
        <time>2021-03-18T10:17:47Z</time>
      </trkpt>
      <trkpt lat="42.34077273399203" lon="0.8433796560779827">
        <time>2021-03-18T10:17:47Z</time>
      </trkpt>
      <trkpt lat="42.34152440269811" lon="0.8419449154771574">
        <time>2021-03-18T10:17:47Z</time>
      </trkpt>
      <trkpt lat="42.34200450203495" lon="0.8436103989330657">
        <time>2021-03-18T10:17:47Z</time>
      </trkpt>
      <trkpt lat="42.34380960986736" lon="0.8424097255761676">
        <time>2021-03-18T10:17:47Z</time>
      </trkpt>
      <trkpt lat="42.34457427491938" lon="0.842715478544771">
        <time>2021-03-18T10:17:47Z</time>
      </trkpt>
      <trkpt lat="42.34492076130506" lon="0.8421585545128996">
        <time>2021-03-18T10:17:47Z</time>
      </trkpt>
      <trkpt lat="42.34564050905892" lon="0.8421524197624319">
        <time>2021-03-18T10:17:47Z</time>
      </trkpt>
      <trkpt lat="42.34714972481432" lon="0.8414332852608841">
        <time>2021-03-18T10:17:47Z</time>
      </trkpt>
      <trkpt lat="42.34796663018621" lon="0.8402525034057118">
        <time>2021-03-18T10:17:47Z</time>
      </trkpt>
      <trkpt lat="42.34832230367964" lon="0.8386581622681999">
        <time>2021-03-18T10:17:47Z</time>
      </trkpt>
      <trkpt lat="42.34905778835483" lon="0.8376876558825241">
        <time>2021-03-18T10:17:47Z</time>
      </trkpt>
      <trkpt lat="42.35014961701491" lon="0.8370772821506467">
        <time>2021-03-18T10:17:47Z</time>
      </trkpt>
      <trkpt lat="42.35039836238686" lon="0.8360343124051983">
        <time>2021-03-18T10:17:47Z</time>
      </trkpt>
      <trkpt lat="42.35077606677756" lon="0.8354185172913775">
        <time>2021-03-18T10:17:47Z</time>
      </trkpt>
      <trkpt lat="42.35120233317168" lon="0.835490566080912">
        <time>2021-03-18T10:17:47Z</time>
      </trkpt>
      <trkpt lat="42.35131038467026" lon="0.8364416970463795">
        <time>2021-03-18T10:17:47Z</time>
      </trkpt>
      <trkpt lat="42.35225224003315" lon="0.8369165555286151">
        <time>2021-03-18T10:17:47Z</time>
      </trkpt>
      <trkpt lat="42.35343348976771" lon="0.8388989948944414">
        <time>2021-03-18T10:17:47Z</time>
      </trkpt>
      <trkpt lat="42.35338931558742" lon="0.8395911218822838">
        <time>2021-03-18T10:17:47Z</time>
      </trkpt>
      <trkpt lat="42.35335181785077" lon="0.8406106952929027">
        <time>2021-03-18T10:17:47Z</time>
      </trkpt>
      <trkpt lat="42.35440686275143" lon="0.8411105713548461">
        <time>2021-03-18T10:17:47Z</time>
      </trkpt>
      <trkpt lat="42.35470838016251" lon="0.8417775703428276">
        <time>2021-03-18T10:17:47Z</time>
      </trkpt>
      <trkpt lat="42.35584423470361" lon="0.8424813557085531">
        <time>2021-03-18T10:17:47Z</time>
      </trkpt>
      <trkpt lat="42.35761643074326" lon="0.8429695677433924">
        <time>2021-03-18T10:17:47Z</time>
      </trkpt>
      <trkpt lat="42.3580428691614" lon="0.8424411073532445">
        <time>2021-03-18T10:17:47Z</time>
      </trkpt>
      <trkpt lat="42.35765090824091" lon="0.841681223269648">
        <time>2021-03-18T10:17:47Z</time>
      </trkpt>
      <trkpt lat="42.3574435905538" lon="0.841366019429779">
        <time>2021-03-18T10:17:47Z</time>
      </trkpt>
      <trkpt lat="42.35715579435819" lon="0.8388694918458972">
        <time>2021-03-18T10:17:47Z</time>
      </trkpt>
      <trkpt lat="42.35720878614782" lon="0.8381914689507086">
        <time>2021-03-18T10:17:47Z</time>
      </trkpt>
      <trkpt lat="42.35779748434042" lon="0.8361308388602873">
        <time>2021-03-18T10:17:47Z</time>
      </trkpt>
      <trkpt lat="42.35701576664841" lon="0.8350790628252214">
        <time>2021-03-18T10:17:47Z</time>
      </trkpt>
      <trkpt lat="42.35698815998399" lon="0.8338140378916159">
        <time>2021-03-18T10:17:47Z</time>
      </trkpt>
      <trkpt lat="42.35713726045792" lon="0.8330627146263936">
        <time>2021-03-18T10:17:47Z</time>
      </trkpt>
      <trkpt lat="42.35707715282121" lon="0.8327782130498163">
        <time>2021-03-18T10:17:47Z</time>
      </trkpt>
      <trkpt lat="42.35627871036189" lon="0.8324636341272651">
        <time>2021-03-18T10:17:47Z</time>
      </trkpt>
      <trkpt lat="42.35514524901888" lon="0.8315288392031173">
        <time>2021-03-18T10:17:47Z</time>
      </trkpt>
      <trkpt lat="42.35446002436287" lon="0.8314420944900447">
        <time>2021-03-18T10:17:47Z</time>
      </trkpt>
      <trkpt lat="42.35369927671971" lon="0.8306829214325062">
        <time>2021-03-18T10:17:47Z</time>
      </trkpt>
      <trkpt lat="42.35340996389909" lon="0.8296840359809532">
        <time>2021-03-18T10:17:47Z</time>
      </trkpt>
      <trkpt lat="42.35303068397826" lon="0.829098755793638">
        <time>2021-03-18T10:17:47Z</time>
      </trkpt>
      <trkpt lat="42.35309918447407" lon="0.828018196074416">
        <time>2021-03-18T10:17:47Z</time>
      </trkpt>
      <trkpt lat="42.35328299572864" lon="0.827312970006373">
        <time>2021-03-18T10:17:47Z</time>
      </trkpt>
      <trkpt lat="42.35422373588448" lon="0.8260444122393218">
        <time>2021-03-18T10:17:47Z</time>
      </trkpt>
      <trkpt lat="42.3547518287868" lon="0.8251710809393842">
        <time>2021-03-18T10:17:47Z</time>
      </trkpt>
      <trkpt lat="42.35602783451449" lon="0.8241286845838713">
        <time>2021-03-18T10:17:47Z</time>
      </trkpt>
      <trkpt lat="42.35722693513672" lon="0.823525340155653">
        <time>2021-03-18T10:17:47Z</time>
      </trkpt>
      <trkpt lat="42.3571859820005" lon="0.8235226876743584">
        <time>2021-03-18T10:17:47Z</time>
      </trkpt>
      <trkpt lat="42.35751088738654" lon="0.8236959892815832">
        <time>2021-03-18T10:17:47Z</time>
      </trkpt>
      <trkpt lat="42.3581302134971" lon="0.8229990314050917">
        <time>2021-03-18T10:17:47Z</time>
      </trkpt>
      <trkpt lat="42.35768014598502" lon="0.8217038252579378">
        <time>2021-03-18T10:17:47Z</time>
      </trkpt>
      <trkpt lat="42.35870425638123" lon="0.8189855345804475">
        <time>2021-03-18T10:17:47Z</time>
      </trkpt>
      <trkpt lat="42.35936581704447" lon="0.8185486452965973">
        <time>2021-03-18T10:17:47Z</time>
      </trkpt>
      <trkpt lat="42.35940751679733" lon="0.8185470916038229">
        <time>2021-03-18T10:17:47Z</time>
      </trkpt>
      <trkpt lat="42.36076671465229" lon="0.8176004667434444">
        <time>2021-03-18T10:17:47Z</time>
      </trkpt>
      <trkpt lat="42.36316719044379" lon="0.816358898579046">
        <time>2021-03-18T10:17:47Z</time>
      </trkpt>
      <trkpt lat="42.36367258498772" lon="0.8148350930494686">
        <time>2021-03-18T10:17:47Z</time>
      </trkpt>
      <trkpt lat="42.36360628480347" lon="0.8137693069146823">
        <time>2021-03-18T10:17:47Z</time>
      </trkpt>
      <trkpt lat="42.36395250590972" lon="0.8134101844190211">
        <time>2021-03-18T10:17:47Z</time>
      </trkpt>
      <trkpt lat="42.36538902298806" lon="0.8124075425439559">
        <time>2021-03-18T10:17:47Z</time>
      </trkpt>
      <trkpt lat="42.36635404340551" lon="0.8114037736939772">
        <time>2021-03-18T10:17:47Z</time>
      </trkpt>
      <trkpt lat="42.36712883884258" lon="0.8098788149999958">
        <time>2021-03-18T10:17:47Z</time>
      </trkpt>
      <trkpt lat="42.36767049097429" lon="0.8102332037780591">
        <time>2021-03-18T10:17:47Z</time>
      </trkpt>
      <trkpt lat="42.36837806281861" lon="0.8099347774179755">
        <time>2021-03-18T10:17:47Z</time>
      </trkpt>
      <trkpt lat="42.36962047338179" lon="0.8099808834447519">
        <time>2021-03-18T10:17:47Z</time>
      </trkpt>
      <trkpt lat="42.3701009504442" lon="0.8097593656309998">
        <time>2021-03-18T10:17:47Z</time>
      </trkpt>
      <trkpt lat="42.37011812345842" lon="0.8091224306249423">
        <time>2021-03-18T10:17:47Z</time>
      </trkpt>
      <trkpt lat="42.37039938768361" lon="0.8086109285379361">
        <time>2021-03-18T10:17:47Z</time>
      </trkpt>
      <trkpt lat="42.37024892024797" lon="0.8081941767424627">
        <time>2021-03-18T10:17:47Z</time>
      </trkpt>
      <trkpt lat="42.37022893533791" lon="0.8081945019718462">
        <time>2021-03-18T10:17:47Z</time>
      </trkpt>
      <trkpt lat="42.36961066510691" lon="0.8079321832126318">
        <time>2021-03-18T10:17:47Z</time>
      </trkpt>
      <trkpt lat="42.3691894401447" lon="0.808169718121714">
        <time>2021-03-18T10:17:47Z</time>
      </trkpt>
      <trkpt lat="42.36835208410987" lon="0.8078776972003299">
        <time>2021-03-18T10:17:47Z</time>
      </trkpt>
      <trkpt lat="42.36807441697275" lon="0.8076273074229778">
        <time>2021-03-18T10:17:47Z</time>
      </trkpt>
      <trkpt lat="42.36704238721891" lon="0.8051631629295453">
        <time>2021-03-18T10:17:47Z</time>
      </trkpt>
      <trkpt lat="42.36632299715802" lon="0.8062940222408788">
        <time>2021-03-18T10:17:47Z</time>
      </trkpt>
      <trkpt lat="42.36628172910019" lon="0.805626237973216">
        <time>2021-03-18T10:17:47Z</time>
      </trkpt>
      <trkpt lat="42.36639846263372" lon="0.8038564009914673">
        <time>2021-03-18T10:17:47Z</time>
      </trkpt>
      <trkpt lat="42.36768724109106" lon="0.8039451198610181">
        <time>2021-03-18T10:17:47Z</time>
      </trkpt>
      <trkpt lat="42.36877778454888" lon="0.8031953906231459">
        <time>2021-03-18T10:17:47Z</time>
      </trkpt>
      <trkpt lat="42.36941604676316" lon="0.8029783098568033">
        <time>2021-03-18T10:17:47Z</time>
      </trkpt>
      <trkpt lat="42.36979260331593" lon="0.802287939136932">
        <time>2021-03-18T10:17:47Z</time>
      </trkpt>
      <trkpt lat="42.36977535528365" lon="0.8019495255049147">
        <time>2021-03-18T10:17:47Z</time>
      </trkpt>
      <trkpt lat="42.3689847865157" lon="0.8022030145508086">
        <time>2021-03-18T10:17:47Z</time>
      </trkpt>
      <trkpt lat="42.36949257469689" lon="0.8013430537962418">
        <time>2021-03-18T10:17:47Z</time>
      </trkpt>
      <trkpt lat="42.36902483328404" lon="0.7981457872799003">
        <time>2021-03-18T10:17:47Z</time>
      </trkpt>
      <trkpt lat="42.37010217564794" lon="0.7965668865411879">
        <time>2021-03-18T10:17:47Z</time>
      </trkpt>
      <trkpt lat="42.37011924802602" lon="0.7955842229259491">
        <time>2021-03-18T10:17:47Z</time>
      </trkpt>
      <trkpt lat="42.37047468647295" lon="0.7946287980543909">
        <time>2021-03-18T10:17:47Z</time>
      </trkpt>
      <trkpt lat="42.37056287920014" lon="0.7935954179980853">
        <time>2021-03-18T10:17:47Z</time>
      </trkpt>
      <trkpt lat="42.370663822966" lon="0.7925157160791141">
        <time>2021-03-18T10:17:47Z</time>
      </trkpt>
      <trkpt lat="42.37093741039463" lon="0.7919909893508859">
        <time>2021-03-18T10:17:47Z</time>
      </trkpt>
      <trkpt lat="42.3707849413956" lon="0.7917277278926926">
        <time>2021-03-18T10:17:47Z</time>
      </trkpt>
      <trkpt lat="42.37058169859246" lon="0.7897340751908666">
        <time>2021-03-18T10:17:47Z</time>
      </trkpt>
      <trkpt lat="42.37082104759752" lon="0.7880175057607874">
        <time>2021-03-18T10:17:47Z</time>
      </trkpt>
      <trkpt lat="42.37173500773523" lon="0.7896824314658701">
        <time>2021-03-18T10:17:47Z</time>
      </trkpt>
      <trkpt lat="42.37184858394051" lon="0.7896771461350371">
        <time>2021-03-18T10:17:47Z</time>
      </trkpt>
      <trkpt lat="42.37173250576478" lon="0.7882960514003212">
        <time>2021-03-18T10:17:47Z</time>
      </trkpt>
      <trkpt lat="42.37173266092604" lon="0.788286490964778">
        <time>2021-03-18T10:17:47Z</time>
      </trkpt>
      <trkpt lat="42.37150613718691" lon="0.7868031860211655">
        <time>2021-03-18T10:17:47Z</time>
      </trkpt>
      <trkpt lat="42.3716698168263" lon="0.7847994889576171">
        <time>2021-03-18T10:17:47Z</time>
      </trkpt>
      <trkpt lat="42.3715192588677" lon="0.7843689612948568">
        <time>2021-03-18T10:17:47Z</time>
      </trkpt>
      <trkpt lat="42.37157519504282" lon="0.7843746002572938">
        <time>2021-03-18T10:17:47Z</time>
      </trkpt>
      <trkpt lat="42.37160994139354" lon="0.7843774034373019">
        <time>2021-03-18T10:17:47Z</time>
      </trkpt>
      <trkpt lat="42.37190758153293" lon="0.7843448131684583">
        <time>2021-03-18T10:17:47Z</time>
      </trkpt>
      <trkpt lat="42.37221130311603" lon="0.7834547256077617">
        <time>2021-03-18T10:17:47Z</time>
      </trkpt>
      <trkpt lat="42.37221908107122" lon="0.78340701592158">
        <time>2021-03-18T10:17:47Z</time>
      </trkpt>
      <trkpt lat="42.3729140307201" lon="0.7826119470349924">
        <time>2021-03-18T10:17:47Z</time>
      </trkpt>
      <trkpt lat="42.37301434119391" lon="0.7813811392973236">
        <time>2021-03-18T10:17:47Z</time>
      </trkpt>
      <trkpt lat="42.37281712025442" lon="0.7806426456513083">
        <time>2021-03-18T10:17:47Z</time>
      </trkpt>
      <trkpt lat="42.37221389816065" lon="0.7794416821896299">
        <time>2021-03-18T10:17:47Z</time>
      </trkpt>
      <trkpt lat="42.37378176631845" lon="0.7806357183566504">
        <time>2021-03-18T10:17:47Z</time>
      </trkpt>
      <trkpt lat="42.37437439081002" lon="0.7818263514069623">
        <time>2021-03-18T10:17:47Z</time>
      </trkpt>
      <trkpt lat="42.37454354936509" lon="0.7816417330239611">
        <time>2021-03-18T10:17:47Z</time>
      </trkpt>
      <trkpt lat="42.37412715488226" lon="0.7802183798111684">
        <time>2021-03-18T10:17:47Z</time>
      </trkpt>
      <trkpt lat="42.37343990555863" lon="0.778957833000995">
        <time>2021-03-18T10:17:47Z</time>
      </trkpt>
      <trkpt lat="42.37342639340522" lon="0.7785360350695725">
        <time>2021-03-18T10:17:47Z</time>
      </trkpt>
      <trkpt lat="42.37425441845498" lon="0.7794285930432432">
        <time>2021-03-18T10:17:47Z</time>
      </trkpt>
      <trkpt lat="42.37397917181789" lon="0.7782918637228708">
        <time>2021-03-18T10:17:47Z</time>
      </trkpt>
      <trkpt lat="42.37464440683228" lon="0.7731540398355952">
        <time>2021-03-18T10:17:47Z</time>
      </trkpt>
      <trkpt lat="42.37500253189378" lon="0.7727987443094753">
        <time>2021-03-18T10:17:47Z</time>
      </trkpt>
      <trkpt lat="42.37489439347645" lon="0.7737391916437431">
        <time>2021-03-18T10:17:47Z</time>
      </trkpt>
      <trkpt lat="42.37488209218482" lon="0.7748944062821117">
        <time>2021-03-18T10:17:47Z</time>
      </trkpt>
      <trkpt lat="42.37515355315654" lon="0.7753717127723236">
        <time>2021-03-18T10:17:47Z</time>
      </trkpt>
      <trkpt lat="42.37540044436078" lon="0.7753925250342575">
        <time>2021-03-18T10:17:47Z</time>
      </trkpt>
      <trkpt lat="42.37551730424978" lon="0.7757924220418055">
        <time>2021-03-18T10:17:47Z</time>
      </trkpt>
      <trkpt lat="42.37553758077503" lon="0.7758211426295336">
        <time>2021-03-18T10:17:47Z</time>
      </trkpt>
      <trkpt lat="42.37538283198986" lon="0.7767990612859665">
        <time>2021-03-18T10:17:47Z</time>
      </trkpt>
      <trkpt lat="42.37537077777989" lon="0.7772610469911578">
        <time>2021-03-18T10:17:47Z</time>
      </trkpt>
      <trkpt lat="42.37596937787701" lon="0.778656925813308">
        <time>2021-03-18T10:17:47Z</time>
      </trkpt>
      <trkpt lat="42.3759003432726" lon="0.7793371660558623">
        <time>2021-03-18T10:17:47Z</time>
      </trkpt>
      <trkpt lat="42.3762598412576" lon="0.7795684745081544">
        <time>2021-03-18T10:17:47Z</time>
      </trkpt>
      <trkpt lat="42.37650403541578" lon="0.7805958408278313">
        <time>2021-03-18T10:17:47Z</time>
      </trkpt>
      <trkpt lat="42.37670959158377" lon="0.7807745828091872">
        <time>2021-03-18T10:17:47Z</time>
      </trkpt>
      <trkpt lat="42.37724345974526" lon="0.7805036051487169">
        <time>2021-03-18T10:17:47Z</time>
      </trkpt>
      <trkpt lat="42.37776256361066" lon="0.7791213664351693">
        <time>2021-03-18T10:17:47Z</time>
      </trkpt>
      <trkpt lat="42.37818311613569" lon="0.7792473299083413">
        <time>2021-03-18T10:17:47Z</time>
      </trkpt>
      <trkpt lat="42.37818144406002" lon="0.7789827579795761">
        <time>2021-03-18T10:17:47Z</time>
      </trkpt>
      <trkpt lat="42.37816189058436" lon="0.7788934431994643">
        <time>2021-03-18T10:17:47Z</time>
      </trkpt>
      <trkpt lat="42.37865809348371" lon="0.7782452394896167">
        <time>2021-03-18T10:17:47Z</time>
      </trkpt>
      <trkpt lat="42.37903682318139" lon="0.7787352458308194">
        <time>2021-03-18T10:17:47Z</time>
      </trkpt>
      <trkpt lat="42.37942603221839" lon="0.7774650217297174">
        <time>2021-03-18T10:17:47Z</time>
      </trkpt>
      <trkpt lat="42.37978365238705" lon="0.7753100419069292">
        <time>2021-03-18T10:17:47Z</time>
      </trkpt>
      <trkpt lat="42.37976878872694" lon="0.7743284324894795">
        <time>2021-03-18T10:17:47Z</time>
      </trkpt>
      <trkpt lat="42.37947220944494" lon="0.7737196363512377">
        <time>2021-03-18T10:17:47Z</time>
      </trkpt>
      <trkpt lat="42.37952746021123" lon="0.7728100884443667">
        <time>2021-03-18T10:17:47Z</time>
      </trkpt>
      <trkpt lat="42.37920602201793" lon="0.7712576911752334">
        <time>2021-03-18T10:17:47Z</time>
      </trkpt>
      <trkpt lat="42.38066601655719" lon="0.7670830713878374">
        <time>2021-03-18T10:17:47Z</time>
      </trkpt>
      <trkpt lat="42.38066366868662" lon="0.7672816401562255">
        <time>2021-03-18T10:17:47Z</time>
      </trkpt>
      <trkpt lat="42.38082046791212" lon="0.7672247940290799">
        <time>2021-03-18T10:17:47Z</time>
      </trkpt>
      <trkpt lat="42.38105887218524" lon="0.7679643998378372">
        <time>2021-03-18T10:17:47Z</time>
      </trkpt>
      <trkpt lat="42.38124866809599" lon="0.7681424900890632">
        <time>2021-03-18T10:17:47Z</time>
      </trkpt>
      <trkpt lat="42.38139866597579" lon="0.7684402323188344">
        <time>2021-03-18T10:17:47Z</time>
      </trkpt>
      <trkpt lat="42.38222695624287" lon="0.768998990817904">
        <time>2021-03-18T10:17:47Z</time>
      </trkpt>
      <trkpt lat="42.38250013409827" lon="0.7695215997011129">
        <time>2021-03-18T10:17:47Z</time>
      </trkpt>
      <trkpt lat="42.3837921305179" lon="0.7684422936596924">
        <time>2021-03-18T10:17:47Z</time>
      </trkpt>
      <trkpt lat="42.38418567441808" lon="0.7689753305848113">
        <time>2021-03-18T10:17:47Z</time>
      </trkpt>
      <trkpt lat="42.38420314251177" lon="0.7684907239977323">
        <time>2021-03-18T10:17:47Z</time>
      </trkpt>
      <trkpt lat="42.38580213245673" lon="0.7682151709366236">
        <time>2021-03-18T10:17:47Z</time>
      </trkpt>
      <trkpt lat="42.38452286607651" lon="0.7645828884877459">
        <time>2021-03-18T10:17:47Z</time>
      </trkpt>
      <trkpt lat="42.38462539571648" lon="0.763194544810244">
        <time>2021-03-18T10:17:47Z</time>
      </trkpt>
      <trkpt lat="42.38516427143231" lon="0.7625760694453221">
        <time>2021-03-18T10:17:47Z</time>
      </trkpt>
      <trkpt lat="42.38501342041369" lon="0.7616581605688344">
        <time>2021-03-18T10:17:47Z</time>
      </trkpt>
      <trkpt lat="42.38549221419667" lon="0.7607673178065966">
        <time>2021-03-18T10:17:47Z</time>
      </trkpt>
      <trkpt lat="42.38521535594621" lon="0.7599641801451207">
        <time>2021-03-18T10:17:47Z</time>
      </trkpt>
      <trkpt lat="42.3854687553723" lon="0.7595678363319913">
        <time>2021-03-18T10:17:47Z</time>
      </trkpt>
      <trkpt lat="42.38584408982241" lon="0.7594857688350132">
        <time>2021-03-18T10:17:47Z</time>
      </trkpt>
      <trkpt lat="42.38571710155206" lon="0.7585184841273418">
        <time>2021-03-18T10:17:47Z</time>
      </trkpt>
      <trkpt lat="42.38582990475673" lon="0.7578503708825934">
        <time>2021-03-18T10:17:47Z</time>
      </trkpt>
      <trkpt lat="42.38586711338495" lon="0.7578169003099">
        <time>2021-03-18T10:17:47Z</time>
      </trkpt>
      <trkpt lat="42.3859228924486" lon="0.7569812662987929">
        <time>2021-03-18T10:17:47Z</time>
      </trkpt>
      <trkpt lat="42.38583128273124" lon="0.756651552453127">
        <time>2021-03-18T10:17:47Z</time>
      </trkpt>
      <trkpt lat="42.3858236694356" lon="0.7557949196912417">
        <time>2021-03-18T10:17:47Z</time>
      </trkpt>
      <trkpt lat="42.38575449486201" lon="0.7554879492447197">
        <time>2021-03-18T10:17:47Z</time>
      </trkpt>
      <trkpt lat="42.38565777912797" lon="0.7540520130963135">
        <time>2021-03-18T10:17:47Z</time>
      </trkpt>
      <trkpt lat="42.3854344141131" lon="0.7541514035180064">
        <time>2021-03-18T10:17:47Z</time>
      </trkpt>
      <trkpt lat="42.38531346571921" lon="0.7539617311437596">
        <time>2021-03-18T10:17:47Z</time>
      </trkpt>
      <trkpt lat="42.38555899589999" lon="0.7514827164873261">
        <time>2021-03-18T10:17:47Z</time>
      </trkpt>
      <trkpt lat="42.38687500361044" lon="0.7504269325738311">
        <time>2021-03-18T10:17:47Z</time>
      </trkpt>
      <trkpt lat="42.38718330414596" lon="0.7512640211571209">
        <time>2021-03-18T10:17:47Z</time>
      </trkpt>
      <trkpt lat="42.38774569006191" lon="0.7515457293351857">
        <time>2021-03-18T10:17:47Z</time>
      </trkpt>
      <trkpt lat="42.38789078596842" lon="0.7505955457637814">
        <time>2021-03-18T10:17:47Z</time>
      </trkpt>
      <trkpt lat="42.38817786402368" lon="0.7503587372899512">
        <time>2021-03-18T10:17:47Z</time>
      </trkpt>
      <trkpt lat="42.38851449621356" lon="0.752289627003071">
        <time>2021-03-18T10:17:47Z</time>
      </trkpt>
      <trkpt lat="42.38890989976598" lon="0.7526907987296494">
        <time>2021-03-18T10:17:47Z</time>
      </trkpt>
      <trkpt lat="42.38903965156496" lon="0.7530450200053007">
        <time>2021-03-18T10:17:47Z</time>
      </trkpt>
      <trkpt lat="42.38974240236497" lon="0.7534591248966782">
        <time>2021-03-18T10:17:47Z</time>
      </trkpt>
      <trkpt lat="42.39025717611907" lon="0.753662607317831">
        <time>2021-03-18T10:17:47Z</time>
      </trkpt>
      <trkpt lat="42.3903745253112" lon="0.7539260516487412">
        <time>2021-03-18T10:17:47Z</time>
      </trkpt>
      <trkpt lat="42.39088596276825" lon="0.7531903439762577">
        <time>2021-03-18T10:17:47Z</time>
      </trkpt>
      <trkpt lat="42.38981700615755" lon="0.7524852767045109">
        <time>2021-03-18T10:17:47Z</time>
      </trkpt>
      <trkpt lat="42.3896061925097" lon="0.7519214293727461">
        <time>2021-03-18T10:17:47Z</time>
      </trkpt>
      <trkpt lat="42.38996579466787" lon="0.7499282469293322">
        <time>2021-03-18T10:17:47Z</time>
      </trkpt>
      <trkpt lat="42.38947486168813" lon="0.7491861776675535">
        <time>2021-03-18T10:17:47Z</time>
      </trkpt>
      <trkpt lat="42.38895518930245" lon="0.7485596593959309">
        <time>2021-03-18T10:17:47Z</time>
      </trkpt>
      <trkpt lat="42.388920108797" lon="0.74769023000401">
        <time>2021-03-18T10:17:47Z</time>
      </trkpt>
      <trkpt lat="42.38888157394652" lon="0.7467934391920994">
        <time>2021-03-18T10:17:47Z</time>
      </trkpt>
      <trkpt lat="42.38783392705417" lon="0.7480510403618612">
        <time>2021-03-18T10:17:47Z</time>
      </trkpt>
      <trkpt lat="42.38769532087599" lon="0.7477717357469049">
        <time>2021-03-18T10:18:00Z</time>
      </trkpt>
      <trkpt lat="42.38901352305426" lon="0.7463588969690949">
        <time>2021-03-18T10:18:00Z</time>
      </trkpt>
      <trkpt lat="42.38891471044871" lon="0.7478004050670628">
        <time>2021-03-18T10:18:00Z</time>
      </trkpt>
      <trkpt lat="42.38900822327292" lon="0.7488419830075199">
        <time>2021-03-18T10:18:00Z</time>
      </trkpt>
      <trkpt lat="42.38995506811454" lon="0.7499604362298173">
        <time>2021-03-18T10:18:00Z</time>
      </trkpt>
      <trkpt lat="42.39016549579813" lon="0.7494872262592489">
        <time>2021-03-18T10:18:00Z</time>
      </trkpt>
      <trkpt lat="42.38954106082823" lon="0.7481894529229938">
        <time>2021-03-18T10:18:00Z</time>
      </trkpt>
      <trkpt lat="42.38982304443823" lon="0.747963240804097">
        <time>2021-03-18T10:18:00Z</time>
      </trkpt>
      <trkpt lat="42.38965747821425" lon="0.7478421301051075">
        <time>2021-03-18T10:18:00Z</time>
      </trkpt>
      <trkpt lat="42.3903299638302" lon="0.7477298213094041">
        <time>2021-03-18T10:18:00Z</time>
      </trkpt>
      <trkpt lat="42.39116007145701" lon="0.7493334297992416">
        <time>2021-03-18T10:18:00Z</time>
      </trkpt>
      <trkpt lat="42.39280823231761" lon="0.7498294790145055">
        <time>2021-03-18T10:18:00Z</time>
      </trkpt>
      <trkpt lat="42.39345256136573" lon="0.7491854328597181">
        <time>2021-03-18T10:18:00Z</time>
      </trkpt>
      <trkpt lat="42.39385115888103" lon="0.7496097049134876">
        <time>2021-03-18T10:18:00Z</time>
      </trkpt>
      <trkpt lat="42.39492011163247" lon="0.7492927483153999">
        <time>2021-03-18T10:18:00Z</time>
      </trkpt>
      <trkpt lat="42.39488277720489" lon="0.7488120254707487">
        <time>2021-03-18T10:18:00Z</time>
      </trkpt>
      <trkpt lat="42.39575043482874" lon="0.7487800562005376">
        <time>2021-03-18T10:18:00Z</time>
      </trkpt>
      <trkpt lat="42.39591828959365" lon="0.7477883207229175">
        <time>2021-03-18T10:18:00Z</time>
      </trkpt>
      <trkpt lat="42.39662156238606" lon="0.747756189791422">
        <time>2021-03-18T10:18:00Z</time>
      </trkpt>
      <trkpt lat="42.3969698696256" lon="0.7470279187803452">
        <time>2021-03-18T10:18:00Z</time>
      </trkpt>
      <trkpt lat="42.39763171562701" lon="0.7468463802988978">
        <time>2021-03-18T10:18:00Z</time>
      </trkpt>
      <trkpt lat="42.39891483728958" lon="0.7453807333310469">
        <time>2021-03-18T10:18:00Z</time>
      </trkpt>
      <trkpt lat="42.3991783522028" lon="0.7455433220038921">
        <time>2021-03-18T10:18:00Z</time>
      </trkpt>
      <trkpt lat="42.39936400454027" lon="0.7447948608859289">
        <time>2021-03-18T10:18:00Z</time>
      </trkpt>
      <trkpt lat="42.39900199229951" lon="0.7441367933126153">
        <time>2021-03-18T10:18:00Z</time>
      </trkpt>
      <trkpt lat="42.39992434225986" lon="0.7432740330608545">
        <time>2021-03-18T10:18:00Z</time>
      </trkpt>
      <trkpt lat="42.39985955973579" lon="0.7436167810243455">
        <time>2021-03-18T10:18:00Z</time>
      </trkpt>
      <trkpt lat="42.40073693695621" lon="0.743188926809748">
        <time>2021-03-18T10:18:00Z</time>
      </trkpt>
      <trkpt lat="42.40138035541583" lon="0.7426549652304559">
        <time>2021-03-18T10:18:00Z</time>
      </trkpt>
      <trkpt lat="42.40401235569546" lon="0.7422896161405546">
        <time>2021-03-18T10:18:00Z</time>
      </trkpt>
      <trkpt lat="42.40494675022589" lon="0.742605088085202">
        <time>2021-03-18T10:18:00Z</time>
      </trkpt>
      <trkpt lat="42.4060949481805" lon="0.7422446571007035">
        <time>2021-03-18T10:18:00Z</time>
      </trkpt>
      <trkpt lat="42.40700562052233" lon="0.7411398081418619">
        <time>2021-03-18T10:18:00Z</time>
      </trkpt>
      <trkpt lat="42.40647745905235" lon="0.7402168767826645">
        <time>2021-03-18T10:18:00Z</time>
      </trkpt>
      <trkpt lat="42.40648629119062" lon="0.7389837635557561">
        <time>2021-03-18T10:18:00Z</time>
      </trkpt>
      <trkpt lat="42.40693664980086" lon="0.7384124450108032">
        <time>2021-03-18T10:18:00Z</time>
      </trkpt>
      <trkpt lat="42.40687459881803" lon="0.7328215823614626">
        <time>2021-03-18T10:18:00Z</time>
      </trkpt>
      <trkpt lat="42.40740611161333" lon="0.7314263485943817">
        <time>2021-03-18T10:18:00Z</time>
      </trkpt>
      <trkpt lat="42.40769500668254" lon="0.7313895859835062">
        <time>2021-03-18T10:18:00Z</time>
      </trkpt>
      <trkpt lat="42.40789167048433" lon="0.7297961475827397">
        <time>2021-03-18T10:18:00Z</time>
      </trkpt>
      <trkpt lat="42.40820347006309" lon="0.7277873987138173">
        <time>2021-03-18T10:18:00Z</time>
      </trkpt>
      <trkpt lat="42.40922216002621" lon="0.726194676966887">
        <time>2021-03-18T10:18:00Z</time>
      </trkpt>
      <trkpt lat="42.40921350058355" lon="0.7246353903998215">
        <time>2021-03-18T10:18:00Z</time>
      </trkpt>
      <trkpt lat="42.40956122961601" lon="0.7239515055206547">
        <time>2021-03-18T10:18:00Z</time>
      </trkpt>
      <trkpt lat="42.40957250871752" lon="0.7227919417818462">
        <time>2021-03-18T10:18:00Z</time>
      </trkpt>
      <trkpt lat="42.41006495415889" lon="0.720933714774179">
        <time>2021-03-18T10:18:00Z</time>
      </trkpt>
      <trkpt lat="42.40947590363699" lon="0.7185936725212505">
        <time>2021-03-18T10:18:00Z</time>
      </trkpt>
      <trkpt lat="42.40991796842443" lon="0.7166877778833203">
        <time>2021-03-18T10:18:00Z</time>
      </trkpt>
      <trkpt lat="42.41034539885769" lon="0.7188054988670345">
        <time>2021-03-18T10:18:00Z</time>
      </trkpt>
      <trkpt lat="42.41046172842476" lon="0.7180776923368914">
        <time>2021-03-18T10:18:00Z</time>
      </trkpt>
      <trkpt lat="42.41083066522995" lon="0.7183051587324707">
        <time>2021-03-18T10:18:00Z</time>
      </trkpt>
      <trkpt lat="42.41072183851455" lon="0.7165058634813781">
        <time>2021-03-18T10:18:00Z</time>
      </trkpt>
      <trkpt lat="42.41124667276056" lon="0.7174051338854404">
        <time>2021-03-18T10:18:00Z</time>
      </trkpt>
      <trkpt lat="42.41128531788856" lon="0.7148188081282214">
        <time>2021-03-18T10:18:00Z</time>
      </trkpt>
      <trkpt lat="42.41091378731321" lon="0.7131182118608148">
        <time>2021-03-18T10:18:00Z</time>
      </trkpt>
      <trkpt lat="42.41129796314333" lon="0.7140618942364774">
        <time>2021-03-18T10:18:00Z</time>
      </trkpt>
      <trkpt lat="42.41240107220671" lon="0.7090052099987409">
        <time>2021-03-18T10:18:00Z</time>
      </trkpt>
      <trkpt lat="42.41282042106575" lon="0.7085496652383472">
        <time>2021-03-18T10:18:00Z</time>
      </trkpt>
      <trkpt lat="42.41270435461224" lon="0.7076881382217204">
        <time>2021-03-18T10:18:00Z</time>
      </trkpt>
      <trkpt lat="42.41411066261777" lon="0.7062765302270257">
        <time>2021-03-18T10:18:00Z</time>
      </trkpt>
      <trkpt lat="42.41382981376772" lon="0.7057106524497692">
        <time>2021-03-18T10:18:00Z</time>
      </trkpt>
      <trkpt lat="42.41347794886102" lon="0.7042460361669356">
        <time>2021-03-18T10:18:00Z</time>
      </trkpt>
      <trkpt lat="42.41428374188621" lon="0.7040315219631554">
        <time>2021-03-18T10:18:00Z</time>
      </trkpt>
      <trkpt lat="42.41442101311846" lon="0.7048421752736145">
        <time>2021-03-18T10:18:00Z</time>
      </trkpt>
      <trkpt lat="42.41441983179342" lon="0.704871168752832">
        <time>2021-03-18T10:18:00Z</time>
      </trkpt>
      <trkpt lat="42.41522057105408" lon="0.7038517909911302">
        <time>2021-03-18T10:18:00Z</time>
      </trkpt>
      <trkpt lat="42.41598066754045" lon="0.7005342966719152">
        <time>2021-03-18T10:18:00Z</time>
      </trkpt>
      <trkpt lat="42.41628175937108" lon="0.6998447139382402">
        <time>2021-03-18T10:18:00Z</time>
      </trkpt>
      <trkpt lat="42.41684119637363" lon="0.6995182760026775">
        <time>2021-03-18T10:18:00Z</time>
      </trkpt>
      <trkpt lat="42.41646925679642" lon="0.698219479115938">
        <time>2021-03-18T10:18:00Z</time>
      </trkpt>
      <trkpt lat="42.41719732464006" lon="0.6943994402035636">
        <time>2021-03-18T10:18:00Z</time>
      </trkpt>
      <trkpt lat="42.41663826673376" lon="0.691129964010484">
        <time>2021-03-18T10:18:00Z</time>
      </trkpt>
      <trkpt lat="42.41771091372217" lon="0.6869583610105479">
        <time>2021-03-18T10:18:00Z</time>
      </trkpt>
      <trkpt lat="42.41886268252656" lon="0.6852031019283666">
        <time>2021-03-18T10:18:00Z</time>
      </trkpt>
      <trkpt lat="42.41794191853272" lon="0.6810513488009762">
        <time>2021-03-18T10:18:00Z</time>
      </trkpt>
      <trkpt lat="42.41821083111043" lon="0.6802008843821072">
        <time>2021-03-18T10:18:00Z</time>
      </trkpt>
      <trkpt lat="42.41809044448375" lon="0.67881597245395">
        <time>2021-03-18T10:18:00Z</time>
      </trkpt>
      <trkpt lat="42.41869312846273" lon="0.6788418890685644">
        <time>2021-03-18T10:18:00Z</time>
      </trkpt>
      <trkpt lat="42.4217800208059" lon="0.6804277569935246">
        <time>2021-03-18T10:18:00Z</time>
      </trkpt>
      <trkpt lat="42.42136714459025" lon="0.6786938004549725">
        <time>2021-03-18T10:18:00Z</time>
      </trkpt>
      <trkpt lat="42.41923063646642" lon="0.6753728811193671">
        <time>2021-03-18T10:18:00Z</time>
      </trkpt>
      <trkpt lat="42.42005162166536" lon="0.6730404858557204">
        <time>2021-03-18T10:18:00Z</time>
      </trkpt>
      <trkpt lat="42.41971460251029" lon="0.6712147993181916">
        <time>2021-03-18T10:18:00Z</time>
      </trkpt>
      <trkpt lat="42.42110606205872" lon="0.6710668500133643">
        <time>2021-03-18T10:18:00Z</time>
      </trkpt>
      <trkpt lat="42.42249874393246" lon="0.6695056750649075">
        <time>2021-03-18T10:18:00Z</time>
      </trkpt>
      <trkpt lat="42.42213720802144" lon="0.6686532432608039">
        <time>2021-03-18T10:18:00Z</time>
      </trkpt>
      <trkpt lat="42.42075829422297" lon="0.6683141375538093">
        <time>2021-03-18T10:18:00Z</time>
      </trkpt>
      <trkpt lat="42.41941099985507" lon="0.6662360439177584">
        <time>2021-03-18T10:18:00Z</time>
      </trkpt>
      <trkpt lat="42.42128715157899" lon="0.6666604665152653">
        <time>2021-03-18T10:18:00Z</time>
      </trkpt>
      <trkpt lat="42.42359203263492" lon="0.666372570778575">
        <time>2021-03-18T10:18:00Z</time>
      </trkpt>
      <trkpt lat="42.42401992469703" lon="0.6653664210070165">
        <time>2021-03-18T10:18:00Z</time>
      </trkpt>
      <trkpt lat="42.42379555780926" lon="0.664574335178989">
        <time>2021-03-18T10:18:00Z</time>
      </trkpt>
      <trkpt lat="42.42493297471441" lon="0.6609210004160593">
        <time>2021-03-18T10:18:00Z</time>
      </trkpt>
      <trkpt lat="42.42526667499604" lon="0.6616110863092484">
        <time>2021-03-18T10:18:00Z</time>
      </trkpt>
      <trkpt lat="42.42494255574858" lon="0.6630762338249596">
        <time>2021-03-18T10:18:00Z</time>
      </trkpt>
      <trkpt lat="42.42512992198127" lon="0.6637729343029886">
        <time>2021-03-18T10:18:00Z</time>
      </trkpt>
      <trkpt lat="42.42604810725621" lon="0.6644970269030281">
        <time>2021-03-18T10:18:00Z</time>
      </trkpt>
      <trkpt lat="42.42662600542273" lon="0.6638704767382775">
        <time>2021-03-18T10:18:00Z</time>
      </trkpt>
      <trkpt lat="42.42746338318756" lon="0.6654248693740028">
        <time>2021-03-18T10:18:00Z</time>
      </trkpt>
      <trkpt lat="42.42803398821336" lon="0.6651425275355938">
        <time>2021-03-18T10:18:00Z</time>
      </trkpt>
      <trkpt lat="42.428051781289" lon="0.6631876188290597">
        <time>2021-03-18T10:18:00Z</time>
      </trkpt>
      <trkpt lat="42.427721891445" lon="0.6620562022550303">
        <time>2021-03-18T10:18:00Z</time>
      </trkpt>
      <trkpt lat="42.42765043890105" lon="0.6578712916662832">
        <time>2021-03-18T10:18:00Z</time>
      </trkpt>
      <trkpt lat="42.42603358618035" lon="0.657475657940243">
        <time>2021-03-18T10:18:00Z</time>
      </trkpt>
      <trkpt lat="42.42516212292042" lon="0.6564514236007613">
        <time>2021-03-18T10:18:00Z</time>
      </trkpt>
      <trkpt lat="42.42392531154759" lon="0.6538459688175591">
        <time>2021-03-18T10:18:00Z</time>
      </trkpt>
      <trkpt lat="42.42335328958921" lon="0.6499651813348306">
        <time>2021-03-18T10:18:00Z</time>
      </trkpt>
      <trkpt lat="42.42338781954135" lon="0.6485610149861754">
        <time>2021-03-18T10:18:00Z</time>
      </trkpt>
      <trkpt lat="42.42524142816524" lon="0.6442564420808528">
        <time>2021-03-18T10:18:00Z</time>
      </trkpt>
      <trkpt lat="42.42585803073812" lon="0.6449433480817923">
        <time>2021-03-18T10:18:00Z</time>
      </trkpt>
      <trkpt lat="42.42641632848795" lon="0.6450342707656542">
        <time>2021-03-18T10:18:00Z</time>
      </trkpt>
      <trkpt lat="42.42672909049228" lon="0.6465737574195107">
        <time>2021-03-18T10:18:00Z</time>
      </trkpt>
      <trkpt lat="42.42833717150754" lon="0.6472424009909816">
        <time>2021-03-18T10:18:00Z</time>
      </trkpt>
      <trkpt lat="42.42980700127792" lon="0.6467822700882619">
        <time>2021-03-18T10:18:00Z</time>
      </trkpt>
      <trkpt lat="42.43060250741927" lon="0.6469399258561426">
        <time>2021-03-18T10:18:00Z</time>
      </trkpt>
      <trkpt lat="42.43119007750081" lon="0.6462405614362465">
        <time>2021-03-18T10:18:00Z</time>
      </trkpt>
      <trkpt lat="42.43024364489374" lon="0.6467357156148057">
        <time>2021-03-18T10:18:00Z</time>
      </trkpt>
      <trkpt lat="42.42847978075332" lon="0.6461685645172599">
        <time>2021-03-18T10:18:00Z</time>
      </trkpt>
      <trkpt lat="42.4277073454453" lon="0.6455259960070792">
        <time>2021-03-18T10:18:00Z</time>
      </trkpt>
      <trkpt lat="42.42757860552536" lon="0.6397867813546165">
        <time>2021-03-18T10:18:00Z</time>
      </trkpt>
      <trkpt lat="42.42753348518251" lon="0.6364012308347067">
        <time>2021-03-18T10:18:00Z</time>
      </trkpt>
      <trkpt lat="42.42799488221451" lon="0.6326940836932238">
        <time>2021-03-18T10:18:00Z</time>
      </trkpt>
      <trkpt lat="42.42881801373817" lon="0.6286381674981234">
        <time>2021-03-18T10:18:00Z</time>
      </trkpt>
      <trkpt lat="42.42828320196693" lon="0.6242722321067085">
        <time>2021-03-18T10:18:00Z</time>
      </trkpt>
      <trkpt lat="42.42827634223886" lon="0.6224343833940926">
        <time>2021-03-18T10:18:00Z</time>
      </trkpt>
      <trkpt lat="42.42826787789045" lon="0.6213971431431831">
        <time>2021-03-18T10:18:00Z</time>
      </trkpt>
      <trkpt lat="42.42879403721961" lon="0.6204855498389605">
        <time>2021-03-18T10:18:00Z</time>
      </trkpt>
      <trkpt lat="42.42922709120875" lon="0.6177592919703234">
        <time>2021-03-18T10:18:00Z</time>
      </trkpt>
      <trkpt lat="42.43043993828257" lon="0.6165943822613484">
        <time>2021-03-18T10:18:00Z</time>
      </trkpt>
      <trkpt lat="42.43002410183649" lon="0.6162412802175643">
        <time>2021-03-18T10:18:00Z</time>
      </trkpt>
      <trkpt lat="42.43075632232439" lon="0.6154550312508711">
        <time>2021-03-18T10:18:00Z</time>
      </trkpt>
      <trkpt lat="42.42905915253716" lon="0.6160137636604102">
        <time>2021-03-18T10:18:00Z</time>
      </trkpt>
      <trkpt lat="42.42953005706053" lon="0.61494102488586">
        <time>2021-03-18T10:18:00Z</time>
      </trkpt>
      <trkpt lat="42.42844207407298" lon="0.6150324603380297">
        <time>2021-03-18T10:18:00Z</time>
      </trkpt>
      <trkpt lat="42.42961621706824" lon="0.6135822932025348">
        <time>2021-03-18T10:18:00Z</time>
      </trkpt>
      <trkpt lat="42.42989366571815" lon="0.6106763556129557">
        <time>2021-03-18T10:18:00Z</time>
      </trkpt>
      <trkpt lat="42.4331002333234" lon="0.6039279486541704">
        <time>2021-03-18T10:18:00Z</time>
      </trkpt>
      <trkpt lat="42.43318584943824" lon="0.5983304451789806">
        <time>2021-03-18T10:18:00Z</time>
      </trkpt>
      <trkpt lat="42.43286301922842" lon="0.5974926195468289">
        <time>2021-03-18T10:18:00Z</time>
      </trkpt>
      <trkpt lat="42.43353456527904" lon="0.5967825285644546">
        <time>2021-03-18T10:18:00Z</time>
      </trkpt>
      <trkpt lat="42.4337207124239" lon="0.5942195346145618">
        <time>2021-03-18T10:18:00Z</time>
      </trkpt>
      <trkpt lat="42.43356850525886" lon="0.5936791028669286">
        <time>2021-03-18T10:18:00Z</time>
      </trkpt>
      <trkpt lat="42.43421848135045" lon="0.5925033976823002">
        <time>2021-03-18T10:18:00Z</time>
      </trkpt>
      <trkpt lat="42.4348873125041" lon="0.5900261494576875">
        <time>2021-03-18T10:18:00Z</time>
      </trkpt>
      <trkpt lat="42.43466458768858" lon="0.5884381097005731">
        <time>2021-03-18T10:18:00Z</time>
      </trkpt>
      <trkpt lat="42.43536198365778" lon="0.5875729220017689">
        <time>2021-03-18T10:18:00Z</time>
      </trkpt>
      <trkpt lat="42.43598004849438" lon="0.5843536532807692">
        <time>2021-03-18T10:18:00Z</time>
      </trkpt>
      <trkpt lat="42.43689797266204" lon="0.5834781605974193">
        <time>2021-03-18T10:18:00Z</time>
      </trkpt>
      <trkpt lat="42.43717470602375" lon="0.5832595676796126">
        <time>2021-03-18T10:18:00Z</time>
      </trkpt>
      <trkpt lat="42.43679727231389" lon="0.5823826643438279">
        <time>2021-03-18T10:18:00Z</time>
      </trkpt>
      <trkpt lat="42.43747344732808" lon="0.5824779835517147">
        <time>2021-03-18T10:18:00Z</time>
      </trkpt>
      <trkpt lat="42.43801209908072" lon="0.5806472676797769">
        <time>2021-03-18T10:18:00Z</time>
      </trkpt>
      <trkpt lat="42.43959314461394" lon="0.5785567959927218">
        <time>2021-03-18T10:18:00Z</time>
      </trkpt>
      <trkpt lat="42.44027646236483" lon="0.5763592597343581">
        <time>2021-03-18T10:18:00Z</time>
      </trkpt>
      <trkpt lat="42.43966537696542" lon="0.5766478789912322">
        <time>2021-03-18T10:18:00Z</time>
      </trkpt>
      <trkpt lat="42.43969749570069" lon="0.5755005324127871">
        <time>2021-03-18T10:18:00Z</time>
      </trkpt>
      <trkpt lat="42.43949793382021" lon="0.5750191127663995">
        <time>2021-03-18T10:18:00Z</time>
      </trkpt>
      <trkpt lat="42.43897790360597" lon="0.5755387720254634">
        <time>2021-03-18T10:18:00Z</time>
      </trkpt>
      <trkpt lat="42.43850012947869" lon="0.5755997576511529">
        <time>2021-03-18T10:18:00Z</time>
      </trkpt>
      <trkpt lat="42.4367325990472" lon="0.5763765973758805">
        <time>2021-03-18T10:18:00Z</time>
      </trkpt>
      <trkpt lat="42.43555994445633" lon="0.5761836420947275">
        <time>2021-03-18T10:18:00Z</time>
      </trkpt>
      <trkpt lat="42.43503304081715" lon="0.5762662288911691">
        <time>2021-03-18T10:18:00Z</time>
      </trkpt>
      <trkpt lat="42.4351242539169" lon="0.5779502792134217">
        <time>2021-03-18T10:18:00Z</time>
      </trkpt>
      <trkpt lat="42.4343969303068" lon="0.5765945640551462">
        <time>2021-03-18T10:18:00Z</time>
      </trkpt>
      <trkpt lat="42.43395401545206" lon="0.5766206148165143">
        <time>2021-03-18T10:18:00Z</time>
      </trkpt>
      <trkpt lat="42.43370046798138" lon="0.5753586632597618">
        <time>2021-03-18T10:18:00Z</time>
      </trkpt>
      <trkpt lat="42.43336109539305" lon="0.575340949070926">
        <time>2021-03-18T10:18:00Z</time>
      </trkpt>
      <trkpt lat="42.43393374176958" lon="0.5737983765565624">
        <time>2021-03-18T10:18:00Z</time>
      </trkpt>
      <trkpt lat="42.4347776394762" lon="0.5741392334879825">
        <time>2021-03-18T10:18:00Z</time>
      </trkpt>
      <trkpt lat="42.43501285765736" lon="0.5739766534882995">
        <time>2021-03-18T10:18:00Z</time>
      </trkpt>
      <trkpt lat="42.43462280773367" lon="0.5732256659688484">
        <time>2021-03-18T10:18:00Z</time>
      </trkpt>
      <trkpt lat="42.43339707057442" lon="0.5733797732762236">
        <time>2021-03-18T10:18:00Z</time>
      </trkpt>
      <trkpt lat="42.43299033475534" lon="0.5728356368898146">
        <time>2021-03-18T10:18:00Z</time>
      </trkpt>
      <trkpt lat="42.4324827081567" lon="0.5707212783860549">
        <time>2021-03-18T10:18:00Z</time>
      </trkpt>
      <trkpt lat="42.4315601609952" lon="0.5680112580798524">
        <time>2021-03-18T10:18:00Z</time>
      </trkpt>
      <trkpt lat="42.43059090857402" lon="0.5671986163193088">
        <time>2021-03-18T10:18:00Z</time>
      </trkpt>
      <trkpt lat="42.43070445719108" lon="0.5666224780617068">
        <time>2021-03-18T10:18:00Z</time>
      </trkpt>
      <trkpt lat="42.43071538449349" lon="0.5643030386616021">
        <time>2021-03-18T10:18:00Z</time>
      </trkpt>
      <trkpt lat="42.43156281697986" lon="0.5648328506834965">
        <time>2021-03-18T10:18:00Z</time>
      </trkpt>
      <trkpt lat="42.43201782562649" lon="0.5638452473912103">
        <time>2021-03-18T10:18:00Z</time>
      </trkpt>
      <trkpt lat="42.43199113172859" lon="0.5623929963004271">
        <time>2021-03-18T10:18:00Z</time>
      </trkpt>
      <trkpt lat="42.43269314829625" lon="0.5600455997161347">
        <time>2021-03-18T10:18:00Z</time>
      </trkpt>
      <trkpt lat="42.43287075165496" lon="0.5600955207763403">
        <time>2021-03-18T10:18:00Z</time>
      </trkpt>
      <trkpt lat="42.43318771490895" lon="0.5595248487820803">
        <time>2021-03-18T10:18:00Z</time>
      </trkpt>
      <trkpt lat="42.43545909752541" lon="0.5600815188259611">
        <time>2021-03-18T10:18:00Z</time>
      </trkpt>
      <trkpt lat="42.43584333407841" lon="0.5597313802024062">
        <time>2021-03-18T10:18:00Z</time>
      </trkpt>
      <trkpt lat="42.43639004742852" lon="0.5603225004393653">
        <time>2021-03-18T10:18:00Z</time>
      </trkpt>
      <trkpt lat="42.43648504876089" lon="0.5593769257151648">
        <time>2021-03-18T10:18:00Z</time>
      </trkpt>
      <trkpt lat="42.43709383675285" lon="0.5582239775662523">
        <time>2021-03-18T10:18:00Z</time>
      </trkpt>
      <trkpt lat="42.43717709557448" lon="0.5572464292526957">
        <time>2021-03-18T10:18:00Z</time>
      </trkpt>
      <trkpt lat="42.43757905005323" lon="0.5563926498643079">
        <time>2021-03-18T10:18:00Z</time>
      </trkpt>
      <trkpt lat="42.43749124783668" lon="0.5541628626718409">
        <time>2021-03-18T10:18:00Z</time>
      </trkpt>
      <trkpt lat="42.43849711798313" lon="0.5528108670751442">
        <time>2021-03-18T10:18:00Z</time>
      </trkpt>
      <trkpt lat="42.44038948431074" lon="0.551159041836673">
        <time>2021-03-18T10:18:00Z</time>
      </trkpt>
      <trkpt lat="42.4404493072445" lon="0.5499572183761825">
        <time>2021-03-18T10:18:00Z</time>
      </trkpt>
      <trkpt lat="42.44161803318477" lon="0.5486600903123828">
        <time>2021-03-18T10:18:00Z</time>
      </trkpt>
      <trkpt lat="42.44129470475" lon="0.5474237838677043">
        <time>2021-03-18T10:18:00Z</time>
      </trkpt>
      <trkpt lat="42.44197536348718" lon="0.5458444716606525">
        <time>2021-03-18T10:18:00Z</time>
      </trkpt>
      <trkpt lat="42.44114736770406" lon="0.545146356905668">
        <time>2021-03-18T10:18:00Z</time>
      </trkpt>
      <trkpt lat="42.44076606839199" lon="0.5440006311714618">
        <time>2021-03-18T10:18:00Z</time>
      </trkpt>
      <trkpt lat="42.44173473807787" lon="0.5400754443060629">
        <time>2021-03-18T10:18:00Z</time>
      </trkpt>
      <trkpt lat="42.44543955225743" lon="0.53858946803649">
        <time>2021-03-18T10:18:00Z</time>
      </trkpt>
      <trkpt lat="42.44543559934397" lon="0.5390987763945576">
        <time>2021-03-18T10:18:00Z</time>
      </trkpt>
      <trkpt lat="42.44633755052809" lon="0.5393981056321739">
        <time>2021-03-18T10:18:00Z</time>
      </trkpt>
      <trkpt lat="42.44680102240295" lon="0.5389260828798492">
        <time>2021-03-18T10:18:00Z</time>
      </trkpt>
      <trkpt lat="42.4487472937648" lon="0.5381624887290393">
        <time>2021-03-18T10:18:00Z</time>
      </trkpt>
      <trkpt lat="42.44765262039116" lon="0.5355054118260183">
        <time>2021-03-18T10:18:00Z</time>
      </trkpt>
      <trkpt lat="42.4476393379656" lon="0.5348347836794631">
        <time>2021-03-18T10:18:00Z</time>
      </trkpt>
      <trkpt lat="42.44787927854791" lon="0.5347117619080533">
        <time>2021-03-18T10:18:00Z</time>
      </trkpt>
      <trkpt lat="42.44797219230753" lon="0.5351841567367077">
        <time>2021-03-18T10:18:00Z</time>
      </trkpt>
      <trkpt lat="42.44822701508148" lon="0.5358279684469314">
        <time>2021-03-18T10:18:00Z</time>
      </trkpt>
      <trkpt lat="42.44833850592355" lon="0.5353659358980511">
        <time>2021-03-18T10:18:00Z</time>
      </trkpt>
      <trkpt lat="42.44880260985057" lon="0.5352056008532302">
        <time>2021-03-18T10:18:00Z</time>
      </trkpt>
      <trkpt lat="42.44905118324125" lon="0.5348405069777185">
        <time>2021-03-18T10:18:00Z</time>
      </trkpt>
      <trkpt lat="42.44951836217326" lon="0.5344829732853063">
        <time>2021-03-18T10:18:00Z</time>
      </trkpt>
      <trkpt lat="42.44993207344243" lon="0.5341695008034142">
        <time>2021-03-18T10:18:00Z</time>
      </trkpt>
      <trkpt lat="42.45068924598195" lon="0.5342282321700642">
        <time>2021-03-18T10:18:00Z</time>
      </trkpt>
      <trkpt lat="42.45109765407197" lon="0.5340163293254729">
        <time>2021-03-18T10:18:00Z</time>
      </trkpt>
      <trkpt lat="42.45166605742453" lon="0.5332083634183338">
        <time>2021-03-18T10:18:00Z</time>
      </trkpt>
      <trkpt lat="42.45239726004264" lon="0.5331241242997131">
        <time>2021-03-18T10:18:00Z</time>
      </trkpt>
      <trkpt lat="42.45289605495135" lon="0.5330150379450238">
        <time>2021-03-18T10:18:00Z</time>
      </trkpt>
      <trkpt lat="42.45313938406369" lon="0.5321985773959748">
        <time>2021-03-18T10:18:00Z</time>
      </trkpt>
      <trkpt lat="42.45462140084849" lon="0.5313794059925048">
        <time>2021-03-18T10:18:00Z</time>
      </trkpt>
      <trkpt lat="42.45541909763796" lon="0.5306930451815983">
        <time>2021-03-18T10:18:00Z</time>
      </trkpt>
      <trkpt lat="42.45643142446325" lon="0.5288287475703712">
        <time>2021-03-18T10:18:00Z</time>
      </trkpt>
      <trkpt lat="42.45726251975019" lon="0.5255773261492691">
        <time>2021-03-18T10:18:00Z</time>
      </trkpt>
      <trkpt lat="42.45725305004912" lon="0.5248482449565506">
        <time>2021-03-18T10:18:00Z</time>
      </trkpt>
      <trkpt lat="42.45741692192391" lon="0.5241012967338166">
        <time>2021-03-18T10:18:00Z</time>
      </trkpt>
      <trkpt lat="42.45812786171619" lon="0.5208943956918577">
        <time>2021-03-18T10:18:00Z</time>
      </trkpt>
      <trkpt lat="42.45852327905914" lon="0.5201177222870679">
        <time>2021-03-18T10:18:00Z</time>
      </trkpt>
      <trkpt lat="42.45911149812385" lon="0.5185766465576802">
        <time>2021-03-18T10:18:00Z</time>
      </trkpt>
      <trkpt lat="42.45917010825678" lon="0.5179695104463544">
        <time>2021-03-18T10:18:00Z</time>
      </trkpt>
      <trkpt lat="42.46046882430571" lon="0.5172827458752027">
        <time>2021-03-18T10:18:00Z</time>
      </trkpt>
      <trkpt lat="42.46068448844648" lon="0.5166874740741711">
        <time>2021-03-18T10:18:00Z</time>
      </trkpt>
      <trkpt lat="42.46118932932596" lon="0.5164016530565974">
        <time>2021-03-18T10:18:00Z</time>
      </trkpt>
      <trkpt lat="42.46146596133023" lon="0.5153166986094537">
        <time>2021-03-18T10:18:00Z</time>
      </trkpt>
      <trkpt lat="42.4647373344195" lon="0.5108828034968482">
        <time>2021-03-18T10:18:00Z</time>
      </trkpt>
      <trkpt lat="42.46601055108105" lon="0.5086580260395679">
        <time>2021-03-18T10:18:00Z</time>
      </trkpt>
      <trkpt lat="42.46674839210645" lon="0.5049246726809287">
        <time>2021-03-18T10:18:00Z</time>
      </trkpt>
      <trkpt lat="42.46787578875004" lon="0.5004541953764274">
        <time>2021-03-18T10:18:00Z</time>
      </trkpt>
      <trkpt lat="42.46856639473609" lon="0.4990213696584744">
        <time>2021-03-18T10:18:00Z</time>
      </trkpt>
      <trkpt lat="42.46928097506419" lon="0.4989344335386714">
        <time>2021-03-18T10:18:00Z</time>
      </trkpt>
      <trkpt lat="42.47071423860677" lon="0.4974459973131995">
        <time>2021-03-18T10:18:00Z</time>
      </trkpt>
      <trkpt lat="42.47112176209594" lon="0.4973764344307652">
        <time>2021-03-18T10:18:00Z</time>
      </trkpt>
      <trkpt lat="42.47190840059641" lon="0.4978456582348168">
        <time>2021-03-18T10:18:00Z</time>
      </trkpt>
      <trkpt lat="42.47222758316837" lon="0.4983203145420556">
        <time>2021-03-18T10:18:00Z</time>
      </trkpt>
      <trkpt lat="42.47241048785533" lon="0.4980126480912595">
        <time>2021-03-18T10:18:00Z</time>
      </trkpt>
      <trkpt lat="42.47400022425153" lon="0.4958858002813305">
        <time>2021-03-18T10:18:00Z</time>
      </trkpt>
      <trkpt lat="42.47515119524176" lon="0.494490632738116">
        <time>2021-03-18T10:18:00Z</time>
      </trkpt>
      <trkpt lat="42.47589204413588" lon="0.4949712573382548">
        <time>2021-03-18T10:18:00Z</time>
      </trkpt>
      <trkpt lat="42.47729514763372" lon="0.4942802685829006">
        <time>2021-03-18T10:18:00Z</time>
      </trkpt>
      <trkpt lat="42.47809273318599" lon="0.4932367219539713">
        <time>2021-03-18T10:18:00Z</time>
      </trkpt>
      <trkpt lat="42.47854336879341" lon="0.4917318128857096">
        <time>2021-03-18T10:18:00Z</time>
      </trkpt>
      <trkpt lat="42.47812924075817" lon="0.4908149359153624">
        <time>2021-03-18T10:18:00Z</time>
      </trkpt>
      <trkpt lat="42.47822520690448" lon="0.4904409377831986">
        <time>2021-03-18T10:18:00Z</time>
      </trkpt>
      <trkpt lat="42.47951251045107" lon="0.4905205877794971">
        <time>2021-03-18T10:18:00Z</time>
      </trkpt>
      <trkpt lat="42.48006002091928" lon="0.4908294630378673">
        <time>2021-03-18T10:18:00Z</time>
      </trkpt>
      <trkpt lat="42.48013904593898" lon="0.4900736294912766">
        <time>2021-03-18T10:18:00Z</time>
      </trkpt>
      <trkpt lat="42.48110824276993" lon="0.4905859623370645">
        <time>2021-03-18T10:18:00Z</time>
      </trkpt>
      <trkpt lat="42.48195120782404" lon="0.4902204631395568">
        <time>2021-03-18T10:18:00Z</time>
      </trkpt>
      <trkpt lat="42.48240615454062" lon="0.4902410007779268">
        <time>2021-03-18T10:18:00Z</time>
      </trkpt>
      <trkpt lat="42.48283847565995" lon="0.4900540832519296">
        <time>2021-03-18T10:18:00Z</time>
      </trkpt>
      <trkpt lat="42.48347508821286" lon="0.4903517208188224">
        <time>2021-03-18T10:18:00Z</time>
      </trkpt>
      <trkpt lat="42.4837236416659" lon="0.4903637051799858">
        <time>2021-03-18T10:18:00Z</time>
      </trkpt>
      <trkpt lat="42.48422076953042" lon="0.4900739244199182">
        <time>2021-03-18T10:18:00Z</time>
      </trkpt>
      <trkpt lat="42.48443597409148" lon="0.4891090789738595">
        <time>2021-03-18T10:18:00Z</time>
      </trkpt>
      <trkpt lat="42.4853821576875" lon="0.4883991785145025">
        <time>2021-03-18T10:18:00Z</time>
      </trkpt>
      <trkpt lat="42.48467001689469" lon="0.4882669594378952">
        <time>2021-03-18T10:18:00Z</time>
      </trkpt>
      <trkpt lat="42.48449314805383" lon="0.4879648572662765">
        <time>2021-03-18T10:18:00Z</time>
      </trkpt>
      <trkpt lat="42.48453802568167" lon="0.487730433982192">
        <time>2021-03-18T10:18:00Z</time>
      </trkpt>
      <trkpt lat="42.48582314135518" lon="0.48614218227506">
        <time>2021-03-18T10:18:00Z</time>
      </trkpt>
      <trkpt lat="42.48591621013217" lon="0.4849568922805658">
        <time>2021-03-18T10:18:00Z</time>
      </trkpt>
      <trkpt lat="42.48645498122499" lon="0.4850414390350233">
        <time>2021-03-18T10:18:00Z</time>
      </trkpt>
      <trkpt lat="42.48666143758927" lon="0.4847513390671554">
        <time>2021-03-18T10:18:00Z</time>
      </trkpt>
      <trkpt lat="42.48704437905779" lon="0.4847050296400823">
        <time>2021-03-18T10:18:00Z</time>
      </trkpt>
      <trkpt lat="42.48755212352694" lon="0.4843051889144534">
        <time>2021-03-18T10:18:00Z</time>
      </trkpt>
      <trkpt lat="42.48737459426371" lon="0.4839703844247612">
        <time>2021-03-18T10:18:00Z</time>
      </trkpt>
      <trkpt lat="42.48759437997613" lon="0.4836787841621448">
        <time>2021-03-18T10:18:00Z</time>
      </trkpt>
      <trkpt lat="42.48844100838139" lon="0.4834467882164906">
        <time>2021-03-18T10:18:00Z</time>
      </trkpt>
      <trkpt lat="42.48913205085707" lon="0.4834633803322519">
        <time>2021-03-18T10:18:00Z</time>
      </trkpt>
      <trkpt lat="42.49065521112182" lon="0.4814090682633965">
        <time>2021-03-18T10:18:00Z</time>
      </trkpt>
      <trkpt lat="42.49156159529149" lon="0.480759893970415">
        <time>2021-03-18T10:18:00Z</time>
      </trkpt>
      <trkpt lat="42.4930597375174" lon="0.4803319568179609">
        <time>2021-03-18T10:18:00Z</time>
      </trkpt>
      <trkpt lat="42.49386201122735" lon="0.4784222268328708">
        <time>2021-03-18T10:18:00Z</time>
      </trkpt>
      <trkpt lat="42.49416529080537" lon="0.4782879950419083">
        <time>2021-03-18T10:18:00Z</time>
      </trkpt>
      <trkpt lat="42.49447619286998" lon="0.4782381568880445">
        <time>2021-03-18T10:18:00Z</time>
      </trkpt>
      <trkpt lat="42.49480783152556" lon="0.4778862160388209">
        <time>2021-03-18T10:18:00Z</time>
      </trkpt>
      <trkpt lat="42.49501164344047" lon="0.4779174108398832">
        <time>2021-03-18T10:18:00Z</time>
      </trkpt>
      <trkpt lat="42.49590985997409" lon="0.4766601816279459">
        <time>2021-03-18T10:18:00Z</time>
      </trkpt>
      <trkpt lat="42.49678496924347" lon="0.4764267362215602">
        <time>2021-03-18T10:18:00Z</time>
      </trkpt>
      <trkpt lat="42.49744457123857" lon="0.4765285570349609">
        <time>2021-03-18T10:18:00Z</time>
      </trkpt>
      <trkpt lat="42.49847445201167" lon="0.4752195674317306">
        <time>2021-03-18T10:18:00Z</time>
      </trkpt>
      <trkpt lat="42.49903302584204" lon="0.4747808025372935">
        <time>2021-03-18T10:18:00Z</time>
      </trkpt>
      <trkpt lat="42.50083489921922" lon="0.4760788362760082">
        <time>2021-03-18T10:18:00Z</time>
      </trkpt>
      <trkpt lat="42.50109078857979" lon="0.4769763134154736">
        <time>2021-03-18T10:18:00Z</time>
      </trkpt>
      <trkpt lat="42.50173461856478" lon="0.4777829958260238">
        <time>2021-03-18T10:18:00Z</time>
      </trkpt>
      <trkpt lat="42.50272056026875" lon="0.4783667238787581">
        <time>2021-03-18T10:18:00Z</time>
      </trkpt>
      <trkpt lat="42.50375664153811" lon="0.4793433603330266">
        <time>2021-03-18T10:18:00Z</time>
      </trkpt>
      <trkpt lat="42.50431067401028" lon="0.47866876626526">
        <time>2021-03-18T10:18:00Z</time>
      </trkpt>
      <trkpt lat="42.50314676023279" lon="0.4769763521060644">
        <time>2021-03-18T10:18:00Z</time>
      </trkpt>
      <trkpt lat="42.50204869360614" lon="0.4755729753383697">
        <time>2021-03-18T10:18:00Z</time>
      </trkpt>
      <trkpt lat="42.50135529352006" lon="0.4719436580611203">
        <time>2021-03-18T10:18:00Z</time>
      </trkpt>
      <trkpt lat="42.49901331596544" lon="0.4707578903911869">
        <time>2021-03-18T10:18:00Z</time>
      </trkpt>
      <trkpt lat="42.49747311883935" lon="0.4703281362445178">
        <time>2021-03-18T10:18:00Z</time>
      </trkpt>
      <trkpt lat="42.49735709598689" lon="0.4702880755115269">
        <time>2021-03-18T10:18:00Z</time>
      </trkpt>
      <trkpt lat="42.49498583274136" lon="0.4681512980488378">
        <time>2021-03-18T10:18:00Z</time>
      </trkpt>
      <trkpt lat="42.49331463762415" lon="0.4686432125988715">
        <time>2021-03-18T10:18:00Z</time>
      </trkpt>
      <trkpt lat="42.49211795882328" lon="0.4689285931391307">
        <time>2021-03-18T10:18:00Z</time>
      </trkpt>
      <trkpt lat="42.49095164773308" lon="0.4683589807725963">
        <time>2021-03-18T10:18:00Z</time>
      </trkpt>
      <trkpt lat="42.49025137030173" lon="0.4672670852788552">
        <time>2021-03-18T10:18:00Z</time>
      </trkpt>
      <trkpt lat="42.48997483248514" lon="0.4663112320820817">
        <time>2021-03-18T10:18:00Z</time>
      </trkpt>
      <trkpt lat="42.4902016872515" lon="0.4633994364722938">
        <time>2021-03-18T10:18:00Z</time>
      </trkpt>
      <trkpt lat="42.48944194192787" lon="0.4616930265724517">
        <time>2021-03-18T10:18:00Z</time>
      </trkpt>
      <trkpt lat="42.4872676666874" lon="0.4606899363451911">
        <time>2021-03-18T10:18:00Z</time>
      </trkpt>
      <trkpt lat="42.48578300605242" lon="0.4576758489915878">
        <time>2021-03-18T10:18:00Z</time>
      </trkpt>
      <trkpt lat="42.48373196338091" lon="0.4552639178878271">
        <time>2021-03-18T10:18:00Z</time>
      </trkpt>
      <trkpt lat="42.48204381261028" lon="0.450450288825297">
        <time>2021-03-18T10:18:00Z</time>
      </trkpt>
      <trkpt lat="42.48198357676319" lon="0.445926464641182">
        <time>2021-03-18T10:18:00Z</time>
      </trkpt>
      <trkpt lat="42.48084090848563" lon="0.4437158698879729">
        <time>2021-03-18T10:18:00Z</time>
      </trkpt>
      <trkpt lat="42.480437566802" lon="0.4431380911572336">
        <time>2021-03-18T10:18:00Z</time>
      </trkpt>
      <trkpt lat="42.47937675971013" lon="0.4440380237034369">
        <time>2021-03-18T10:18:00Z</time>
      </trkpt>
      <trkpt lat="42.4769458721635" lon="0.4428281148905389">
        <time>2021-03-18T10:18:00Z</time>
      </trkpt>
      <trkpt lat="42.47617618184763" lon="0.4405065898073479">
        <time>2021-03-18T10:18:00Z</time>
      </trkpt>
      <trkpt lat="42.47808103362745" lon="0.437082086505618">
        <time>2021-03-18T10:18:00Z</time>
      </trkpt>
      <trkpt lat="42.47721682197645" lon="0.4329793044190899">
        <time>2021-03-18T10:18:00Z</time>
      </trkpt>
      <trkpt lat="42.47691926114889" lon="0.4312893559121567">
        <time>2021-03-18T10:18:00Z</time>
      </trkpt>
      <trkpt lat="42.47626225691914" lon="0.4292628052120651">
        <time>2021-03-18T10:18:00Z</time>
      </trkpt>
      <trkpt lat="42.47443426257363" lon="0.4273203869332631">
        <time>2021-03-18T10:18:00Z</time>
      </trkpt>
      <trkpt lat="42.47340103904043" lon="0.4256026904885624">
        <time>2021-03-18T10:18:00Z</time>
      </trkpt>
      <trkpt lat="42.4741553650215" lon="0.4215150045732474">
        <time>2021-03-18T10:18:00Z</time>
      </trkpt>
      <trkpt lat="42.47320198926574" lon="0.4204461259444203">
        <time>2021-03-18T10:18:00Z</time>
      </trkpt>
      <trkpt lat="42.47289425625698" lon="0.418853612530341">
        <time>2021-03-18T10:18:00Z</time>
      </trkpt>
      <trkpt lat="42.47028560864095" lon="0.4185773186024044">
        <time>2021-03-18T10:18:00Z</time>
      </trkpt>
      <trkpt lat="42.46885397511194" lon="0.419123546832012">
        <time>2021-03-18T10:18:00Z</time>
      </trkpt>
      <trkpt lat="42.46659544390138" lon="0.4201473816966805">
        <time>2021-03-18T10:18:00Z</time>
      </trkpt>
      <trkpt lat="42.46413995289733" lon="0.4194513996305616">
        <time>2021-03-18T10:18:00Z</time>
      </trkpt>
      <trkpt lat="42.46348488223394" lon="0.4176070712182689">
        <time>2021-03-18T10:18:00Z</time>
      </trkpt>
      <trkpt lat="42.46292901044015" lon="0.4154755965117141">
        <time>2021-03-18T10:18:00Z</time>
      </trkpt>
      <trkpt lat="42.46271475370964" lon="0.4143155181380509">
        <time>2021-03-18T10:18:00Z</time>
      </trkpt>
      <trkpt lat="42.46333232327383" lon="0.4105672400137683">
        <time>2021-03-18T10:18:00Z</time>
      </trkpt>
      <trkpt lat="42.46299190252929" lon="0.4098649641542029">
        <time>2021-03-18T10:18:00Z</time>
      </trkpt>
      <trkpt lat="42.46317791401766" lon="0.4053906829648146">
        <time>2021-03-18T10:18:00Z</time>
      </trkpt>
      <trkpt lat="42.46058425620365" lon="0.40054795030803">
        <time>2021-03-18T10:18:00Z</time>
      </trkpt>
      <trkpt lat="42.45934486326407" lon="0.3991489507594026">
        <time>2021-03-18T10:18:00Z</time>
      </trkpt>
      <trkpt lat="42.45790381292208" lon="0.3961537037602558">
        <time>2021-03-18T10:18:00Z</time>
      </trkpt>
      <trkpt lat="42.45707951272244" lon="0.3931189946199343">
        <time>2021-03-18T10:18:00Z</time>
      </trkpt>
      <trkpt lat="42.45692979659749" lon="0.3916768896724365">
        <time>2021-03-18T10:18:00Z</time>
      </trkpt>
      <trkpt lat="42.45453490308356" lon="0.3897301108740492">
        <time>2021-03-18T10:18:00Z</time>
      </trkpt>
      <trkpt lat="42.45393576129025" lon="0.3890464306886843">
        <time>2021-03-18T10:18:00Z</time>
      </trkpt>
      <trkpt lat="42.45291386785675" lon="0.3877297138352542">
        <time>2021-03-18T10:18:00Z</time>
      </trkpt>
      <trkpt lat="42.45220171044851" lon="0.3872893236626651">
        <time>2021-03-18T10:18:00Z</time>
      </trkpt>
      <trkpt lat="42.45159856949086" lon="0.388106929401717">
        <time>2021-03-18T10:18:00Z</time>
      </trkpt>
      <trkpt lat="42.45058470468671" lon="0.387819420577209">
        <time>2021-03-18T10:18:00Z</time>
      </trkpt>
      <trkpt lat="42.45002596833226" lon="0.3867511554315661">
        <time>2021-03-18T10:18:00Z</time>
      </trkpt>
      <trkpt lat="42.4501372065036" lon="0.3836005223834516">
        <time>2021-03-18T10:18:00Z</time>
      </trkpt>
      <trkpt lat="42.44659894148291" lon="0.3832562006341989">
        <time>2021-03-18T10:18:00Z</time>
      </trkpt>
      <trkpt lat="42.44525881535231" lon="0.3827503881921079">
        <time>2021-03-18T10:18:00Z</time>
      </trkpt>
      <trkpt lat="42.4446146043218" lon="0.3850016890978658">
        <time>2021-03-18T10:18:00Z</time>
      </trkpt>
      <trkpt lat="42.44229988053132" lon="0.3889996837179899">
        <time>2021-03-18T10:18:00Z</time>
      </trkpt>
      <trkpt lat="42.44160406684186" lon="0.389128666191052">
        <time>2021-03-18T10:18:00Z</time>
      </trkpt>
      <trkpt lat="42.44082908726244" lon="0.3884740658743602">
        <time>2021-03-18T10:18:00Z</time>
      </trkpt>
      <trkpt lat="42.44068022366453" lon="0.3871879123961608">
        <time>2021-03-18T10:18:00Z</time>
      </trkpt>
      <trkpt lat="42.43971649205301" lon="0.3868258302179806">
        <time>2021-03-18T10:18:00Z</time>
      </trkpt>
      <trkpt lat="42.43837869764793" lon="0.387041613672825">
        <time>2021-03-18T10:18:00Z</time>
      </trkpt>
      <trkpt lat="42.43624110698774" lon="0.386180760996202">
        <time>2021-03-18T10:18:00Z</time>
      </trkpt>
      <trkpt lat="42.4335086586995" lon="0.387676300696882">
        <time>2021-03-18T10:18:00Z</time>
      </trkpt>
      <trkpt lat="42.43189619132772" lon="0.3850577597785643">
        <time>2021-03-18T10:18:00Z</time>
      </trkpt>
      <trkpt lat="42.43146759355749" lon="0.3843447826715507">
        <time>2021-03-18T10:18:00Z</time>
      </trkpt>
      <trkpt lat="42.43097574264018" lon="0.3843477031669762">
        <time>2021-03-18T10:18:00Z</time>
      </trkpt>
      <trkpt lat="42.42988321207724" lon="0.3833228307080971">
        <time>2021-03-18T10:18:00Z</time>
      </trkpt>
      <trkpt lat="42.42886450898563" lon="0.3839406385562172">
        <time>2021-03-18T10:18:00Z</time>
      </trkpt>
      <trkpt lat="42.42840604918978" lon="0.3860252428232425">
        <time>2021-03-18T10:18:00Z</time>
      </trkpt>
      <trkpt lat="42.42691666031188" lon="0.3873061804434963">
        <time>2021-03-18T10:18:00Z</time>
      </trkpt>
      <trkpt lat="42.42628758569119" lon="0.387229413450394">
        <time>2021-03-18T10:18:00Z</time>
      </trkpt>
      <trkpt lat="42.42617892678529" lon="0.386961306781588">
        <time>2021-03-18T10:18:00Z</time>
      </trkpt>
      <trkpt lat="42.42613297788441" lon="0.3862461461506728">
        <time>2021-03-18T10:18:00Z</time>
      </trkpt>
      <trkpt lat="42.4269767391714" lon="0.3854665793041567">
        <time>2021-03-18T10:18:00Z</time>
      </trkpt>
      <trkpt lat="42.42583282681905" lon="0.3859116387100259">
        <time>2021-03-18T10:18:00Z</time>
      </trkpt>
      <trkpt lat="42.42437175857094" lon="0.3862976604715818">
        <time>2021-03-18T10:18:00Z</time>
      </trkpt>
      <trkpt lat="42.42416444148739" lon="0.3855575980222192">
        <time>2021-03-18T10:18:00Z</time>
      </trkpt>
      <trkpt lat="42.42334882140067" lon="0.3861787921888449">
        <time>2021-03-18T10:18:00Z</time>
      </trkpt>
      <trkpt lat="42.42323414060704" lon="0.3859020813128122">
        <time>2021-03-18T10:18:00Z</time>
      </trkpt>
      <trkpt lat="42.4241484619958" lon="0.3848536531456892">
        <time>2021-03-18T10:18:00Z</time>
      </trkpt>
      <trkpt lat="42.4251844823181" lon="0.384119699845713">
        <time>2021-03-18T10:18:00Z</time>
      </trkpt>
      <trkpt lat="42.42667064831191" lon="0.3837541862343152">
        <time>2021-03-18T10:18:00Z</time>
      </trkpt>
      <trkpt lat="42.42633726988026" lon="0.3826995878357065">
        <time>2021-03-18T10:18:00Z</time>
      </trkpt>
      <trkpt lat="42.4256321901883" lon="0.3811956420166851">
        <time>2021-03-18T10:18:00Z</time>
      </trkpt>
      <trkpt lat="42.4256272561279" lon="0.380598251218236">
        <time>2021-03-18T10:18:00Z</time>
      </trkpt>
      <trkpt lat="42.42551767514984" lon="0.3802589224563069">
        <time>2021-03-18T10:18:00Z</time>
      </trkpt>
      <trkpt lat="42.42480724573388" lon="0.3802662587415462">
        <time>2021-03-18T10:18:00Z</time>
      </trkpt>
      <trkpt lat="42.42463896832137" lon="0.3795439753015484">
        <time>2021-03-18T10:18:00Z</time>
      </trkpt>
      <trkpt lat="42.42502153568219" lon="0.3788871815662698">
        <time>2021-03-18T10:18:00Z</time>
      </trkpt>
      <trkpt lat="42.42496964831163" lon="0.3780291826794313">
        <time>2021-03-18T10:18:00Z</time>
      </trkpt>
      <trkpt lat="42.42521374704245" lon="0.3772478281334069">
        <time>2021-03-18T10:18:00Z</time>
      </trkpt>
      <trkpt lat="42.42512299001541" lon="0.376443293446056">
        <time>2021-03-18T10:18:00Z</time>
      </trkpt>
      <trkpt lat="42.42558001457118" lon="0.3761522226693748">
        <time>2021-03-18T10:18:00Z</time>
      </trkpt>
      <trkpt lat="42.42563218246738" lon="0.3756831084024226">
        <time>2021-03-18T10:18:00Z</time>
      </trkpt>
      <trkpt lat="42.42529633218539" lon="0.3754083542304088">
        <time>2021-03-18T10:18:00Z</time>
      </trkpt>
      <trkpt lat="42.42507431386284" lon="0.3752312070149722">
        <time>2021-03-18T10:18:00Z</time>
      </trkpt>
      <trkpt lat="42.4255452873216" lon="0.374694498675141">
        <time>2021-03-18T10:18:00Z</time>
      </trkpt>
      <trkpt lat="42.425886990179" lon="0.3748148897057857">
        <time>2021-03-18T10:18:00Z</time>
      </trkpt>
      <trkpt lat="42.42586879088634" lon="0.3749771832977511">
        <time>2021-03-18T10:18:00Z</time>
      </trkpt>
      <trkpt lat="42.42671191540435" lon="0.3739606320888211">
        <time>2021-03-18T10:18:00Z</time>
      </trkpt>
      <trkpt lat="42.42727742001985" lon="0.3726037810801119">
        <time>2021-03-18T10:18:00Z</time>
      </trkpt>
      <trkpt lat="42.42825072008613" lon="0.3723941505632467">
        <time>2021-03-18T10:18:00Z</time>
      </trkpt>
      <trkpt lat="42.42961268449111" lon="0.3704670215001382">
        <time>2021-03-18T10:18:00Z</time>
      </trkpt>
      <trkpt lat="42.43020383901626" lon="0.3703910888756701">
        <time>2021-03-18T10:18:00Z</time>
      </trkpt>
      <trkpt lat="42.43042272921437" lon="0.3699291618360112">
        <time>2021-03-18T10:18:00Z</time>
      </trkpt>
      <trkpt lat="42.43056557539788" lon="0.3686010168816156">
        <time>2021-03-18T10:18:00Z</time>
      </trkpt>
      <trkpt lat="42.43095064664114" lon="0.3685167088244601">
        <time>2021-03-18T10:18:00Z</time>
      </trkpt>
      <trkpt lat="42.43120222428085" lon="0.3676987385421726">
        <time>2021-03-18T10:18:00Z</time>
      </trkpt>
      <trkpt lat="42.43143706203843" lon="0.3676390648581385">
        <time>2021-03-18T10:18:00Z</time>
      </trkpt>
      <trkpt lat="42.4316347596557" lon="0.3677972588800604">
        <time>2021-03-18T10:18:00Z</time>
      </trkpt>
      <trkpt lat="42.43182457759748" lon="0.3677136984346374">
        <time>2021-03-18T10:18:00Z</time>
      </trkpt>
      <trkpt lat="42.43194179735029" lon="0.367218267455296">
        <time>2021-03-18T10:18:00Z</time>
      </trkpt>
      <trkpt lat="42.43213160639429" lon="0.3669527787914628">
        <time>2021-03-18T10:18:00Z</time>
      </trkpt>
      <trkpt lat="42.43232514385925" lon="0.3668851140477347">
        <time>2021-03-18T10:18:00Z</time>
      </trkpt>
      <trkpt lat="42.43270873778759" lon="0.3683321928950445">
        <time>2021-03-18T10:18:00Z</time>
      </trkpt>
      <trkpt lat="42.43312024143304" lon="0.3684747334311589">
        <time>2021-03-18T10:18:00Z</time>
      </trkpt>
      <trkpt lat="42.43348594378453" lon="0.3684419260920935">
        <time>2021-03-18T10:18:00Z</time>
      </trkpt>
      <trkpt lat="42.43401042580042" lon="0.3676407617185307">
        <time>2021-03-18T10:18:00Z</time>
      </trkpt>
      <trkpt lat="42.43432757826827" lon="0.3661303344668587">
        <time>2021-03-18T10:18:00Z</time>
      </trkpt>
      <trkpt lat="42.4340396005024" lon="0.3656473530747384">
        <time>2021-03-18T10:18:00Z</time>
      </trkpt>
      <trkpt lat="42.43423142537174" lon="0.3649350654074102">
        <time>2021-03-18T10:18:00Z</time>
      </trkpt>
      <trkpt lat="42.43440649761117" lon="0.3642265236383735">
        <time>2021-03-18T10:18:00Z</time>
      </trkpt>
      <trkpt lat="42.43494328254612" lon="0.3634955350983748">
        <time>2021-03-18T10:18:00Z</time>
      </trkpt>
      <trkpt lat="42.43497526049076" lon="0.3631204015178757">
        <time>2021-03-18T10:18:00Z</time>
      </trkpt>
      <trkpt lat="42.43452016686648" lon="0.3631878141293288">
        <time>2021-03-18T10:18:00Z</time>
      </trkpt>
      <trkpt lat="42.43449866759086" lon="0.3625046811690091">
        <time>2021-03-18T10:18:00Z</time>
      </trkpt>
      <trkpt lat="42.43440311544603" lon="0.3615692896591205">
        <time>2021-03-18T10:18:00Z</time>
      </trkpt>
      <trkpt lat="42.43485400596541" lon="0.361843991121138">
        <time>2021-03-18T10:18:00Z</time>
      </trkpt>
      <trkpt lat="42.4354306273708" lon="0.3622046853851746">
        <time>2021-03-18T10:18:00Z</time>
      </trkpt>
      <trkpt lat="42.43559267849112" lon="0.3619269868662545">
        <time>2021-03-18T10:18:00Z</time>
      </trkpt>
      <trkpt lat="42.43511420676217" lon="0.361489563679902">
        <time>2021-03-18T10:18:00Z</time>
      </trkpt>
      <trkpt lat="42.43515625904186" lon="0.3601448839930432">
        <time>2021-03-18T10:18:00Z</time>
      </trkpt>
      <trkpt lat="42.43586675363645" lon="0.3596698273828136">
        <time>2021-03-18T10:18:00Z</time>
      </trkpt>
      <trkpt lat="42.43658878002864" lon="0.3580040973183718">
        <time>2021-03-18T10:18:00Z</time>
      </trkpt>
      <trkpt lat="42.43628213683446" lon="0.3566265190657014">
        <time>2021-03-18T10:18:00Z</time>
      </trkpt>
      <trkpt lat="42.43715454896123" lon="0.3561728432630562">
        <time>2021-03-18T10:18:00Z</time>
      </trkpt>
      <trkpt lat="42.43724618547266" lon="0.3558234702445606">
        <time>2021-03-18T10:18:00Z</time>
      </trkpt>
      <trkpt lat="42.43726724107387" lon="0.3553041911367671">
        <time>2021-03-18T10:18:00Z</time>
      </trkpt>
      <trkpt lat="42.43699502979553" lon="0.3548913006115373">
        <time>2021-03-18T10:18:00Z</time>
      </trkpt>
      <trkpt lat="42.43751503728269" lon="0.3547351658649656">
        <time>2021-03-18T10:18:00Z</time>
      </trkpt>
      <trkpt lat="42.43793355113852" lon="0.3542805305043473">
        <time>2021-03-18T10:18:00Z</time>
      </trkpt>
      <trkpt lat="42.43832198893336" lon="0.3542118723437104">
        <time>2021-03-18T10:18:00Z</time>
      </trkpt>
      <trkpt lat="42.43854717177575" lon="0.3530081631823445">
        <time>2021-03-18T10:18:00Z</time>
      </trkpt>
      <trkpt lat="42.43958568826989" lon="0.3528237947025814">
        <time>2021-03-18T10:18:00Z</time>
      </trkpt>
      <trkpt lat="42.43958356704493" lon="0.3519245791430681">
        <time>2021-03-18T10:18:00Z</time>
      </trkpt>
      <trkpt lat="42.4395398219485" lon="0.3514458419284972">
        <time>2021-03-18T10:18:00Z</time>
      </trkpt>
      <trkpt lat="42.43969512941276" lon="0.3506169778729462">
        <time>2021-03-18T10:18:00Z</time>
      </trkpt>
      <trkpt lat="42.43969715530275" lon="0.3499842019142752">
        <time>2021-03-18T10:18:00Z</time>
      </trkpt>
      <trkpt lat="42.44204066949312" lon="0.3483634823886694">
        <time>2021-03-18T10:18:00Z</time>
      </trkpt>
      <trkpt lat="42.44386356425946" lon="0.346041573002569">
        <time>2021-03-18T10:18:00Z</time>
      </trkpt>
      <trkpt lat="42.4453124459986" lon="0.3453390288774938">
        <time>2021-03-18T10:18:00Z</time>
      </trkpt>
      <trkpt lat="42.44544648055273" lon="0.3441139411525684">
        <time>2021-03-18T10:18:00Z</time>
      </trkpt>
      <trkpt lat="42.44649060347565" lon="0.3425434215273193">
        <time>2021-03-18T10:18:00Z</time>
      </trkpt>
      <trkpt lat="42.44733232880075" lon="0.3425390612699242">
        <time>2021-03-18T10:18:00Z</time>
      </trkpt>
      <trkpt lat="42.44873274067181" lon="0.340506050594378">
        <time>2021-03-18T10:18:00Z</time>
      </trkpt>
      <trkpt lat="42.45008629115367" lon="0.3399140686166002">
        <time>2021-03-18T10:18:00Z</time>
      </trkpt>
      <trkpt lat="42.45051585271482" lon="0.3405870369180652">
        <time>2021-03-18T10:18:00Z</time>
      </trkpt>
      <trkpt lat="42.45201250697158" lon="0.3411979037504631">
        <time>2021-03-18T10:18:00Z</time>
      </trkpt>
      <trkpt lat="42.45258982634773" lon="0.3417228784975368">
        <time>2021-03-18T10:18:00Z</time>
      </trkpt>
      <trkpt lat="42.45308677640655" lon="0.3417188115077119">
        <time>2021-03-18T10:18:00Z</time>
      </trkpt>
      <trkpt lat="42.45345973106907" lon="0.3425163295589906">
        <time>2021-03-18T10:18:00Z</time>
      </trkpt>
      <trkpt lat="42.45410786244405" lon="0.3426864295127929">
        <time>2021-03-18T10:18:00Z</time>
      </trkpt>
      <trkpt lat="42.45417234176722" lon="0.343153700980412">
        <time>2021-03-18T10:18:00Z</time>
      </trkpt>
      <trkpt lat="42.454590196343" lon="0.3440411194549164">
        <time>2021-03-18T10:18:00Z</time>
      </trkpt>
      <trkpt lat="42.45587300465691" lon="0.3431017743141251">
        <time>2021-03-18T10:18:00Z</time>
      </trkpt>
      <trkpt lat="42.45689227881903" lon="0.3412727319507591">
        <time>2021-03-18T10:18:00Z</time>
      </trkpt>
      <trkpt lat="42.45742861073168" lon="0.3394546265461518">
        <time>2021-03-18T10:18:00Z</time>
      </trkpt>
      <trkpt lat="42.45786559097775" lon="0.339489451688082">
        <time>2021-03-18T10:18:00Z</time>
      </trkpt>
      <trkpt lat="42.45873649455098" lon="0.3379208395017996">
        <time>2021-03-18T10:18:00Z</time>
      </trkpt>
      <trkpt lat="42.4589557092601" lon="0.3380933121570773">
        <time>2021-03-18T10:18:00Z</time>
      </trkpt>
      <trkpt lat="42.45962753986949" lon="0.3377243439288269">
        <time>2021-03-18T10:18:00Z</time>
      </trkpt>
      <trkpt lat="42.46063621191772" lon="0.335135414835761">
        <time>2021-03-18T10:18:00Z</time>
      </trkpt>
      <trkpt lat="42.46264157875466" lon="0.3324442759736068">
        <time>2021-03-18T10:18:00Z</time>
      </trkpt>
      <trkpt lat="42.46376024556213" lon="0.3312702915995525">
        <time>2021-03-18T10:18:00Z</time>
      </trkpt>
      <trkpt lat="42.4641844688599" lon="0.3296922564157079">
        <time>2021-03-18T10:18:00Z</time>
      </trkpt>
      <trkpt lat="42.46493095177416" lon="0.328554451821006">
        <time>2021-03-18T10:18:00Z</time>
      </trkpt>
      <trkpt lat="42.46587719896105" lon="0.3280504155154729">
        <time>2021-03-18T10:18:00Z</time>
      </trkpt>
      <trkpt lat="42.4660753928494" lon="0.3274035213809934">
        <time>2021-03-18T10:18:00Z</time>
      </trkpt>
      <trkpt lat="42.46728416598128" lon="0.3257273866583366">
        <time>2021-03-18T10:18:00Z</time>
      </trkpt>
      <trkpt lat="42.46730819850484" lon="0.3247224629992696">
        <time>2021-03-18T10:18:00Z</time>
      </trkpt>
      <trkpt lat="42.46803479552816" lon="0.3239174817366819">
        <time>2021-03-18T10:18:00Z</time>
      </trkpt>
      <trkpt lat="42.46828634000875" lon="0.3227751405341106">
        <time>2021-03-18T10:18:00Z</time>
      </trkpt>
      <trkpt lat="42.4687542901235" lon="0.3225677620363565">
        <time>2021-03-18T10:18:00Z</time>
      </trkpt>
      <trkpt lat="42.46889568016077" lon="0.321718052647646">
        <time>2021-03-18T10:18:00Z</time>
      </trkpt>
      <trkpt lat="42.46917819986308" lon="0.3216287054670319">
        <time>2021-03-18T10:18:00Z</time>
      </trkpt>
      <trkpt lat="42.46985849912223" lon="0.3205138518836415">
        <time>2021-03-18T10:18:00Z</time>
      </trkpt>
      <trkpt lat="42.46993288259005" lon="0.3194553390253763">
        <time>2021-03-18T10:18:00Z</time>
      </trkpt>
      <trkpt lat="42.47027163925394" lon="0.3187852064259245">
        <time>2021-03-18T10:18:00Z</time>
      </trkpt>
      <trkpt lat="42.47082334068637" lon="0.3186127289276208">
        <time>2021-03-18T10:18:00Z</time>
      </trkpt>
      <trkpt lat="42.47093501853529" lon="0.3178685371692835">
        <time>2021-03-18T10:18:00Z</time>
      </trkpt>
      <trkpt lat="42.47185412359769" lon="0.3177081915744617">
        <time>2021-03-18T10:18:00Z</time>
      </trkpt>
      <trkpt lat="42.4718166366356" lon="0.3170157568603349">
        <time>2021-03-18T10:18:00Z</time>
      </trkpt>
      <trkpt lat="42.47240681841212" lon="0.3163160325470438">
        <time>2021-03-18T10:18:00Z</time>
      </trkpt>
      <trkpt lat="42.47337387714416" lon="0.3146323923557204">
        <time>2021-03-18T10:18:00Z</time>
      </trkpt>
      <trkpt lat="42.47364607343184" lon="0.3121997081035">
        <time>2021-03-18T10:18:00Z</time>
      </trkpt>
      <trkpt lat="42.47422919448466" lon="0.3110414815349261">
        <time>2021-03-18T10:18:00Z</time>
      </trkpt>
      <trkpt lat="42.47467813140924" lon="0.3093700956469148">
        <time>2021-03-18T10:18:00Z</time>
      </trkpt>
      <trkpt lat="42.47527048358287" lon="0.308233725994298">
        <time>2021-03-18T10:18:00Z</time>
      </trkpt>
      <trkpt lat="42.47579014025915" lon="0.3078487287218557">
        <time>2021-03-18T10:18:00Z</time>
      </trkpt>
      <trkpt lat="42.47577634151517" lon="0.3089578630052525">
        <time>2021-03-18T10:18:00Z</time>
      </trkpt>
      <trkpt lat="42.47660792051786" lon="0.3079178290867457">
        <time>2021-03-18T10:18:00Z</time>
      </trkpt>
      <trkpt lat="42.47696012001201" lon="0.3057147905246493">
        <time>2021-03-18T10:18:00Z</time>
      </trkpt>
      <trkpt lat="42.47818991942148" lon="0.3031257104670426">
        <time>2021-03-18T10:18:00Z</time>
      </trkpt>
      <trkpt lat="42.4781361550938" lon="0.3028744795397009">
        <time>2021-03-18T10:18:00Z</time>
      </trkpt>
      <trkpt lat="42.47688017644184" lon="0.3036008662057177">
        <time>2021-03-18T10:18:00Z</time>
      </trkpt>
      <trkpt lat="42.47750528164434" lon="0.3014754192930669">
        <time>2021-03-18T10:18:00Z</time>
      </trkpt>
      <trkpt lat="42.47774320759758" lon="0.2996070066878342">
        <time>2021-03-18T10:18:00Z</time>
      </trkpt>
      <trkpt lat="42.47833431389953" lon="0.299020098449605">
        <time>2021-03-18T10:18:00Z</time>
      </trkpt>
      <trkpt lat="42.478816573697" lon="0.2991945540930963">
        <time>2021-03-18T10:18:00Z</time>
      </trkpt>
      <trkpt lat="42.47896489477131" lon="0.2986651609091262">
        <time>2021-03-18T10:18:00Z</time>
      </trkpt>
      <trkpt lat="42.47865147111025" lon="0.2981721916495328">
        <time>2021-03-18T10:18:00Z</time>
      </trkpt>
      <trkpt lat="42.47873105424241" lon="0.2965302327290642">
        <time>2021-03-18T10:18:00Z</time>
      </trkpt>
      <trkpt lat="42.47837609161051" lon="0.2959837390723763">
        <time>2021-03-18T10:18:00Z</time>
      </trkpt>
      <trkpt lat="42.47884658877393" lon="0.2952778166850911">
        <time>2021-03-18T10:18:00Z</time>
      </trkpt>
      <trkpt lat="42.47850293497827" lon="0.292290109673139">
        <time>2021-03-18T10:18:00Z</time>
      </trkpt>
      <trkpt lat="42.47916601809757" lon="0.2910015779580322">
        <time>2021-03-18T10:18:00Z</time>
      </trkpt>
      <trkpt lat="42.4794305176932" lon="0.2884659441910187">
        <time>2021-03-18T10:18:00Z</time>
      </trkpt>
      <trkpt lat="42.47981048619077" lon="0.2876696973031745">
        <time>2021-03-18T10:18:00Z</time>
      </trkpt>
      <trkpt lat="42.47966622473482" lon="0.2873120580415689">
        <time>2021-03-18T10:18:00Z</time>
      </trkpt>
      <trkpt lat="42.48010759010945" lon="0.2860637957473">
        <time>2021-03-18T10:18:00Z</time>
      </trkpt>
      <trkpt lat="42.48024328303342" lon="0.284222750041554">
        <time>2021-03-18T10:18:00Z</time>
      </trkpt>
      <trkpt lat="42.48077831649008" lon="0.2820934772522876">
        <time>2021-03-18T10:18:00Z</time>
      </trkpt>
      <trkpt lat="42.48131803760581" lon="0.2803208447015626">
        <time>2021-03-18T10:18:00Z</time>
      </trkpt>
      <trkpt lat="42.48160097247018" lon="0.2786052754353552">
        <time>2021-03-18T10:18:00Z</time>
      </trkpt>
      <trkpt lat="42.48149041683799" lon="0.2763075405491566">
        <time>2021-03-18T10:18:00Z</time>
      </trkpt>
      <trkpt lat="42.48056408580498" lon="0.2756595629298952">
        <time>2021-03-18T10:18:00Z</time>
      </trkpt>
      <trkpt lat="42.48149473467014" lon="0.2747528935983223">
        <time>2021-03-18T10:18:00Z</time>
      </trkpt>
      <trkpt lat="42.48107904771725" lon="0.2730034091775702">
        <time>2021-03-18T10:18:00Z</time>
      </trkpt>
      <trkpt lat="42.4809712944059" lon="0.2717822157971916">
        <time>2021-03-18T10:18:00Z</time>
      </trkpt>
      <trkpt lat="42.48173242414778" lon="0.2688795605720729">
        <time>2021-03-18T10:18:00Z</time>
      </trkpt>
      <trkpt lat="42.48210457247029" lon="0.2665197424567367">
        <time>2021-03-18T10:18:00Z</time>
      </trkpt>
      <trkpt lat="42.48182724161148" lon="0.263040809764592">
        <time>2021-03-18T10:18:00Z</time>
      </trkpt>
      <trkpt lat="42.48071707458547" lon="0.2595720888538877">
        <time>2021-03-18T10:18:00Z</time>
      </trkpt>
      <trkpt lat="42.48016406161231" lon="0.2583269931958121">
        <time>2021-03-18T10:18:00Z</time>
      </trkpt>
      <trkpt lat="42.48024398298394" lon="0.2565046144031014">
        <time>2021-03-18T10:18:00Z</time>
      </trkpt>
      <trkpt lat="42.47985233866943" lon="0.2556829607479072">
        <time>2021-03-18T10:18:00Z</time>
      </trkpt>
      <trkpt lat="42.48002298001156" lon="0.2534602705591249">
        <time>2021-03-18T10:18:00Z</time>
      </trkpt>
      <trkpt lat="42.47903115043854" lon="0.250495032717637">
        <time>2021-03-18T10:18:00Z</time>
      </trkpt>
      <trkpt lat="42.47910275231266" lon="0.2492494986047689">
        <time>2021-03-18T10:18:00Z</time>
      </trkpt>
      <trkpt lat="42.47951265049711" lon="0.2474540484619281">
        <time>2021-03-18T10:18:00Z</time>
      </trkpt>
      <trkpt lat="42.47925715405215" lon="0.2461460109433888">
        <time>2021-03-18T10:18:00Z</time>
      </trkpt>
      <trkpt lat="42.4794542792671" lon="0.2432294473279306">
        <time>2021-03-18T10:18:00Z</time>
      </trkpt>
      <trkpt lat="42.47992974518021" lon="0.2425822843480452">
        <time>2021-03-18T10:18:00Z</time>
      </trkpt>
      <trkpt lat="42.47983989005152" lon="0.2408467814467952">
        <time>2021-03-18T10:18:00Z</time>
      </trkpt>
      <trkpt lat="42.48118398662363" lon="0.2340709113997064">
        <time>2021-03-18T10:18:00Z</time>
      </trkpt>
      <trkpt lat="42.4821587400282" lon="0.232188376551199">
        <time>2021-03-18T10:18:00Z</time>
      </trkpt>
      <trkpt lat="42.48174152461002" lon="0.2326790784719357">
        <time>2021-03-18T10:18:13Z</time>
      </trkpt>
      <trkpt lat="42.48207331661261" lon="0.2322191389008865">
        <time>2021-03-18T10:18:13Z</time>
      </trkpt>
      <trkpt lat="42.48210551403427" lon="0.2309641372151328">
        <time>2021-03-18T10:18:13Z</time>
      </trkpt>
      <trkpt lat="42.48147820111376" lon="0.2300978502253104">
        <time>2021-03-18T10:18:13Z</time>
      </trkpt>
      <trkpt lat="42.48191670043537" lon="0.229244243155422">
        <time>2021-03-18T10:18:13Z</time>
      </trkpt>
      <trkpt lat="42.48238158874659" lon="0.2293995472568411">
        <time>2021-03-18T10:18:13Z</time>
      </trkpt>
      <trkpt lat="42.48313196333902" lon="0.2288858418618589">
        <time>2021-03-18T10:18:13Z</time>
      </trkpt>
      <trkpt lat="42.4828440438136" lon="0.2276342639905171">
        <time>2021-03-18T10:18:13Z</time>
      </trkpt>
      <trkpt lat="42.48345707598747" lon="0.2267368542627879">
        <time>2021-03-18T10:18:13Z</time>
      </trkpt>
      <trkpt lat="42.48386949823322" lon="0.2261708942051088">
        <time>2021-03-18T10:18:13Z</time>
      </trkpt>
      <trkpt lat="42.48589397653245" lon="0.2260712279030774">
        <time>2021-03-18T10:18:13Z</time>
      </trkpt>
      <trkpt lat="42.48766176666675" lon="0.2239868764850139">
        <time>2021-03-18T10:18:13Z</time>
      </trkpt>
      <trkpt lat="42.48746961469542" lon="0.2232380076836438">
        <time>2021-03-18T10:18:13Z</time>
      </trkpt>
      <trkpt lat="42.48800265940011" lon="0.2219538242577457">
        <time>2021-03-18T10:18:13Z</time>
      </trkpt>
      <trkpt lat="42.48890982640929" lon="0.2188270253106039">
        <time>2021-03-18T10:18:13Z</time>
      </trkpt>
      <trkpt lat="42.49003480561412" lon="0.2165906198088763">
        <time>2021-03-18T10:18:13Z</time>
      </trkpt>
      <trkpt lat="42.49130742133934" lon="0.2154692506304623">
        <time>2021-03-18T10:18:13Z</time>
      </trkpt>
      <trkpt lat="42.49196463149036" lon="0.2160167029084326">
        <time>2021-03-18T10:18:13Z</time>
      </trkpt>
      <trkpt lat="42.4927916088965" lon="0.2142588701368497">
        <time>2021-03-18T10:18:13Z</time>
      </trkpt>
      <trkpt lat="42.49490383711768" lon="0.2120065864058507">
        <time>2021-03-18T10:18:13Z</time>
      </trkpt>
      <trkpt lat="42.49613832264024" lon="0.2099642362481169">
        <time>2021-03-18T10:18:13Z</time>
      </trkpt>
      <trkpt lat="42.49764735497595" lon="0.2088001402085138">
        <time>2021-03-18T10:18:13Z</time>
      </trkpt>
      <trkpt lat="42.4989274975072" lon="0.206983368901219">
        <time>2021-03-18T10:18:13Z</time>
      </trkpt>
      <trkpt lat="42.50040202634434" lon="0.2052995295468096">
        <time>2021-03-18T10:18:13Z</time>
      </trkpt>
      <trkpt lat="42.49930600522513" lon="0.2043226261860442">
        <time>2021-03-18T10:18:13Z</time>
      </trkpt>
      <trkpt lat="42.49855156986389" lon="0.2032348183429811">
        <time>2021-03-18T10:18:13Z</time>
      </trkpt>
      <trkpt lat="42.49864407918425" lon="0.2023513319097892">
        <time>2021-03-18T10:18:13Z</time>
      </trkpt>
      <trkpt lat="42.49897540187256" lon="0.2022003387951976">
        <time>2021-03-18T10:18:13Z</time>
      </trkpt>
      <trkpt lat="42.4989947176211" lon="0.2015528032148217">
        <time>2021-03-18T10:18:13Z</time>
      </trkpt>
      <trkpt lat="42.49923165319992" lon="0.201418245752969">
        <time>2021-03-18T10:18:13Z</time>
      </trkpt>
      <trkpt lat="42.49913946433468" lon="0.2005685131202117">
        <time>2021-03-18T10:18:13Z</time>
      </trkpt>
      <trkpt lat="42.49877513122907" lon="0.2003834636111956">
        <time>2021-03-18T10:18:13Z</time>
      </trkpt>
      <trkpt lat="42.49840668161016" lon="0.1996568105887819">
        <time>2021-03-18T10:18:13Z</time>
      </trkpt>
      <trkpt lat="42.49826315337656" lon="0.1966413254579247">
        <time>2021-03-18T10:18:13Z</time>
      </trkpt>
      <trkpt lat="42.49801379233389" lon="0.1942362950626886">
        <time>2021-03-18T10:18:13Z</time>
      </trkpt>
      <trkpt lat="42.49711174655557" lon="0.1905115257308387">
        <time>2021-03-18T10:18:13Z</time>
      </trkpt>
      <trkpt lat="42.4967047552847" lon="0.1903000428073254">
        <time>2021-03-18T10:18:13Z</time>
      </trkpt>
      <trkpt lat="42.49622465368375" lon="0.1894735904138045">
        <time>2021-03-18T10:18:13Z</time>
      </trkpt>
      <trkpt lat="42.49314634723778" lon="0.1851371792594247">
        <time>2021-03-18T10:18:13Z</time>
      </trkpt>
      <trkpt lat="42.49295327615023" lon="0.1834743887749823">
        <time>2021-03-18T10:18:13Z</time>
      </trkpt>
      <trkpt lat="42.49267848329966" lon="0.1820654990078707">
        <time>2021-03-18T10:18:13Z</time>
      </trkpt>
      <trkpt lat="42.49261769915613" lon="0.180657487650544">
        <time>2021-03-18T10:18:13Z</time>
      </trkpt>
      <trkpt lat="42.49252698046728" lon="0.179327798570581">
        <time>2021-03-18T10:18:13Z</time>
      </trkpt>
      <trkpt lat="42.49248841522928" lon="0.1788631785699479">
        <time>2021-03-18T10:18:13Z</time>
      </trkpt>
      <trkpt lat="42.49104815222936" lon="0.1789500529875476">
        <time>2021-03-18T10:18:13Z</time>
      </trkpt>
      <trkpt lat="42.48922272770285" lon="0.1780310730433854">
        <time>2021-03-18T10:18:13Z</time>
      </trkpt>
      <trkpt lat="42.4876793187677" lon="0.1787395674177339">
        <time>2021-03-18T10:18:13Z</time>
      </trkpt>
      <trkpt lat="42.48757320698019" lon="0.1791004304331834">
        <time>2021-03-18T10:18:13Z</time>
      </trkpt>
      <trkpt lat="42.4855861570499" lon="0.1795055664524159">
        <time>2021-03-18T10:18:13Z</time>
      </trkpt>
      <trkpt lat="42.48518997277844" lon="0.1796604899590992">
        <time>2021-03-18T10:18:13Z</time>
      </trkpt>
      <trkpt lat="42.48398393511907" lon="0.1808731843053613">
        <time>2021-03-18T10:18:13Z</time>
      </trkpt>
      <trkpt lat="42.48263141994299" lon="0.1810839112949592">
        <time>2021-03-18T10:18:13Z</time>
      </trkpt>
      <trkpt lat="42.48198221899306" lon="0.1838810061029905">
        <time>2021-03-18T10:18:13Z</time>
      </trkpt>
      <trkpt lat="42.48132959557307" lon="0.1842241205967676">
        <time>2021-03-18T10:18:13Z</time>
      </trkpt>
      <trkpt lat="42.48031252618522" lon="0.1859082112515376">
        <time>2021-03-18T10:18:13Z</time>
      </trkpt>
      <trkpt lat="42.47973185212727" lon="0.1876512441209566">
        <time>2021-03-18T10:18:13Z</time>
      </trkpt>
      <trkpt lat="42.47925076385385" lon="0.1876795258247155">
        <time>2021-03-18T10:18:13Z</time>
      </trkpt>
      <trkpt lat="42.47859240069437" lon="0.187437592681976">
        <time>2021-03-18T10:18:13Z</time>
      </trkpt>
      <trkpt lat="42.47805001367343" lon="0.1876888558216106">
        <time>2021-03-18T10:18:13Z</time>
      </trkpt>
      <trkpt lat="42.47674435588122" lon="0.1868267388840317">
        <time>2021-03-18T10:18:13Z</time>
      </trkpt>
      <trkpt lat="42.47547196870738" lon="0.1874194214149449">
        <time>2021-03-18T10:18:13Z</time>
      </trkpt>
      <trkpt lat="42.47530900826084" lon="0.1878228229985024">
        <time>2021-03-18T10:18:13Z</time>
      </trkpt>
      <trkpt lat="42.47551692942902" lon="0.1894375314707331">
        <time>2021-03-18T10:18:13Z</time>
      </trkpt>
      <trkpt lat="42.4739490638836" lon="0.19212581878431">
        <time>2021-03-18T10:18:13Z</time>
      </trkpt>
      <trkpt lat="42.47337559763582" lon="0.195225720469554">
        <time>2021-03-18T10:18:13Z</time>
      </trkpt>
      <trkpt lat="42.47158228707104" lon="0.1972040950028497">
        <time>2021-03-18T10:18:13Z</time>
      </trkpt>
      <trkpt lat="42.47093347701606" lon="0.1987227956614612">
        <time>2021-03-18T10:18:13Z</time>
      </trkpt>
      <trkpt lat="42.46899529545316" lon="0.1988494007595865">
        <time>2021-03-18T10:18:13Z</time>
      </trkpt>
      <trkpt lat="42.46795337162369" lon="0.1985036472113344">
        <time>2021-03-18T10:18:13Z</time>
      </trkpt>
      <trkpt lat="42.46770941862155" lon="0.1992410542724277">
        <time>2021-03-18T10:18:13Z</time>
      </trkpt>
      <trkpt lat="42.4678482872425" lon="0.1998650474277142">
        <time>2021-03-18T10:18:13Z</time>
      </trkpt>
      <trkpt lat="42.46674748468032" lon="0.2009042922577264">
        <time>2021-03-18T10:18:13Z</time>
      </trkpt>
      <trkpt lat="42.46714551652993" lon="0.2020141183101454">
        <time>2021-03-18T10:18:13Z</time>
      </trkpt>
      <trkpt lat="42.4666596661865" lon="0.2040736293882439">
        <time>2021-03-18T10:18:13Z</time>
      </trkpt>
      <trkpt lat="42.46661306804196" lon="0.2061293473958448">
        <time>2021-03-18T10:18:13Z</time>
      </trkpt>
      <trkpt lat="42.46506994389475" lon="0.207021710583728">
        <time>2021-03-18T10:18:13Z</time>
      </trkpt>
      <trkpt lat="42.46454090947679" lon="0.2069719017821647">
        <time>2021-03-18T10:18:13Z</time>
      </trkpt>
      <trkpt lat="42.46510456975253" lon="0.2052497648504859">
        <time>2021-03-18T10:18:13Z</time>
      </trkpt>
      <trkpt lat="42.46544904138994" lon="0.2048044590742326">
        <time>2021-03-18T10:18:13Z</time>
      </trkpt>
      <trkpt lat="42.46514520116237" lon="0.204045160747679">
        <time>2021-03-18T10:18:13Z</time>
      </trkpt>
      <trkpt lat="42.46540107161404" lon="0.2029459125149202">
        <time>2021-03-18T10:18:13Z</time>
      </trkpt>
      <trkpt lat="42.46476425639179" lon="0.2018685141003362">
        <time>2021-03-18T10:18:13Z</time>
      </trkpt>
      <trkpt lat="42.46476897987827" lon="0.2012752633572656">
        <time>2021-03-18T10:18:13Z</time>
      </trkpt>
      <trkpt lat="42.4646620746223" lon="0.2001751521036921">
        <time>2021-03-18T10:18:13Z</time>
      </trkpt>
      <trkpt lat="42.46438498947907" lon="0.2001003316212024">
        <time>2021-03-18T10:18:13Z</time>
      </trkpt>
      <trkpt lat="42.46426028909581" lon="0.1998996395609121">
        <time>2021-03-18T10:18:13Z</time>
      </trkpt>
      <trkpt lat="42.46432471961822" lon="0.1994872509756318">
        <time>2021-03-18T10:18:13Z</time>
      </trkpt>
      <trkpt lat="42.4642626330758" lon="0.1991369052711645">
        <time>2021-03-18T10:18:13Z</time>
      </trkpt>
      <trkpt lat="42.46418197240995" lon="0.1993985555597799">
        <time>2021-03-18T10:18:13Z</time>
      </trkpt>
      <trkpt lat="42.46406417205651" lon="0.1990176430225277">
        <time>2021-03-18T10:18:13Z</time>
      </trkpt>
      <trkpt lat="42.46405350526842" lon="0.1983849312041097">
        <time>2021-03-18T10:18:13Z</time>
      </trkpt>
      <trkpt lat="42.46438840760477" lon="0.1979618193690014">
        <time>2021-03-18T10:18:13Z</time>
      </trkpt>
      <trkpt lat="42.4643794011568" lon="0.1971939631885622">
        <time>2021-03-18T10:18:13Z</time>
      </trkpt>
      <trkpt lat="42.46464030070766" lon="0.1957333324336963">
        <time>2021-03-18T10:18:13Z</time>
      </trkpt>
      <trkpt lat="42.46447478041443" lon="0.1955846498775293">
        <time>2021-03-18T10:18:13Z</time>
      </trkpt>
      <trkpt lat="42.46435683472088" lon="0.195495563831769">
        <time>2021-03-18T10:18:13Z</time>
      </trkpt>
      <trkpt lat="42.4643842475911" lon="0.1952133838967307">
        <time>2021-03-18T10:18:13Z</time>
      </trkpt>
      <trkpt lat="42.46399788904684" lon="0.195370840894431">
        <time>2021-03-18T10:18:13Z</time>
      </trkpt>
      <trkpt lat="42.46401557510798" lon="0.194736988843105">
        <time>2021-03-18T10:18:13Z</time>
      </trkpt>
      <trkpt lat="42.4639061363871" lon="0.1933679536433197">
        <time>2021-03-18T10:18:13Z</time>
      </trkpt>
      <trkpt lat="42.46330731711085" lon="0.1929920111750239">
        <time>2021-03-18T10:18:13Z</time>
      </trkpt>
      <trkpt lat="42.4630820108437" lon="0.1920152109037954">
        <time>2021-03-18T10:18:13Z</time>
      </trkpt>
      <trkpt lat="42.46323041247165" lon="0.1913992642254536">
        <time>2021-03-18T10:18:13Z</time>
      </trkpt>
      <trkpt lat="42.46301969352634" lon="0.1909161175494067">
        <time>2021-03-18T10:18:13Z</time>
      </trkpt>
      <trkpt lat="42.46264906857352" lon="0.190788379207083">
        <time>2021-03-18T10:18:13Z</time>
      </trkpt>
      <trkpt lat="42.46263568971489" lon="0.1895791759348309">
        <time>2021-03-18T10:18:13Z</time>
      </trkpt>
      <trkpt lat="42.46292677199862" lon="0.1895706101349415">
        <time>2021-03-18T10:18:13Z</time>
      </trkpt>
      <trkpt lat="42.46309716204738" lon="0.1892022352208889">
        <time>2021-03-18T10:18:13Z</time>
      </trkpt>
      <trkpt lat="42.46197718683416" lon="0.1887243246624215">
        <time>2021-03-18T10:18:13Z</time>
      </trkpt>
      <trkpt lat="42.46097069906492" lon="0.1892790524615173">
        <time>2021-03-18T10:18:13Z</time>
      </trkpt>
      <trkpt lat="42.46009230468638" lon="0.1884315672066839">
        <time>2021-03-18T10:18:13Z</time>
      </trkpt>
      <trkpt lat="42.45964733550348" lon="0.1876858229567913">
        <time>2021-03-18T10:18:13Z</time>
      </trkpt>
      <trkpt lat="42.45913151049221" lon="0.1875287722754715">
        <time>2021-03-18T10:18:13Z</time>
      </trkpt>
      <trkpt lat="42.45863630003708" lon="0.1865105370914222">
        <time>2021-03-18T10:18:13Z</time>
      </trkpt>
      <trkpt lat="42.4581798255148" lon="0.1867322287314877">
        <time>2021-03-18T10:18:13Z</time>
      </trkpt>
      <trkpt lat="42.45764661511479" lon="0.1860921457969922">
        <time>2021-03-18T10:18:13Z</time>
      </trkpt>
      <trkpt lat="42.4568052192082" lon="0.1862513894609674">
        <time>2021-03-18T10:18:13Z</time>
      </trkpt>
      <trkpt lat="42.45557268887848" lon="0.1863461131041566">
        <time>2021-03-18T10:18:13Z</time>
      </trkpt>
      <trkpt lat="42.45488843223786" lon="0.186655234410249">
        <time>2021-03-18T10:18:13Z</time>
      </trkpt>
      <trkpt lat="42.45463148728113" lon="0.1861576267228138">
        <time>2021-03-18T10:18:13Z</time>
      </trkpt>
      <trkpt lat="42.45465010419078" lon="0.1857541345266589">
        <time>2021-03-18T10:18:13Z</time>
      </trkpt>
      <trkpt lat="42.45487591906928" lon="0.1820655351773182">
        <time>2021-03-18T10:18:13Z</time>
      </trkpt>
      <trkpt lat="42.45449916660645" lon="0.1817891211784084">
        <time>2021-03-18T10:18:13Z</time>
      </trkpt>
      <trkpt lat="42.45444805538511" lon="0.1805870433917978">
        <time>2021-03-18T10:18:13Z</time>
      </trkpt>
      <trkpt lat="42.4543759595274" lon="0.1794450540881365">
        <time>2021-03-18T10:18:13Z</time>
      </trkpt>
      <trkpt lat="42.45387054634156" lon="0.1790464407529369">
        <time>2021-03-18T10:18:13Z</time>
      </trkpt>
      <trkpt lat="42.45298630593631" lon="0.1784479189624277">
        <time>2021-03-18T10:18:13Z</time>
      </trkpt>
      <trkpt lat="42.45240486269653" lon="0.1779241712529855">
        <time>2021-03-18T10:18:13Z</time>
      </trkpt>
      <trkpt lat="42.45163226209427" lon="0.1780863222243556">
        <time>2021-03-18T10:18:13Z</time>
      </trkpt>
      <trkpt lat="42.45111062860379" lon="0.178011886674192">
        <time>2021-03-18T10:18:13Z</time>
      </trkpt>
      <trkpt lat="42.45042905347038" lon="0.1775203944570469">
        <time>2021-03-18T10:18:13Z</time>
      </trkpt>
      <trkpt lat="42.45010542218178" lon="0.1770803467258331">
        <time>2021-03-18T10:18:13Z</time>
      </trkpt>
      <trkpt lat="42.44921920274432" lon="0.1756594383818877">
        <time>2021-03-18T10:18:13Z</time>
      </trkpt>
      <trkpt lat="42.44889715467686" lon="0.1755015650469827">
        <time>2021-03-18T10:18:13Z</time>
      </trkpt>
      <trkpt lat="42.4486976623907" lon="0.1758170298684081">
        <time>2021-03-18T10:18:13Z</time>
      </trkpt>
      <trkpt lat="42.4485995593927" lon="0.1767700991025012">
        <time>2021-03-18T10:18:13Z</time>
      </trkpt>
      <trkpt lat="42.44806049026249" lon="0.1768343960884367">
        <time>2021-03-18T10:18:13Z</time>
      </trkpt>
      <trkpt lat="42.44690904292228" lon="0.1761147614601089">
        <time>2021-03-18T10:18:13Z</time>
      </trkpt>
      <trkpt lat="42.44623714020995" lon="0.1762197229135976">
        <time>2021-03-18T10:18:13Z</time>
      </trkpt>
      <trkpt lat="42.44555015078857" lon="0.1767141038740672">
        <time>2021-03-18T10:18:13Z</time>
      </trkpt>
      <trkpt lat="42.44551292400121" lon="0.1772426522823478">
        <time>2021-03-18T10:18:13Z</time>
      </trkpt>
      <trkpt lat="42.44539286348177" lon="0.1773777041190017">
        <time>2021-03-18T10:18:13Z</time>
      </trkpt>
      <trkpt lat="42.44487647595" lon="0.1759036066350039">
        <time>2021-03-18T10:18:13Z</time>
      </trkpt>
      <trkpt lat="42.4446227447009" lon="0.175769121815903">
        <time>2021-03-18T10:18:13Z</time>
      </trkpt>
      <trkpt lat="42.44418618245511" lon="0.1759984591202901">
        <time>2021-03-18T10:18:13Z</time>
      </trkpt>
      <trkpt lat="42.44387305464587" lon="0.1760541541288951">
        <time>2021-03-18T10:18:13Z</time>
      </trkpt>
      <trkpt lat="42.44350286561327" lon="0.1753698005717719">
        <time>2021-03-18T10:18:13Z</time>
      </trkpt>
      <trkpt lat="42.44295155109946" lon="0.1750763800848443">
        <time>2021-03-18T10:18:13Z</time>
      </trkpt>
      <trkpt lat="42.44250579065053" lon="0.1744180687567343">
        <time>2021-03-18T10:18:13Z</time>
      </trkpt>
      <trkpt lat="42.44186128123243" lon="0.1729206467831368">
        <time>2021-03-18T10:18:13Z</time>
      </trkpt>
      <trkpt lat="42.44179901196559" lon="0.1706750361603038">
        <time>2021-03-18T10:18:13Z</time>
      </trkpt>
      <trkpt lat="42.44100846862659" lon="0.1684761518166766">
        <time>2021-03-18T10:18:13Z</time>
      </trkpt>
      <trkpt lat="42.44131784952303" lon="0.1668812857184099">
        <time>2021-03-18T10:18:13Z</time>
      </trkpt>
      <trkpt lat="42.44145368502031" lon="0.1663628260527905">
        <time>2021-03-18T10:18:13Z</time>
      </trkpt>
      <trkpt lat="42.44147115839872" lon="0.1654846899939821">
        <time>2021-03-18T10:18:13Z</time>
      </trkpt>
      <trkpt lat="42.44176333208215" lon="0.1638332095741846">
        <time>2021-03-18T10:18:13Z</time>
      </trkpt>
      <trkpt lat="42.44175211455271" lon="0.1633922525888987">
        <time>2021-03-18T10:18:13Z</time>
      </trkpt>
      <trkpt lat="42.44139459730912" lon="0.1635319066983754">
        <time>2021-03-18T10:18:13Z</time>
      </trkpt>
      <trkpt lat="42.44136681874283" lon="0.163145345685336">
        <time>2021-03-18T10:18:13Z</time>
      </trkpt>
      <trkpt lat="42.44219757075732" lon="0.1620536668325401">
        <time>2021-03-18T10:18:13Z</time>
      </trkpt>
      <trkpt lat="42.44250558948526" lon="0.1609013623201916">
        <time>2021-03-18T10:18:13Z</time>
      </trkpt>
      <trkpt lat="42.44250280688357" lon="0.1595864283342152">
        <time>2021-03-18T10:18:13Z</time>
      </trkpt>
      <trkpt lat="42.44188939823711" lon="0.1590771109799238">
        <time>2021-03-18T10:18:13Z</time>
      </trkpt>
      <trkpt lat="42.44079492580794" lon="0.1596567661803827">
        <time>2021-03-18T10:18:13Z</time>
      </trkpt>
      <trkpt lat="42.44033461752262" lon="0.160080982034827">
        <time>2021-03-18T10:18:13Z</time>
      </trkpt>
      <trkpt lat="42.43952807517951" lon="0.1599769770834159">
        <time>2021-03-18T10:18:13Z</time>
      </trkpt>
      <trkpt lat="42.43924889897091" lon="0.160023913726568">
        <time>2021-03-18T10:18:13Z</time>
      </trkpt>
      <trkpt lat="42.43885732921296" lon="0.1609034972470669">
        <time>2021-03-18T10:18:13Z</time>
      </trkpt>
      <trkpt lat="42.4383451732319" lon="0.1608023687850224">
        <time>2021-03-18T10:18:13Z</time>
      </trkpt>
      <trkpt lat="42.43786536766267" lon="0.1607945379761411">
        <time>2021-03-18T10:18:13Z</time>
      </trkpt>
      <trkpt lat="42.43786643797581" lon="0.1602061792084153">
        <time>2021-03-18T10:18:13Z</time>
      </trkpt>
      <trkpt lat="42.43786783099788" lon="0.1597118959988131">
        <time>2021-03-18T10:18:13Z</time>
      </trkpt>
      <trkpt lat="42.43753295282592" lon="0.1593558104693504">
        <time>2021-03-18T10:18:13Z</time>
      </trkpt>
      <trkpt lat="42.43645216008826" lon="0.1594352870750471">
        <time>2021-03-18T10:18:13Z</time>
      </trkpt>
      <trkpt lat="42.43568137751084" lon="0.1583644328270317">
        <time>2021-03-18T10:18:13Z</time>
      </trkpt>
      <trkpt lat="42.43597436597224" lon="0.1564873920387111">
        <time>2021-03-18T10:18:13Z</time>
      </trkpt>
      <trkpt lat="42.43622513852511" lon="0.1560305344525292">
        <time>2021-03-18T10:18:13Z</time>
      </trkpt>
      <trkpt lat="42.43581675994784" lon="0.1562537967125088">
        <time>2021-03-18T10:18:13Z</time>
      </trkpt>
      <trkpt lat="42.43542565329742" lon="0.1565268323210112">
        <time>2021-03-18T10:18:13Z</time>
      </trkpt>
      <trkpt lat="42.43440772033888" lon="0.1573958768259298">
        <time>2021-03-18T10:18:13Z</time>
      </trkpt>
      <trkpt lat="42.43391454418634" lon="0.1577826786592329">
        <time>2021-03-18T10:18:13Z</time>
      </trkpt>
      <trkpt lat="42.43284094285504" lon="0.1577103250071432">
        <time>2021-03-18T10:18:13Z</time>
      </trkpt>
      <trkpt lat="42.43259235187748" lon="0.157306311744958">
        <time>2021-03-18T10:18:13Z</time>
      </trkpt>
      <trkpt lat="42.43205525375122" lon="0.157274505419045">
        <time>2021-03-18T10:18:13Z</time>
      </trkpt>
      <trkpt lat="42.43176146746562" lon="0.1570149602203919">
        <time>2021-03-18T10:18:13Z</time>
      </trkpt>
      <trkpt lat="42.43093446023087" lon="0.1569787863896011">
        <time>2021-03-18T10:18:13Z</time>
      </trkpt>
      <trkpt lat="42.43020241621937" lon="0.1567790715896833">
        <time>2021-03-18T10:18:13Z</time>
      </trkpt>
      <trkpt lat="42.42882341286862" lon="0.1580198452909065">
        <time>2021-03-18T10:18:13Z</time>
      </trkpt>
      <trkpt lat="42.42811028867935" lon="0.1589615064990357">
        <time>2021-03-18T10:18:13Z</time>
      </trkpt>
      <trkpt lat="42.42722468198649" lon="0.1590728625438009">
        <time>2021-03-18T10:18:13Z</time>
      </trkpt>
      <trkpt lat="42.42640448064498" lon="0.1587999586892663">
        <time>2021-03-18T10:18:13Z</time>
      </trkpt>
      <trkpt lat="42.42557129652668" lon="0.1601356611401306">
        <time>2021-03-18T10:18:13Z</time>
      </trkpt>
      <trkpt lat="42.42481564098573" lon="0.1595770481112568">
        <time>2021-03-18T10:18:13Z</time>
      </trkpt>
      <trkpt lat="42.42452462466677" lon="0.1589009538950048">
        <time>2021-03-18T10:18:13Z</time>
      </trkpt>
      <trkpt lat="42.42489853345457" lon="0.1576372280418825">
        <time>2021-03-18T10:18:13Z</time>
      </trkpt>
      <trkpt lat="42.42466242440333" lon="0.1565323043474431">
        <time>2021-03-18T10:18:13Z</time>
      </trkpt>
      <trkpt lat="42.42388534875313" lon="0.1559968012144064">
        <time>2021-03-18T10:18:13Z</time>
      </trkpt>
      <trkpt lat="42.42100773573826" lon="0.1527333036982803">
        <time>2021-03-18T10:18:13Z</time>
      </trkpt>
      <trkpt lat="42.42018350588045" lon="0.1515056169248585">
        <time>2021-03-18T10:18:13Z</time>
      </trkpt>
      <trkpt lat="42.42014398666817" lon="0.1512318558858405">
        <time>2021-03-18T10:18:13Z</time>
      </trkpt>
      <trkpt lat="42.41992577415772" lon="0.1493902812766335">
        <time>2021-03-18T10:18:13Z</time>
      </trkpt>
      <trkpt lat="42.41927384347943" lon="0.1482458623965921">
        <time>2021-03-18T10:18:13Z</time>
      </trkpt>
      <trkpt lat="42.41867932960303" lon="0.1482431801348194">
        <time>2021-03-18T10:18:13Z</time>
      </trkpt>
      <trkpt lat="42.41760967397939" lon="0.1480213426929034">
        <time>2021-03-18T10:18:13Z</time>
      </trkpt>
      <trkpt lat="42.41719264677961" lon="0.1478270277225091">
        <time>2021-03-18T10:18:13Z</time>
      </trkpt>
      <trkpt lat="42.41611612132348" lon="0.1464257088201926">
        <time>2021-03-18T10:18:13Z</time>
      </trkpt>
      <trkpt lat="42.41554041858808" lon="0.144472103339186">
        <time>2021-03-18T10:18:13Z</time>
      </trkpt>
      <trkpt lat="42.41518343820226" lon="0.1439831728058261">
        <time>2021-03-18T10:18:13Z</time>
      </trkpt>
      <trkpt lat="42.41473457076314" lon="0.1403274673113653">
        <time>2021-03-18T10:18:13Z</time>
      </trkpt>
      <trkpt lat="42.41242681170212" lon="0.1402337458605452">
        <time>2021-03-18T10:18:13Z</time>
      </trkpt>
      <trkpt lat="42.42190275800931" lon="0.1395639045760255">
        <time>2021-03-18T10:18:13Z</time>
      </trkpt>
      <trkpt lat="42.42908502148738" lon="0.1345286751763752">
        <time>2021-03-18T10:18:13Z</time>
      </trkpt>
      <trkpt lat="42.43403477161698" lon="0.1313476812693537">
        <time>2021-03-18T10:18:13Z</time>
      </trkpt>
      <trkpt lat="42.44191057966322" lon="0.1304355396189627">
        <time>2021-03-18T10:18:13Z</time>
      </trkpt>
      <trkpt lat="42.4515157110584" lon="0.1338755503595457">
        <time>2021-03-18T10:18:13Z</time>
      </trkpt>
      <trkpt lat="42.45332774456298" lon="0.1350458788533215">
        <time>2021-03-18T10:18:13Z</time>
      </trkpt>
      <trkpt lat="42.45446143861216" lon="0.1359968605018702">
        <time>2021-03-18T10:18:13Z</time>
      </trkpt>
      <trkpt lat="42.45679586076917" lon="0.1362847397990508">
        <time>2021-03-18T10:18:13Z</time>
      </trkpt>
      <trkpt lat="42.45886300909979" lon="0.1354380903808972">
        <time>2021-03-18T10:18:13Z</time>
      </trkpt>
      <trkpt lat="42.46321917246638" lon="0.135903783725424">
        <time>2021-03-18T10:18:13Z</time>
      </trkpt>
      <trkpt lat="42.46603888691681" lon="0.1387129592654901">
        <time>2021-03-18T10:18:13Z</time>
      </trkpt>
      <trkpt lat="42.46702886934335" lon="0.1417841877495207">
        <time>2021-03-18T10:18:13Z</time>
      </trkpt>
      <trkpt lat="42.47140773341376" lon="0.1451715351609062">
        <time>2021-03-18T10:18:13Z</time>
      </trkpt>
      <trkpt lat="42.47319453075694" lon="0.1472337167364679">
        <time>2021-03-18T10:18:13Z</time>
      </trkpt>
      <trkpt lat="42.47567342418108" lon="0.1482699310531199">
        <time>2021-03-18T10:18:13Z</time>
      </trkpt>
      <trkpt lat="42.4764707386702" lon="0.1484820075944082">
        <time>2021-03-18T10:18:13Z</time>
      </trkpt>
      <trkpt lat="42.47808871631592" lon="0.1495194959674606">
        <time>2021-03-18T10:18:13Z</time>
      </trkpt>
      <trkpt lat="42.48430436275707" lon="0.1496405002647827">
        <time>2021-03-18T10:18:13Z</time>
      </trkpt>
      <trkpt lat="42.48617757822326" lon="0.1478426161495983">
        <time>2021-03-18T10:18:13Z</time>
      </trkpt>
      <trkpt lat="42.49489882084223" lon="0.1457132442634812">
        <time>2021-03-18T10:18:13Z</time>
      </trkpt>
      <trkpt lat="42.49793399893746" lon="0.1439417669228837">
        <time>2021-03-18T10:18:13Z</time>
      </trkpt>
      <trkpt lat="42.49909865206075" lon="0.1439255692418273">
        <time>2021-03-18T10:18:13Z</time>
      </trkpt>
      <trkpt lat="42.50062683563702" lon="0.1423638264695426">
        <time>2021-03-18T10:18:13Z</time>
      </trkpt>
      <trkpt lat="42.50256356991658" lon="0.1388475861920568">
        <time>2021-03-18T10:18:13Z</time>
      </trkpt>
      <trkpt lat="42.50303803523989" lon="0.137253890188731">
        <time>2021-03-18T10:18:13Z</time>
      </trkpt>
      <trkpt lat="42.50408550597834" lon="0.1359348685018968">
        <time>2021-03-18T10:18:13Z</time>
      </trkpt>
      <trkpt lat="42.50456646505752" lon="0.1326729363532664">
        <time>2021-03-18T10:18:13Z</time>
      </trkpt>
      <trkpt lat="42.50683121651255" lon="0.1304217108732542">
        <time>2021-03-18T10:18:13Z</time>
      </trkpt>
      <trkpt lat="42.50923001627066" lon="0.1296909171809935">
        <time>2021-03-18T10:18:13Z</time>
      </trkpt>
      <trkpt lat="42.50941954074755" lon="0.1286281502056497">
        <time>2021-03-18T10:18:13Z</time>
      </trkpt>
      <trkpt lat="42.50945314000564" lon="0.1274998844559816">
        <time>2021-03-18T10:18:13Z</time>
      </trkpt>
      <trkpt lat="42.51097255307082" lon="0.1255259025839606">
        <time>2021-03-18T10:18:13Z</time>
      </trkpt>
      <trkpt lat="42.51164147602566" lon="0.125310203294331">
        <time>2021-03-18T10:18:13Z</time>
      </trkpt>
      <trkpt lat="42.51178332151434" lon="0.1248439591722406">
        <time>2021-03-18T10:18:13Z</time>
      </trkpt>
      <trkpt lat="42.51114758681344" lon="0.1241033116078616">
        <time>2021-03-18T10:18:13Z</time>
      </trkpt>
      <trkpt lat="42.51123370069399" lon="0.1222589273523789">
        <time>2021-03-18T10:18:13Z</time>
      </trkpt>
      <trkpt lat="42.51085077455082" lon="0.121165912338741">
        <time>2021-03-18T10:18:13Z</time>
      </trkpt>
      <trkpt lat="42.5126183345692" lon="0.1179612794649154">
        <time>2021-03-18T10:18:13Z</time>
      </trkpt>
      <trkpt lat="42.5143030506878" lon="0.1168506125806323">
        <time>2021-03-18T10:18:13Z</time>
      </trkpt>
      <trkpt lat="42.51494803566801" lon="0.1160932477944865">
        <time>2021-03-18T10:18:13Z</time>
      </trkpt>
      <trkpt lat="42.51496066841236" lon="0.1150585598580967">
        <time>2021-03-18T10:18:13Z</time>
      </trkpt>
      <trkpt lat="42.51436257407084" lon="0.1132595502452771">
        <time>2021-03-18T10:18:13Z</time>
      </trkpt>
      <trkpt lat="42.51453735679834" lon="0.111414251101809">
        <time>2021-03-18T10:18:13Z</time>
      </trkpt>
      <trkpt lat="42.51522467060055" lon="0.1100287347085138">
        <time>2021-03-18T10:18:13Z</time>
      </trkpt>
      <trkpt lat="42.51644216083282" lon="0.1096665447917955">
        <time>2021-03-18T10:18:13Z</time>
      </trkpt>
      <trkpt lat="42.51765224617855" lon="0.1096627508417214">
        <time>2021-03-18T10:18:13Z</time>
      </trkpt>
      <trkpt lat="42.51778510869821" lon="0.107941019052662">
        <time>2021-03-18T10:18:13Z</time>
      </trkpt>
      <trkpt lat="42.51668046487989" lon="0.10756210494691">
        <time>2021-03-18T10:18:13Z</time>
      </trkpt>
      <trkpt lat="42.51625889817728" lon="0.1071205817097787">
        <time>2021-03-18T10:18:13Z</time>
      </trkpt>
      <trkpt lat="42.51579982490022" lon="0.1051555544753491">
        <time>2021-03-18T10:18:13Z</time>
      </trkpt>
      <trkpt lat="42.51529959175484" lon="0.104819826529885">
        <time>2021-03-18T10:18:13Z</time>
      </trkpt>
      <trkpt lat="42.51572667922056" lon="0.1040435892212943">
        <time>2021-03-18T10:18:13Z</time>
      </trkpt>
      <trkpt lat="42.51563222518714" lon="0.1007812678125997">
        <time>2021-03-18T10:18:13Z</time>
      </trkpt>
      <trkpt lat="42.51568016011883" lon="0.09882640358026995">
        <time>2021-03-18T10:18:13Z</time>
      </trkpt>
      <trkpt lat="42.51571957562754" lon="0.09750067672321672">
        <time>2021-03-18T10:18:13Z</time>
      </trkpt>
      <trkpt lat="42.51692400863858" lon="0.09647898769751473">
        <time>2021-03-18T10:18:13Z</time>
      </trkpt>
      <trkpt lat="42.51818053023826" lon="0.09400798732367877">
        <time>2021-03-18T10:18:13Z</time>
      </trkpt>
      <trkpt lat="42.51882439600518" lon="0.09335202708213419">
        <time>2021-03-18T10:18:13Z</time>
      </trkpt>
      <trkpt lat="42.51944606268779" lon="0.09331900814998573">
        <time>2021-03-18T10:18:13Z</time>
      </trkpt>
      <trkpt lat="42.52025567478274" lon="0.09244879276203655">
        <time>2021-03-18T10:18:13Z</time>
      </trkpt>
      <trkpt lat="42.52040289014782" lon="0.09098066728764564">
        <time>2021-03-18T10:18:13Z</time>
      </trkpt>
      <trkpt lat="42.52079195842989" lon="0.08971560633828979">
        <time>2021-03-18T10:18:13Z</time>
      </trkpt>
      <trkpt lat="42.52181635075093" lon="0.08869576533556245">
        <time>2021-03-18T10:18:13Z</time>
      </trkpt>
      <trkpt lat="42.52370719008086" lon="0.08957503124156663">
        <time>2021-03-18T10:18:13Z</time>
      </trkpt>
      <trkpt lat="42.52441780770245" lon="0.09040469422534114">
        <time>2021-03-18T10:18:13Z</time>
      </trkpt>
      <trkpt lat="42.5252898589075" lon="0.09244996628249735">
        <time>2021-03-18T10:18:13Z</time>
      </trkpt>
      <trkpt lat="42.52611692052771" lon="0.09247385775261963">
        <time>2021-03-18T10:18:13Z</time>
      </trkpt>
      <trkpt lat="42.52732191131648" lon="0.09206871566833863">
        <time>2021-03-18T10:18:13Z</time>
      </trkpt>
      <trkpt lat="42.52788303527115" lon="0.09177786914515318">
        <time>2021-03-18T10:18:13Z</time>
      </trkpt>
      <trkpt lat="42.52816676849862" lon="0.09076513802155128">
        <time>2021-03-18T10:18:13Z</time>
      </trkpt>
      <trkpt lat="42.52817695800774" lon="0.08979851633703628">
        <time>2021-03-18T10:18:13Z</time>
      </trkpt>
      <trkpt lat="42.52840560365421" lon="0.08855695480619152">
        <time>2021-03-18T10:18:13Z</time>
      </trkpt>
      <trkpt lat="42.52886212285699" lon="0.08683903028867013">
        <time>2021-03-18T10:18:13Z</time>
      </trkpt>
      <trkpt lat="42.52951833249057" lon="0.0859081648293758">
        <time>2021-03-18T10:18:13Z</time>
      </trkpt>
      <trkpt lat="42.53012025313238" lon="0.0852017123337534">
        <time>2021-03-18T10:18:13Z</time>
      </trkpt>
      <trkpt lat="42.53094325015776" lon="0.08500138994415707">
        <time>2021-03-18T10:18:13Z</time>
      </trkpt>
      <trkpt lat="42.53152007202123" lon="0.08496818110565796">
        <time>2021-03-18T10:18:13Z</time>
      </trkpt>
      <trkpt lat="42.53173686105848" lon="0.08577773142687706">
        <time>2021-03-18T10:18:13Z</time>
      </trkpt>
      <trkpt lat="42.53232756981553" lon="0.08592800408125711">
        <time>2021-03-18T10:18:13Z</time>
      </trkpt>
      <trkpt lat="42.53241056216552" lon="0.08554131609860294">
        <time>2021-03-18T10:18:13Z</time>
      </trkpt>
      <trkpt lat="42.53367729646704" lon="0.08408355551106084">
        <time>2021-03-18T10:18:13Z</time>
      </trkpt>
      <trkpt lat="42.5344385515835" lon="0.0826861934515577">
        <time>2021-03-18T10:18:13Z</time>
      </trkpt>
      <trkpt lat="42.53557148962714" lon="0.081925424920406">
        <time>2021-03-18T10:18:13Z</time>
      </trkpt>
      <trkpt lat="42.53742721515049" lon="0.08103608989002753">
        <time>2021-03-18T10:18:13Z</time>
      </trkpt>
      <trkpt lat="42.53845999166336" lon="0.08028961442224869">
        <time>2021-03-18T10:18:13Z</time>
      </trkpt>
      <trkpt lat="42.53944025415052" lon="0.08071230935108753">
        <time>2021-03-18T10:18:13Z</time>
      </trkpt>
      <trkpt lat="42.54115287568641" lon="0.08059350680023059">
        <time>2021-03-18T10:18:13Z</time>
      </trkpt>
      <trkpt lat="42.54213249073632" lon="0.0804093193742994">
        <time>2021-03-18T10:18:13Z</time>
      </trkpt>
      <trkpt lat="42.54410329671175" lon="0.0805091519041623">
        <time>2021-03-18T10:18:13Z</time>
      </trkpt>
      <trkpt lat="42.54612796974134" lon="0.07910458683433097">
        <time>2021-03-18T10:18:13Z</time>
      </trkpt>
      <trkpt lat="42.54603541688113" lon="0.07734076184148897">
        <time>2021-03-18T10:18:13Z</time>
      </trkpt>
      <trkpt lat="42.54630703806523" lon="0.07663554025216346">
        <time>2021-03-18T10:18:13Z</time>
      </trkpt>
      <trkpt lat="42.54696758383861" lon="0.07629029290840972">
        <time>2021-03-18T10:18:13Z</time>
      </trkpt>
      <trkpt lat="42.54812944326413" lon="0.07650121820142131">
        <time>2021-03-18T10:18:13Z</time>
      </trkpt>
      <trkpt lat="42.54860074334587" lon="0.07605058992111058">
        <time>2021-03-18T10:18:13Z</time>
      </trkpt>
      <trkpt lat="42.54853728934489" lon="0.07432441055780226">
        <time>2021-03-18T10:18:13Z</time>
      </trkpt>
      <trkpt lat="42.54963660637998" lon="0.07359940249068053">
        <time>2021-03-18T10:18:13Z</time>
      </trkpt>
      <trkpt lat="42.55017490678343" lon="0.07351847051587868">
        <time>2021-03-18T10:18:13Z</time>
      </trkpt>
      <trkpt lat="42.55018563593304" lon="0.07201961282061964">
        <time>2021-03-18T10:18:13Z</time>
      </trkpt>
      <trkpt lat="42.55080494991956" lon="0.07049181073769395">
        <time>2021-03-18T10:18:13Z</time>
      </trkpt>
      <trkpt lat="42.55105420035688" lon="0.06855846130748411">
        <time>2021-03-18T10:18:13Z</time>
      </trkpt>
      <trkpt lat="42.55109256239482" lon="0.06805436706089907">
        <time>2021-03-18T10:18:13Z</time>
      </trkpt>
      <trkpt lat="42.55169273881969" lon="0.06753947789633452">
        <time>2021-03-18T10:18:13Z</time>
      </trkpt>
      <trkpt lat="42.55310731405862" lon="0.06662561184028526">
        <time>2021-03-18T10:18:13Z</time>
      </trkpt>
      <trkpt lat="42.55356587293225" lon="0.0656842557009063">
        <time>2021-03-18T10:18:13Z</time>
      </trkpt>
      <trkpt lat="42.55357356619821" lon="0.06474152098599362">
        <time>2021-03-18T10:18:13Z</time>
      </trkpt>
      <trkpt lat="42.55446788750717" lon="0.06320487257961416">
        <time>2021-03-18T10:18:13Z</time>
      </trkpt>
      <trkpt lat="42.55458892894374" lon="0.06035510174734027">
        <time>2021-03-18T10:18:13Z</time>
      </trkpt>
      <trkpt lat="42.55531387957583" lon="0.0567647286460149">
        <time>2021-03-18T10:18:13Z</time>
      </trkpt>
      <trkpt lat="42.55608159340837" lon="0.0554558323692711">
        <time>2021-03-18T10:18:13Z</time>
      </trkpt>
      <trkpt lat="42.55725901430125" lon="0.05445995652234359">
        <time>2021-03-18T10:18:13Z</time>
      </trkpt>
      <trkpt lat="42.55819671286474" lon="0.05460606884604369">
        <time>2021-03-18T10:18:13Z</time>
      </trkpt>
      <trkpt lat="42.55782976097999" lon="0.05269879531773158">
        <time>2021-03-18T10:18:13Z</time>
      </trkpt>
      <trkpt lat="42.55881865422603" lon="0.05074368299321508">
        <time>2021-03-18T10:18:13Z</time>
      </trkpt>
      <trkpt lat="42.55780131421356" lon="0.05125562781407078">
        <time>2021-03-18T10:18:13Z</time>
      </trkpt>
      <trkpt lat="42.55728274628371" lon="0.05314110672828942">
        <time>2021-03-18T10:18:13Z</time>
      </trkpt>
      <trkpt lat="42.55727208112214" lon="0.05153412662934009">
        <time>2021-03-18T10:18:13Z</time>
      </trkpt>
      <trkpt lat="42.55804487624148" lon="0.04994573774379951">
        <time>2021-03-18T10:18:13Z</time>
      </trkpt>
      <trkpt lat="42.55756289340671" lon="0.04978254700267915">
        <time>2021-03-18T10:18:13Z</time>
      </trkpt>
      <trkpt lat="42.55819921521919" lon="0.04919255614742824">
        <time>2021-03-18T10:18:13Z</time>
      </trkpt>
      <trkpt lat="42.55869758261414" lon="0.0486317066184494">
        <time>2021-03-18T10:18:13Z</time>
      </trkpt>
      <trkpt lat="42.55914889731584" lon="0.04836937279428577">
        <time>2021-03-18T10:18:13Z</time>
      </trkpt>
      <trkpt lat="42.55947227676941" lon="0.04840045080009459">
        <time>2021-03-18T10:18:13Z</time>
      </trkpt>
      <trkpt lat="42.56001165615811" lon="0.04726172219000846">
        <time>2021-03-18T10:18:13Z</time>
      </trkpt>
      <trkpt lat="42.56064110534185" lon="0.04627096449606238">
        <time>2021-03-18T10:18:13Z</time>
      </trkpt>
      <trkpt lat="42.56119945686196" lon="0.04603622656353057">
        <time>2021-03-18T10:18:13Z</time>
      </trkpt>
      <trkpt lat="42.56166509753147" lon="0.04555950596717207">
        <time>2021-03-18T10:18:13Z</time>
      </trkpt>
      <trkpt lat="42.56169792015918" lon="0.04441318790012305">
        <time>2021-03-18T10:18:13Z</time>
      </trkpt>
      <trkpt lat="42.56178267806754" lon="0.04366499011249747">
        <time>2021-03-18T10:18:13Z</time>
      </trkpt>
      <trkpt lat="42.56239657674507" lon="0.04263906786114546">
        <time>2021-03-18T10:18:13Z</time>
      </trkpt>
      <trkpt lat="42.56204122404803" lon="0.04032945013057843">
        <time>2021-03-18T10:18:13Z</time>
      </trkpt>
      <trkpt lat="42.56197906587769" lon="0.0401535297790323">
        <time>2021-03-18T10:18:13Z</time>
      </trkpt>
      <trkpt lat="42.56308434574123" lon="0.03729516899682706">
        <time>2021-03-18T10:18:13Z</time>
      </trkpt>
      <trkpt lat="42.56363793400899" lon="0.03463543551195158">
        <time>2021-03-18T10:18:13Z</time>
      </trkpt>
      <trkpt lat="42.56316733328001" lon="0.03386667009005029">
        <time>2021-03-18T10:18:13Z</time>
      </trkpt>
      <trkpt lat="42.56368699360078" lon="0.03291392838242313">
        <time>2021-03-18T10:18:13Z</time>
      </trkpt>
      <trkpt lat="42.5643690737634" lon="0.03331591810565193">
        <time>2021-03-18T10:18:13Z</time>
      </trkpt>
      <trkpt lat="42.56556115382618" lon="0.03104348926439293">
        <time>2021-03-18T10:18:13Z</time>
      </trkpt>
      <trkpt lat="42.56614965505965" lon="0.03068012692017952">
        <time>2021-03-18T10:18:13Z</time>
      </trkpt>
      <trkpt lat="42.56648287483311" lon="0.03061287496723297">
        <time>2021-03-18T10:18:13Z</time>
      </trkpt>
      <trkpt lat="42.56757720917216" lon="0.02899900117113052">
        <time>2021-03-18T10:18:13Z</time>
      </trkpt>
      <trkpt lat="42.56759236873017" lon="0.02767721132029832">
        <time>2021-03-18T10:18:13Z</time>
      </trkpt>
      <trkpt lat="42.56869190359865" lon="0.02673959227349476">
        <time>2021-03-18T10:18:13Z</time>
      </trkpt>
      <trkpt lat="42.56891252565043" lon="0.02599452415011694">
        <time>2021-03-18T10:18:13Z</time>
      </trkpt>
      <trkpt lat="42.56933798762814" lon="0.02528318959235998">
        <time>2021-03-18T10:18:13Z</time>
      </trkpt>
      <trkpt lat="42.57001796029734" lon="0.02407360856621965">
        <time>2021-03-18T10:18:13Z</time>
      </trkpt>
      <trkpt lat="42.57046254021662" lon="0.02418149764578992">
        <time>2021-03-18T10:18:13Z</time>
      </trkpt>
      <trkpt lat="42.56989305167195" lon="0.02287462041012045">
        <time>2021-03-18T10:18:13Z</time>
      </trkpt>
      <trkpt lat="42.57012798844755" lon="0.02184597986112147">
        <time>2021-03-18T10:18:13Z</time>
      </trkpt>
      <trkpt lat="42.57006270829215" lon="0.02061112217419669">
        <time>2021-03-18T10:18:13Z</time>
      </trkpt>
      <trkpt lat="42.5707382147038" lon="0.01833753543052374">
        <time>2021-03-18T10:18:13Z</time>
      </trkpt>
      <trkpt lat="42.57049972498589" lon="0.01706503932205949">
        <time>2021-03-18T10:18:13Z</time>
      </trkpt>
      <trkpt lat="42.57134962683226" lon="0.01819156001149125">
        <time>2021-03-18T10:18:13Z</time>
      </trkpt>
      <trkpt lat="42.57114072003445" lon="0.02064237445507988">
        <time>2021-03-18T10:18:13Z</time>
      </trkpt>
      <trkpt lat="42.57174886179293" lon="0.02182934322932928">
        <time>2021-03-18T10:18:13Z</time>
      </trkpt>
      <trkpt lat="42.57207504339988" lon="0.02193980069408408">
        <time>2021-03-18T10:18:13Z</time>
      </trkpt>
      <trkpt lat="42.57306817266272" lon="0.02130678420361853">
        <time>2021-03-18T10:18:13Z</time>
      </trkpt>
      <trkpt lat="42.57210843885714" lon="0.02113107020940364">
        <time>2021-03-18T10:18:13Z</time>
      </trkpt>
      <trkpt lat="42.57191563021788" lon="0.02082873792843332">
        <time>2021-03-18T10:18:13Z</time>
      </trkpt>
      <trkpt lat="42.57261527398254" lon="0.0178404193537407">
        <time>2021-03-18T10:18:13Z</time>
      </trkpt>
      <trkpt lat="42.57246103827257" lon="0.01706364630206014">
        <time>2021-03-18T10:18:13Z</time>
      </trkpt>
      <trkpt lat="42.57282602728025" lon="0.01794175453510682">
        <time>2021-03-18T10:18:13Z</time>
      </trkpt>
      <trkpt lat="42.57277241333661" lon="0.01968902652619953">
        <time>2021-03-18T10:18:13Z</time>
      </trkpt>
      <trkpt lat="42.57297095729085" lon="0.01983589772554195">
        <time>2021-03-18T10:18:13Z</time>
      </trkpt>
      <trkpt lat="42.57412196389296" lon="0.0192458051769373">
        <time>2021-03-18T10:18:13Z</time>
      </trkpt>
      <trkpt lat="42.57409226715465" lon="0.01991965487030178">
        <time>2021-03-18T10:18:13Z</time>
      </trkpt>
      <trkpt lat="42.57450272119503" lon="0.01992552199001185">
        <time>2021-03-18T10:18:13Z</time>
      </trkpt>
      <trkpt lat="42.57450368366303" lon="0.01862066592163592">
        <time>2021-03-18T10:18:13Z</time>
      </trkpt>
      <trkpt lat="42.57449031954192" lon="0.01777344909706047">
        <time>2021-03-18T10:18:13Z</time>
      </trkpt>
      <trkpt lat="42.57395872079928" lon="0.016818730473942">
        <time>2021-03-18T10:18:13Z</time>
      </trkpt>
      <trkpt lat="42.57466422973275" lon="0.01835385071150997">
        <time>2021-03-18T10:18:13Z</time>
      </trkpt>
      <trkpt lat="42.57455019611204" lon="0.01987005486905558">
        <time>2021-03-18T10:18:13Z</time>
      </trkpt>
      <trkpt lat="42.57529605508893" lon="0.01972884306922218">
        <time>2021-03-18T10:18:13Z</time>
      </trkpt>
      <trkpt lat="42.57575794532254" lon="0.02049801646853533">
        <time>2021-03-18T10:18:13Z</time>
      </trkpt>
      <trkpt lat="42.57621447440157" lon="0.02075625060269148">
        <time>2021-03-18T10:18:13Z</time>
      </trkpt>
      <trkpt lat="42.57612628283917" lon="0.02013739824439309">
        <time>2021-03-18T10:18:13Z</time>
      </trkpt>
      <trkpt lat="42.57578730933299" lon="0.01939668566490083">
        <time>2021-03-18T10:18:13Z</time>
      </trkpt>
      <trkpt lat="42.57579215669922" lon="0.01836865266721111">
        <time>2021-03-18T10:18:13Z</time>
      </trkpt>
      <trkpt lat="42.5757292325443" lon="0.01721391272112793">
        <time>2021-03-18T10:18:13Z</time>
      </trkpt>
      <trkpt lat="42.57626274294948" lon="0.016540054587455">
        <time>2021-03-18T10:18:13Z</time>
      </trkpt>
      <trkpt lat="42.57642726257875" lon="0.01681792756322409">
        <time>2021-03-18T10:18:13Z</time>
      </trkpt>
      <trkpt lat="42.57617875894397" lon="0.01741504462875687">
        <time>2021-03-18T10:18:13Z</time>
      </trkpt>
      <trkpt lat="42.57658619477311" lon="0.01880241363259705">
        <time>2021-03-18T10:18:13Z</time>
      </trkpt>
      <trkpt lat="42.57674201259842" lon="0.01882175606659153">
        <time>2021-03-18T10:18:13Z</time>
      </trkpt>
      <trkpt lat="42.57679382560883" lon="0.01818140632210197">
        <time>2021-03-18T10:18:13Z</time>
      </trkpt>
      <trkpt lat="42.57706148213612" lon="0.0177529341256788">
        <time>2021-03-18T10:18:13Z</time>
      </trkpt>
      <trkpt lat="42.57777656182884" lon="0.01807342023552927">
        <time>2021-03-18T10:18:13Z</time>
      </trkpt>
      <trkpt lat="42.57907182534189" lon="0.01791153531016443">
        <time>2021-03-18T10:18:13Z</time>
      </trkpt>
      <trkpt lat="42.579039183235" lon="0.01648841490786257">
        <time>2021-03-18T10:18:13Z</time>
      </trkpt>
      <trkpt lat="42.57921779026839" lon="0.0161147081787405">
        <time>2021-03-18T10:18:13Z</time>
      </trkpt>
      <trkpt lat="42.58015426984847" lon="0.01647488568653932">
        <time>2021-03-18T10:18:13Z</time>
      </trkpt>
      <trkpt lat="42.58037614746335" lon="0.01530248730500228">
        <time>2021-03-18T10:18:13Z</time>
      </trkpt>
      <trkpt lat="42.58034713892803" lon="0.01426287081394806">
        <time>2021-03-18T10:18:13Z</time>
      </trkpt>
      <trkpt lat="42.58099327818471" lon="0.01382628127750474">
        <time>2021-03-18T10:18:13Z</time>
      </trkpt>
      <trkpt lat="42.5816801580681" lon="0.01243259815721487">
        <time>2021-03-18T10:18:13Z</time>
      </trkpt>
      <trkpt lat="42.58171807645969" lon="0.01194849345169224">
        <time>2021-03-18T10:18:13Z</time>
      </trkpt>
      <trkpt lat="42.58184821697786" lon="0.01177764701491446">
        <time>2021-03-18T10:18:13Z</time>
      </trkpt>
      <trkpt lat="42.58233863431595" lon="0.01193845749680511">
        <time>2021-03-18T10:18:13Z</time>
      </trkpt>
      <trkpt lat="42.58244483559555" lon="0.01156740138081203">
        <time>2021-03-18T10:18:13Z</time>
      </trkpt>
      <trkpt lat="42.58243224846616" lon="0.01154610186518079">
        <time>2021-03-18T10:18:13Z</time>
      </trkpt>
      <trkpt lat="42.58234381312182" lon="0.01050146706054189">
        <time>2021-03-18T10:18:13Z</time>
      </trkpt>
      <trkpt lat="42.58275540640344" lon="0.009965880238189673">
        <time>2021-03-18T10:18:13Z</time>
      </trkpt>
      <trkpt lat="42.58303939784262" lon="0.009957725551923424">
        <time>2021-03-18T10:18:13Z</time>
      </trkpt>
      <trkpt lat="42.58316157152247" lon="0.009586800033702936">
        <time>2021-03-18T10:18:13Z</time>
      </trkpt>
      <trkpt lat="42.58362505454682" lon="0.008429866773129735">
        <time>2021-03-18T10:18:13Z</time>
      </trkpt>
      <trkpt lat="42.58495442431637" lon="0.006961796868127923">
        <time>2021-03-18T10:18:13Z</time>
      </trkpt>
      <trkpt lat="42.58597340166816" lon="0.006661093068387469">
        <time>2021-03-18T10:18:13Z</time>
      </trkpt>
      <trkpt lat="42.58755520172331" lon="0.005639950115172709">
        <time>2021-03-18T10:18:13Z</time>
      </trkpt>
      <trkpt lat="42.5883925379475" lon="0.00635297761981235">
        <time>2021-03-18T10:18:13Z</time>
      </trkpt>
      <trkpt lat="42.59010652079218" lon="0.006471151328590885">
        <time>2021-03-18T10:18:13Z</time>
      </trkpt>
      <trkpt lat="42.59011075161585" lon="0.006752315820239829">
        <time>2021-03-18T10:18:13Z</time>
      </trkpt>
      <trkpt lat="42.58945313357091" lon="0.006985799113818914">
        <time>2021-03-18T10:18:13Z</time>
      </trkpt>
      <trkpt lat="42.58868810349308" lon="0.007896575128045757">
        <time>2021-03-18T10:18:13Z</time>
      </trkpt>
      <trkpt lat="42.58764931219353" lon="0.00761437780141927">
        <time>2021-03-18T10:18:13Z</time>
      </trkpt>
      <trkpt lat="42.5864594883038" lon="0.009914997933460068">
        <time>2021-03-18T10:18:13Z</time>
      </trkpt>
      <trkpt lat="42.58574896886874" lon="0.01237290498528942">
        <time>2021-03-18T10:18:13Z</time>
      </trkpt>
      <trkpt lat="42.58571417876588" lon="0.0128377632609622">
        <time>2021-03-18T10:18:13Z</time>
      </trkpt>
      <trkpt lat="42.58623550773193" lon="0.01217352232604663">
        <time>2021-03-18T10:18:13Z</time>
      </trkpt>
      <trkpt lat="42.58688317929124" lon="0.01097975083149017">
        <time>2021-03-18T10:18:13Z</time>
      </trkpt>
      <trkpt lat="42.58803483049398" lon="0.009800879076256042">
        <time>2021-03-18T10:18:13Z</time>
      </trkpt>
      <trkpt lat="42.58843840051035" lon="0.009665937501841526">
        <time>2021-03-18T10:18:13Z</time>
      </trkpt>
      <trkpt lat="42.58898414831742" lon="0.0105074797663951">
        <time>2021-03-18T10:18:13Z</time>
      </trkpt>
      <trkpt lat="42.58943692788294" lon="0.0100477135720789">
        <time>2021-03-18T10:18:13Z</time>
      </trkpt>
      <trkpt lat="42.59200886531797" lon="0.01126953458296498">
        <time>2021-03-18T10:18:13Z</time>
      </trkpt>
      <trkpt lat="42.59381505506804" lon="0.01304446166567441">
        <time>2021-03-18T10:18:13Z</time>
      </trkpt>
      <trkpt lat="42.59403772005334" lon="0.0132881205908908">
        <time>2021-03-18T10:18:13Z</time>
      </trkpt>
      <trkpt lat="42.59496445505161" lon="0.01344020614094443">
        <time>2021-03-18T10:18:13Z</time>
      </trkpt>
      <trkpt lat="42.59598401219007" lon="0.01453402274381732">
        <time>2021-03-18T10:18:13Z</time>
      </trkpt>
      <trkpt lat="42.59619024676949" lon="0.01354645936298526">
        <time>2021-03-18T10:18:13Z</time>
      </trkpt>
      <trkpt lat="42.59625952923243" lon="0.0131536957733136">
        <time>2021-03-18T10:18:13Z</time>
      </trkpt>
      <trkpt lat="42.59558725269893" lon="0.01015104608288686">
        <time>2021-03-18T10:18:13Z</time>
      </trkpt>
      <trkpt lat="42.59552704094507" lon="0.009229115127289411">
        <time>2021-03-18T10:18:13Z</time>
      </trkpt>
      <trkpt lat="42.59581859513893" lon="0.008291719520092666">
        <time>2021-03-18T10:18:13Z</time>
      </trkpt>
      <trkpt lat="42.5963298998587" lon="0.007588002016583051">
        <time>2021-03-18T10:18:13Z</time>
      </trkpt>
      <trkpt lat="42.59756983650148" lon="0.007243367354914376">
        <time>2021-03-18T10:18:13Z</time>
      </trkpt>
      <trkpt lat="42.59999204160647" lon="0.009153304877731472">
        <time>2021-03-18T10:18:13Z</time>
      </trkpt>
      <trkpt lat="42.60031084604336" lon="0.009769827413934618">
        <time>2021-03-18T10:18:13Z</time>
      </trkpt>
      <trkpt lat="42.6006149245128" lon="0.009794544643257908">
        <time>2021-03-18T10:18:13Z</time>
      </trkpt>
      <trkpt lat="42.60066093346202" lon="0.009790402445712942">
        <time>2021-03-18T10:18:13Z</time>
      </trkpt>
      <trkpt lat="42.6012722859112" lon="0.009736171350918088">
        <time>2021-03-18T10:18:13Z</time>
      </trkpt>
      <trkpt lat="42.60169215120214" lon="0.008842988565724852">
        <time>2021-03-18T10:18:13Z</time>
      </trkpt>
      <trkpt lat="42.60243774912421" lon="0.007955798149492654">
        <time>2021-03-18T10:18:13Z</time>
      </trkpt>
      <trkpt lat="42.60235009525625" lon="0.007324691001631134">
        <time>2021-03-18T10:18:13Z</time>
      </trkpt>
      <trkpt lat="42.60176058217692" lon="0.006154892203922291">
        <time>2021-03-18T10:18:13Z</time>
      </trkpt>
      <trkpt lat="42.6019578590397" lon="0.006046102539005727">
        <time>2021-03-18T10:18:13Z</time>
      </trkpt>
      <trkpt lat="42.60244345598317" lon="0.006365730413353532">
        <time>2021-03-18T10:18:13Z</time>
      </trkpt>
      <trkpt lat="42.60283390882761" lon="0.007457472536478438">
        <time>2021-03-18T10:18:13Z</time>
      </trkpt>
      <trkpt lat="42.6030974191935" lon="0.007532047798703978">
        <time>2021-03-18T10:18:13Z</time>
      </trkpt>
      <trkpt lat="42.60361451548339" lon="0.007272889554419404">
        <time>2021-03-18T10:18:13Z</time>
      </trkpt>
      <trkpt lat="42.60383150198789" lon="0.007566953817299549">
        <time>2021-03-18T10:18:13Z</time>
      </trkpt>
      <trkpt lat="42.60353296365119" lon="0.008392041332390132">
        <time>2021-03-18T10:18:13Z</time>
      </trkpt>
      <trkpt lat="42.60332367656648" lon="0.009648630757663756">
        <time>2021-03-18T10:18:13Z</time>
      </trkpt>
      <trkpt lat="42.60347663950559" lon="0.01102200663516628">
        <time>2021-03-18T10:18:13Z</time>
      </trkpt>
      <trkpt lat="42.60430106259799" lon="0.013432649806846">
        <time>2021-03-18T10:18:13Z</time>
      </trkpt>
      <trkpt lat="42.60476380757335" lon="0.01387855819088291">
        <time>2021-03-18T10:18:13Z</time>
      </trkpt>
      <trkpt lat="42.60488880726967" lon="0.01497841266419941">
        <time>2021-03-18T10:18:13Z</time>
      </trkpt>
      <trkpt lat="42.60527623468228" lon="0.01555708896038066">
        <time>2021-03-18T10:18:13Z</time>
      </trkpt>
      <trkpt lat="42.60576459175056" lon="0.01532237241731904">
        <time>2021-03-18T10:18:13Z</time>
      </trkpt>
      <trkpt lat="42.60634917983242" lon="0.01493191136261007">
        <time>2021-03-18T10:18:13Z</time>
      </trkpt>
      <trkpt lat="42.60620106820851" lon="0.01363578919629571">
        <time>2021-03-18T10:18:13Z</time>
      </trkpt>
      <trkpt lat="42.60621360732596" lon="0.01153174873765428">
        <time>2021-03-18T10:18:13Z</time>
      </trkpt>
      <trkpt lat="42.60657825693869" lon="0.01139858722277953">
        <time>2021-03-18T10:18:13Z</time>
      </trkpt>
      <trkpt lat="42.60743669763301" lon="0.01223329313696731">
        <time>2021-03-18T10:18:13Z</time>
      </trkpt>
      <trkpt lat="42.60853960034398" lon="0.01188114063672696">
        <time>2021-03-18T10:18:13Z</time>
      </trkpt>
      <trkpt lat="42.60939218768093" lon="0.0112968962203408">
        <time>2021-03-18T10:18:13Z</time>
      </trkpt>
      <trkpt lat="42.60966984208964" lon="0.01010183742469861">
        <time>2021-03-18T10:18:13Z</time>
      </trkpt>
      <trkpt lat="42.60962767324938" lon="0.009518941853627894">
        <time>2021-03-18T10:18:13Z</time>
      </trkpt>
      <trkpt lat="42.60974735783661" lon="0.007886212331804643">
        <time>2021-03-18T10:18:13Z</time>
      </trkpt>
      <trkpt lat="42.61057258444848" lon="0.006526589074944411">
        <time>2021-03-18T10:18:13Z</time>
      </trkpt>
      <trkpt lat="42.61111936985196" lon="0.004820417937771993">
        <time>2021-03-18T10:18:13Z</time>
      </trkpt>
      <trkpt lat="42.61190033244142" lon="0.003515754571390417">
        <time>2021-03-18T10:18:13Z</time>
      </trkpt>
      <trkpt lat="42.61332547168381" lon="0.002123593193192885">
        <time>2021-03-18T10:18:13Z</time>
      </trkpt>
      <trkpt lat="42.61371648877253" lon="0.001782580272511325">
        <time>2021-03-18T10:18:13Z</time>
      </trkpt>
      <trkpt lat="42.61518274574598" lon="-0.0005513356657116386">
        <time>2021-03-18T10:18:13Z</time>
      </trkpt>
      <trkpt lat="42.61575421408579" lon="-0.00147707074551473">
        <time>2021-03-18T10:18:13Z</time>
      </trkpt>
      <trkpt lat="42.61790678314456" lon="-0.002621549666808054">
        <time>2021-03-18T10:18:13Z</time>
      </trkpt>
      <trkpt lat="42.61940845915959" lon="-0.002357083533085502">
        <time>2021-03-18T10:18:13Z</time>
      </trkpt>
      <trkpt lat="42.61939556455085" lon="-0.002337338156571667">
        <time>2021-03-18T10:18:13Z</time>
      </trkpt>
      <trkpt lat="42.61969725816257" lon="-0.003142735614927172">
        <time>2021-03-18T10:18:13Z</time>
      </trkpt>
      <trkpt lat="42.61997366770239" lon="-0.003463159957156625">
        <time>2021-03-18T10:18:13Z</time>
      </trkpt>
      <trkpt lat="42.61995467294646" lon="-0.003497173659591235">
        <time>2021-03-18T10:18:13Z</time>
      </trkpt>
      <trkpt lat="42.62170406633143" lon="-0.004687132025075202">
        <time>2021-03-18T10:18:13Z</time>
      </trkpt>
      <trkpt lat="42.62277687373268" lon="-0.006104737753869216">
        <time>2021-03-18T10:18:13Z</time>
      </trkpt>
      <trkpt lat="42.62352509215564" lon="-0.01091389963978062">
        <time>2021-03-18T10:18:13Z</time>
      </trkpt>
      <trkpt lat="42.62680911815018" lon="-0.01696117381689288">
        <time>2021-03-18T10:18:13Z</time>
      </trkpt>
      <trkpt lat="42.62753140015745" lon="-0.02174543614721691">
        <time>2021-03-18T10:18:13Z</time>
      </trkpt>
      <trkpt lat="42.62877712055281" lon="-0.02693423640450776">
        <time>2021-03-18T10:18:13Z</time>
      </trkpt>
      <trkpt lat="42.62903535510025" lon="-0.03163351578202689">
        <time>2021-03-18T10:18:13Z</time>
      </trkpt>
      <trkpt lat="42.63101533670228" lon="-0.03465899467749001">
        <time>2021-03-18T10:18:13Z</time>
      </trkpt>
      <trkpt lat="42.63219307202653" lon="-0.03960208280209043">
        <time>2021-03-18T10:18:13Z</time>
      </trkpt>
      <trkpt lat="42.63275021856976" lon="-0.04245475019251765">
        <time>2021-03-18T10:18:13Z</time>
      </trkpt>
      <trkpt lat="42.63549105582986" lon="-0.04823107770197788">
        <time>2021-03-18T10:18:13Z</time>
      </trkpt>
      <trkpt lat="42.63712659148774" lon="-0.05128943356144222">
        <time>2021-03-18T10:18:13Z</time>
      </trkpt>
      <trkpt lat="42.63809747145761" lon="-0.0553679663846729">
        <time>2021-03-18T10:18:13Z</time>
      </trkpt>
      <trkpt lat="42.63863490337188" lon="-0.05777039447745547">
        <time>2021-03-18T10:18:13Z</time>
      </trkpt>
      <trkpt lat="42.63827015088771" lon="-0.05727190293459139">
        <time>2021-03-18T10:18:13Z</time>
      </trkpt>
      <trkpt lat="42.63801215381065" lon="-0.05776835399014635">
        <time>2021-03-18T10:18:13Z</time>
      </trkpt>
      <trkpt lat="42.63777372670644" lon="-0.06021164034792026">
        <time>2021-03-18T10:18:13Z</time>
      </trkpt>
      <trkpt lat="42.63575795428084" lon="-0.0609593352774207">
        <time>2021-03-18T10:18:13Z</time>
      </trkpt>
      <trkpt lat="42.6357181978165" lon="-0.06293781264999354">
        <time>2021-03-18T10:18:13Z</time>
      </trkpt>
      <trkpt lat="42.63546771379929" lon="-0.06413847358788582">
        <time>2021-03-18T10:18:13Z</time>
      </trkpt>
      <trkpt lat="42.63426945239146" lon="-0.06533166982777838">
        <time>2021-03-18T10:18:13Z</time>
      </trkpt>
      <trkpt lat="42.63302223547514" lon="-0.06631547413235017">
        <time>2021-03-18T10:18:13Z</time>
      </trkpt>
      <trkpt lat="42.63319809721124" lon="-0.0674878146915403">
        <time>2021-03-18T10:18:13Z</time>
      </trkpt>
      <trkpt lat="42.6321492433575" lon="-0.06779175383345493">
        <time>2021-03-18T10:18:13Z</time>
      </trkpt>
      <trkpt lat="42.63193393713938" lon="-0.06785046055744703">
        <time>2021-03-18T10:18:13Z</time>
      </trkpt>
      <trkpt lat="42.62968651348768" lon="-0.06717008011998704">
        <time>2021-03-18T10:18:13Z</time>
      </trkpt>
      <trkpt lat="42.62836983068009" lon="-0.06673640849771401">
        <time>2021-03-18T10:18:13Z</time>
      </trkpt>
      <trkpt lat="42.62543046218782" lon="-0.0664476613806575">
        <time>2021-03-18T10:18:13Z</time>
      </trkpt>
      <trkpt lat="42.62263645080324" lon="-0.0680903229358365">
        <time>2021-03-18T10:18:13Z</time>
      </trkpt>
      <trkpt lat="42.62175981576029" lon="-0.06815241024181296">
        <time>2021-03-18T10:18:13Z</time>
      </trkpt>
      <trkpt lat="42.62045836124228" lon="-0.0670926475093836">
        <time>2021-03-18T10:18:13Z</time>
      </trkpt>
      <trkpt lat="42.61956678601551" lon="-0.06665889017642201">
        <time>2021-03-18T10:18:13Z</time>
      </trkpt>
      <trkpt lat="42.61940989633347" lon="-0.06692511172309956">
        <time>2021-03-18T10:18:13Z</time>
      </trkpt>
      <trkpt lat="42.61940989633347" lon="-0.06692511172309956">
        <time>2021-03-18T10:18:29Z</time>
      </trkpt>
      <trkpt lat="42.61927521562812" lon="-0.06713778036917306">
        <time>2021-03-18T10:18:29Z</time>
      </trkpt>
      <trkpt lat="42.62001858686882" lon="-0.0679273338375086">
        <time>2021-03-18T10:18:29Z</time>
      </trkpt>
      <trkpt lat="42.61862430076542" lon="-0.06810707472467259">
        <time>2021-03-18T10:18:29Z</time>
      </trkpt>
      <trkpt lat="42.61807931100827" lon="-0.06787081472136136">
        <time>2021-03-18T10:18:29Z</time>
      </trkpt>
      <trkpt lat="42.61798117981346" lon="-0.06829649764928836">
        <time>2021-03-18T10:18:29Z</time>
      </trkpt>
      <trkpt lat="42.61950487167939" lon="-0.06898735009363999">
        <time>2021-03-18T10:18:29Z</time>
      </trkpt>
      <trkpt lat="42.62042364112932" lon="-0.06987015037787425">
        <time>2021-03-18T10:18:29Z</time>
      </trkpt>
      <trkpt lat="42.62078873624868" lon="-0.07320703536649931">
        <time>2021-03-18T10:18:29Z</time>
      </trkpt>
      <trkpt lat="42.61976637256905" lon="-0.0757193626874697">
        <time>2021-03-18T10:18:29Z</time>
      </trkpt>
      <trkpt lat="42.61906132374845" lon="-0.07745426044117765">
        <time>2021-03-18T10:18:29Z</time>
      </trkpt>
      <trkpt lat="42.61907120311638" lon="-0.07914354580383143">
        <time>2021-03-18T10:18:29Z</time>
      </trkpt>
      <trkpt lat="42.61883816847816" lon="-0.08172644516832084">
        <time>2021-03-18T10:18:29Z</time>
      </trkpt>
      <trkpt lat="42.61880884010221" lon="-0.08375518424877937">
        <time>2021-03-18T10:18:29Z</time>
      </trkpt>
      <trkpt lat="42.61884674193007" lon="-0.0838861641782318">
        <time>2021-03-18T10:18:29Z</time>
      </trkpt>
      <trkpt lat="42.61890749367979" lon="-0.08361400125929008">
        <time>2021-03-18T10:18:29Z</time>
      </trkpt>
      <trkpt lat="42.61899651750613" lon="-0.08398230898912451">
        <time>2021-03-18T10:18:29Z</time>
      </trkpt>
      <trkpt lat="42.61930036504574" lon="-0.08454419078724351">
        <time>2021-03-18T10:18:29Z</time>
      </trkpt>
      <trkpt lat="42.61992111886331" lon="-0.08511489487244339">
        <time>2021-03-18T10:18:29Z</time>
      </trkpt>
      <trkpt lat="42.61996811433323" lon="-0.08607946375044362">
        <time>2021-03-18T10:18:29Z</time>
      </trkpt>
      <trkpt lat="42.62018564944043" lon="-0.08734146408140075">
        <time>2021-03-18T10:18:29Z</time>
      </trkpt>
      <trkpt lat="42.61981246679621" lon="-0.08780735470342194">
        <time>2021-03-18T10:18:29Z</time>
      </trkpt>
      <trkpt lat="42.61966035966261" lon="-0.08788439519832547">
        <time>2021-03-18T10:18:29Z</time>
      </trkpt>
      <trkpt lat="42.61944542635931" lon="-0.0885675010170861">
        <time>2021-03-18T10:18:29Z</time>
      </trkpt>
      <trkpt lat="42.61937801159547" lon="-0.08874359472236359">
        <time>2021-03-18T10:18:29Z</time>
      </trkpt>
      <trkpt lat="42.61937551188965" lon="-0.08908287343621701">
        <time>2021-03-18T10:18:29Z</time>
      </trkpt>
      <trkpt lat="42.61930470030449" lon="-0.08953960780162529">
        <time>2021-03-18T10:18:29Z</time>
      </trkpt>
      <trkpt lat="42.61928046429037" lon="-0.09015516893487119">
        <time>2021-03-18T10:18:29Z</time>
      </trkpt>
      <trkpt lat="42.61919633630183" lon="-0.09036179642185171">
        <time>2021-03-18T10:18:29Z</time>
      </trkpt>
      <trkpt lat="42.6188675909076" lon="-0.09062927337894489">
        <time>2021-03-18T10:18:29Z</time>
      </trkpt>
      <trkpt lat="42.61875264916596" lon="-0.09081262475389762">
        <time>2021-03-18T10:18:29Z</time>
      </trkpt>
      <trkpt lat="42.61803556161069" lon="-0.09083936728810471">
        <time>2021-03-18T10:18:29Z</time>
      </trkpt>
      <trkpt lat="42.61774978502004" lon="-0.09111924843971941">
        <time>2021-03-18T10:18:29Z</time>
      </trkpt>
      <trkpt lat="42.61766689376513" lon="-0.09127725217825233">
        <time>2021-03-18T10:18:29Z</time>
      </trkpt>
      <trkpt lat="42.61759173337453" lon="-0.09134158670762615">
        <time>2021-03-18T10:18:29Z</time>
      </trkpt>
      <trkpt lat="42.61728950914102" lon="-0.09181320881345489">
        <time>2021-03-18T10:18:29Z</time>
      </trkpt>
      <trkpt lat="42.61718048587427" lon="-0.09186713133093605">
        <time>2021-03-18T10:18:29Z</time>
      </trkpt>
      <trkpt lat="42.61711375672802" lon="-0.09224193345480303">
        <time>2021-03-18T10:18:29Z</time>
      </trkpt>
      <trkpt lat="42.61683141497088" lon="-0.0924275740270275">
        <time>2021-03-18T10:18:29Z</time>
      </trkpt>
      <trkpt lat="42.61663187817082" lon="-0.09239683316611069">
        <time>2021-03-18T10:18:29Z</time>
      </trkpt>
      <trkpt lat="42.61648262787685" lon="-0.09251395588972033">
        <time>2021-03-18T10:18:29Z</time>
      </trkpt>
      <trkpt lat="42.61645671154559" lon="-0.09282006276234989">
        <time>2021-03-18T10:18:29Z</time>
      </trkpt>
      <trkpt lat="42.61625761157938" lon="-0.09332845846550586">
        <time>2021-03-18T10:18:29Z</time>
      </trkpt>
      <trkpt lat="42.6162374489361" lon="-0.0940340377156923">
        <time>2021-03-18T10:18:29Z</time>
      </trkpt>
      <trkpt lat="42.61623911346003" lon="-0.09452598726531924">
        <time>2021-03-18T10:18:29Z</time>
      </trkpt>
      <trkpt lat="42.61616052548059" lon="-0.09493416714974168">
        <time>2021-03-18T10:18:29Z</time>
      </trkpt>
      <trkpt lat="42.61622255113445" lon="-0.09575988445200467">
        <time>2021-03-18T10:18:29Z</time>
      </trkpt>
      <trkpt lat="42.61603674241642" lon="-0.0957793474715507">
        <time>2021-03-18T10:18:29Z</time>
      </trkpt>
      <trkpt lat="42.61550314451159" lon="-0.096330462239822">
        <time>2021-03-18T10:18:29Z</time>
      </trkpt>
      <trkpt lat="42.61511141741056" lon="-0.09627692865007087">
        <time>2021-03-18T10:18:29Z</time>
      </trkpt>
      <trkpt lat="42.61489075800898" lon="-0.09641853712883397">
        <time>2021-03-18T10:18:29Z</time>
      </trkpt>
      <trkpt lat="42.61460839250817" lon="-0.09665184038562757">
        <time>2021-03-18T10:18:29Z</time>
      </trkpt>
      <trkpt lat="42.61445114006418" lon="-0.09691566956184339">
        <time>2021-03-18T10:18:29Z</time>
      </trkpt>
      <trkpt lat="42.61491537873187" lon="-0.09680096191544196">
        <time>2021-03-18T10:18:29Z</time>
      </trkpt>
      <trkpt lat="42.61470933923564" lon="-0.09722444666745766">
        <time>2021-03-18T10:18:29Z</time>
      </trkpt>
      <trkpt lat="42.61397575221189" lon="-0.09791510747282461">
        <time>2021-03-18T10:18:29Z</time>
      </trkpt>
      <trkpt lat="42.61309462006278" lon="-0.09806717977411616">
        <time>2021-03-18T10:18:29Z</time>
      </trkpt>
      <trkpt lat="42.61234361519763" lon="-0.09859604081410733">
        <time>2021-03-18T10:18:29Z</time>
      </trkpt>
      <trkpt lat="42.61206891273201" lon="-0.09909764839447943">
        <time>2021-03-18T10:18:29Z</time>
      </trkpt>
      <trkpt lat="42.61133730759286" lon="-0.1001072957101024">
        <time>2021-03-18T10:18:29Z</time>
      </trkpt>
      <trkpt lat="42.61120594715211" lon="-0.101035522633377">
        <time>2021-03-18T10:18:29Z</time>
      </trkpt>
      <trkpt lat="42.6107044349251" lon="-0.1017217541421545">
        <time>2021-03-18T10:18:29Z</time>
      </trkpt>
      <trkpt lat="42.61001726466259" lon="-0.1021939565847119">
        <time>2021-03-18T10:18:29Z</time>
      </trkpt>
      <trkpt lat="42.6100122704831" lon="-0.1027388828282305">
        <time>2021-03-18T10:18:29Z</time>
      </trkpt>
      <trkpt lat="42.6098950456556" lon="-0.1028765778396734">
        <time>2021-03-18T10:18:29Z</time>
      </trkpt>
      <trkpt lat="42.60975597659125" lon="-0.1028434496316866">
        <time>2021-03-18T10:18:29Z</time>
      </trkpt>
      <trkpt lat="42.60951672706109" lon="-0.1035035921115068">
        <time>2021-03-18T10:18:29Z</time>
      </trkpt>
      <trkpt lat="42.60922229042746" lon="-0.1028948568622889">
        <time>2021-03-18T10:18:29Z</time>
      </trkpt>
      <trkpt lat="42.60908284734474" lon="-0.1031021763987572">
        <time>2021-03-18T10:18:29Z</time>
      </trkpt>
      <trkpt lat="42.60908921878228" lon="-0.1041560406211461">
        <time>2021-03-18T10:18:29Z</time>
      </trkpt>
      <trkpt lat="42.60887840868143" lon="-0.1043127486842022">
        <time>2021-03-18T10:18:29Z</time>
      </trkpt>
      <trkpt lat="42.60869409361063" lon="-0.104840168085365">
        <time>2021-03-18T10:18:29Z</time>
      </trkpt>
      <trkpt lat="42.60851046197335" lon="-0.1047456422610871">
        <time>2021-03-18T10:18:29Z</time>
      </trkpt>
      <trkpt lat="42.60822220117156" lon="-0.1048451485932811">
        <time>2021-03-18T10:18:29Z</time>
      </trkpt>
      <trkpt lat="42.60803434549014" lon="-0.1047388118247405">
        <time>2021-03-18T10:18:29Z</time>
      </trkpt>
      <trkpt lat="42.60744957719489" lon="-0.104612780718939">
        <time>2021-03-18T10:18:29Z</time>
      </trkpt>
      <trkpt lat="42.60717422189114" lon="-0.104948249392649">
        <time>2021-03-18T10:18:29Z</time>
      </trkpt>
      <trkpt lat="42.60711279027621" lon="-0.105736218861423">
        <time>2021-03-18T10:18:29Z</time>
      </trkpt>
      <trkpt lat="42.60685454264515" lon="-0.1064586595582484">
        <time>2021-03-18T10:18:29Z</time>
      </trkpt>
      <trkpt lat="42.60664605788141" lon="-0.1067361425860836">
        <time>2021-03-18T10:18:29Z</time>
      </trkpt>
      <trkpt lat="42.60640007582902" lon="-0.1075567424410306">
        <time>2021-03-18T10:18:29Z</time>
      </trkpt>
      <trkpt lat="42.60546583284905" lon="-0.1073524124246539">
        <time>2021-03-18T10:18:29Z</time>
      </trkpt>
      <trkpt lat="42.60501151907324" lon="-0.1084496500811172">
        <time>2021-03-18T10:18:29Z</time>
      </trkpt>
      <trkpt lat="42.60488308849998" lon="-0.1083557891017983">
        <time>2021-03-18T10:18:29Z</time>
      </trkpt>
      <trkpt lat="42.60469203585518" lon="-0.1084876100153531">
        <time>2021-03-18T10:18:29Z</time>
      </trkpt>
      <trkpt lat="42.60451614830775" lon="-0.1090670943611716">
        <time>2021-03-18T10:18:29Z</time>
      </trkpt>
      <trkpt lat="42.60441156631997" lon="-0.1091840342502037">
        <time>2021-03-18T10:18:29Z</time>
      </trkpt>
      <trkpt lat="42.60440126904989" lon="-0.1095725468337183">
        <time>2021-03-18T10:18:29Z</time>
      </trkpt>
      <trkpt lat="42.60421569960716" lon="-0.1095951605452117">
        <time>2021-03-18T10:18:29Z</time>
      </trkpt>
      <trkpt lat="42.60411830329385" lon="-0.1095387336359566">
        <time>2021-03-18T10:18:29Z</time>
      </trkpt>
      <trkpt lat="42.60402693535545" lon="-0.1098911074932196">
        <time>2021-03-18T10:18:29Z</time>
      </trkpt>
      <trkpt lat="42.60394086332666" lon="-0.1096431772575079">
        <time>2021-03-18T10:18:29Z</time>
      </trkpt>
      <trkpt lat="42.60366698301844" lon="-0.1101184656828547">
        <time>2021-03-18T10:18:29Z</time>
      </trkpt>
      <trkpt lat="42.60314553986163" lon="-0.1103598772090941">
        <time>2021-03-18T10:18:29Z</time>
      </trkpt>
      <trkpt lat="42.6029971768409" lon="-0.1104900448343427">
        <time>2021-03-18T10:18:29Z</time>
      </trkpt>
      <trkpt lat="42.60288161958363" lon="-0.110493520031193">
        <time>2021-03-18T10:18:29Z</time>
      </trkpt>
      <trkpt lat="42.60271916193092" lon="-0.1105585080348814">
        <time>2021-03-18T10:18:29Z</time>
      </trkpt>
      <trkpt lat="42.60272825778937" lon="-0.1102577479789513">
        <time>2021-03-18T10:18:29Z</time>
      </trkpt>
      <trkpt lat="42.60253077333734" lon="-0.1103366584341814">
        <time>2021-03-18T10:18:29Z</time>
      </trkpt>
      <trkpt lat="42.60257037408544" lon="-0.110106645076411">
        <time>2021-03-18T10:18:29Z</time>
      </trkpt>
      <trkpt lat="42.6023358760521" lon="-0.1101866589456213">
        <time>2021-03-18T10:18:29Z</time>
      </trkpt>
      <trkpt lat="42.60205346805722" lon="-0.1104192454871977">
        <time>2021-03-18T10:18:29Z</time>
      </trkpt>
      <trkpt lat="42.60190322908283" lon="-0.1106227315514063">
        <time>2021-03-18T10:18:29Z</time>
      </trkpt>
      <trkpt lat="42.60191078350032" lon="-0.1111560228488784">
        <time>2021-03-18T10:18:29Z</time>
      </trkpt>
      <trkpt lat="42.60179776419291" lon="-0.1109988100521875">
        <time>2021-03-18T10:18:29Z</time>
      </trkpt>
      <trkpt lat="42.60181061623745" lon="-0.1112135432629702">
        <time>2021-03-18T10:18:29Z</time>
      </trkpt>
      <trkpt lat="42.60212894524929" lon="-0.111680981431872">
        <time>2021-03-18T10:18:29Z</time>
      </trkpt>
      <trkpt lat="42.60188076505823" lon="-0.1117673234734185">
        <time>2021-03-18T10:18:29Z</time>
      </trkpt>
      <trkpt lat="42.60233203117198" lon="-0.1123451456759339">
        <time>2021-03-18T10:18:29Z</time>
      </trkpt>
      <trkpt lat="42.60239997661103" lon="-0.1125718535511566">
        <time>2021-03-18T10:18:29Z</time>
      </trkpt>
      <trkpt lat="42.60187020688778" lon="-0.1129334364809742">
        <time>2021-03-18T10:18:29Z</time>
      </trkpt>
      <trkpt lat="42.60093155833562" lon="-0.1122234056454174">
        <time>2021-03-18T10:18:29Z</time>
      </trkpt>
      <trkpt lat="42.60052513258597" lon="-0.1117800250159862">
        <time>2021-03-18T10:18:29Z</time>
      </trkpt>
      <trkpt lat="42.60024726827394" lon="-0.1117359425890574">
        <time>2021-03-18T10:18:29Z</time>
      </trkpt>
      <trkpt lat="42.59997217275859" lon="-0.1111045202133321">
        <time>2021-03-18T10:18:29Z</time>
      </trkpt>
      <trkpt lat="42.59964790079584" lon="-0.1102212654707468">
        <time>2021-03-18T10:18:29Z</time>
      </trkpt>
      <trkpt lat="42.59941402976118" lon="-0.1101623655119965">
        <time>2021-03-18T10:18:29Z</time>
      </trkpt>
      <trkpt lat="42.5994683608132" lon="-0.1103463214115696">
        <time>2021-03-18T10:18:29Z</time>
      </trkpt>
      <trkpt lat="42.59930506237082" lon="-0.1100287367706043">
        <time>2021-03-18T10:18:29Z</time>
      </trkpt>
      <trkpt lat="42.59927812106665" lon="-0.1103004114984885">
        <time>2021-03-18T10:18:29Z</time>
      </trkpt>
      <trkpt lat="42.59908840624442" lon="-0.1099788557797765">
        <time>2021-03-18T10:18:29Z</time>
      </trkpt>
      <trkpt lat="42.59926512335451" lon="-0.1096537456636482">
        <time>2021-03-18T10:18:29Z</time>
      </trkpt>
      <trkpt lat="42.59895155516586" lon="-0.1096871209852346">
        <time>2021-03-18T10:18:29Z</time>
      </trkpt>
      <trkpt lat="42.59885192651264" lon="-0.1102570439992168">
        <time>2021-03-18T10:18:29Z</time>
      </trkpt>
      <trkpt lat="42.59833802527229" lon="-0.1106795433738028">
        <time>2021-03-18T10:18:29Z</time>
      </trkpt>
      <trkpt lat="42.59832365958202" lon="-0.1110359576075493">
        <time>2021-03-18T10:18:29Z</time>
      </trkpt>
      <trkpt lat="42.59801639676046" lon="-0.1108762973195387">
        <time>2021-03-18T10:18:29Z</time>
      </trkpt>
      <trkpt lat="42.59898333795053" lon="-0.1130741360508791">
        <time>2021-03-18T10:18:29Z</time>
      </trkpt>
      <trkpt lat="42.59898293099335" lon="-0.1135000548406862">
        <time>2021-03-18T10:18:29Z</time>
      </trkpt>
      <trkpt lat="42.59960790941337" lon="-0.1147376463836725">
        <time>2021-03-18T10:18:29Z</time>
      </trkpt>
      <trkpt lat="42.60057100653171" lon="-0.1160881525101221">
        <time>2021-03-18T10:18:29Z</time>
      </trkpt>
      <trkpt lat="42.60129713035907" lon="-0.1176121408332098">
        <time>2021-03-18T10:18:29Z</time>
      </trkpt>
      <trkpt lat="42.60186547242001" lon="-0.1180740589675822">
        <time>2021-03-18T10:18:29Z</time>
      </trkpt>
      <trkpt lat="42.60181343153868" lon="-0.1183065600257882">
        <time>2021-03-18T10:18:29Z</time>
      </trkpt>
      <trkpt lat="42.60266924014637" lon="-0.1186919496614325">
        <time>2021-03-18T10:18:29Z</time>
      </trkpt>
      <trkpt lat="42.60272261276751" lon="-0.1188866525190191">
        <time>2021-03-18T10:18:29Z</time>
      </trkpt>
      <trkpt lat="42.60273158276326" lon="-0.1192804021597615">
        <time>2021-03-18T10:18:29Z</time>
      </trkpt>
      <trkpt lat="42.60349226181969" lon="-0.1198663531640087">
        <time>2021-03-18T10:18:29Z</time>
      </trkpt>
      <trkpt lat="42.6036182189761" lon="-0.1202960372866913">
        <time>2021-03-18T10:18:29Z</time>
      </trkpt>
      <trkpt lat="42.60391150723437" lon="-0.1204984550894905">
        <time>2021-03-18T10:18:29Z</time>
      </trkpt>
      <trkpt lat="42.60424682038727" lon="-0.1209273408577005">
        <time>2021-03-18T10:18:29Z</time>
      </trkpt>
      <trkpt lat="42.60438059161744" lon="-0.1214369450182107">
        <time>2021-03-18T10:18:29Z</time>
      </trkpt>
      <trkpt lat="42.6043907961856" lon="-0.1217438691145589">
        <time>2021-03-18T10:18:29Z</time>
      </trkpt>
      <trkpt lat="42.60417309948674" lon="-0.1216092668858759">
        <time>2021-03-18T10:18:29Z</time>
      </trkpt>
      <trkpt lat="42.60391990620389" lon="-0.1217861509251117">
        <time>2021-03-18T10:18:29Z</time>
      </trkpt>
      <trkpt lat="42.60489714803738" lon="-0.1235135015435429">
        <time>2021-03-18T10:18:29Z</time>
      </trkpt>
      <trkpt lat="42.60574148459028" lon="-0.1237898957873851">
        <time>2021-03-18T10:18:29Z</time>
      </trkpt>
      <trkpt lat="42.60686278251887" lon="-0.1231547480945749">
        <time>2021-03-18T10:18:29Z</time>
      </trkpt>
      <trkpt lat="42.60764920794849" lon="-0.122879828126764">
        <time>2021-03-18T10:18:29Z</time>
      </trkpt>
      <trkpt lat="42.6100993450669" lon="-0.123531470013345">
        <time>2021-03-18T10:18:29Z</time>
      </trkpt>
      <trkpt lat="42.6109767016959" lon="-0.1244306254868222">
        <time>2021-03-18T10:18:29Z</time>
      </trkpt>
      <trkpt lat="42.61142557182846" lon="-0.1244064238050535">
        <time>2021-03-18T10:18:29Z</time>
      </trkpt>
      <trkpt lat="42.61103426586599" lon="-0.1224995526853379">
        <time>2021-03-18T10:18:29Z</time>
      </trkpt>
      <trkpt lat="42.61111194230997" lon="-0.1200667007088629">
        <time>2021-03-18T10:18:29Z</time>
      </trkpt>
      <trkpt lat="42.61156428259378" lon="-0.1192373077745113">
        <time>2021-03-18T10:18:29Z</time>
      </trkpt>
      <trkpt lat="42.61222705099949" lon="-0.1196541175192001">
        <time>2021-03-18T10:18:29Z</time>
      </trkpt>
      <trkpt lat="42.6117456011009" lon="-0.1221081577019745">
        <time>2021-03-18T10:18:29Z</time>
      </trkpt>
      <trkpt lat="42.61233777482113" lon="-0.124080790831228">
        <time>2021-03-18T10:18:29Z</time>
      </trkpt>
      <trkpt lat="42.61299761438884" lon="-0.1250273364908006">
        <time>2021-03-18T10:18:29Z</time>
      </trkpt>
      <trkpt lat="42.61296221957164" lon="-0.1223657208005335">
        <time>2021-03-18T10:18:29Z</time>
      </trkpt>
      <trkpt lat="42.61284666837258" lon="-0.1207348042638923">
        <time>2021-03-18T10:18:29Z</time>
      </trkpt>
      <trkpt lat="42.61564597484255" lon="-0.1179983796850315">
        <time>2021-03-18T10:18:29Z</time>
      </trkpt>
      <trkpt lat="42.61437144977256" lon="-0.1210512360618665">
        <time>2021-03-18T10:18:29Z</time>
      </trkpt>
      <trkpt lat="42.6148111646193" lon="-0.1231077669657477">
        <time>2021-03-18T10:18:29Z</time>
      </trkpt>
      <trkpt lat="42.61372802230208" lon="-0.1218674138396991">
        <time>2021-03-18T10:18:29Z</time>
      </trkpt>
      <trkpt lat="42.6141293163826" lon="-0.1252005663454814">
        <time>2021-03-18T10:18:29Z</time>
      </trkpt>
      <trkpt lat="42.61386356840661" lon="-0.1284648704690783">
        <time>2021-03-18T10:18:29Z</time>
      </trkpt>
      <trkpt lat="42.61482237612921" lon="-0.1316758365439574">
        <time>2021-03-18T10:18:29Z</time>
      </trkpt>
      <trkpt lat="42.61515959381632" lon="-0.1343333732494445">
        <time>2021-03-18T10:18:29Z</time>
      </trkpt>
      <trkpt lat="42.61550027768737" lon="-0.1366593450431952">
        <time>2021-03-18T10:18:29Z</time>
      </trkpt>
      <trkpt lat="42.61502553474278" lon="-0.1375467313119716">
        <time>2021-03-18T10:18:29Z</time>
      </trkpt>
      <trkpt lat="42.61431445428221" lon="-0.1397712987045963">
        <time>2021-03-18T10:18:29Z</time>
      </trkpt>
      <trkpt lat="42.61518733488434" lon="-0.142657248588185">
        <time>2021-03-18T10:18:29Z</time>
      </trkpt>
      <trkpt lat="42.61408908237098" lon="-0.1426342747433385">
        <time>2021-03-18T10:18:29Z</time>
      </trkpt>
      <trkpt lat="42.61331029775873" lon="-0.1469747093398377">
        <time>2021-03-18T10:18:29Z</time>
      </trkpt>
      <trkpt lat="42.61235633875351" lon="-0.1495527743757197">
        <time>2021-03-18T10:18:29Z</time>
      </trkpt>
      <trkpt lat="42.61136069446174" lon="-0.1507317335369862">
        <time>2021-03-18T10:18:29Z</time>
      </trkpt>
      <trkpt lat="42.61135454086752" lon="-0.1517094414472786">
        <time>2021-03-18T10:18:29Z</time>
      </trkpt>
      <trkpt lat="42.61072788948271" lon="-0.1527366359280125">
        <time>2021-03-18T10:18:29Z</time>
      </trkpt>
      <trkpt lat="42.61069233459593" lon="-0.1534653401827701">
        <time>2021-03-18T10:18:29Z</time>
      </trkpt>
      <trkpt lat="42.6120450641015" lon="-0.1542829057273842">
        <time>2021-03-18T10:18:29Z</time>
      </trkpt>
      <trkpt lat="42.61508172038217" lon="-0.1543041247844557">
        <time>2021-03-18T10:18:29Z</time>
      </trkpt>
      <trkpt lat="42.61749047293456" lon="-0.1557407601998861">
        <time>2021-03-18T10:18:29Z</time>
      </trkpt>
      <trkpt lat="42.61697885623006" lon="-0.1575373778270561">
        <time>2021-03-18T10:18:29Z</time>
      </trkpt>
      <trkpt lat="42.61887724062462" lon="-0.1607842527568648">
        <time>2021-03-18T10:18:29Z</time>
      </trkpt>
      <trkpt lat="42.6191578616703" lon="-0.1638521204724619">
        <time>2021-03-18T10:18:29Z</time>
      </trkpt>
      <trkpt lat="42.62200785602264" lon="-0.1663787550550078">
        <time>2021-03-18T10:18:29Z</time>
      </trkpt>
      <trkpt lat="42.62238608252202" lon="-0.1673632557667315">
        <time>2021-03-18T10:18:29Z</time>
      </trkpt>
      <trkpt lat="42.62336710602238" lon="-0.1677387158608668">
        <time>2021-03-18T10:18:29Z</time>
      </trkpt>
      <trkpt lat="42.62324539000264" lon="-0.1693037587262103">
        <time>2021-03-18T10:18:29Z</time>
      </trkpt>
      <trkpt lat="42.61866298652437" lon="-0.1705172176430991">
        <time>2021-03-18T10:18:29Z</time>
      </trkpt>
      <trkpt lat="42.61919877813041" lon="-0.1745174111814207">
        <time>2021-03-18T10:18:29Z</time>
      </trkpt>
      <trkpt lat="42.61947404693554" lon="-0.1757210852427138">
        <time>2021-03-18T10:18:29Z</time>
      </trkpt>
      <trkpt lat="42.62048056956648" lon="-0.183016133014724">
        <time>2021-03-18T10:18:29Z</time>
      </trkpt>
      <trkpt lat="42.62086778737227" lon="-0.1844059188935443">
        <time>2021-03-18T10:18:29Z</time>
      </trkpt>
      <trkpt lat="42.62001758411105" lon="-0.187204019466487">
        <time>2021-03-18T10:18:29Z</time>
      </trkpt>
      <trkpt lat="42.61997874904188" lon="-0.1883871892198386">
        <time>2021-03-18T10:18:29Z</time>
      </trkpt>
      <trkpt lat="42.61979406739946" lon="-0.1891518205006804">
        <time>2021-03-18T10:18:29Z</time>
      </trkpt>
      <trkpt lat="42.61986484903093" lon="-0.1909564492658133">
        <time>2021-03-18T10:18:29Z</time>
      </trkpt>
      <trkpt lat="42.62230377585135" lon="-0.1936949238672059">
        <time>2021-03-18T10:18:29Z</time>
      </trkpt>
      <trkpt lat="42.62281887507357" lon="-0.1950253907789878">
        <time>2021-03-18T10:18:29Z</time>
      </trkpt>
      <trkpt lat="42.62190601935545" lon="-0.1954238179690282">
        <time>2021-03-18T10:18:29Z</time>
      </trkpt>
      <trkpt lat="42.61920398421577" lon="-0.1935667778936534">
        <time>2021-03-18T10:18:29Z</time>
      </trkpt>
      <trkpt lat="42.61871036794621" lon="-0.195730851327286">
        <time>2021-03-18T10:18:29Z</time>
      </trkpt>
      <trkpt lat="42.61888456495095" lon="-0.1979374991754224">
        <time>2021-03-18T10:18:29Z</time>
      </trkpt>
      <trkpt lat="42.61840225655173" lon="-0.1999106180357313">
        <time>2021-03-18T10:18:29Z</time>
      </trkpt>
      <trkpt lat="42.61669697064699" lon="-0.1977178604045116">
        <time>2021-03-18T10:18:29Z</time>
      </trkpt>
      <trkpt lat="42.61395659215496" lon="-0.2003109077842891">
        <time>2021-03-18T10:18:29Z</time>
      </trkpt>
      <trkpt lat="42.61286499497986" lon="-0.2014562301418332">
        <time>2021-03-18T10:18:29Z</time>
      </trkpt>
      <trkpt lat="42.61603843870632" lon="-0.2092410492070351">
        <time>2021-03-18T10:18:29Z</time>
      </trkpt>
      <trkpt lat="42.61617236825094" lon="-0.2099265862401756">
        <time>2021-03-18T10:18:29Z</time>
      </trkpt>
      <trkpt lat="42.61708746136861" lon="-0.2106143408888872">
        <time>2021-03-18T10:18:29Z</time>
      </trkpt>
      <trkpt lat="42.61744218859769" lon="-0.2144238186577618">
        <time>2021-03-18T10:18:29Z</time>
      </trkpt>
      <trkpt lat="42.61890410683209" lon="-0.2137403030644269">
        <time>2021-03-18T10:18:29Z</time>
      </trkpt>
      <trkpt lat="42.61961740923384" lon="-0.2144476247136884">
        <time>2021-03-18T10:18:29Z</time>
      </trkpt>
      <trkpt lat="42.61958460913006" lon="-0.2164268038747086">
        <time>2021-03-18T10:18:29Z</time>
      </trkpt>
      <trkpt lat="42.6188951475261" lon="-0.2176641215924424">
        <time>2021-03-18T10:18:29Z</time>
      </trkpt>
      <trkpt lat="42.61986112632064" lon="-0.2196917410338595">
        <time>2021-03-18T10:18:29Z</time>
      </trkpt>
      <trkpt lat="42.6209340156422" lon="-0.2197361177598833">
        <time>2021-03-18T10:18:29Z</time>
      </trkpt>
      <trkpt lat="42.62101710909697" lon="-0.2207725290272511">
        <time>2021-03-18T10:18:29Z</time>
      </trkpt>
      <trkpt lat="42.62176232935313" lon="-0.2211570705710286">
        <time>2021-03-18T10:18:29Z</time>
      </trkpt>
      <trkpt lat="42.62090221920735" lon="-0.2233657948563872">
        <time>2021-03-18T10:18:29Z</time>
      </trkpt>
      <trkpt lat="42.62112118378901" lon="-0.22381118895481">
        <time>2021-03-18T10:18:29Z</time>
      </trkpt>
      <trkpt lat="42.62130981219829" lon="-0.2252805625596299">
        <time>2021-03-18T10:18:29Z</time>
      </trkpt>
      <trkpt lat="42.62148366682152" lon="-0.2259062562318936">
        <time>2021-03-18T10:18:29Z</time>
      </trkpt>
      <trkpt lat="42.62262377663254" lon="-0.2263832615841011">
        <time>2021-03-18T10:18:29Z</time>
      </trkpt>
      <trkpt lat="42.62261539643083" lon="-0.2277293490988341">
        <time>2021-03-18T10:18:29Z</time>
      </trkpt>
      <trkpt lat="42.62251846469414" lon="-0.2287359956246704">
        <time>2021-03-18T10:18:29Z</time>
      </trkpt>
      <trkpt lat="42.62333340785409" lon="-0.2296146331590498">
        <time>2021-03-18T10:18:29Z</time>
      </trkpt>
      <trkpt lat="42.62351477237645" lon="-0.230555263015545">
        <time>2021-03-18T10:18:29Z</time>
      </trkpt>
      <trkpt lat="42.62444306479929" lon="-0.2340758061178772">
        <time>2021-03-18T10:18:29Z</time>
      </trkpt>
      <trkpt lat="42.62830583096451" lon="-0.2323729717999556">
        <time>2021-03-18T10:18:29Z</time>
      </trkpt>
      <trkpt lat="42.62852514651129" lon="-0.2315844461036876">
        <time>2021-03-18T10:18:29Z</time>
      </trkpt>
      <trkpt lat="42.62922836892309" lon="-0.2316593732634642">
        <time>2021-03-18T10:18:29Z</time>
      </trkpt>
      <trkpt lat="42.62895802943717" lon="-0.2325266456366515">
        <time>2021-03-18T10:18:29Z</time>
      </trkpt>
      <trkpt lat="42.62468178583807" lon="-0.2367723624259432">
        <time>2021-03-18T10:18:29Z</time>
      </trkpt>
      <trkpt lat="42.62281670621071" lon="-0.2376007128403646">
        <time>2021-03-18T10:18:29Z</time>
      </trkpt>
      <trkpt lat="42.62235932682873" lon="-0.2385804497902933">
        <time>2021-03-18T10:18:29Z</time>
      </trkpt>
      <trkpt lat="42.62270266445572" lon="-0.2397441750052354">
        <time>2021-03-18T10:18:29Z</time>
      </trkpt>
      <trkpt lat="42.62205980288878" lon="-0.2518460412235046">
        <time>2021-03-18T10:18:29Z</time>
      </trkpt>
      <trkpt lat="42.62432744023328" lon="-0.2550037513384118">
        <time>2021-03-18T10:18:29Z</time>
      </trkpt>
      <trkpt lat="42.62099703379651" lon="-0.2554778738275709">
        <time>2021-03-18T10:18:29Z</time>
      </trkpt>
      <trkpt lat="42.62130028014365" lon="-0.2583796451555442">
        <time>2021-03-18T10:18:29Z</time>
      </trkpt>
      <trkpt lat="42.62017461583992" lon="-0.2613953461782559">
        <time>2021-03-18T10:18:29Z</time>
      </trkpt>
      <trkpt lat="42.62010830084639" lon="-0.2632003367845059">
        <time>2021-03-18T10:18:29Z</time>
      </trkpt>
      <trkpt lat="42.62068934902655" lon="-0.264368504116882">
        <time>2021-03-18T10:18:29Z</time>
      </trkpt>
      <trkpt lat="42.61916573229245" lon="-0.2661364592282212">
        <time>2021-03-18T10:18:29Z</time>
      </trkpt>
      <trkpt lat="42.61913635297636" lon="-0.2682322201784837">
        <time>2021-03-18T10:18:29Z</time>
      </trkpt>
      <trkpt lat="42.6197539039509" lon="-0.2711036634913877">
        <time>2021-03-18T10:18:29Z</time>
      </trkpt>
      <trkpt lat="42.62151460809588" lon="-0.2723350041819184">
        <time>2021-03-18T10:18:29Z</time>
      </trkpt>
      <trkpt lat="42.6205445606502" lon="-0.2760399780501499">
        <time>2021-03-18T10:18:29Z</time>
      </trkpt>
      <trkpt lat="42.62093276603556" lon="-0.2790368985110059">
        <time>2021-03-18T10:18:29Z</time>
      </trkpt>
      <trkpt lat="42.62090586506491" lon="-0.2810423611370505">
        <time>2021-03-18T10:18:29Z</time>
      </trkpt>
      <trkpt lat="42.62036172210566" lon="-0.2825768078691771">
        <time>2021-03-18T10:18:29Z</time>
      </trkpt>
      <trkpt lat="42.61997154530911" lon="-0.2837518023230212">
        <time>2021-03-18T10:18:29Z</time>
      </trkpt>
      <trkpt lat="42.61961608587465" lon="-0.2856076163185783">
        <time>2021-03-18T10:18:29Z</time>
      </trkpt>
      <trkpt lat="42.61963475804341" lon="-0.2866533399179216">
        <time>2021-03-18T10:18:29Z</time>
      </trkpt>
      <trkpt lat="42.62045321902463" lon="-0.2905310758953417">
        <time>2021-03-18T10:18:29Z</time>
      </trkpt>
      <trkpt lat="42.62018815768553" lon="-0.2935178599535904">
        <time>2021-03-18T10:18:29Z</time>
      </trkpt>
      <trkpt lat="42.6197413321687" lon="-0.2982178653914014">
        <time>2021-03-18T10:18:29Z</time>
      </trkpt>
      <trkpt lat="42.62060700372808" lon="-0.3011495871520986">
        <time>2021-03-18T10:18:29Z</time>
      </trkpt>
      <trkpt lat="42.62081245677118" lon="-0.3032046927380161">
        <time>2021-03-18T10:18:29Z</time>
      </trkpt>
      <trkpt lat="42.62709221979203" lon="-0.3110686610096169">
        <time>2021-03-18T10:18:29Z</time>
      </trkpt>
      <trkpt lat="42.62802982517973" lon="-0.3123758516583919">
        <time>2021-03-18T10:18:29Z</time>
      </trkpt>
      <trkpt lat="42.6299677642041" lon="-0.3158752502069162">
        <time>2021-03-18T10:18:29Z</time>
      </trkpt>
      <trkpt lat="42.63108805793016" lon="-0.3200790218850635">
        <time>2021-03-18T10:18:29Z</time>
      </trkpt>
      <trkpt lat="42.63157629587559" lon="-0.322427433391772">
        <time>2021-03-18T10:18:29Z</time>
      </trkpt>
      <trkpt lat="42.62959250949717" lon="-0.3281782810520817">
        <time>2021-03-18T10:18:29Z</time>
      </trkpt>
      <trkpt lat="42.60250597310982" lon="-0.3279151198224839">
        <time>2021-03-18T10:18:29Z</time>
      </trkpt>
      <trkpt lat="42.59226494831097" lon="-0.3265554582077168">
        <time>2021-03-18T10:18:29Z</time>
      </trkpt>
      <trkpt lat="42.58252126426203" lon="-0.3272043662505864">
        <time>2021-03-18T10:18:29Z</time>
      </trkpt>
      <trkpt lat="42.57696297570655" lon="-0.3239372564839416">
        <time>2021-03-18T10:18:29Z</time>
      </trkpt>
      <trkpt lat="42.56952447853895" lon="-0.3259922215810684">
        <time>2021-03-18T10:18:29Z</time>
      </trkpt>
      <trkpt lat="42.56077056190647" lon="-0.3320264999427169">
        <time>2021-03-18T10:18:29Z</time>
      </trkpt>
      <trkpt lat="42.54941660272644" lon="-0.3463010419337997">
        <time>2021-03-18T10:18:29Z</time>
      </trkpt>
      <trkpt lat="42.54485082038834" lon="-0.3510462958371452">
        <time>2021-03-18T10:18:29Z</time>
      </trkpt>
      <trkpt lat="42.54192794926688" lon="-0.3523736788862619">
        <time>2021-03-18T10:18:29Z</time>
      </trkpt>
      <trkpt lat="42.53671699794857" lon="-0.3610371977767857">
        <time>2021-03-18T10:18:29Z</time>
      </trkpt>
      <trkpt lat="42.53758985026791" lon="-0.3660682950327188">
        <time>2021-03-18T10:18:29Z</time>
      </trkpt>
      <trkpt lat="42.53758768982304" lon="-0.3664637038103991">
        <time>2021-03-18T10:18:29Z</time>
      </trkpt>
      <trkpt lat="42.5365796218046" lon="-0.3692232310072985">
        <time>2021-03-18T10:18:29Z</time>
      </trkpt>
      <trkpt lat="42.5359446707966" lon="-0.3713770660063909">
        <time>2021-03-18T10:18:29Z</time>
      </trkpt>
      <trkpt lat="42.53595011175658" lon="-0.3721585575763176">
        <time>2021-03-18T10:18:29Z</time>
      </trkpt>
      <trkpt lat="42.53740498669457" lon="-0.3763675826420598">
        <time>2021-03-18T10:18:29Z</time>
      </trkpt>
      <trkpt lat="42.53705434582123" lon="-0.3815458438792541">
        <time>2021-03-18T10:18:29Z</time>
      </trkpt>
      <trkpt lat="42.5358233260414" lon="-0.3847999208115771">
        <time>2021-03-18T10:18:29Z</time>
      </trkpt>
      <trkpt lat="42.53574002283848" lon="-0.3872887008877735">
        <time>2021-03-18T10:18:29Z</time>
      </trkpt>
      <trkpt lat="42.54223642282838" lon="-0.4028397222378999">
        <time>2021-03-18T10:18:29Z</time>
      </trkpt>
      <trkpt lat="42.54544155597267" lon="-0.4155760689242938">
        <time>2021-03-18T10:18:29Z</time>
      </trkpt>
      <trkpt lat="42.55522800194167" lon="-0.4613106794783761">
        <time>2021-03-18T10:18:29Z</time>
      </trkpt>
      <trkpt lat="42.55559915120227" lon="-0.4798228900626911">
        <time>2021-03-18T10:18:29Z</time>
      </trkpt>
      <trkpt lat="42.55841127210958" lon="-0.4986067829980323">
        <time>2021-03-18T10:18:29Z</time>
      </trkpt>
      <trkpt lat="42.56567595073565" lon="-0.5114319856964744">
        <time>2021-03-18T10:18:29Z</time>
      </trkpt>
      <trkpt lat="42.56618327985523" lon="-0.535500241952529">
        <time>2021-03-18T10:18:29Z</time>
      </trkpt>
      <trkpt lat="42.56698565326983" lon="-0.5437019231788409">
        <time>2021-03-18T10:18:29Z</time>
      </trkpt>
      <trkpt lat="42.56646940698457" lon="-0.5447968932662417">
        <time>2021-03-18T10:18:29Z</time>
      </trkpt>
      <trkpt lat="42.5711979804119" lon="-0.542942451092121">
        <time>2021-03-18T10:18:29Z</time>
      </trkpt>
      <trkpt lat="42.57169307825917" lon="-0.5495374212707049">
        <time>2021-03-18T10:18:29Z</time>
      </trkpt>
      <trkpt lat="42.56969146250159" lon="-0.5513963979004965">
        <time>2021-03-18T10:18:29Z</time>
      </trkpt>
      <trkpt lat="42.57094662971174" lon="-0.5563380749113411">
        <time>2021-03-18T10:18:29Z</time>
      </trkpt>
      <trkpt lat="42.57295135608537" lon="-0.556490758661834">
        <time>2021-03-18T10:18:29Z</time>
      </trkpt>
      <trkpt lat="42.57449490733645" lon="-0.5625239270106008">
        <time>2021-03-18T10:18:29Z</time>
      </trkpt>
      <trkpt lat="42.57575818773975" lon="-0.5618196051595892">
        <time>2021-03-18T10:18:29Z</time>
      </trkpt>
      <trkpt lat="42.57500375281376" lon="-0.5635098615787981">
        <time>2021-03-18T10:18:29Z</time>
      </trkpt>
      <trkpt lat="42.57492154111204" lon="-0.5643993379322398">
        <time>2021-03-18T10:18:29Z</time>
      </trkpt>
      <trkpt lat="42.57559269602574" lon="-0.5661337991924165">
        <time>2021-03-18T10:18:29Z</time>
      </trkpt>
      <trkpt lat="42.57542096954714" lon="-0.5678883298978188">
        <time>2021-03-18T10:18:29Z</time>
      </trkpt>
      <trkpt lat="42.5763012375755" lon="-0.5689797722966383">
        <time>2021-03-18T10:18:29Z</time>
      </trkpt>
      <trkpt lat="42.57980252451765" lon="-0.5672188883952867">
        <time>2021-03-18T10:18:29Z</time>
      </trkpt>
      <trkpt lat="42.58283945685426" lon="-0.5669209466895497">
        <time>2021-03-18T10:18:29Z</time>
      </trkpt>
      <trkpt lat="42.58304549126117" lon="-0.571339437895545">
        <time>2021-03-18T10:18:29Z</time>
      </trkpt>
      <trkpt lat="42.58401325075727" lon="-0.5741828281257122">
        <time>2021-03-18T10:18:29Z</time>
      </trkpt>
      <trkpt lat="42.58459712642009" lon="-0.5793145456253823">
        <time>2021-03-18T10:18:29Z</time>
      </trkpt>
      <trkpt lat="42.5877576136936" lon="-0.5899906671314903">
        <time>2021-03-18T10:18:29Z</time>
      </trkpt>
      <trkpt lat="42.58724751995486" lon="-0.5914943594642297">
        <time>2021-03-18T10:18:29Z</time>
      </trkpt>
      <trkpt lat="42.58791699516947" lon="-0.5934129436586655">
        <time>2021-03-18T10:18:29Z</time>
      </trkpt>
      <trkpt lat="42.58878819559387" lon="-0.596106227339942">
        <time>2021-03-18T10:18:29Z</time>
      </trkpt>
      <trkpt lat="42.59097778418519" lon="-0.6062185955833077">
        <time>2021-03-18T10:18:29Z</time>
      </trkpt>
      <trkpt lat="42.59224851581273" lon="-0.6062674741989527">
        <time>2021-03-18T10:18:29Z</time>
      </trkpt>
      <trkpt lat="42.5967748119384" lon="-0.6082499346729342">
        <time>2021-03-18T10:18:29Z</time>
      </trkpt>
      <trkpt lat="42.59718965802203" lon="-0.6089619549985337">
        <time>2021-03-18T10:18:29Z</time>
      </trkpt>
      <trkpt lat="42.59787657370074" lon="-0.6086392508784577">
        <time>2021-03-18T10:18:29Z</time>
      </trkpt>
      <trkpt lat="42.59853184812259" lon="-0.6114687535962848">
        <time>2021-03-18T10:18:29Z</time>
      </trkpt>
      <trkpt lat="42.59815722154526" lon="-0.6114502642205044">
        <time>2021-03-18T10:18:29Z</time>
      </trkpt>
      <trkpt lat="42.59866581535902" lon="-0.6120831817767591">
        <time>2021-03-18T10:18:29Z</time>
      </trkpt>
      <trkpt lat="42.60066615782526" lon="-0.612921705479812">
        <time>2021-03-18T10:18:29Z</time>
      </trkpt>
      <trkpt lat="42.60235267113966" lon="-0.6129561963275398">
        <time>2021-03-18T10:18:29Z</time>
      </trkpt>
      <trkpt lat="42.60322421779246" lon="-0.6131892097957903">
        <time>2021-03-18T10:18:29Z</time>
      </trkpt>
      <trkpt lat="42.60374366418241" lon="-0.6136024396078787">
        <time>2021-03-18T10:18:29Z</time>
      </trkpt>
      <trkpt lat="42.60522764475466" lon="-0.6132976662716205">
        <time>2021-03-18T10:18:29Z</time>
      </trkpt>
      <trkpt lat="42.60674162613586" lon="-0.6119607027797447">
        <time>2021-03-18T10:18:29Z</time>
      </trkpt>
      <trkpt lat="42.60803868727631" lon="-0.6112242758083708">
        <time>2021-03-18T10:18:29Z</time>
      </trkpt>
      <trkpt lat="42.61022592392608" lon="-0.6111086132046561">
        <time>2021-03-18T10:18:29Z</time>
      </trkpt>
      <trkpt lat="42.61137675139578" lon="-0.6115756843368969">
        <time>2021-03-18T10:18:29Z</time>
      </trkpt>
      <trkpt lat="42.61546887269017" lon="-0.6105035015794991">
        <time>2021-03-18T10:18:29Z</time>
      </trkpt>
      <trkpt lat="42.61897812250024" lon="-0.6108760042465811">
        <time>2021-03-18T10:18:29Z</time>
      </trkpt>
      <trkpt lat="42.61980997247429" lon="-0.6090688504325881">
        <time>2021-03-18T10:18:29Z</time>
      </trkpt>
      <trkpt lat="42.62131304284897" lon="-0.6101271103795314">
        <time>2021-03-18T10:18:29Z</time>
      </trkpt>
      <trkpt lat="42.62271885602119" lon="-0.609536182675392">
        <time>2021-03-18T10:18:29Z</time>
      </trkpt>
      <trkpt lat="42.62399636538451" lon="-0.6104689792170703">
        <time>2021-03-18T10:18:29Z</time>
      </trkpt>
      <trkpt lat="42.62517339729704" lon="-0.6100798697077769">
        <time>2021-03-18T10:18:29Z</time>
      </trkpt>
      <trkpt lat="42.62492409498772" lon="-0.6071324433844694">
        <time>2021-03-18T10:18:29Z</time>
      </trkpt>
      <trkpt lat="42.62648869128142" lon="-0.602557304328053">
        <time>2021-03-18T10:18:29Z</time>
      </trkpt>
      <trkpt lat="42.62756650808066" lon="-0.6016549170586949">
        <time>2021-03-18T10:18:29Z</time>
      </trkpt>
      <trkpt lat="42.62961900267417" lon="-0.5969252236812272">
        <time>2021-03-18T10:18:29Z</time>
      </trkpt>
      <trkpt lat="42.6340746312747" lon="-0.5902129588439875">
        <time>2021-03-18T10:18:29Z</time>
      </trkpt>
      <trkpt lat="42.63874717529996" lon="-0.5834440436847343">
        <time>2021-03-18T10:18:29Z</time>
      </trkpt>
      <trkpt lat="42.6421511737497" lon="-0.57998761752179">
        <time>2021-03-18T10:18:29Z</time>
      </trkpt>
      <trkpt lat="42.64509416549232" lon="-0.5799060652842269">
        <time>2021-03-18T10:18:29Z</time>
      </trkpt>
      <trkpt lat="42.64795401632077" lon="-0.5797725588790059">
        <time>2021-03-18T10:18:29Z</time>
      </trkpt>
      <trkpt lat="42.64922377989915" lon="-0.5804967608128075">
        <time>2021-03-18T10:18:29Z</time>
      </trkpt>
      <trkpt lat="42.65325291019936" lon="-0.5834365955963583">
        <time>2021-03-18T10:18:29Z</time>
      </trkpt>
      <trkpt lat="42.65481147942608" lon="-0.5850154737393454">
        <time>2021-03-18T10:18:29Z</time>
      </trkpt>
      <trkpt lat="42.65782668250657" lon="-0.5871077775682787">
        <time>2021-03-18T10:18:29Z</time>
      </trkpt>
      <trkpt lat="42.65972142959443" lon="-0.5860335795598348">
        <time>2021-03-18T10:18:29Z</time>
      </trkpt>
      <trkpt lat="42.65919130920743" lon="-0.5883101459605289">
        <time>2021-03-18T10:18:29Z</time>
      </trkpt>
      <trkpt lat="42.66155439649521" lon="-0.5902497245477889">
        <time>2021-03-18T10:18:29Z</time>
      </trkpt>
      <trkpt lat="42.66167410556813" lon="-0.5916122675458879">
        <time>2021-03-18T10:18:29Z</time>
      </trkpt>
      <trkpt lat="42.66566058797574" lon="-0.5941373666140382">
        <time>2021-03-18T10:18:29Z</time>
      </trkpt>
      <trkpt lat="42.66682955752656" lon="-0.594222510234832">
        <time>2021-03-18T10:18:29Z</time>
      </trkpt>
      <trkpt lat="42.66676547672331" lon="-0.5949451265359584">
        <time>2021-03-18T10:18:29Z</time>
      </trkpt>
      <trkpt lat="42.66783148880777" lon="-0.5943271199630717">
        <time>2021-03-18T10:18:29Z</time>
      </trkpt>
      <trkpt lat="42.66886308458758" lon="-0.5941996533066818">
        <time>2021-03-18T10:18:29Z</time>
      </trkpt>
      <trkpt lat="42.6677961492634" lon="-0.5957304019646714">
        <time>2021-03-18T10:18:29Z</time>
      </trkpt>
      <trkpt lat="42.66869046297079" lon="-0.5957805774472602">
        <time>2021-03-18T10:18:29Z</time>
      </trkpt>
      <trkpt lat="42.66769002604814" lon="-0.5964938757524518">
        <time>2021-03-18T10:18:29Z</time>
      </trkpt>
      <trkpt lat="42.66851737002658" lon="-0.5967562125254766">
        <time>2021-03-18T10:18:29Z</time>
      </trkpt>
      <trkpt lat="42.66806056018012" lon="-0.5975072723009989">
        <time>2021-03-18T10:18:29Z</time>
      </trkpt>
      <trkpt lat="42.66731754889042" lon="-0.5976087325729329">
        <time>2021-03-18T10:18:29Z</time>
      </trkpt>
      <trkpt lat="42.66689279322114" lon="-0.5988574095275179">
        <time>2021-03-18T10:18:29Z</time>
      </trkpt>
      <trkpt lat="42.66535816379411" lon="-0.5988872630898201">
        <time>2021-03-18T10:18:29Z</time>
      </trkpt>
      <trkpt lat="42.66734826408732" lon="-0.6008612352081233">
        <time>2021-03-18T10:18:29Z</time>
      </trkpt>
      <trkpt lat="42.66871126452642" lon="-0.6011596635637106">
        <time>2021-03-18T10:18:29Z</time>
      </trkpt>
      <trkpt lat="42.66915823780157" lon="-0.6042220738249993">
        <time>2021-03-18T10:18:29Z</time>
      </trkpt>
      <trkpt lat="42.67009241804286" lon="-0.6052311090456874">
        <time>2021-03-18T10:18:29Z</time>
      </trkpt>
      <trkpt lat="42.67119696148357" lon="-0.6054323326619571">
        <time>2021-03-18T10:18:29Z</time>
      </trkpt>
      <trkpt lat="42.67191796049165" lon="-0.6064363110864235">
        <time>2021-03-18T10:18:29Z</time>
      </trkpt>
      <trkpt lat="42.67158138183654" lon="-0.6080775272448502">
        <time>2021-03-18T10:18:29Z</time>
      </trkpt>
      <trkpt lat="42.67187672615748" lon="-0.6089165396880314">
        <time>2021-03-18T10:18:29Z</time>
      </trkpt>
      <trkpt lat="42.67277949259269" lon="-0.6089989098508519">
        <time>2021-03-18T10:18:29Z</time>
      </trkpt>
      <trkpt lat="42.67325524369658" lon="-0.6105361995501402">
        <time>2021-03-18T10:18:29Z</time>
      </trkpt>
      <trkpt lat="42.67472547390299" lon="-0.6133158740063605">
        <time>2021-03-18T10:18:29Z</time>
      </trkpt>
      <trkpt lat="42.67352487515645" lon="-0.6151634771425352">
        <time>2021-03-18T10:18:29Z</time>
      </trkpt>
      <trkpt lat="42.67282672751362" lon="-0.616695703757012">
        <time>2021-03-18T10:18:29Z</time>
      </trkpt>
      <trkpt lat="42.67426369707933" lon="-0.6176920161096411">
        <time>2021-03-18T10:18:29Z</time>
      </trkpt>
      <trkpt lat="42.67573895728151" lon="-0.61741658857696">
        <time>2021-03-18T10:18:29Z</time>
      </trkpt>
      <trkpt lat="42.67644360869368" lon="-0.6164803353757731">
        <time>2021-03-18T10:18:29Z</time>
      </trkpt>
      <trkpt lat="42.67660756857676" lon="-0.6180386280730721">
        <time>2021-03-18T10:18:29Z</time>
      </trkpt>
      <trkpt lat="42.67760263067263" lon="-0.6158140229483">
        <time>2021-03-18T10:18:29Z</time>
      </trkpt>
      <trkpt lat="42.67878467018712" lon="-0.6182021951956185">
        <time>2021-03-18T10:18:29Z</time>
      </trkpt>
      <trkpt lat="42.67972817404025" lon="-0.6172360580107039">
        <time>2021-03-18T10:18:29Z</time>
      </trkpt>
      <trkpt lat="42.67995047579415" lon="-0.6203947464844051">
        <time>2021-03-18T10:18:29Z</time>
      </trkpt>
      <trkpt lat="42.68231233291925" lon="-0.6216161203464332">
        <time>2021-03-18T10:18:29Z</time>
      </trkpt>
      <trkpt lat="42.68383645626098" lon="-0.6211673528533668">
        <time>2021-03-18T10:18:29Z</time>
      </trkpt>
      <trkpt lat="42.68777485291572" lon="-0.6209222652627944">
        <time>2021-03-18T10:18:29Z</time>
      </trkpt>
      <trkpt lat="42.68838824582044" lon="-0.6215609796580579">
        <time>2021-03-18T10:18:29Z</time>
      </trkpt>
      <trkpt lat="42.69114966433405" lon="-0.6212261876378811">
        <time>2021-03-18T10:18:29Z</time>
      </trkpt>
      <trkpt lat="42.68854183210721" lon="-0.6236223325049939">
        <time>2021-03-18T10:18:29Z</time>
      </trkpt>
      <trkpt lat="42.68785799797921" lon="-0.625406609128385">
        <time>2021-03-18T10:18:29Z</time>
      </trkpt>
      <trkpt lat="42.68798898476127" lon="-0.6258429048293923">
        <time>2021-03-18T10:18:29Z</time>
      </trkpt>
      <trkpt lat="42.69022104229271" lon="-0.6242858827537412">
        <time>2021-03-18T10:18:29Z</time>
      </trkpt>
      <trkpt lat="42.6913375162645" lon="-0.6242777465244309">
        <time>2021-03-18T10:18:29Z</time>
      </trkpt>
      <trkpt lat="42.68946234986681" lon="-0.6260217448902028">
        <time>2021-03-18T10:18:29Z</time>
      </trkpt>
      <trkpt lat="42.6903998813204" lon="-0.6289184064067921">
        <time>2021-03-18T10:18:29Z</time>
      </trkpt>
      <trkpt lat="42.69078549586746" lon="-0.6263947248434254">
        <time>2021-03-18T10:18:29Z</time>
      </trkpt>
      <trkpt lat="42.69163558570451" lon="-0.6286566690747641">
        <time>2021-03-18T10:18:29Z</time>
      </trkpt>
      <trkpt lat="42.69115564129174" lon="-0.6301561526109523">
        <time>2021-03-18T10:18:29Z</time>
      </trkpt>
      <trkpt lat="42.69071108860877" lon="-0.6310198706717851">
        <time>2021-03-18T10:18:29Z</time>
      </trkpt>
      <trkpt lat="42.69035762976901" lon="-0.6339423837824099">
        <time>2021-03-18T10:18:29Z</time>
      </trkpt>
      <trkpt lat="42.69107470502689" lon="-0.6336237719522708">
        <time>2021-03-18T10:18:29Z</time>
      </trkpt>
      <trkpt lat="42.69172378070758" lon="-0.633081712724427">
        <time>2021-03-18T10:18:29Z</time>
      </trkpt>
      <trkpt lat="42.69305091219954" lon="-0.6331244976615202">
        <time>2021-03-18T10:18:29Z</time>
      </trkpt>
      <trkpt lat="42.69375070406318" lon="-0.6347331112231847">
        <time>2021-03-18T10:18:29Z</time>
      </trkpt>
      <trkpt lat="42.6929454643628" lon="-0.6341076494644093">
        <time>2021-03-18T10:18:29Z</time>
      </trkpt>
      <trkpt lat="42.69192741948442" lon="-0.6343749531582288">
        <time>2021-03-18T10:18:29Z</time>
      </trkpt>
      <trkpt lat="42.69080864599826" lon="-0.6363168959585142">
        <time>2021-03-18T10:18:29Z</time>
      </trkpt>
      <trkpt lat="42.69246222474219" lon="-0.6350980127136385">
        <time>2021-03-18T10:18:29Z</time>
      </trkpt>
      <trkpt lat="42.69404112677174" lon="-0.6363753568807473">
        <time>2021-03-18T10:18:29Z</time>
      </trkpt>
      <trkpt lat="42.69552917617318" lon="-0.6364659950658247">
        <time>2021-03-18T10:18:29Z</time>
      </trkpt>
      <trkpt lat="42.69626820236366" lon="-0.6354706104316676">
        <time>2021-03-18T10:18:29Z</time>
      </trkpt>
      <trkpt lat="42.69740291684955" lon="-0.6363490644158021">
        <time>2021-03-18T10:18:29Z</time>
      </trkpt>
      <trkpt lat="42.69769649779239" lon="-0.6372551497785417">
        <time>2021-03-18T10:18:29Z</time>
      </trkpt>
      <trkpt lat="42.69629211301635" lon="-0.6362357253941142">
        <time>2021-03-18T10:18:29Z</time>
      </trkpt>
      <trkpt lat="42.69752002627094" lon="-0.6386270892594426">
        <time>2021-03-18T10:18:29Z</time>
      </trkpt>
      <trkpt lat="42.69584051490185" lon="-0.6389577701794191">
        <time>2021-03-18T10:18:29Z</time>
      </trkpt>
      <trkpt lat="42.69494084708288" lon="-0.6414025502139653">
        <time>2021-03-18T10:18:29Z</time>
      </trkpt>
      <trkpt lat="42.69558177260676" lon="-0.645608848034378">
        <time>2021-03-18T10:18:29Z</time>
      </trkpt>
      <trkpt lat="42.69757974152323" lon="-0.6457976426718814">
        <time>2021-03-18T10:18:29Z</time>
      </trkpt>
      <trkpt lat="42.69679768200864" lon="-0.6470205770273341">
        <time>2021-03-18T10:18:29Z</time>
      </trkpt>
      <trkpt lat="42.69544242991648" lon="-0.6476897458584807">
        <time>2021-03-18T10:18:29Z</time>
      </trkpt>
      <trkpt lat="42.6958049192233" lon="-0.6489897161672198">
        <time>2021-03-18T10:18:29Z</time>
      </trkpt>
      <trkpt lat="42.69636099457718" lon="-0.6496810826826871">
        <time>2021-03-18T10:18:29Z</time>
      </trkpt>
      <trkpt lat="42.69695178467075" lon="-0.6518298491228069">
        <time>2021-03-18T10:18:29Z</time>
      </trkpt>
      <trkpt lat="42.69655937537684" lon="-0.6536602608623954">
        <time>2021-03-18T10:18:29Z</time>
      </trkpt>
      <trkpt lat="42.69661418636519" lon="-0.6549198351562113">
        <time>2021-03-18T10:18:29Z</time>
      </trkpt>
      <trkpt lat="42.69695045205701" lon="-0.655878419785475">
        <time>2021-03-18T10:18:29Z</time>
      </trkpt>
      <trkpt lat="42.69660998143622" lon="-0.6563024395144834">
        <time>2021-03-18T10:18:29Z</time>
      </trkpt>
      <trkpt lat="42.69587180313375" lon="-0.6587422963795375">
        <time>2021-03-18T10:18:29Z</time>
      </trkpt>
      <trkpt lat="42.69698656851666" lon="-0.6588208078295688">
        <time>2021-03-18T10:18:29Z</time>
      </trkpt>
      <trkpt lat="42.69593008191622" lon="-0.6603943603789497">
        <time>2021-03-18T10:18:29Z</time>
      </trkpt>
      <trkpt lat="42.69478137144304" lon="-0.6634812878481022">
        <time>2021-03-18T10:18:29Z</time>
      </trkpt>
      <trkpt lat="42.69438640409311" lon="-0.6643386377042315">
        <time>2021-03-18T10:18:29Z</time>
      </trkpt>
      <trkpt lat="42.6936402015338" lon="-0.6655392825115969">
        <time>2021-03-18T10:18:29Z</time>
      </trkpt>
      <trkpt lat="42.69415099645535" lon="-0.6669572800486068">
        <time>2021-03-18T10:18:29Z</time>
      </trkpt>
      <trkpt lat="42.69567926108371" lon="-0.6662439079853655">
        <time>2021-03-18T10:18:29Z</time>
      </trkpt>
      <trkpt lat="42.69939178821399" lon="-0.6692561569286049">
        <time>2021-03-18T10:18:29Z</time>
      </trkpt>
      <trkpt lat="42.70177712268924" lon="-0.6687385358644138">
        <time>2021-03-18T10:18:29Z</time>
      </trkpt>
      <trkpt lat="42.70288993645249" lon="-0.6691866340041974">
        <time>2021-03-18T10:18:29Z</time>
      </trkpt>
      <trkpt lat="42.70395556574199" lon="-0.6708364790501886">
        <time>2021-03-18T10:18:29Z</time>
      </trkpt>
      <trkpt lat="42.70550743464282" lon="-0.6701446026436719">
        <time>2021-03-18T10:18:29Z</time>
      </trkpt>
      <trkpt lat="42.70822973765491" lon="-0.669664145219836">
        <time>2021-03-18T10:18:29Z</time>
      </trkpt>
      <trkpt lat="42.71022950971285" lon="-0.6695259711462032">
        <time>2021-03-18T10:18:29Z</time>
      </trkpt>
      <trkpt lat="42.71119596253935" lon="-0.6685760463716228">
        <time>2021-03-18T10:18:29Z</time>
      </trkpt>
      <trkpt lat="42.71236098609269" lon="-0.6677313835258558">
        <time>2021-03-18T10:18:29Z</time>
      </trkpt>
      <trkpt lat="42.71312614967945" lon="-0.6681967980964187">
        <time>2021-03-18T10:18:29Z</time>
      </trkpt>
      <trkpt lat="42.71337367713304" lon="-0.6679039822188737">
        <time>2021-03-18T10:18:29Z</time>
      </trkpt>
      <trkpt lat="42.7132383368405" lon="-0.66759864946912">
        <time>2021-03-18T10:18:29Z</time>
      </trkpt>
      <trkpt lat="42.71325846959199" lon="-0.6673633454800865">
        <time>2021-03-18T10:18:29Z</time>
      </trkpt>
      <trkpt lat="42.71380198764877" lon="-0.6669075020672899">
        <time>2021-03-18T10:18:29Z</time>
      </trkpt>
      <trkpt lat="42.71438011308568" lon="-0.6665566502168774">
        <time>2021-03-18T10:18:29Z</time>
      </trkpt>
      <trkpt lat="42.71481073815832" lon="-0.6665546693087898">
        <time>2021-03-18T10:18:29Z</time>
      </trkpt>
      <trkpt lat="42.71552982727288" lon="-0.6665821200322142">
        <time>2021-03-18T10:18:29Z</time>
      </trkpt>
      <trkpt lat="42.71612229695669" lon="-0.666380307028116">
        <time>2021-03-18T10:18:29Z</time>
      </trkpt>
      <trkpt lat="42.71706743181342" lon="-0.6652671399732724">
        <time>2021-03-18T10:18:29Z</time>
      </trkpt>
      <trkpt lat="42.71765883038897" lon="-0.6648453261620924">
        <time>2021-03-18T10:18:29Z</time>
      </trkpt>
      <trkpt lat="42.71829939712954" lon="-0.6638788244469418">
        <time>2021-03-18T10:18:29Z</time>
      </trkpt>
      <trkpt lat="42.71832651387042" lon="-0.6635306148812503">
        <time>2021-03-18T10:18:29Z</time>
      </trkpt>
      <trkpt lat="42.71890809325547" lon="-0.663176876411804">
        <time>2021-03-18T10:18:29Z</time>
      </trkpt>
      <trkpt lat="42.72029142319805" lon="-0.6619736971892409">
        <time>2021-03-18T10:18:29Z</time>
      </trkpt>
      <trkpt lat="42.72159749464368" lon="-0.6616640859969269">
        <time>2021-03-18T10:18:29Z</time>
      </trkpt>
      <trkpt lat="42.72268093000822" lon="-0.6604474265999771">
        <time>2021-03-18T10:18:29Z</time>
      </trkpt>
      <trkpt lat="42.72178490451694" lon="-0.6609934263453732">
        <time>2021-03-18T10:18:43Z</time>
      </trkpt>
      <trkpt lat="42.71874097624053" lon="-0.6629071613914062">
        <time>2021-03-18T10:18:43Z</time>
      </trkpt>
      <trkpt lat="42.71774507765151" lon="-0.6647885682171084">
        <time>2021-03-18T10:18:43Z</time>
      </trkpt>
      <trkpt lat="42.71685479852301" lon="-0.6653612858587898">
        <time>2021-03-18T10:18:43Z</time>
      </trkpt>
      <trkpt lat="42.71631597190611" lon="-0.6663234699989729">
        <time>2021-03-18T10:18:43Z</time>
      </trkpt>
      <trkpt lat="42.71532235797424" lon="-0.6665504168769831">
        <time>2021-03-18T10:18:43Z</time>
      </trkpt>
      <trkpt lat="42.71421881191253" lon="-0.666541799886502">
        <time>2021-03-18T10:18:43Z</time>
      </trkpt>
      <trkpt lat="42.7131384986678" lon="-0.6673102424173694">
        <time>2021-03-18T10:18:43Z</time>
      </trkpt>
      <trkpt lat="42.71336974135846" lon="-0.6681693130216326">
        <time>2021-03-18T10:18:43Z</time>
      </trkpt>
      <trkpt lat="42.71315810091286" lon="-0.6682617877309227">
        <time>2021-03-18T10:18:43Z</time>
      </trkpt>
      <trkpt lat="42.71228564530138" lon="-0.6678025479525573">
        <time>2021-03-18T10:18:43Z</time>
      </trkpt>
      <trkpt lat="42.71113763245949" lon="-0.6686052863052472">
        <time>2021-03-18T10:18:43Z</time>
      </trkpt>
      <trkpt lat="42.71044159282359" lon="-0.6693253724645576">
        <time>2021-03-18T10:18:43Z</time>
      </trkpt>
      <trkpt lat="42.70979692821897" lon="-0.6696125812607234">
        <time>2021-03-18T10:18:43Z</time>
      </trkpt>
      <trkpt lat="42.70900968392793" lon="-0.6696232730530849">
        <time>2021-03-18T10:18:43Z</time>
      </trkpt>
      <trkpt lat="42.70797000576276" lon="-0.669839490113151">
        <time>2021-03-18T10:18:43Z</time>
      </trkpt>
      <trkpt lat="42.7070148568824" lon="-0.6705478081358063">
        <time>2021-03-18T10:18:43Z</time>
      </trkpt>
      <trkpt lat="42.7064203094799" lon="-0.6717185281516369">
        <time>2021-03-18T10:18:43Z</time>
      </trkpt>
      <trkpt lat="42.70669519000471" lon="-0.671805461972359">
        <time>2021-03-18T10:18:43Z</time>
      </trkpt>
      <trkpt lat="42.70704019697629" lon="-0.6719945038286579">
        <time>2021-03-18T10:18:43Z</time>
      </trkpt>
      <trkpt lat="42.70707482379073" lon="-0.6725835925249213">
        <time>2021-03-18T10:18:43Z</time>
      </trkpt>
      <trkpt lat="42.7072765060686" lon="-0.674895067304313">
        <time>2021-03-18T10:18:43Z</time>
      </trkpt>
      <trkpt lat="42.70760051490751" lon="-0.6766876802471489">
        <time>2021-03-18T10:18:43Z</time>
      </trkpt>
      <trkpt lat="42.70853877686706" lon="-0.6781373323356388">
        <time>2021-03-18T10:18:43Z</time>
      </trkpt>
      <trkpt lat="42.70917298095318" lon="-0.6776804884378074">
        <time>2021-03-18T10:18:43Z</time>
      </trkpt>
      <trkpt lat="42.70963601724806" lon="-0.6782111997602558">
        <time>2021-03-18T10:18:43Z</time>
      </trkpt>
      <trkpt lat="42.70936295899224" lon="-0.6799102227629539">
        <time>2021-03-18T10:18:43Z</time>
      </trkpt>
      <trkpt lat="42.70966202330965" lon="-0.6799329719232894">
        <time>2021-03-18T10:18:43Z</time>
      </trkpt>
      <trkpt lat="42.71061858636232" lon="-0.6823510577296776">
        <time>2021-03-18T10:18:43Z</time>
      </trkpt>
      <trkpt lat="42.71064587737841" lon="-0.6831487959005289">
        <time>2021-03-18T10:18:43Z</time>
      </trkpt>
      <trkpt lat="42.70993881990325" lon="-0.6832635553093047">
        <time>2021-03-18T10:18:43Z</time>
      </trkpt>
      <trkpt lat="42.70853045256837" lon="-0.6840634263059719">
        <time>2021-03-18T10:18:43Z</time>
      </trkpt>
      <trkpt lat="42.70805728669154" lon="-0.6841477393925244">
        <time>2021-03-18T10:18:43Z</time>
      </trkpt>
      <trkpt lat="42.70704645591457" lon="-0.6850475339966799">
        <time>2021-03-18T10:18:43Z</time>
      </trkpt>
      <trkpt lat="42.70601862572395" lon="-0.6852401699191135">
        <time>2021-03-18T10:18:43Z</time>
      </trkpt>
      <trkpt lat="42.70560839412849" lon="-0.6848635318835938">
        <time>2021-03-18T10:18:43Z</time>
      </trkpt>
      <trkpt lat="42.70554228615877" lon="-0.6853827430664916">
        <time>2021-03-18T10:18:43Z</time>
      </trkpt>
      <trkpt lat="42.70490674790227" lon="-0.6853390815768179">
        <time>2021-03-18T10:18:43Z</time>
      </trkpt>
      <trkpt lat="42.70481158096321" lon="-0.6862915117714397">
        <time>2021-03-18T10:18:43Z</time>
      </trkpt>
      <trkpt lat="42.70668293603096" lon="-0.6865781553333361">
        <time>2021-03-18T10:18:43Z</time>
      </trkpt>
      <trkpt lat="42.70760412752885" lon="-0.6864922920815175">
        <time>2021-03-18T10:18:43Z</time>
      </trkpt>
      <trkpt lat="42.70883623273699" lon="-0.6869194166662784">
        <time>2021-03-18T10:18:43Z</time>
      </trkpt>
      <trkpt lat="42.71036847263189" lon="-0.6867166185056139">
        <time>2021-03-18T10:18:43Z</time>
      </trkpt>
      <trkpt lat="42.70970625724605" lon="-0.6879610439699491">
        <time>2021-03-18T10:18:43Z</time>
      </trkpt>
      <trkpt lat="42.71049130290291" lon="-0.6872601305256743">
        <time>2021-03-18T10:18:43Z</time>
      </trkpt>
      <trkpt lat="42.71055200158764" lon="-0.6883241918083394">
        <time>2021-03-18T10:18:43Z</time>
      </trkpt>
      <trkpt lat="42.70958908006831" lon="-0.6886906814338367">
        <time>2021-03-18T10:18:43Z</time>
      </trkpt>
      <trkpt lat="42.71000209128495" lon="-0.689097476101298">
        <time>2021-03-18T10:18:43Z</time>
      </trkpt>
      <trkpt lat="42.71042089711633" lon="-0.6886765661679606">
        <time>2021-03-18T10:18:43Z</time>
      </trkpt>
      <trkpt lat="42.71064856946262" lon="-0.6890992350268632">
        <time>2021-03-18T10:18:43Z</time>
      </trkpt>
      <trkpt lat="42.71042607168246" lon="-0.6894876621284263">
        <time>2021-03-18T10:18:43Z</time>
      </trkpt>
      <trkpt lat="42.70869047037388" lon="-0.6889753995052761">
        <time>2021-03-18T10:18:43Z</time>
      </trkpt>
      <trkpt lat="42.70930161731035" lon="-0.6898814359878958">
        <time>2021-03-18T10:18:43Z</time>
      </trkpt>
      <trkpt lat="42.7110741356025" lon="-0.6900893681057496">
        <time>2021-03-18T10:18:43Z</time>
      </trkpt>
      <trkpt lat="42.71064525247842" lon="-0.6908630532047966">
        <time>2021-03-18T10:18:43Z</time>
      </trkpt>
      <trkpt lat="42.70927351267024" lon="-0.6908830324665216">
        <time>2021-03-18T10:18:43Z</time>
      </trkpt>
      <trkpt lat="42.7106900870761" lon="-0.6916598920570782">
        <time>2021-03-18T10:18:43Z</time>
      </trkpt>
      <trkpt lat="42.71174070889997" lon="-0.691327579669051">
        <time>2021-03-18T10:18:43Z</time>
      </trkpt>
      <trkpt lat="42.71083004946871" lon="-0.6933611909848847">
        <time>2021-03-18T10:18:43Z</time>
      </trkpt>
      <trkpt lat="42.71072634686548" lon="-0.6966804938165094">
        <time>2021-03-18T10:18:43Z</time>
      </trkpt>
      <trkpt lat="42.71069915174935" lon="-0.6966112686783676">
        <time>2021-03-18T10:18:43Z</time>
      </trkpt>
      <trkpt lat="42.7107052493464" lon="-0.6968136598659369">
        <time>2021-03-18T10:18:43Z</time>
      </trkpt>
      <trkpt lat="42.71080881781785" lon="-0.697860812129647">
        <time>2021-03-18T10:18:43Z</time>
      </trkpt>
      <trkpt lat="42.71143814159853" lon="-0.6994068477314075">
        <time>2021-03-18T10:18:43Z</time>
      </trkpt>
      <trkpt lat="42.71075901877307" lon="-0.7025321810738716">
        <time>2021-03-18T10:18:43Z</time>
      </trkpt>
      <trkpt lat="42.71058787577488" lon="-0.7029518336529283">
        <time>2021-03-18T10:18:43Z</time>
      </trkpt>
      <trkpt lat="42.70813009706892" lon="-0.7054012225785433">
        <time>2021-03-18T10:18:43Z</time>
      </trkpt>
      <trkpt lat="42.7047478264204" lon="-0.7089545627253357">
        <time>2021-03-18T10:18:43Z</time>
      </trkpt>
      <trkpt lat="42.70337072596788" lon="-0.7098153204059376">
        <time>2021-03-18T10:18:43Z</time>
      </trkpt>
      <trkpt lat="42.70300445717602" lon="-0.7111799411121922">
        <time>2021-03-18T10:18:43Z</time>
      </trkpt>
      <trkpt lat="42.70229903567862" lon="-0.7113747829512451">
        <time>2021-03-18T10:18:43Z</time>
      </trkpt>
      <trkpt lat="42.70135732466206" lon="-0.7117972400246086">
        <time>2021-03-18T10:18:43Z</time>
      </trkpt>
      <trkpt lat="42.7010534527819" lon="-0.7126078608362341">
        <time>2021-03-18T10:18:43Z</time>
      </trkpt>
      <trkpt lat="42.70063520142965" lon="-0.7131237732042706">
        <time>2021-03-18T10:18:43Z</time>
      </trkpt>
      <trkpt lat="42.69980354589836" lon="-0.7127740501070989">
        <time>2021-03-18T10:18:43Z</time>
      </trkpt>
      <trkpt lat="42.6997676309516" lon="-0.7136801843591212">
        <time>2021-03-18T10:18:43Z</time>
      </trkpt>
      <trkpt lat="42.69910419046818" lon="-0.7141229914162428">
        <time>2021-03-18T10:18:43Z</time>
      </trkpt>
      <trkpt lat="42.69854972415711" lon="-0.7137519448275387">
        <time>2021-03-18T10:18:43Z</time>
      </trkpt>
      <trkpt lat="42.69808386463251" lon="-0.7144077184543296">
        <time>2021-03-18T10:18:43Z</time>
      </trkpt>
      <trkpt lat="42.69805405402387" lon="-0.7148656137108811">
        <time>2021-03-18T10:18:43Z</time>
      </trkpt>
      <trkpt lat="42.69970992866008" lon="-0.7149985154913918">
        <time>2021-03-18T10:18:43Z</time>
      </trkpt>
      <trkpt lat="42.70075326562029" lon="-0.7155689125296938">
        <time>2021-03-18T10:18:43Z</time>
      </trkpt>
      <trkpt lat="42.70201182871796" lon="-0.715539103317635">
        <time>2021-03-18T10:18:43Z</time>
      </trkpt>
      <trkpt lat="42.70336354371096" lon="-0.7160815483478788">
        <time>2021-03-18T10:18:43Z</time>
      </trkpt>
      <trkpt lat="42.70471384330305" lon="-0.7162042761044263">
        <time>2021-03-18T10:18:43Z</time>
      </trkpt>
      <trkpt lat="42.7102754987517" lon="-0.7142609072506956">
        <time>2021-03-18T10:18:43Z</time>
      </trkpt>
      <trkpt lat="42.71136821335989" lon="-0.7144992488858737">
        <time>2021-03-18T10:18:43Z</time>
      </trkpt>
      <trkpt lat="42.7125336409366" lon="-0.7155340187196824">
        <time>2021-03-18T10:18:43Z</time>
      </trkpt>
      <trkpt lat="42.71313840563818" lon="-0.7171134946461621">
        <time>2021-03-18T10:18:43Z</time>
      </trkpt>
      <trkpt lat="42.71373639605205" lon="-0.7179892373398944">
        <time>2021-03-18T10:18:43Z</time>
      </trkpt>
      <trkpt lat="42.71496125700147" lon="-0.7184531055018561">
        <time>2021-03-18T10:18:43Z</time>
      </trkpt>
      <trkpt lat="42.71560605634619" lon="-0.7198188270573525">
        <time>2021-03-18T10:18:43Z</time>
      </trkpt>
      <trkpt lat="42.71673893606933" lon="-0.7204918230774748">
        <time>2021-03-18T10:18:43Z</time>
      </trkpt>
      <trkpt lat="42.71557496499565" lon="-0.720389319929905">
        <time>2021-03-18T10:18:43Z</time>
      </trkpt>
      <trkpt lat="42.71498292633921" lon="-0.7207523127621973">
        <time>2021-03-18T10:18:43Z</time>
      </trkpt>
      <trkpt lat="42.71479194972571" lon="-0.721398768718613">
        <time>2021-03-18T10:18:43Z</time>
      </trkpt>
      <trkpt lat="42.71481257620299" lon="-0.7215987237725274">
        <time>2021-03-18T10:18:43Z</time>
      </trkpt>
      <trkpt lat="42.71522648574067" lon="-0.7216013626109652">
        <time>2021-03-18T10:18:43Z</time>
      </trkpt>
      <trkpt lat="42.7154481169804" lon="-0.7219902189500738">
        <time>2021-03-18T10:18:43Z</time>
      </trkpt>
      <trkpt lat="42.71598893472412" lon="-0.722263664359879">
        <time>2021-03-18T10:18:43Z</time>
      </trkpt>
      <trkpt lat="42.71725761466651" lon="-0.7230893131581995">
        <time>2021-03-18T10:18:43Z</time>
      </trkpt>
      <trkpt lat="42.71776560392454" lon="-0.7255897231794928">
        <time>2021-03-18T10:18:43Z</time>
      </trkpt>
      <trkpt lat="42.71878773422985" lon="-0.7272760089524">
        <time>2021-03-18T10:18:43Z</time>
      </trkpt>
      <trkpt lat="42.72095229604802" lon="-0.72755766159316">
        <time>2021-03-18T10:18:43Z</time>
      </trkpt>
      <trkpt lat="42.72152561117164" lon="-0.728306112261452">
        <time>2021-03-18T10:18:43Z</time>
      </trkpt>
      <trkpt lat="42.72131909085721" lon="-0.7291352857841049">
        <time>2021-03-18T10:18:43Z</time>
      </trkpt>
      <trkpt lat="42.72120670905101" lon="-0.7296038864319998">
        <time>2021-03-18T10:18:43Z</time>
      </trkpt>
      <trkpt lat="42.72170204034345" lon="-0.7303245134311631">
        <time>2021-03-18T10:18:43Z</time>
      </trkpt>
      <trkpt lat="42.72195331526982" lon="-0.730982713797953">
        <time>2021-03-18T10:18:43Z</time>
      </trkpt>
      <trkpt lat="42.72250450062898" lon="-0.7310477885614308">
        <time>2021-03-18T10:18:43Z</time>
      </trkpt>
      <trkpt lat="42.72442667540567" lon="-0.7307749936993513">
        <time>2021-03-18T10:18:43Z</time>
      </trkpt>
      <trkpt lat="42.72468533524185" lon="-0.7313621815804094">
        <time>2021-03-18T10:18:43Z</time>
      </trkpt>
      <trkpt lat="42.72455939425998" lon="-0.7322344610197984">
        <time>2021-03-18T10:18:43Z</time>
      </trkpt>
      <trkpt lat="42.72521911236095" lon="-0.7329902137620958">
        <time>2021-03-18T10:18:43Z</time>
      </trkpt>
      <trkpt lat="42.72540503804891" lon="-0.7352072938380338">
        <time>2021-03-18T10:18:43Z</time>
      </trkpt>
      <trkpt lat="42.72544445903096" lon="-0.7357644831433585">
        <time>2021-03-18T10:18:43Z</time>
      </trkpt>
      <trkpt lat="42.72566496300633" lon="-0.7360026822761068">
        <time>2021-03-18T10:18:43Z</time>
      </trkpt>
      <trkpt lat="42.72618741506698" lon="-0.7362999275834747">
        <time>2021-03-18T10:18:43Z</time>
      </trkpt>
      <trkpt lat="42.72666063870271" lon="-0.7369451589638198">
        <time>2021-03-18T10:18:43Z</time>
      </trkpt>
      <trkpt lat="42.72806119495384" lon="-0.7387572131174369">
        <time>2021-03-18T10:18:43Z</time>
      </trkpt>
      <trkpt lat="42.72841169620652" lon="-0.7389428830303812">
        <time>2021-03-18T10:18:43Z</time>
      </trkpt>
      <trkpt lat="42.72839223900042" lon="-0.7385718324509294">
        <time>2021-03-18T10:18:43Z</time>
      </trkpt>
      <trkpt lat="42.72910366334924" lon="-0.7388684488556174">
        <time>2021-03-18T10:18:43Z</time>
      </trkpt>
      <trkpt lat="42.72940948831359" lon="-0.7386935677742912">
        <time>2021-03-18T10:18:43Z</time>
      </trkpt>
      <trkpt lat="42.72989006231653" lon="-0.739199399213416">
        <time>2021-03-18T10:18:43Z</time>
      </trkpt>
      <trkpt lat="42.7303067399621" lon="-0.7392963008720033">
        <time>2021-03-18T10:18:43Z</time>
      </trkpt>
      <trkpt lat="42.73097247376321" lon="-0.738739634950295">
        <time>2021-03-18T10:18:43Z</time>
      </trkpt>
      <trkpt lat="42.7314678873044" lon="-0.7388788762220877">
        <time>2021-03-18T10:18:43Z</time>
      </trkpt>
      <trkpt lat="42.73189156535921" lon="-0.7392593036837503">
        <time>2021-03-18T10:18:43Z</time>
      </trkpt>
      <trkpt lat="42.73238974044321" lon="-0.7402513094473639">
        <time>2021-03-18T10:18:43Z</time>
      </trkpt>
      <trkpt lat="42.73335597702891" lon="-0.7407388652978564">
        <time>2021-03-18T10:18:43Z</time>
      </trkpt>
      <trkpt lat="42.73393518561899" lon="-0.7416663270755441">
        <time>2021-03-18T10:18:43Z</time>
      </trkpt>
      <trkpt lat="42.73543626219817" lon="-0.7428480877257815">
        <time>2021-03-18T10:18:43Z</time>
      </trkpt>
      <trkpt lat="42.73573591719114" lon="-0.7443337201666189">
        <time>2021-03-18T10:18:43Z</time>
      </trkpt>
      <trkpt lat="42.73613108480768" lon="-0.7446073782592555">
        <time>2021-03-18T10:18:43Z</time>
      </trkpt>
      <trkpt lat="42.73625354681251" lon="-0.7452701382410609">
        <time>2021-03-18T10:18:43Z</time>
      </trkpt>
      <trkpt lat="42.73599620086175" lon="-0.7460569220489355">
        <time>2021-03-18T10:18:43Z</time>
      </trkpt>
      <trkpt lat="42.73857981772861" lon="-0.7487313834022857">
        <time>2021-03-18T10:18:43Z</time>
      </trkpt>
      <trkpt lat="42.73849970951289" lon="-0.7517288721751791">
        <time>2021-03-18T10:18:43Z</time>
      </trkpt>
      <trkpt lat="42.73597994085736" lon="-0.7516981391587574">
        <time>2021-03-18T10:18:43Z</time>
      </trkpt>
      <trkpt lat="42.73577070008344" lon="-0.7531300899918758">
        <time>2021-03-18T10:18:43Z</time>
      </trkpt>
      <trkpt lat="42.73520950302787" lon="-0.7547057900619381">
        <time>2021-03-18T10:18:43Z</time>
      </trkpt>
      <trkpt lat="42.73791152303465" lon="-0.7632548149687379">
        <time>2021-03-18T10:18:43Z</time>
      </trkpt>
      <trkpt lat="42.73839341195651" lon="-0.7646086014609865">
        <time>2021-03-18T10:18:43Z</time>
      </trkpt>
      <trkpt lat="42.73880505562865" lon="-0.7692572459838665">
        <time>2021-03-18T10:18:43Z</time>
      </trkpt>
      <trkpt lat="42.73884197518251" lon="-0.7702318492920734">
        <time>2021-03-18T10:18:43Z</time>
      </trkpt>
      <trkpt lat="42.73987310605441" lon="-0.7731505208984235">
        <time>2021-03-18T10:18:43Z</time>
      </trkpt>
      <trkpt lat="42.74030846311915" lon="-0.7743854448373921">
        <time>2021-03-18T10:18:43Z</time>
      </trkpt>
      <trkpt lat="42.74102297275145" lon="-0.7757128317187134">
        <time>2021-03-18T10:18:43Z</time>
      </trkpt>
      <trkpt lat="42.74196858709749" lon="-0.7760736001193869">
        <time>2021-03-18T10:18:43Z</time>
      </trkpt>
      <trkpt lat="42.74350443716168" lon="-0.776894270430265">
        <time>2021-03-18T10:18:43Z</time>
      </trkpt>
      <trkpt lat="42.74450163540607" lon="-0.7775210681235034">
        <time>2021-03-18T10:18:43Z</time>
      </trkpt>
      <trkpt lat="42.7460781669869" lon="-0.7773043640063526">
        <time>2021-03-18T10:18:43Z</time>
      </trkpt>
      <trkpt lat="42.74848235974272" lon="-0.775884763704342">
        <time>2021-03-18T10:18:43Z</time>
      </trkpt>
      <trkpt lat="42.74800486721099" lon="-0.7770099375605688">
        <time>2021-03-18T10:18:43Z</time>
      </trkpt>
      <trkpt lat="42.74831237707992" lon="-0.7776371013023586">
        <time>2021-03-18T10:18:43Z</time>
      </trkpt>
      <trkpt lat="42.74784937555837" lon="-0.7779023188346945">
        <time>2021-03-18T10:18:43Z</time>
      </trkpt>
      <trkpt lat="42.74755098960929" lon="-0.7778540711217596">
        <time>2021-03-18T10:18:43Z</time>
      </trkpt>
      <trkpt lat="42.74695847527666" lon="-0.7780856236322553">
        <time>2021-03-18T10:18:43Z</time>
      </trkpt>
      <trkpt lat="42.74781606878717" lon="-0.7807747425729794">
        <time>2021-03-18T10:18:43Z</time>
      </trkpt>
      <trkpt lat="42.74601796479769" lon="-0.7804062573915516">
        <time>2021-03-18T10:18:43Z</time>
      </trkpt>
      <trkpt lat="42.74565879028851" lon="-0.7798284222300822">
        <time>2021-03-18T10:18:43Z</time>
      </trkpt>
      <trkpt lat="42.74500450229536" lon="-0.7812456653087463">
        <time>2021-03-18T10:18:43Z</time>
      </trkpt>
      <trkpt lat="42.74436729649789" lon="-0.7803696113517788">
        <time>2021-03-18T10:18:43Z</time>
      </trkpt>
      <trkpt lat="42.7448007581129" lon="-0.7820390525146592">
        <time>2021-03-18T10:18:43Z</time>
      </trkpt>
      <trkpt lat="42.74420261397864" lon="-0.7829023613537256">
        <time>2021-03-18T10:18:43Z</time>
      </trkpt>
      <trkpt lat="42.74300888355631" lon="-0.7828548314550787">
        <time>2021-03-18T10:18:43Z</time>
      </trkpt>
      <trkpt lat="42.74204244161388" lon="-0.7820825625378336">
        <time>2021-03-18T10:18:43Z</time>
      </trkpt>
      <trkpt lat="42.7414617645874" lon="-0.7835749319628815">
        <time>2021-03-18T10:18:43Z</time>
      </trkpt>
      <trkpt lat="42.74052010292175" lon="-0.7843845484702072">
        <time>2021-03-18T10:18:43Z</time>
      </trkpt>
      <trkpt lat="42.74310365099851" lon="-0.7836461162882358">
        <time>2021-03-18T10:18:43Z</time>
      </trkpt>
      <trkpt lat="42.74417966599904" lon="-0.783970067620775">
        <time>2021-03-18T10:18:43Z</time>
      </trkpt>
      <trkpt lat="42.74522441503529" lon="-0.7831467193244734">
        <time>2021-03-18T10:18:43Z</time>
      </trkpt>
      <trkpt lat="42.74591686202607" lon="-0.7841104234021323">
        <time>2021-03-18T10:18:43Z</time>
      </trkpt>
      <trkpt lat="42.74681931153361" lon="-0.7852980864042669">
        <time>2021-03-18T10:18:43Z</time>
      </trkpt>
      <trkpt lat="42.74952710691886" lon="-0.7817909455994665">
        <time>2021-03-18T10:18:43Z</time>
      </trkpt>
      <trkpt lat="42.75095649535368" lon="-0.7815163198272734">
        <time>2021-03-18T10:18:43Z</time>
      </trkpt>
      <trkpt lat="42.75168127425918" lon="-0.7800452911026923">
        <time>2021-03-18T10:18:43Z</time>
      </trkpt>
      <trkpt lat="42.75177669783943" lon="-0.7818351822197533">
        <time>2021-03-18T10:18:43Z</time>
      </trkpt>
      <trkpt lat="42.75228382134308" lon="-0.7813393338201136">
        <time>2021-03-18T10:18:43Z</time>
      </trkpt>
      <trkpt lat="42.7533792624303" lon="-0.7810735898724763">
        <time>2021-03-18T10:18:43Z</time>
      </trkpt>
      <trkpt lat="42.75407412061902" lon="-0.780225281106004">
        <time>2021-03-18T10:18:43Z</time>
      </trkpt>
      <trkpt lat="42.75531438836021" lon="-0.7797721671805835">
        <time>2021-03-18T10:18:43Z</time>
      </trkpt>
      <trkpt lat="42.75633594796111" lon="-0.7794105834022247">
        <time>2021-03-18T10:18:43Z</time>
      </trkpt>
      <trkpt lat="42.75717650356541" lon="-0.78041964346655">
        <time>2021-03-18T10:18:43Z</time>
      </trkpt>
      <trkpt lat="42.75733172598441" lon="-0.7810463405968604">
        <time>2021-03-18T10:18:43Z</time>
      </trkpt>
      <trkpt lat="42.75726159749852" lon="-0.7813430175795211">
        <time>2021-03-18T10:18:43Z</time>
      </trkpt>
      <trkpt lat="42.7583012655878" lon="-0.7818132079623497">
        <time>2021-03-18T10:18:43Z</time>
      </trkpt>
      <trkpt lat="42.75866957131328" lon="-0.7825959058905896">
        <time>2021-03-18T10:18:43Z</time>
      </trkpt>
      <trkpt lat="42.75756488173624" lon="-0.7850407712472751">
        <time>2021-03-18T10:18:43Z</time>
      </trkpt>
      <trkpt lat="42.7579591541591" lon="-0.7854040042592136">
        <time>2021-03-18T10:18:43Z</time>
      </trkpt>
      <trkpt lat="42.75909388823077" lon="-0.7853540963808736">
        <time>2021-03-18T10:18:43Z</time>
      </trkpt>
      <trkpt lat="42.75931215613974" lon="-0.7860834816716289">
        <time>2021-03-18T10:18:43Z</time>
      </trkpt>
      <trkpt lat="42.75878144535847" lon="-0.7874505493860895">
        <time>2021-03-18T10:18:43Z</time>
      </trkpt>
      <trkpt lat="42.75913502004355" lon="-0.7878825355821439">
        <time>2021-03-18T10:18:43Z</time>
      </trkpt>
      <trkpt lat="42.76129425614166" lon="-0.7869112585546079">
        <time>2021-03-18T10:18:43Z</time>
      </trkpt>
      <trkpt lat="42.76162631173168" lon="-0.7882866806689104">
        <time>2021-03-18T10:18:43Z</time>
      </trkpt>
      <trkpt lat="42.76090204207818" lon="-0.7892508256958164">
        <time>2021-03-18T10:18:43Z</time>
      </trkpt>
      <trkpt lat="42.76082608456033" lon="-0.7896683454735876">
        <time>2021-03-18T10:18:43Z</time>
      </trkpt>
      <trkpt lat="42.7609054084569" lon="-0.790060737578866">
        <time>2021-03-18T10:18:43Z</time>
      </trkpt>
      <trkpt lat="42.76286383835092" lon="-0.7893195426225652">
        <time>2021-03-18T10:18:43Z</time>
      </trkpt>
      <trkpt lat="42.76344359963085" lon="-0.7895032229056986">
        <time>2021-03-18T10:18:43Z</time>
      </trkpt>
      <trkpt lat="42.76233456717593" lon="-0.7933094720105971">
        <time>2021-03-18T10:18:43Z</time>
      </trkpt>
      <trkpt lat="42.76248848360552" lon="-0.7942414134802622">
        <time>2021-03-18T10:18:43Z</time>
      </trkpt>
      <trkpt lat="42.76423062565048" lon="-0.7938941260764676">
        <time>2021-03-18T10:18:43Z</time>
      </trkpt>
      <trkpt lat="42.76382912661282" lon="-0.7955195467204079">
        <time>2021-03-18T10:18:43Z</time>
      </trkpt>
      <trkpt lat="42.76374974766725" lon="-0.7976379594615235">
        <time>2021-03-18T10:18:43Z</time>
      </trkpt>
      <trkpt lat="42.76141389004382" lon="-0.7994394831785778">
        <time>2021-03-18T10:18:43Z</time>
      </trkpt>
      <trkpt lat="42.75935819807638" lon="-0.8027649779114543">
        <time>2021-03-18T10:18:43Z</time>
      </trkpt>
      <trkpt lat="42.7591482897718" lon="-0.8034124372719398">
        <time>2021-03-18T10:18:43Z</time>
      </trkpt>
      <trkpt lat="42.75918914319674" lon="-0.8053013649860241">
        <time>2021-03-18T10:18:43Z</time>
      </trkpt>
      <trkpt lat="42.75781223407704" lon="-0.8050136065512237">
        <time>2021-03-18T10:18:43Z</time>
      </trkpt>
      <trkpt lat="42.7572030435947" lon="-0.805417289135234">
        <time>2021-03-18T10:18:43Z</time>
      </trkpt>
      <trkpt lat="42.75699235625243" lon="-0.8062577141010541">
        <time>2021-03-18T10:18:43Z</time>
      </trkpt>
      <trkpt lat="42.75651204573543" lon="-0.8092544378351452">
        <time>2021-03-18T10:18:43Z</time>
      </trkpt>
      <trkpt lat="42.75621961995734" lon="-0.8098042699246633">
        <time>2021-03-18T10:18:43Z</time>
      </trkpt>
      <trkpt lat="42.7563473777466" lon="-0.8122069898980755">
        <time>2021-03-18T10:18:43Z</time>
      </trkpt>
      <trkpt lat="42.75638261431332" lon="-0.8136305503130437">
        <time>2021-03-18T10:18:43Z</time>
      </trkpt>
      <trkpt lat="42.75556451854472" lon="-0.8153011956585876">
        <time>2021-03-18T10:18:43Z</time>
      </trkpt>
      <trkpt lat="42.75546882338558" lon="-0.8158473210408246">
        <time>2021-03-18T10:18:43Z</time>
      </trkpt>
      <trkpt lat="42.755484577772" lon="-0.8165921359739536">
        <time>2021-03-18T10:18:43Z</time>
      </trkpt>
      <trkpt lat="42.75566543075875" lon="-0.8185269151744456">
        <time>2021-03-18T10:18:43Z</time>
      </trkpt>
      <trkpt lat="42.75556622393683" lon="-0.8192421700510621">
        <time>2021-03-18T10:18:43Z</time>
      </trkpt>
      <trkpt lat="42.75575650926164" lon="-0.8201796050602705">
        <time>2021-03-18T10:18:43Z</time>
      </trkpt>
      <trkpt lat="42.75531320975813" lon="-0.8228868001933776">
        <time>2021-03-18T10:18:43Z</time>
      </trkpt>
      <trkpt lat="42.75491459809656" lon="-0.8244215628611418">
        <time>2021-03-18T10:18:43Z</time>
      </trkpt>
      <trkpt lat="42.75483100042781" lon="-0.8250079889415274">
        <time>2021-03-18T10:18:43Z</time>
      </trkpt>
      <trkpt lat="42.75508659772497" lon="-0.8251913518557996">
        <time>2021-03-18T10:18:43Z</time>
      </trkpt>
      <trkpt lat="42.75508895885299" lon="-0.8254789957803088">
        <time>2021-03-18T10:18:43Z</time>
      </trkpt>
      <trkpt lat="42.75658681006701" lon="-0.8243236349206051">
        <time>2021-03-18T10:18:43Z</time>
      </trkpt>
      <trkpt lat="42.75651166349299" lon="-0.8249393122132631">
        <time>2021-03-18T10:18:43Z</time>
      </trkpt>
      <trkpt lat="42.75695030901152" lon="-0.8245718028501814">
        <time>2021-03-18T10:18:43Z</time>
      </trkpt>
      <trkpt lat="42.75719015261545" lon="-0.825032279691329">
        <time>2021-03-18T10:18:43Z</time>
      </trkpt>
      <trkpt lat="42.75682155179629" lon="-0.8264543384649359">
        <time>2021-03-18T10:18:43Z</time>
      </trkpt>
      <trkpt lat="42.75702426975711" lon="-0.8277452152154186">
        <time>2021-03-18T10:18:43Z</time>
      </trkpt>
      <trkpt lat="42.75750318945255" lon="-0.828387352163743">
        <time>2021-03-18T10:18:43Z</time>
      </trkpt>
      <trkpt lat="42.75852316861133" lon="-0.8286423208824711">
        <time>2021-03-18T10:18:43Z</time>
      </trkpt>
      <trkpt lat="42.75901346182305" lon="-0.8285792850773055">
        <time>2021-03-18T10:18:43Z</time>
      </trkpt>
      <trkpt lat="42.76033477987027" lon="-0.8291754000323937">
        <time>2021-03-18T10:18:43Z</time>
      </trkpt>
      <trkpt lat="42.762378727124" lon="-0.8292784646465168">
        <time>2021-03-18T10:18:43Z</time>
      </trkpt>
      <trkpt lat="42.76403390055653" lon="-0.8294468138625744">
        <time>2021-03-18T10:18:43Z</time>
      </trkpt>
      <trkpt lat="42.76490879660514" lon="-0.8292489382966117">
        <time>2021-03-18T10:18:43Z</time>
      </trkpt>
      <trkpt lat="42.76593536601161" lon="-0.829520079624102">
        <time>2021-03-18T10:18:43Z</time>
      </trkpt>
      <trkpt lat="42.76866360717695" lon="-0.8285852548497719">
        <time>2021-03-18T10:18:43Z</time>
      </trkpt>
      <trkpt lat="42.77049070846213" lon="-0.8286726643981313">
        <time>2021-03-18T10:18:43Z</time>
      </trkpt>
      <trkpt lat="42.77250795213483" lon="-0.8272718861962591">
        <time>2021-03-18T10:18:43Z</time>
      </trkpt>
      <trkpt lat="42.77496382455962" lon="-0.8273260167063734">
        <time>2021-03-18T10:18:43Z</time>
      </trkpt>
      <trkpt lat="42.77786942489919" lon="-0.8257329893415521">
        <time>2021-03-18T10:18:43Z</time>
      </trkpt>
      <trkpt lat="42.7785424259945" lon="-0.8250604387550298">
        <time>2021-03-18T10:18:43Z</time>
      </trkpt>
      <trkpt lat="42.77949214064545" lon="-0.8246263467825221">
        <time>2021-03-18T10:18:43Z</time>
      </trkpt>
      <trkpt lat="42.78047649805942" lon="-0.8254413670831906">
        <time>2021-03-18T10:18:43Z</time>
      </trkpt>
      <trkpt lat="42.78298758809765" lon="-0.8252548328175369">
        <time>2021-03-18T10:18:43Z</time>
      </trkpt>
      <trkpt lat="42.78527320150634" lon="-0.8263561767214023">
        <time>2021-03-18T10:18:43Z</time>
      </trkpt>
      <trkpt lat="42.7861220238495" lon="-0.8260931757545475">
        <time>2021-03-18T10:18:43Z</time>
      </trkpt>
      <trkpt lat="42.78665514437903" lon="-0.82558653889795">
        <time>2021-03-18T10:18:43Z</time>
      </trkpt>
      <trkpt lat="42.78755234159099" lon="-0.8255910549517909">
        <time>2021-03-18T10:18:43Z</time>
      </trkpt>
      <trkpt lat="42.78895457586282" lon="-0.8274755144486889">
        <time>2021-03-18T10:18:43Z</time>
      </trkpt>
      <trkpt lat="42.79089860845053" lon="-0.8274974328186879">
        <time>2021-03-18T10:18:43Z</time>
      </trkpt>
      <trkpt lat="42.79790641477437" lon="-0.8320324312732019">
        <time>2021-03-18T10:18:43Z</time>
      </trkpt>
      <trkpt lat="42.80019109276461" lon="-0.8315171375314356">
        <time>2021-03-18T10:18:43Z</time>
      </trkpt>
      <trkpt lat="42.80088351603728" lon="-0.8319062348476525">
        <time>2021-03-18T10:18:43Z</time>
      </trkpt>
      <trkpt lat="42.80219177574403" lon="-0.8326070693877641">
        <time>2021-03-18T10:18:43Z</time>
      </trkpt>
      <trkpt lat="42.80303812659364" lon="-0.8326594888083882">
        <time>2021-03-18T10:18:43Z</time>
      </trkpt>
      <trkpt lat="42.80483958981419" lon="-0.8328240364596029">
        <time>2021-03-18T10:18:43Z</time>
      </trkpt>
      <trkpt lat="42.80513888074692" lon="-0.8328630760431488">
        <time>2021-03-18T10:18:43Z</time>
      </trkpt>
      <trkpt lat="42.80698881243102" lon="-0.8328134879606686">
        <time>2021-03-18T10:18:43Z</time>
      </trkpt>
      <trkpt lat="42.8080682110379" lon="-0.8315285198310784">
        <time>2021-03-18T10:18:43Z</time>
      </trkpt>
      <trkpt lat="42.80998307794969" lon="-0.8332352313764091">
        <time>2021-03-18T10:18:43Z</time>
      </trkpt>
      <trkpt lat="42.81448195866267" lon="-0.830680230347981">
        <time>2021-03-18T10:18:43Z</time>
      </trkpt>
      <trkpt lat="42.81600976494369" lon="-0.8318011235798128">
        <time>2021-03-18T10:18:43Z</time>
      </trkpt>
      <trkpt lat="42.81770989425512" lon="-0.8303908615793443">
        <time>2021-03-18T10:18:43Z</time>
      </trkpt>
      <trkpt lat="42.81972095349247" lon="-0.8304939743752859">
        <time>2021-03-18T10:18:43Z</time>
      </trkpt>
      <trkpt lat="42.82102638132225" lon="-0.8299778751931153">
        <time>2021-03-18T10:18:43Z</time>
      </trkpt>
      <trkpt lat="42.82222472191239" lon="-0.8311096550861197">
        <time>2021-03-18T10:18:43Z</time>
      </trkpt>
      <trkpt lat="42.82537824852366" lon="-0.8323722629387398">
        <time>2021-03-18T10:18:43Z</time>
      </trkpt>
      <trkpt lat="42.82710070855837" lon="-0.8339655754710107">
        <time>2021-03-18T10:18:43Z</time>
      </trkpt>
      <trkpt lat="42.83116072482096" lon="-0.8373365953601419">
        <time>2021-03-18T10:18:43Z</time>
      </trkpt>
      <trkpt lat="42.83392457603857" lon="-0.8353896095076507">
        <time>2021-03-18T10:18:43Z</time>
      </trkpt>
      <trkpt lat="42.83418631305165" lon="-0.8365119782409636">
        <time>2021-03-18T10:18:43Z</time>
      </trkpt>
      <trkpt lat="42.83579282672078" lon="-0.8348670206703468">
        <time>2021-03-18T10:18:43Z</time>
      </trkpt>
      <trkpt lat="42.8385541348737" lon="-0.8341111936350076">
        <time>2021-03-18T10:18:43Z</time>
      </trkpt>
      <trkpt lat="42.83869533456507" lon="-0.8322622372177357">
        <time>2021-03-18T10:18:43Z</time>
      </trkpt>
      <trkpt lat="42.83977686950453" lon="-0.8304434238535874">
        <time>2021-03-18T10:18:43Z</time>
      </trkpt>
      <trkpt lat="42.84460806186544" lon="-0.8273814468438134">
        <time>2021-03-18T10:18:43Z</time>
      </trkpt>
      <trkpt lat="42.84621401302599" lon="-0.8265600709479148">
        <time>2021-03-18T10:18:43Z</time>
      </trkpt>
      <trkpt lat="42.8481742575006" lon="-0.8263930182640189">
        <time>2021-03-18T10:18:43Z</time>
      </trkpt>
      <trkpt lat="42.84846710273265" lon="-0.8264403093379558">
        <time>2021-03-18T10:18:43Z</time>
      </trkpt>
      <trkpt lat="42.8511986957303" lon="-0.8255448841869395">
        <time>2021-03-18T10:18:43Z</time>
      </trkpt>
      <trkpt lat="42.85331232137937" lon="-0.8254722744714293">
        <time>2021-03-18T10:18:43Z</time>
      </trkpt>
      <trkpt lat="42.85513062797596" lon="-0.826356294372631">
        <time>2021-03-18T10:18:43Z</time>
      </trkpt>
      <trkpt lat="42.85734786645737" lon="-0.8261685509052386">
        <time>2021-03-18T10:18:43Z</time>
      </trkpt>
      <trkpt lat="42.86028374341358" lon="-0.8226851655491663">
        <time>2021-03-18T10:18:43Z</time>
      </trkpt>
      <trkpt lat="42.86261947270138" lon="-0.822173282671731">
        <time>2021-03-18T10:18:43Z</time>
      </trkpt>
      <trkpt lat="42.863791515815" lon="-0.8194426958856993">
        <time>2021-03-18T10:18:43Z</time>
      </trkpt>
      <trkpt lat="42.86444305695554" lon="-0.8178062505038364">
        <time>2021-03-18T10:18:43Z</time>
      </trkpt>
      <trkpt lat="42.86495021603621" lon="-0.8171217197640146">
        <time>2021-03-18T10:18:43Z</time>
      </trkpt>
      <trkpt lat="42.8649477742302" lon="-0.8216684378294103">
        <time>2021-03-18T10:18:43Z</time>
      </trkpt>
      <trkpt lat="42.86572432995428" lon="-0.8251222191215624">
        <time>2021-03-18T10:18:43Z</time>
      </trkpt>
      <trkpt lat="42.86620715936187" lon="-0.8256976894372225">
        <time>2021-03-18T10:18:43Z</time>
      </trkpt>
      <trkpt lat="42.86623325646706" lon="-0.8268424582141853">
        <time>2021-03-18T10:18:43Z</time>
      </trkpt>
      <trkpt lat="42.86680953382849" lon="-0.8268257612801999">
        <time>2021-03-18T10:18:43Z</time>
      </trkpt>
      <trkpt lat="42.86785024834479" lon="-0.8302855505445317">
        <time>2021-03-18T10:18:43Z</time>
      </trkpt>
      <trkpt lat="42.8673362741724" lon="-0.831331109504323">
        <time>2021-03-18T10:18:43Z</time>
      </trkpt>
      <trkpt lat="42.8674096998778" lon="-0.8324616215588232">
        <time>2021-03-18T10:18:43Z</time>
      </trkpt>
      <trkpt lat="42.86893026616614" lon="-0.834368347009482">
        <time>2021-03-18T10:18:43Z</time>
      </trkpt>
      <trkpt lat="42.87080739126882" lon="-0.8403104593275734">
        <time>2021-03-18T10:18:43Z</time>
      </trkpt>
      <trkpt lat="42.87203577316058" lon="-0.8411954618983308">
        <time>2021-03-18T10:18:43Z</time>
      </trkpt>
      <trkpt lat="42.87412744543958" lon="-0.8522952436661413">
        <time>2021-03-18T10:18:43Z</time>
      </trkpt>
      <trkpt lat="42.87553173712021" lon="-0.8528115096483457">
        <time>2021-03-18T10:18:43Z</time>
      </trkpt>
      <trkpt lat="42.87566176572503" lon="-0.8559547080847041">
        <time>2021-03-18T10:18:43Z</time>
      </trkpt>
      <trkpt lat="42.87655935789545" lon="-0.8593256289189211">
        <time>2021-03-18T10:18:43Z</time>
      </trkpt>
      <trkpt lat="42.87698527364066" lon="-0.8625966174429511">
        <time>2021-03-18T10:18:43Z</time>
      </trkpt>
      <trkpt lat="42.87703968612885" lon="-0.8668300222317937">
        <time>2021-03-18T10:18:43Z</time>
      </trkpt>
      <trkpt lat="42.87773038192582" lon="-0.871555700910388">
        <time>2021-03-18T10:18:43Z</time>
      </trkpt>
      <trkpt lat="42.87721655327893" lon="-0.8765721319371">
        <time>2021-03-18T10:18:43Z</time>
      </trkpt>
      <trkpt lat="42.87583167257108" lon="-0.8805359703228532">
        <time>2021-03-18T10:18:43Z</time>
      </trkpt>
      <trkpt lat="42.87544508398873" lon="-0.8831130306873392">
        <time>2021-03-18T10:18:43Z</time>
      </trkpt>
      <trkpt lat="42.87368574998467" lon="-0.8837788622972664">
        <time>2021-03-18T10:18:43Z</time>
      </trkpt>
      <trkpt lat="42.872316696192" lon="-0.8861392824560277">
        <time>2021-03-18T10:18:43Z</time>
      </trkpt>
      <trkpt lat="42.87116056809121" lon="-0.8887122888105159">
        <time>2021-03-18T10:18:43Z</time>
      </trkpt>
      <trkpt lat="42.86926461760068" lon="-0.894536033070592">
        <time>2021-03-18T10:18:43Z</time>
      </trkpt>
      <trkpt lat="42.86806040415572" lon="-0.8964139218984613">
        <time>2021-03-18T10:18:43Z</time>
      </trkpt>
      <trkpt lat="42.86576495085429" lon="-0.8968191052744523">
        <time>2021-03-18T10:18:43Z</time>
      </trkpt>
      <trkpt lat="42.86530768410587" lon="-0.8961289027500285">
        <time>2021-03-18T10:18:43Z</time>
      </trkpt>
      <trkpt lat="42.86419707759436" lon="-0.8966030231490896">
        <time>2021-03-18T10:18:43Z</time>
      </trkpt>
      <trkpt lat="42.8636203205812" lon="-0.8988344785358893">
        <time>2021-03-18T10:18:43Z</time>
      </trkpt>
      <trkpt lat="42.86185969469835" lon="-0.9014060765965259">
        <time>2021-03-18T10:18:43Z</time>
      </trkpt>
      <trkpt lat="42.86133110236976" lon="-0.9025247060508323">
        <time>2021-03-18T10:18:43Z</time>
      </trkpt>
      <trkpt lat="42.86077105159368" lon="-0.9112342304441035">
        <time>2021-03-18T10:18:43Z</time>
      </trkpt>
      <trkpt lat="42.85954073718905" lon="-0.9126253299304565">
        <time>2021-03-18T10:18:43Z</time>
      </trkpt>
      <trkpt lat="42.85889690145706" lon="-0.9160962459401434">
        <time>2021-03-18T10:18:43Z</time>
      </trkpt>
      <trkpt lat="42.85897293719327" lon="-0.9184977032088049">
        <time>2021-03-18T10:18:43Z</time>
      </trkpt>
      <trkpt lat="42.85863316342569" lon="-0.9207280785890404">
        <time>2021-03-18T10:18:43Z</time>
      </trkpt>
      <trkpt lat="42.85869480699695" lon="-0.9232813105518745">
        <time>2021-03-18T10:18:43Z</time>
      </trkpt>
      <trkpt lat="42.85881157100596" lon="-0.9257310474324543">
        <time>2021-03-18T10:18:43Z</time>
      </trkpt>
      <trkpt lat="42.85911184875497" lon="-0.9273644908876699">
        <time>2021-03-18T10:18:43Z</time>
      </trkpt>
      <trkpt lat="42.86021652143845" lon="-0.9254974915155478">
        <time>2021-03-18T10:18:43Z</time>
      </trkpt>
      <trkpt lat="42.8607232913615" lon="-0.9240957166552799">
        <time>2021-03-18T10:18:43Z</time>
      </trkpt>
      <trkpt lat="42.86137299710929" lon="-0.9229480288023661">
        <time>2021-03-18T10:18:43Z</time>
      </trkpt>
      <trkpt lat="42.86213554491861" lon="-0.9224210401392585">
        <time>2021-03-18T10:18:43Z</time>
      </trkpt>
      <trkpt lat="42.86325178885278" lon="-0.9213646847665136">
        <time>2021-03-18T10:18:43Z</time>
      </trkpt>
      <trkpt lat="42.86372132379069" lon="-0.920713952022264">
        <time>2021-03-18T10:18:43Z</time>
      </trkpt>
      <trkpt lat="42.86390607627857" lon="-0.9219477232658535">
        <time>2021-03-18T10:18:43Z</time>
      </trkpt>
      <trkpt lat="42.86521820012964" lon="-0.9238872964709288">
        <time>2021-03-18T10:18:43Z</time>
      </trkpt>
      <trkpt lat="42.86623939115928" lon="-0.9262220181701997">
        <time>2021-03-18T10:18:43Z</time>
      </trkpt>
      <trkpt lat="42.86744627438454" lon="-0.9264678083377387">
        <time>2021-03-18T10:18:43Z</time>
      </trkpt>
      <trkpt lat="42.86882302220401" lon="-0.9261560202977226">
        <time>2021-03-18T10:18:43Z</time>
      </trkpt>
      <trkpt lat="42.86958469974333" lon="-0.9256171865115925">
        <time>2021-03-18T10:18:43Z</time>
      </trkpt>
      <trkpt lat="42.87017686936333" lon="-0.9256073740325033">
        <time>2021-03-18T10:18:43Z</time>
      </trkpt>
      <trkpt lat="42.87164014546262" lon="-0.9271447678934708">
        <time>2021-03-18T10:18:43Z</time>
      </trkpt>
      <trkpt lat="42.87392403214643" lon="-0.9278974865605571">
        <time>2021-03-18T10:18:43Z</time>
      </trkpt>
      <trkpt lat="42.87492034377365" lon="-0.927903491145956">
        <time>2021-03-18T10:18:43Z</time>
      </trkpt>
      <trkpt lat="42.87587870231666" lon="-0.9284265229961364">
        <time>2021-03-18T10:18:43Z</time>
      </trkpt>
      <trkpt lat="42.87681080017681" lon="-0.9288954507028213">
        <time>2021-03-18T10:18:43Z</time>
      </trkpt>
      <trkpt lat="42.87760545373794" lon="-0.9295776105824749">
        <time>2021-03-18T10:18:43Z</time>
      </trkpt>
      <trkpt lat="42.87900174781463" lon="-0.9302773772366069">
        <time>2021-03-18T10:18:43Z</time>
      </trkpt>
      <trkpt lat="42.88052050641823" lon="-0.933282018783983">
        <time>2021-03-18T10:18:43Z</time>
      </trkpt>
      <trkpt lat="42.88150868902198" lon="-0.9338784264037137">
        <time>2021-03-18T10:18:43Z</time>
      </trkpt>
      <trkpt lat="42.88201710892463" lon="-0.9347911096393013">
        <time>2021-03-18T10:18:43Z</time>
      </trkpt>
      <trkpt lat="42.88392056236049" lon="-0.9356227721905974">
        <time>2021-03-18T10:18:43Z</time>
      </trkpt>
      <trkpt lat="42.88480298035722" lon="-0.9380995790878455">
        <time>2021-03-18T10:18:43Z</time>
      </trkpt>
      <trkpt lat="42.88565403647194" lon="-0.9388872503976919">
        <time>2021-03-18T10:18:43Z</time>
      </trkpt>
      <trkpt lat="42.88646819642354" lon="-0.9404230696845584">
        <time>2021-03-18T10:18:43Z</time>
      </trkpt>
      <trkpt lat="42.88750917278497" lon="-0.940922159394878">
        <time>2021-03-18T10:18:43Z</time>
      </trkpt>
      <trkpt lat="42.88891704816471" lon="-0.9385336443281467">
        <time>2021-03-18T10:18:43Z</time>
      </trkpt>
      <trkpt lat="42.88956867211357" lon="-0.9384966046558074">
        <time>2021-03-18T10:18:43Z</time>
      </trkpt>
      <trkpt lat="42.89024421322119" lon="-0.9395406669820516">
        <time>2021-03-18T10:18:43Z</time>
      </trkpt>
      <trkpt lat="42.89136437322916" lon="-0.9395431770414819">
        <time>2021-03-18T10:18:43Z</time>
      </trkpt>
      <trkpt lat="42.89226019719792" lon="-0.9395206370417952">
        <time>2021-03-18T10:18:43Z</time>
      </trkpt>
      <trkpt lat="42.89363627782281" lon="-0.9409007537195258">
        <time>2021-03-18T10:18:43Z</time>
      </trkpt>
      <trkpt lat="42.89334026310489" lon="-0.9429472392241445">
        <time>2021-03-18T10:18:43Z</time>
      </trkpt>
      <trkpt lat="42.89385648769952" lon="-0.9451061831125085">
        <time>2021-03-18T10:18:43Z</time>
      </trkpt>
      <trkpt lat="42.89381954565732" lon="-0.9465331914720065">
        <time>2021-03-18T10:18:43Z</time>
      </trkpt>
      <trkpt lat="42.89581685843084" lon="-0.9514438249933321">
        <time>2021-03-18T10:18:43Z</time>
      </trkpt>
      <trkpt lat="42.89722901950579" lon="-0.9534257937820512">
        <time>2021-03-18T10:18:43Z</time>
      </trkpt>
      <trkpt lat="42.89897838710522" lon="-0.9553740140405698">
        <time>2021-03-18T10:18:43Z</time>
      </trkpt>
      <trkpt lat="42.89920682938583" lon="-0.955086721351821">
        <time>2021-03-18T10:18:43Z</time>
      </trkpt>
      <trkpt lat="42.89969545706229" lon="-0.9579673652213416">
        <time>2021-03-18T10:18:43Z</time>
      </trkpt>
      <trkpt lat="42.90241216310473" lon="-0.9600348019621063">
        <time>2021-03-18T10:18:43Z</time>
      </trkpt>
      <trkpt lat="42.90573051265659" lon="-0.9636859758009264">
        <time>2021-03-18T10:18:43Z</time>
      </trkpt>
      <trkpt lat="42.90610079012178" lon="-0.9677876560659104">
        <time>2021-03-18T10:18:43Z</time>
      </trkpt>
      <trkpt lat="42.90887564223051" lon="-0.9664629272638958">
        <time>2021-03-18T10:18:43Z</time>
      </trkpt>
      <trkpt lat="42.91090856657451" lon="-0.965078786568706">
        <time>2021-03-18T10:18:43Z</time>
      </trkpt>
      <trkpt lat="42.91257355417373" lon="-0.9638113352620881">
        <time>2021-03-18T10:18:43Z</time>
      </trkpt>
      <trkpt lat="42.91437290303882" lon="-0.9620714035965527">
        <time>2021-03-18T10:18:43Z</time>
      </trkpt>
      <trkpt lat="42.91605559140231" lon="-0.9617111396321221">
        <time>2021-03-18T10:18:43Z</time>
      </trkpt>
      <trkpt lat="42.91586346323562" lon="-0.9618052980239955">
        <time>2021-03-18T10:18:56Z</time>
      </trkpt>
      <trkpt lat="42.91369374840001" lon="-0.9631885312038624">
        <time>2021-03-18T10:18:56Z</time>
      </trkpt>
      <trkpt lat="42.91141840294305" lon="-0.9644580565177563">
        <time>2021-03-18T10:18:56Z</time>
      </trkpt>
      <trkpt lat="42.9095091008282" lon="-0.9670468247174535">
        <time>2021-03-18T10:18:56Z</time>
      </trkpt>
      <trkpt lat="42.9086467415091" lon="-0.9668810185051635">
        <time>2021-03-18T10:18:56Z</time>
      </trkpt>
      <trkpt lat="42.91037453802791" lon="-0.9668205295364796">
        <time>2021-03-18T10:18:56Z</time>
      </trkpt>
      <trkpt lat="42.91147672540733" lon="-0.9679712391653827">
        <time>2021-03-18T10:18:56Z</time>
      </trkpt>
      <trkpt lat="42.91279604221233" lon="-0.9703404632036894">
        <time>2021-03-18T10:18:56Z</time>
      </trkpt>
      <trkpt lat="42.91397281738395" lon="-0.9717959041331259">
        <time>2021-03-18T10:18:56Z</time>
      </trkpt>
      <trkpt lat="42.91698811296421" lon="-0.972564097939812">
        <time>2021-03-18T10:18:56Z</time>
      </trkpt>
      <trkpt lat="42.91819697055356" lon="-0.9746108772596429">
        <time>2021-03-18T10:18:56Z</time>
      </trkpt>
      <trkpt lat="42.91846367245191" lon="-0.9763965043185874">
        <time>2021-03-18T10:18:56Z</time>
      </trkpt>
      <trkpt lat="42.92237842158395" lon="-0.9771332805881316">
        <time>2021-03-18T10:18:56Z</time>
      </trkpt>
      <trkpt lat="42.92226574300241" lon="-0.9776053463204759">
        <time>2021-03-18T10:18:56Z</time>
      </trkpt>
      <trkpt lat="42.92051083583751" lon="-0.9779317772412399">
        <time>2021-03-18T10:18:56Z</time>
      </trkpt>
      <trkpt lat="42.92091579586642" lon="-0.9791808654379353">
        <time>2021-03-18T10:18:56Z</time>
      </trkpt>
      <trkpt lat="42.92103775577078" lon="-0.9817063168117202">
        <time>2021-03-18T10:18:56Z</time>
      </trkpt>
      <trkpt lat="42.9215386360084" lon="-0.9822771639996697">
        <time>2021-03-18T10:18:56Z</time>
      </trkpt>
      <trkpt lat="42.92132796813971" lon="-0.9828666457377622">
        <time>2021-03-18T10:18:56Z</time>
      </trkpt>
      <trkpt lat="42.921642340661" lon="-0.9840761577703816">
        <time>2021-03-18T10:18:56Z</time>
      </trkpt>
      <trkpt lat="42.92245108114913" lon="-0.9841882558655179">
        <time>2021-03-18T10:18:56Z</time>
      </trkpt>
      <trkpt lat="42.92271483840111" lon="-0.9852620393735079">
        <time>2021-03-18T10:18:56Z</time>
      </trkpt>
      <trkpt lat="42.92364082627939" lon="-0.986356183707563">
        <time>2021-03-18T10:18:56Z</time>
      </trkpt>
      <trkpt lat="42.92418131385909" lon="-0.987475354345787">
        <time>2021-03-18T10:18:56Z</time>
      </trkpt>
      <trkpt lat="42.92528259254221" lon="-0.9881191296763514">
        <time>2021-03-18T10:18:56Z</time>
      </trkpt>
      <trkpt lat="42.92425842309551" lon="-0.9884987089597863">
        <time>2021-03-18T10:18:56Z</time>
      </trkpt>
      <trkpt lat="42.92312461295707" lon="-0.9881567783703138">
        <time>2021-03-18T10:18:56Z</time>
      </trkpt>
      <trkpt lat="42.92268679938168" lon="-0.9883835280660536">
        <time>2021-03-18T10:18:56Z</time>
      </trkpt>
      <trkpt lat="42.92153839278574" lon="-0.9881270390649854">
        <time>2021-03-18T10:18:56Z</time>
      </trkpt>
      <trkpt lat="42.92067873594346" lon="-0.9888853629509708">
        <time>2021-03-18T10:18:56Z</time>
      </trkpt>
      <trkpt lat="42.92044664467124" lon="-0.9893969900317423">
        <time>2021-03-18T10:18:56Z</time>
      </trkpt>
      <trkpt lat="42.92055872669499" lon="-0.9898192324347443">
        <time>2021-03-18T10:18:56Z</time>
      </trkpt>
      <trkpt lat="42.92265246861786" lon="-0.9904212407165591">
        <time>2021-03-18T10:18:56Z</time>
      </trkpt>
      <trkpt lat="42.923203415598" lon="-0.9903294714696675">
        <time>2021-03-18T10:18:56Z</time>
      </trkpt>
      <trkpt lat="42.92411045694531" lon="-0.9902867094307677">
        <time>2021-03-18T10:18:56Z</time>
      </trkpt>
      <trkpt lat="42.92486389242783" lon="-0.9909359880155444">
        <time>2021-03-18T10:18:56Z</time>
      </trkpt>
      <trkpt lat="42.92515533756372" lon="-0.9927487294449777">
        <time>2021-03-18T10:18:56Z</time>
      </trkpt>
      <trkpt lat="42.92468982092166" lon="-0.9956582454286977">
        <time>2021-03-18T10:18:56Z</time>
      </trkpt>
      <trkpt lat="42.92505323526265" lon="-0.9975569349942592">
        <time>2021-03-18T10:18:56Z</time>
      </trkpt>
      <trkpt lat="42.92639412755596" lon="-0.997276036274285">
        <time>2021-03-18T10:18:56Z</time>
      </trkpt>
      <trkpt lat="42.92722343876584" lon="-0.9944446578994581">
        <time>2021-03-18T10:18:56Z</time>
      </trkpt>
      <trkpt lat="42.92773056470794" lon="-0.9963777444028676">
        <time>2021-03-18T10:18:56Z</time>
      </trkpt>
      <trkpt lat="42.92768337336131" lon="-0.9979613268603627">
        <time>2021-03-18T10:18:56Z</time>
      </trkpt>
      <trkpt lat="42.9272605346415" lon="-1.000331795529018">
        <time>2021-03-18T10:18:56Z</time>
      </trkpt>
      <trkpt lat="42.92626459083864" lon="-1.001350068686062">
        <time>2021-03-18T10:18:56Z</time>
      </trkpt>
      <trkpt lat="42.92617296212381" lon="-1.003075358894221">
        <time>2021-03-18T10:18:56Z</time>
      </trkpt>
      <trkpt lat="42.92552793977988" lon="-1.00470890935658">
        <time>2021-03-18T10:18:56Z</time>
      </trkpt>
      <trkpt lat="42.92406717076426" lon="-1.004853449815701">
        <time>2021-03-18T10:18:56Z</time>
      </trkpt>
      <trkpt lat="42.92344812328642" lon="-1.006906116811219">
        <time>2021-03-18T10:18:56Z</time>
      </trkpt>
      <trkpt lat="42.92855855271208" lon="-1.004970811281277">
        <time>2021-03-18T10:18:56Z</time>
      </trkpt>
      <trkpt lat="42.92908294932236" lon="-1.005412186745025">
        <time>2021-03-18T10:18:56Z</time>
      </trkpt>
      <trkpt lat="42.93147972399927" lon="-1.00352884807244">
        <time>2021-03-18T10:18:56Z</time>
      </trkpt>
      <trkpt lat="42.93288259048246" lon="-1.001572679807469">
        <time>2021-03-18T10:18:56Z</time>
      </trkpt>
      <trkpt lat="42.93325191337401" lon="-1.001071504042">
        <time>2021-03-18T10:18:56Z</time>
      </trkpt>
      <trkpt lat="42.93392217099474" lon="-0.999534763817268">
        <time>2021-03-18T10:18:56Z</time>
      </trkpt>
      <trkpt lat="42.9340625784222" lon="-0.9994846564163995">
        <time>2021-03-18T10:18:56Z</time>
      </trkpt>
      <trkpt lat="42.93471575355068" lon="-0.9994797239778219">
        <time>2021-03-18T10:18:56Z</time>
      </trkpt>
      <trkpt lat="42.93580746257881" lon="-0.9987860433525908">
        <time>2021-03-18T10:18:56Z</time>
      </trkpt>
      <trkpt lat="42.93645245756837" lon="-0.9986582029926327">
        <time>2021-03-18T10:18:56Z</time>
      </trkpt>
      <trkpt lat="42.93613505387698" lon="-0.9978292228715446">
        <time>2021-03-18T10:18:56Z</time>
      </trkpt>
      <trkpt lat="42.93621513376277" lon="-0.9975366140896003">
        <time>2021-03-18T10:18:56Z</time>
      </trkpt>
      <trkpt lat="42.93846084996923" lon="-0.9984683606045031">
        <time>2021-03-18T10:18:56Z</time>
      </trkpt>
      <trkpt lat="42.93853766631894" lon="-0.997902066260985">
        <time>2021-03-18T10:18:56Z</time>
      </trkpt>
      <trkpt lat="42.93810987711478" lon="-0.9970851079908016">
        <time>2021-03-18T10:18:56Z</time>
      </trkpt>
      <trkpt lat="42.93765857719856" lon="-0.9956944310667337">
        <time>2021-03-18T10:18:56Z</time>
      </trkpt>
      <trkpt lat="42.93769025872212" lon="-0.9953907907974957">
        <time>2021-03-18T10:18:56Z</time>
      </trkpt>
      <trkpt lat="42.93951933770318" lon="-0.9942979825467047">
        <time>2021-03-18T10:18:56Z</time>
      </trkpt>
      <trkpt lat="42.94192064060671" lon="-0.9942148023349062">
        <time>2021-03-18T10:18:56Z</time>
      </trkpt>
      <trkpt lat="42.94313305677024" lon="-0.9951667645513917">
        <time>2021-03-18T10:18:56Z</time>
      </trkpt>
      <trkpt lat="42.94483200161329" lon="-0.9966013903056947">
        <time>2021-03-18T10:18:56Z</time>
      </trkpt>
      <trkpt lat="42.94317227513611" lon="-0.9958076168087826">
        <time>2021-03-18T10:18:56Z</time>
      </trkpt>
      <trkpt lat="42.94142844368422" lon="-0.9961491738164896">
        <time>2021-03-18T10:18:56Z</time>
      </trkpt>
      <trkpt lat="42.94327231946517" lon="-0.9984168955609463">
        <time>2021-03-18T10:18:56Z</time>
      </trkpt>
      <trkpt lat="42.94284037271671" lon="-1.000563814965042">
        <time>2021-03-18T10:18:56Z</time>
      </trkpt>
      <trkpt lat="42.94286432772744" lon="-1.001894585309463">
        <time>2021-03-18T10:18:56Z</time>
      </trkpt>
      <trkpt lat="42.94215402798994" lon="-1.003443720658702">
        <time>2021-03-18T10:18:56Z</time>
      </trkpt>
      <trkpt lat="42.94118081153913" lon="-1.004375007366223">
        <time>2021-03-18T10:18:56Z</time>
      </trkpt>
      <trkpt lat="42.94054560190824" lon="-1.006443694843212">
        <time>2021-03-18T10:18:56Z</time>
      </trkpt>
      <trkpt lat="42.93921801766307" lon="-1.007393533762709">
        <time>2021-03-18T10:18:56Z</time>
      </trkpt>
      <trkpt lat="42.94097927808393" lon="-1.007153339640747">
        <time>2021-03-18T10:18:56Z</time>
      </trkpt>
      <trkpt lat="42.94270609004363" lon="-1.006826676683413">
        <time>2021-03-18T10:18:56Z</time>
      </trkpt>
      <trkpt lat="42.9461332290882" lon="-1.008160673919718">
        <time>2021-03-18T10:18:56Z</time>
      </trkpt>
      <trkpt lat="42.94641148005726" lon="-1.009363797515878">
        <time>2021-03-18T10:18:56Z</time>
      </trkpt>
      <trkpt lat="42.94902895474313" lon="-1.008822899673292">
        <time>2021-03-18T10:18:56Z</time>
      </trkpt>
      <trkpt lat="42.95065129951419" lon="-1.012073879285245">
        <time>2021-03-18T10:18:56Z</time>
      </trkpt>
      <trkpt lat="42.95174321239715" lon="-1.012501679387677">
        <time>2021-03-18T10:18:56Z</time>
      </trkpt>
      <trkpt lat="42.95321451898106" lon="-1.012013962730657">
        <time>2021-03-18T10:18:56Z</time>
      </trkpt>
      <trkpt lat="42.95427865427208" lon="-1.012500978337839">
        <time>2021-03-18T10:18:56Z</time>
      </trkpt>
      <trkpt lat="42.95639244483942" lon="-1.015302059986908">
        <time>2021-03-18T10:18:56Z</time>
      </trkpt>
      <trkpt lat="42.95644036926311" lon="-1.016710524058431">
        <time>2021-03-18T10:18:56Z</time>
      </trkpt>
      <trkpt lat="42.95668945990659" lon="-1.017749932291964">
        <time>2021-03-18T10:18:56Z</time>
      </trkpt>
      <trkpt lat="42.95742598780389" lon="-1.019343750735707">
        <time>2021-03-18T10:18:56Z</time>
      </trkpt>
      <trkpt lat="42.95828125757666" lon="-1.020886476907698">
        <time>2021-03-18T10:18:56Z</time>
      </trkpt>
      <trkpt lat="42.95844598649536" lon="-1.022532650912448">
        <time>2021-03-18T10:18:56Z</time>
      </trkpt>
      <trkpt lat="42.95788520005955" lon="-1.023159428363458">
        <time>2021-03-18T10:18:56Z</time>
      </trkpt>
      <trkpt lat="42.95717681180182" lon="-1.02448138715784">
        <time>2021-03-18T10:18:56Z</time>
      </trkpt>
      <trkpt lat="42.95600572406183" lon="-1.025994854759373">
        <time>2021-03-18T10:18:56Z</time>
      </trkpt>
      <trkpt lat="42.95672073686172" lon="-1.02820913323428">
        <time>2021-03-18T10:18:56Z</time>
      </trkpt>
      <trkpt lat="42.95652247318584" lon="-1.030162801762544">
        <time>2021-03-18T10:18:56Z</time>
      </trkpt>
      <trkpt lat="42.95524581632287" lon="-1.030968556351685">
        <time>2021-03-18T10:18:56Z</time>
      </trkpt>
      <trkpt lat="42.95414661175762" lon="-1.031837075220369">
        <time>2021-03-18T10:18:56Z</time>
      </trkpt>
      <trkpt lat="42.95451577068615" lon="-1.033601168372026">
        <time>2021-03-18T10:18:56Z</time>
      </trkpt>
      <trkpt lat="42.95530987681152" lon="-1.03558926191296">
        <time>2021-03-18T10:18:56Z</time>
      </trkpt>
      <trkpt lat="42.9553840666002" lon="-1.03656083019167">
        <time>2021-03-18T10:18:56Z</time>
      </trkpt>
      <trkpt lat="42.95449496119344" lon="-1.038350277412551">
        <time>2021-03-18T10:18:56Z</time>
      </trkpt>
      <trkpt lat="42.95435447012093" lon="-1.038742909281238">
        <time>2021-03-18T10:18:56Z</time>
      </trkpt>
      <trkpt lat="42.95603169197128" lon="-1.039587384838331">
        <time>2021-03-18T10:18:56Z</time>
      </trkpt>
      <trkpt lat="42.95624424536258" lon="-1.040553628067599">
        <time>2021-03-18T10:18:56Z</time>
      </trkpt>
      <trkpt lat="42.95790635074652" lon="-1.040359265489896">
        <time>2021-03-18T10:18:56Z</time>
      </trkpt>
      <trkpt lat="42.95879173169764" lon="-1.040044259947266">
        <time>2021-03-18T10:18:56Z</time>
      </trkpt>
      <trkpt lat="42.96006217091493" lon="-1.039932522319745">
        <time>2021-03-18T10:18:56Z</time>
      </trkpt>
      <trkpt lat="42.96172151346391" lon="-1.039512051069238">
        <time>2021-03-18T10:18:56Z</time>
      </trkpt>
      <trkpt lat="42.96200473086935" lon="-1.040031723689204">
        <time>2021-03-18T10:18:56Z</time>
      </trkpt>
      <trkpt lat="42.96191860673206" lon="-1.041133103890884">
        <time>2021-03-18T10:18:56Z</time>
      </trkpt>
      <trkpt lat="42.9606579910855" lon="-1.041759502957951">
        <time>2021-03-18T10:18:56Z</time>
      </trkpt>
      <trkpt lat="42.95973967199139" lon="-1.043835548524558">
        <time>2021-03-18T10:18:56Z</time>
      </trkpt>
      <trkpt lat="42.95860183252172" lon="-1.044802710924125">
        <time>2021-03-18T10:18:56Z</time>
      </trkpt>
      <trkpt lat="42.95874279316266" lon="-1.045484003971543">
        <time>2021-03-18T10:18:56Z</time>
      </trkpt>
      <trkpt lat="42.95935475425528" lon="-1.046218394043668">
        <time>2021-03-18T10:18:56Z</time>
      </trkpt>
      <trkpt lat="42.96013996816986" lon="-1.046610845496983">
        <time>2021-03-18T10:18:56Z</time>
      </trkpt>
      <trkpt lat="42.96050962875635" lon="-1.048083240987814">
        <time>2021-03-18T10:18:56Z</time>
      </trkpt>
      <trkpt lat="42.96050074479782" lon="-1.048454158991735">
        <time>2021-03-18T10:18:56Z</time>
      </trkpt>
      <trkpt lat="42.96337127399841" lon="-1.049764567872171">
        <time>2021-03-18T10:18:56Z</time>
      </trkpt>
      <trkpt lat="42.96299946060453" lon="-1.050460307948162">
        <time>2021-03-18T10:18:56Z</time>
      </trkpt>
      <trkpt lat="42.96151134387652" lon="-1.050991128373378">
        <time>2021-03-18T10:18:56Z</time>
      </trkpt>
      <trkpt lat="42.95835054091779" lon="-1.051420616279327">
        <time>2021-03-18T10:18:56Z</time>
      </trkpt>
      <trkpt lat="42.95818708283066" lon="-1.052181115008868">
        <time>2021-03-18T10:18:56Z</time>
      </trkpt>
      <trkpt lat="42.95890241215673" lon="-1.054206434946198">
        <time>2021-03-18T10:18:56Z</time>
      </trkpt>
      <trkpt lat="42.95737453896251" lon="-1.057301007148337">
        <time>2021-03-18T10:18:56Z</time>
      </trkpt>
      <trkpt lat="42.95860720281983" lon="-1.057938199294544">
        <time>2021-03-18T10:18:56Z</time>
      </trkpt>
      <trkpt lat="42.9595329914608" lon="-1.05820566880975">
        <time>2021-03-18T10:18:56Z</time>
      </trkpt>
      <trkpt lat="42.96110920876617" lon="-1.059118639688427">
        <time>2021-03-18T10:18:56Z</time>
      </trkpt>
      <trkpt lat="42.96104526131627" lon="-1.059784099676531">
        <time>2021-03-18T10:18:56Z</time>
      </trkpt>
      <trkpt lat="42.95703700406308" lon="-1.064211376547621">
        <time>2021-03-18T10:18:56Z</time>
      </trkpt>
      <trkpt lat="42.95709232803925" lon="-1.064841385088567">
        <time>2021-03-18T10:18:56Z</time>
      </trkpt>
      <trkpt lat="42.95815473668053" lon="-1.066194517176186">
        <time>2021-03-18T10:18:56Z</time>
      </trkpt>
      <trkpt lat="42.95733480669715" lon="-1.068301181583006">
        <time>2021-03-18T10:18:56Z</time>
      </trkpt>
      <trkpt lat="42.95977310982745" lon="-1.069880246871682">
        <time>2021-03-18T10:18:56Z</time>
      </trkpt>
      <trkpt lat="42.95850056901804" lon="-1.073427380817791">
        <time>2021-03-18T10:18:56Z</time>
      </trkpt>
      <trkpt lat="42.95877530704522" lon="-1.075206807636994">
        <time>2021-03-18T10:18:56Z</time>
      </trkpt>
      <trkpt lat="42.96118683354892" lon="-1.076862183566016">
        <time>2021-03-18T10:18:56Z</time>
      </trkpt>
      <trkpt lat="42.96091984943079" lon="-1.078413891071284">
        <time>2021-03-18T10:18:56Z</time>
      </trkpt>
      <trkpt lat="42.96014955359247" lon="-1.079913828385087">
        <time>2021-03-18T10:18:56Z</time>
      </trkpt>
      <trkpt lat="42.96094191866022" lon="-1.083868427292168">
        <time>2021-03-18T10:18:56Z</time>
      </trkpt>
      <trkpt lat="42.96234516545299" lon="-1.086517616100612">
        <time>2021-03-18T10:18:56Z</time>
      </trkpt>
      <trkpt lat="42.96066226423459" lon="-1.089870719066598">
        <time>2021-03-18T10:18:56Z</time>
      </trkpt>
      <trkpt lat="42.95989634884595" lon="-1.090425021821884">
        <time>2021-03-18T10:18:56Z</time>
      </trkpt>
      <trkpt lat="42.96039210758138" lon="-1.093478784655698">
        <time>2021-03-18T10:18:56Z</time>
      </trkpt>
      <trkpt lat="42.96222478731396" lon="-1.094276442198305">
        <time>2021-03-18T10:18:56Z</time>
      </trkpt>
      <trkpt lat="42.96297176651704" lon="-1.095214388521205">
        <time>2021-03-18T10:18:56Z</time>
      </trkpt>
      <trkpt lat="42.96513248318281" lon="-1.095846125435785">
        <time>2021-03-18T10:18:56Z</time>
      </trkpt>
      <trkpt lat="42.96564956891692" lon="-1.0973673308498">
        <time>2021-03-18T10:18:56Z</time>
      </trkpt>
      <trkpt lat="42.96486710742553" lon="-1.0981210513664">
        <time>2021-03-18T10:18:56Z</time>
      </trkpt>
      <trkpt lat="42.96437841356963" lon="-1.100037212886514">
        <time>2021-03-18T10:18:56Z</time>
      </trkpt>
      <trkpt lat="42.96407966271305" lon="-1.1013204871084">
        <time>2021-03-18T10:18:56Z</time>
      </trkpt>
      <trkpt lat="42.96411846576665" lon="-1.102428147120892">
        <time>2021-03-18T10:18:56Z</time>
      </trkpt>
      <trkpt lat="42.96531165115849" lon="-1.105125981918053">
        <time>2021-03-18T10:18:56Z</time>
      </trkpt>
      <trkpt lat="42.96549126134774" lon="-1.105670382897489">
        <time>2021-03-18T10:18:56Z</time>
      </trkpt>
      <trkpt lat="42.96671146377226" lon="-1.106274654021148">
        <time>2021-03-18T10:18:56Z</time>
      </trkpt>
      <trkpt lat="42.96713347310961" lon="-1.106869788699716">
        <time>2021-03-18T10:18:56Z</time>
      </trkpt>
      <trkpt lat="42.96774010827163" lon="-1.10811585352254">
        <time>2021-03-18T10:18:56Z</time>
      </trkpt>
      <trkpt lat="42.96809002493182" lon="-1.108935740154506">
        <time>2021-03-18T10:18:56Z</time>
      </trkpt>
      <trkpt lat="42.96913089796312" lon="-1.109833380767317">
        <time>2021-03-18T10:18:56Z</time>
      </trkpt>
      <trkpt lat="42.96939412529139" lon="-1.110001543311286">
        <time>2021-03-18T10:18:56Z</time>
      </trkpt>
      <trkpt lat="42.97017520965036" lon="-1.110412466835514">
        <time>2021-03-18T10:18:56Z</time>
      </trkpt>
      <trkpt lat="42.97184499106987" lon="-1.109884330132673">
        <time>2021-03-18T10:18:56Z</time>
      </trkpt>
      <trkpt lat="42.97369388712067" lon="-1.108501498931617">
        <time>2021-03-18T10:18:56Z</time>
      </trkpt>
      <trkpt lat="42.97487374081899" lon="-1.107614024769947">
        <time>2021-03-18T10:18:56Z</time>
      </trkpt>
      <trkpt lat="42.97552274652184" lon="-1.107340566313858">
        <time>2021-03-18T10:18:56Z</time>
      </trkpt>
      <trkpt lat="42.9759862648705" lon="-1.107211168911755">
        <time>2021-03-18T10:18:56Z</time>
      </trkpt>
      <trkpt lat="42.97712649250882" lon="-1.107680829938554">
        <time>2021-03-18T10:18:56Z</time>
      </trkpt>
      <trkpt lat="42.97805156507704" lon="-1.106766459700089">
        <time>2021-03-18T10:18:56Z</time>
      </trkpt>
      <trkpt lat="42.97902989616794" lon="-1.105832705865526">
        <time>2021-03-18T10:18:56Z</time>
      </trkpt>
      <trkpt lat="42.9803006038045" lon="-1.106005341694548">
        <time>2021-03-18T10:18:56Z</time>
      </trkpt>
      <trkpt lat="42.98187792348087" lon="-1.105866047847921">
        <time>2021-03-18T10:18:56Z</time>
      </trkpt>
      <trkpt lat="42.98290070433305" lon="-1.105499089749723">
        <time>2021-03-18T10:18:56Z</time>
      </trkpt>
      <trkpt lat="42.98463495979955" lon="-1.104816001471032">
        <time>2021-03-18T10:18:56Z</time>
      </trkpt>
      <trkpt lat="42.98542638450401" lon="-1.103892467411685">
        <time>2021-03-18T10:18:56Z</time>
      </trkpt>
      <trkpt lat="42.98723557599911" lon="-1.102524900609873">
        <time>2021-03-18T10:18:56Z</time>
      </trkpt>
      <trkpt lat="42.98747504441236" lon="-1.10259260183308">
        <time>2021-03-18T10:18:56Z</time>
      </trkpt>
      <trkpt lat="42.98790834831829" lon="-1.102188983463104">
        <time>2021-03-18T10:18:56Z</time>
      </trkpt>
      <trkpt lat="42.98859004543397" lon="-1.102352758292612">
        <time>2021-03-18T10:18:56Z</time>
      </trkpt>
      <trkpt lat="42.98890341348326" lon="-1.101937499209442">
        <time>2021-03-18T10:18:56Z</time>
      </trkpt>
      <trkpt lat="42.98918485197896" lon="-1.102566645444152">
        <time>2021-03-18T10:18:56Z</time>
      </trkpt>
      <trkpt lat="42.988917006679" lon="-1.103155094439173">
        <time>2021-03-18T10:18:56Z</time>
      </trkpt>
      <trkpt lat="42.98852943739095" lon="-1.10374714781285">
        <time>2021-03-18T10:18:56Z</time>
      </trkpt>
      <trkpt lat="42.98830771456888" lon="-1.104228223964185">
        <time>2021-03-18T10:18:56Z</time>
      </trkpt>
      <trkpt lat="42.98825280458003" lon="-1.104995593727938">
        <time>2021-03-18T10:18:56Z</time>
      </trkpt>
      <trkpt lat="42.98826651922236" lon="-1.10546148252374">
        <time>2021-03-18T10:18:56Z</time>
      </trkpt>
      <trkpt lat="42.98836751420043" lon="-1.106161023455911">
        <time>2021-03-18T10:18:56Z</time>
      </trkpt>
      <trkpt lat="42.98882409493276" lon="-1.106985409461351">
        <time>2021-03-18T10:18:56Z</time>
      </trkpt>
      <trkpt lat="42.98723775505729" lon="-1.10946110414256">
        <time>2021-03-18T10:18:56Z</time>
      </trkpt>
      <trkpt lat="42.98605851693912" lon="-1.108959450588063">
        <time>2021-03-18T10:18:56Z</time>
      </trkpt>
      <trkpt lat="42.98573506015467" lon="-1.110221108941164">
        <time>2021-03-18T10:18:56Z</time>
      </trkpt>
      <trkpt lat="42.98491027841062" lon="-1.110913989894137">
        <time>2021-03-18T10:18:56Z</time>
      </trkpt>
      <trkpt lat="42.9850371324551" lon="-1.112102380144303">
        <time>2021-03-18T10:18:56Z</time>
      </trkpt>
      <trkpt lat="42.98367411140717" lon="-1.112374333995861">
        <time>2021-03-18T10:18:56Z</time>
      </trkpt>
      <trkpt lat="42.98250787220146" lon="-1.115136292637956">
        <time>2021-03-18T10:18:56Z</time>
      </trkpt>
      <trkpt lat="42.98173388727081" lon="-1.11820993464274">
        <time>2021-03-18T10:18:56Z</time>
      </trkpt>
      <trkpt lat="42.9812932319233" lon="-1.119967875962773">
        <time>2021-03-18T10:18:56Z</time>
      </trkpt>
      <trkpt lat="42.98365109287893" lon="-1.122804321759492">
        <time>2021-03-18T10:18:56Z</time>
      </trkpt>
      <trkpt lat="42.9819512713773" lon="-1.125680526389496">
        <time>2021-03-18T10:18:56Z</time>
      </trkpt>
      <trkpt lat="42.98221133328223" lon="-1.126925132877338">
        <time>2021-03-18T10:18:56Z</time>
      </trkpt>
      <trkpt lat="42.9849357632832" lon="-1.126422995131944">
        <time>2021-03-18T10:18:56Z</time>
      </trkpt>
      <trkpt lat="42.9868729628241" lon="-1.12674154768435">
        <time>2021-03-18T10:18:56Z</time>
      </trkpt>
      <trkpt lat="42.9872920436239" lon="-1.126742470199085">
        <time>2021-03-18T10:18:56Z</time>
      </trkpt>
      <trkpt lat="42.98775146122986" lon="-1.126511228636477">
        <time>2021-03-18T10:18:56Z</time>
      </trkpt>
      <trkpt lat="42.98803705478358" lon="-1.12699911240722">
        <time>2021-03-18T10:18:56Z</time>
      </trkpt>
      <trkpt lat="42.98744743648385" lon="-1.128844522657921">
        <time>2021-03-18T10:18:56Z</time>
      </trkpt>
      <trkpt lat="42.9877032865963" lon="-1.129598082002286">
        <time>2021-03-18T10:18:56Z</time>
      </trkpt>
      <trkpt lat="42.98815402698644" lon="-1.129090018174567">
        <time>2021-03-18T10:18:56Z</time>
      </trkpt>
      <trkpt lat="42.98817586874445" lon="-1.129554326840042">
        <time>2021-03-18T10:18:56Z</time>
      </trkpt>
      <trkpt lat="42.98839291608299" lon="-1.129729662022455">
        <time>2021-03-18T10:18:56Z</time>
      </trkpt>
      <trkpt lat="42.98853242142195" lon="-1.130324444112105">
        <time>2021-03-18T10:18:56Z</time>
      </trkpt>
      <trkpt lat="42.98833038473104" lon="-1.131606041213389">
        <time>2021-03-18T10:18:56Z</time>
      </trkpt>
      <trkpt lat="42.98874401341476" lon="-1.132373583352165">
        <time>2021-03-18T10:18:56Z</time>
      </trkpt>
      <trkpt lat="42.98927742446606" lon="-1.132545547098178">
        <time>2021-03-18T10:18:56Z</time>
      </trkpt>
      <trkpt lat="42.98956169707061" lon="-1.13290100221368">
        <time>2021-03-18T10:18:56Z</time>
      </trkpt>
      <trkpt lat="42.98933242321264" lon="-1.135213294869998">
        <time>2021-03-18T10:18:56Z</time>
      </trkpt>
      <trkpt lat="42.98878891901982" lon="-1.136818506686746">
        <time>2021-03-18T10:18:56Z</time>
      </trkpt>
      <trkpt lat="42.98868879139818" lon="-1.137047188428489">
        <time>2021-03-18T10:18:56Z</time>
      </trkpt>
      <trkpt lat="42.98851093651052" lon="-1.138091639776229">
        <time>2021-03-18T10:18:56Z</time>
      </trkpt>
      <trkpt lat="42.98813465057758" lon="-1.138547010344941">
        <time>2021-03-18T10:18:56Z</time>
      </trkpt>
      <trkpt lat="42.98654972260218" lon="-1.138357479090401">
        <time>2021-03-18T10:18:56Z</time>
      </trkpt>
      <trkpt lat="42.98609019153607" lon="-1.137476392844258">
        <time>2021-03-18T10:18:56Z</time>
      </trkpt>
      <trkpt lat="42.98611604521159" lon="-1.13661295429356">
        <time>2021-03-18T10:18:56Z</time>
      </trkpt>
      <trkpt lat="42.98591801292049" lon="-1.136479971089491">
        <time>2021-03-18T10:18:56Z</time>
      </trkpt>
      <trkpt lat="42.98536777486632" lon="-1.136658306818625">
        <time>2021-03-18T10:18:56Z</time>
      </trkpt>
      <trkpt lat="42.98527168536701" lon="-1.136984718695243">
        <time>2021-03-18T10:18:56Z</time>
      </trkpt>
      <trkpt lat="42.98529486321191" lon="-1.137656153116056">
        <time>2021-03-18T10:18:56Z</time>
      </trkpt>
      <trkpt lat="42.98531438811609" lon="-1.138066386303955">
        <time>2021-03-18T10:18:56Z</time>
      </trkpt>
      <trkpt lat="42.98540144895729" lon="-1.138475301282373">
        <time>2021-03-18T10:18:56Z</time>
      </trkpt>
      <trkpt lat="42.98600088098575" lon="-1.139597881357201">
        <time>2021-03-18T10:18:56Z</time>
      </trkpt>
      <trkpt lat="42.98781503479825" lon="-1.141412153889708">
        <time>2021-03-18T10:18:56Z</time>
      </trkpt>
      <trkpt lat="42.98784074224921" lon="-1.142760592921852">
        <time>2021-03-18T10:18:56Z</time>
      </trkpt>
      <trkpt lat="42.98816691244768" lon="-1.143434606762552">
        <time>2021-03-18T10:18:56Z</time>
      </trkpt>
      <trkpt lat="42.9879908419389" lon="-1.143640714905055">
        <time>2021-03-18T10:18:56Z</time>
      </trkpt>
      <trkpt lat="42.98781942791061" lon="-1.144310942387319">
        <time>2021-03-18T10:18:56Z</time>
      </trkpt>
      <trkpt lat="42.98728547791768" lon="-1.14479911895405">
        <time>2021-03-18T10:18:56Z</time>
      </trkpt>
      <trkpt lat="42.98589606194634" lon="-1.144978602659568">
        <time>2021-03-18T10:18:56Z</time>
      </trkpt>
      <trkpt lat="42.9868585934851" lon="-1.145745608308901">
        <time>2021-03-18T10:18:56Z</time>
      </trkpt>
      <trkpt lat="42.9869115667851" lon="-1.14634556379776">
        <time>2021-03-18T10:18:56Z</time>
      </trkpt>
      <trkpt lat="42.9867756967706" lon="-1.146719035784937">
        <time>2021-03-18T10:18:56Z</time>
      </trkpt>
      <trkpt lat="42.98703420395602" lon="-1.148713956678005">
        <time>2021-03-18T10:18:56Z</time>
      </trkpt>
      <trkpt lat="42.98658013658903" lon="-1.149780506762165">
        <time>2021-03-18T10:18:56Z</time>
      </trkpt>
      <trkpt lat="42.98628706126199" lon="-1.151582978797623">
        <time>2021-03-18T10:18:56Z</time>
      </trkpt>
      <trkpt lat="42.98625872484688" lon="-1.152046769541453">
        <time>2021-03-18T10:18:56Z</time>
      </trkpt>
      <trkpt lat="42.98584425743432" lon="-1.15261882283153">
        <time>2021-03-18T10:18:56Z</time>
      </trkpt>
      <trkpt lat="42.98583151412937" lon="-1.153001572539238">
        <time>2021-03-18T10:18:56Z</time>
      </trkpt>
      <trkpt lat="42.98616204715852" lon="-1.15451681980222">
        <time>2021-03-18T10:18:56Z</time>
      </trkpt>
      <trkpt lat="42.986380659845" lon="-1.154910276707007">
        <time>2021-03-18T10:18:56Z</time>
      </trkpt>
      <trkpt lat="42.98522617206798" lon="-1.155934023738745">
        <time>2021-03-18T10:18:56Z</time>
      </trkpt>
      <trkpt lat="42.98487779091929" lon="-1.156072181073558">
        <time>2021-03-18T10:18:56Z</time>
      </trkpt>
      <trkpt lat="42.98434222863161" lon="-1.157077326258192">
        <time>2021-03-18T10:18:56Z</time>
      </trkpt>
      <trkpt lat="42.98510264227588" lon="-1.157492187661773">
        <time>2021-03-18T10:18:56Z</time>
      </trkpt>
      <trkpt lat="42.98543650171435" lon="-1.158310192803306">
        <time>2021-03-18T10:18:56Z</time>
      </trkpt>
      <trkpt lat="42.98495403745972" lon="-1.159107084042442">
        <time>2021-03-18T10:18:56Z</time>
      </trkpt>
      <trkpt lat="42.98456488126762" lon="-1.160792126482803">
        <time>2021-03-18T10:18:56Z</time>
      </trkpt>
      <trkpt lat="42.98469720517831" lon="-1.162514455417835">
        <time>2021-03-18T10:18:56Z</time>
      </trkpt>
      <trkpt lat="42.98492122300823" lon="-1.162552679064143">
        <time>2021-03-18T10:18:56Z</time>
      </trkpt>
      <trkpt lat="42.98483225735376" lon="-1.164054022845918">
        <time>2021-03-18T10:18:56Z</time>
      </trkpt>
      <trkpt lat="42.98511138676976" lon="-1.166489627146642">
        <time>2021-03-18T10:18:56Z</time>
      </trkpt>
      <trkpt lat="42.98514018071558" lon="-1.16728546793709">
        <time>2021-03-18T10:18:56Z</time>
      </trkpt>
      <trkpt lat="42.98603935443355" lon="-1.169103526994971">
        <time>2021-03-18T10:18:56Z</time>
      </trkpt>
      <trkpt lat="42.98622081419495" lon="-1.17077152028449">
        <time>2021-03-18T10:18:56Z</time>
      </trkpt>
      <trkpt lat="42.98527054567456" lon="-1.173136738806908">
        <time>2021-03-18T10:18:56Z</time>
      </trkpt>
      <trkpt lat="42.98352687287382" lon="-1.178063907945619">
        <time>2021-03-18T10:18:56Z</time>
      </trkpt>
      <trkpt lat="42.98376848378845" lon="-1.178429394883064">
        <time>2021-03-18T10:18:56Z</time>
      </trkpt>
      <trkpt lat="42.98325295998325" lon="-1.178712262597306">
        <time>2021-03-18T10:18:56Z</time>
      </trkpt>
      <trkpt lat="42.98269648770107" lon="-1.180412170082651">
        <time>2021-03-18T10:18:56Z</time>
      </trkpt>
      <trkpt lat="42.98305147718376" lon="-1.181718567535167">
        <time>2021-03-18T10:18:56Z</time>
      </trkpt>
      <trkpt lat="42.98380601307373" lon="-1.18229403634776">
        <time>2021-03-18T10:18:56Z</time>
      </trkpt>
      <trkpt lat="42.98365411444708" lon="-1.182863192705294">
        <time>2021-03-18T10:18:56Z</time>
      </trkpt>
      <trkpt lat="42.9836803482677" lon="-1.184597717940575">
        <time>2021-03-18T10:18:56Z</time>
      </trkpt>
      <trkpt lat="42.98353231028106" lon="-1.18614886824114">
        <time>2021-03-18T10:18:56Z</time>
      </trkpt>
      <trkpt lat="42.98443063228362" lon="-1.193580157523854">
        <time>2021-03-18T10:18:56Z</time>
      </trkpt>
      <trkpt lat="42.98552676607277" lon="-1.195567873914677">
        <time>2021-03-18T10:18:56Z</time>
      </trkpt>
      <trkpt lat="42.98653842881225" lon="-1.196210229140797">
        <time>2021-03-18T10:18:56Z</time>
      </trkpt>
      <trkpt lat="42.98672045575668" lon="-1.196661224561726">
        <time>2021-03-18T10:18:56Z</time>
      </trkpt>
      <trkpt lat="42.9857644778584" lon="-1.196792153614495">
        <time>2021-03-18T10:18:56Z</time>
      </trkpt>
      <trkpt lat="42.98570448404418" lon="-1.197508945993417">
        <time>2021-03-18T10:18:56Z</time>
      </trkpt>
      <trkpt lat="42.98494329629088" lon="-1.198630616185695">
        <time>2021-03-18T10:18:56Z</time>
      </trkpt>
      <trkpt lat="42.98514314972844" lon="-1.201055290067279">
        <time>2021-03-18T10:18:56Z</time>
      </trkpt>
      <trkpt lat="42.98505943961558" lon="-1.202009742286169">
        <time>2021-03-18T10:18:56Z</time>
      </trkpt>
      <trkpt lat="42.98563053533126" lon="-1.205148926354689">
        <time>2021-03-18T10:18:56Z</time>
      </trkpt>
      <trkpt lat="42.98681269018142" lon="-1.206983243709509">
        <time>2021-03-18T10:18:56Z</time>
      </trkpt>
      <trkpt lat="42.98639670457875" lon="-1.21046085711865">
        <time>2021-03-18T10:18:56Z</time>
      </trkpt>
      <trkpt lat="42.98678165397992" lon="-1.212498587580838">
        <time>2021-03-18T10:18:56Z</time>
      </trkpt>
      <trkpt lat="42.98578037170924" lon="-1.219398093006292">
        <time>2021-03-18T10:18:56Z</time>
      </trkpt>
      <trkpt lat="42.98465158554856" lon="-1.222512020778678">
        <time>2021-03-18T10:18:56Z</time>
      </trkpt>
      <trkpt lat="42.98361406707959" lon="-1.224399836693429">
        <time>2021-03-18T10:18:56Z</time>
      </trkpt>
      <trkpt lat="42.98469574301082" lon="-1.223209887208102">
        <time>2021-03-18T10:18:56Z</time>
      </trkpt>
      <trkpt lat="42.98534332055656" lon="-1.222956717594789">
        <time>2021-03-18T10:18:56Z</time>
      </trkpt>
      <trkpt lat="42.98572381513672" lon="-1.222204656087549">
        <time>2021-03-18T10:18:56Z</time>
      </trkpt>
      <trkpt lat="42.98657655795434" lon="-1.222017021653209">
        <time>2021-03-18T10:18:56Z</time>
      </trkpt>
      <trkpt lat="42.98660520256305" lon="-1.221994781617096">
        <time>2021-03-18T10:18:56Z</time>
      </trkpt>
      <trkpt lat="42.98726216964203" lon="-1.22107433620148">
        <time>2021-03-18T10:18:56Z</time>
      </trkpt>
      <trkpt lat="42.98804845998469" lon="-1.221325896770975">
        <time>2021-03-18T10:18:56Z</time>
      </trkpt>
      <trkpt lat="42.98952271848919" lon="-1.223942752091561">
        <time>2021-03-18T10:18:56Z</time>
      </trkpt>
      <trkpt lat="42.99034887260817" lon="-1.224266821651109">
        <time>2021-03-18T10:18:56Z</time>
      </trkpt>
      <trkpt lat="42.99157054012623" lon="-1.226404956083604">
        <time>2021-03-18T10:18:56Z</time>
      </trkpt>
      <trkpt lat="42.99387882531157" lon="-1.22489738463075">
        <time>2021-03-18T10:18:56Z</time>
      </trkpt>
      <trkpt lat="42.99592157436981" lon="-1.225181516127091">
        <time>2021-03-18T10:18:56Z</time>
      </trkpt>
      <trkpt lat="42.99680983381921" lon="-1.227049256101143">
        <time>2021-03-18T10:18:56Z</time>
      </trkpt>
      <trkpt lat="42.99864702658098" lon="-1.227792241329404">
        <time>2021-03-18T10:18:56Z</time>
      </trkpt>
      <trkpt lat="43.00095851532939" lon="-1.228080277451727">
        <time>2021-03-18T10:18:56Z</time>
      </trkpt>
      <trkpt lat="43.00248784329535" lon="-1.228372702214902">
        <time>2021-03-18T10:18:56Z</time>
      </trkpt>
      <trkpt lat="43.00262523397166" lon="-1.228371303861588">
        <time>2021-03-18T10:18:56Z</time>
      </trkpt>
      <trkpt lat="43.00346454602409" lon="-1.227412533305761">
        <time>2021-03-18T10:18:56Z</time>
      </trkpt>
      <trkpt lat="43.00613287622736" lon="-1.227112537496287">
        <time>2021-03-18T10:18:56Z</time>
      </trkpt>
      <trkpt lat="43.00818992213708" lon="-1.226842583773551">
        <time>2021-03-18T10:18:56Z</time>
      </trkpt>
      <trkpt lat="43.00889655989273" lon="-1.226582047659848">
        <time>2021-03-18T10:18:56Z</time>
      </trkpt>
      <trkpt lat="43.00988172162592" lon="-1.228745615845397">
        <time>2021-03-18T10:18:56Z</time>
      </trkpt>
      <trkpt lat="43.01092165386385" lon="-1.229990159217955">
        <time>2021-03-18T10:18:56Z</time>
      </trkpt>
      <trkpt lat="43.0111458709497" lon="-1.235836198090088">
        <time>2021-03-18T10:18:56Z</time>
      </trkpt>
      <trkpt lat="43.01122846035806" lon="-1.238465859674124">
        <time>2021-03-18T10:18:56Z</time>
      </trkpt>
      <trkpt lat="43.00926937207672" lon="-1.239451903266691">
        <time>2021-03-18T10:18:56Z</time>
      </trkpt>
      <trkpt lat="43.01040220731094" lon="-1.241144887356919">
        <time>2021-03-18T10:18:56Z</time>
      </trkpt>
      <trkpt lat="43.01061595333564" lon="-1.244411039542079">
        <time>2021-03-18T10:18:56Z</time>
      </trkpt>
      <trkpt lat="43.01216052814803" lon="-1.247036339639923">
        <time>2021-03-18T10:18:56Z</time>
      </trkpt>
      <trkpt lat="43.01176852752139" lon="-1.249040857776441">
        <time>2021-03-18T10:18:56Z</time>
      </trkpt>
      <trkpt lat="43.01089248353217" lon="-1.251144015495281">
        <time>2021-03-18T10:18:56Z</time>
      </trkpt>
      <trkpt lat="43.01033135971805" lon="-1.251421798718525">
        <time>2021-03-18T10:18:56Z</time>
      </trkpt>
      <trkpt lat="43.01055967987431" lon="-1.253166641371827">
        <time>2021-03-18T10:18:56Z</time>
      </trkpt>
      <trkpt lat="43.01023011928186" lon="-1.254054230195866">
        <time>2021-03-18T10:18:56Z</time>
      </trkpt>
      <trkpt lat="43.01027885430796" lon="-1.255407623296025">
        <time>2021-03-18T10:18:56Z</time>
      </trkpt>
      <trkpt lat="43.00935483665401" lon="-1.257029625622896">
        <time>2021-03-18T10:18:56Z</time>
      </trkpt>
      <trkpt lat="43.00862821252179" lon="-1.257566114108363">
        <time>2021-03-18T10:18:56Z</time>
      </trkpt>
      <trkpt lat="43.0084988178955" lon="-1.258289387696504">
        <time>2021-03-18T10:18:56Z</time>
      </trkpt>
      <trkpt lat="43.00650793408989" lon="-1.258658437932705">
        <time>2021-03-18T10:18:56Z</time>
      </trkpt>
      <trkpt lat="43.0054869185824" lon="-1.259349343896326">
        <time>2021-03-18T10:18:56Z</time>
      </trkpt>
      <trkpt lat="43.00497981757366" lon="-1.260370550784997">
        <time>2021-03-18T10:18:56Z</time>
      </trkpt>
      <trkpt lat="43.00465213339221" lon="-1.262993355958094">
        <time>2021-03-18T10:18:56Z</time>
      </trkpt>
      <trkpt lat="43.00444993341989" lon="-1.264330689116977">
        <time>2021-03-18T10:18:56Z</time>
      </trkpt>
      <trkpt lat="43.00455046123058" lon="-1.266010783439772">
        <time>2021-03-18T10:18:56Z</time>
      </trkpt>
      <trkpt lat="43.00380828879133" lon="-1.266754407944755">
        <time>2021-03-18T10:18:56Z</time>
      </trkpt>
      <trkpt lat="43.0034800759811" lon="-1.268481372156469">
        <time>2021-03-18T10:18:56Z</time>
      </trkpt>
      <trkpt lat="43.00329221466836" lon="-1.269678458225251">
        <time>2021-03-18T10:18:56Z</time>
      </trkpt>
      <trkpt lat="43.00283014053061" lon="-1.27003961762163">
        <time>2021-03-18T10:18:56Z</time>
      </trkpt>
      <trkpt lat="43.00251197709488" lon="-1.274863143487977">
        <time>2021-03-18T10:18:56Z</time>
      </trkpt>
      <trkpt lat="43.00133160719165" lon="-1.275176689824231">
        <time>2021-03-18T10:18:56Z</time>
      </trkpt>
      <trkpt lat="43.00092526443412" lon="-1.276392200430069">
        <time>2021-03-18T10:18:56Z</time>
      </trkpt>
      <trkpt lat="43.00257355888089" lon="-1.279646784651682">
        <time>2021-03-18T10:18:56Z</time>
      </trkpt>
      <trkpt lat="43.00272115291167" lon="-1.280671737493522">
        <time>2021-03-18T10:18:56Z</time>
      </trkpt>
      <trkpt lat="43.00383011359691" lon="-1.281959715700249">
        <time>2021-03-18T10:18:56Z</time>
      </trkpt>
      <trkpt lat="43.00491534441478" lon="-1.28480076612208">
        <time>2021-03-18T10:18:56Z</time>
      </trkpt>
      <trkpt lat="43.00636568348693" lon="-1.28652134964062">
        <time>2021-03-18T10:18:56Z</time>
      </trkpt>
      <trkpt lat="43.00484963463264" lon="-1.287535286411954">
        <time>2021-03-18T10:18:56Z</time>
      </trkpt>
      <trkpt lat="43.00439079896261" lon="-1.2873128134259">
        <time>2021-03-18T10:18:56Z</time>
      </trkpt>
      <trkpt lat="43.00504009302421" lon="-1.288476655758378">
        <time>2021-03-18T10:18:56Z</time>
      </trkpt>
      <trkpt lat="43.00386172075481" lon="-1.289084484201886">
        <time>2021-03-18T10:18:56Z</time>
      </trkpt>
      <trkpt lat="43.00368476101089" lon="-1.29117818091119">
        <time>2021-03-18T10:18:56Z</time>
      </trkpt>
      <trkpt lat="43.00321597444037" lon="-1.291530138571976">
        <time>2021-03-18T10:18:56Z</time>
      </trkpt>
      <trkpt lat="43.00186171430386" lon="-1.291586062883777">
        <time>2021-03-18T10:18:56Z</time>
      </trkpt>
      <trkpt lat="43.0023655039636" lon="-1.293467225969671">
        <time>2021-03-18T10:18:56Z</time>
      </trkpt>
      <trkpt lat="43.00136294444635" lon="-1.294446189715769">
        <time>2021-03-18T10:18:56Z</time>
      </trkpt>
      <trkpt lat="43.00112137851962" lon="-1.296434582134216">
        <time>2021-03-18T10:18:56Z</time>
      </trkpt>
      <trkpt lat="43.00149153871706" lon="-1.297361560463982">
        <time>2021-03-18T10:18:56Z</time>
      </trkpt>
      <trkpt lat="43.0022664966024" lon="-1.297802014304762">
        <time>2021-03-18T10:18:56Z</time>
      </trkpt>
      <trkpt lat="43.00349031907975" lon="-1.297179856443362">
        <time>2021-03-18T10:18:56Z</time>
      </trkpt>
      <trkpt lat="43.00436004206169" lon="-1.297577426961329">
        <time>2021-03-18T10:18:56Z</time>
      </trkpt>
      <trkpt lat="43.00431547349862" lon="-1.299243157647754">
        <time>2021-03-18T10:18:56Z</time>
      </trkpt>
      <trkpt lat="43.00547308858476" lon="-1.300354019847331">
        <time>2021-03-18T10:18:56Z</time>
      </trkpt>
      <trkpt lat="43.00592557452036" lon="-1.303726501081677">
        <time>2021-03-18T10:18:56Z</time>
      </trkpt>
      <trkpt lat="43.0052905882892" lon="-1.304540054642456">
        <time>2021-03-18T10:18:56Z</time>
      </trkpt>
      <trkpt lat="43.00423674523486" lon="-1.303979821245233">
        <time>2021-03-18T10:18:56Z</time>
      </trkpt>
      <trkpt lat="43.00120905914973" lon="-1.30671058769243">
        <time>2021-03-18T10:18:56Z</time>
      </trkpt>
      <trkpt lat="42.99902579889759" lon="-1.316103805309556">
        <time>2021-03-18T10:18:56Z</time>
      </trkpt>
      <trkpt lat="43.00106031049891" lon="-1.316489452728306">
        <time>2021-03-18T10:18:56Z</time>
      </trkpt>
      <trkpt lat="43.00441242212539" lon="-1.319075462257031">
        <time>2021-03-18T10:18:56Z</time>
      </trkpt>
      <trkpt lat="43.00497501670693" lon="-1.319796164196369">
        <time>2021-03-18T10:18:56Z</time>
      </trkpt>
      <trkpt lat="43.00852331876845" lon="-1.319873236889776">
        <time>2021-03-18T10:18:56Z</time>
      </trkpt>
      <trkpt lat="43.00950678872322" lon="-1.322665449860913">
        <time>2021-03-18T10:18:56Z</time>
      </trkpt>
      <trkpt lat="43.01057745047542" lon="-1.319866347000487">
        <time>2021-03-18T10:18:56Z</time>
      </trkpt>
      <trkpt lat="43.0110506093875" lon="-1.319638154362601">
        <time>2021-03-18T10:18:56Z</time>
      </trkpt>
      <trkpt lat="43.01227254413239" lon="-1.319528343629065">
        <time>2021-03-18T10:18:56Z</time>
      </trkpt>
      <trkpt lat="43.01377093324958" lon="-1.319393582568195">
        <time>2021-03-18T10:18:56Z</time>
      </trkpt>
      <trkpt lat="43.01423177583678" lon="-1.319351046319122">
        <time>2021-03-18T10:18:56Z</time>
      </trkpt>
      <trkpt lat="43.01460873937966" lon="-1.31958860579745">
        <time>2021-03-18T10:18:56Z</time>
      </trkpt>
      <trkpt lat="43.01551057176138" lon="-1.320253628049797">
        <time>2021-03-18T10:18:56Z</time>
      </trkpt>
      <trkpt lat="43.01606688019151" lon="-1.321119268131022">
        <time>2021-03-18T10:18:56Z</time>
      </trkpt>
      <trkpt lat="43.01700871297575" lon="-1.322963803329543">
        <time>2021-03-18T10:18:56Z</time>
      </trkpt>
      <trkpt lat="43.0196037960752" lon="-1.323903366271731">
        <time>2021-03-18T10:18:56Z</time>
      </trkpt>
      <trkpt lat="43.02219095380143" lon="-1.327465122758579">
        <time>2021-03-18T10:18:56Z</time>
      </trkpt>
      <trkpt lat="43.02195654829885" lon="-1.330935762630343">
        <time>2021-03-18T10:18:56Z</time>
      </trkpt>
      <trkpt lat="43.02336679901317" lon="-1.331585914762604">
        <time>2021-03-18T10:18:56Z</time>
      </trkpt>
      <trkpt lat="43.02462106230929" lon="-1.333531291661355">
        <time>2021-03-18T10:18:56Z</time>
      </trkpt>
      <trkpt lat="43.02479972951616" lon="-1.335725486631803">
        <time>2021-03-18T10:18:56Z</time>
      </trkpt>
      <trkpt lat="43.02547696530461" lon="-1.338631007704361">
        <time>2021-03-18T10:18:56Z</time>
      </trkpt>
      <trkpt lat="43.02572039106658" lon="-1.342012829716588">
        <time>2021-03-18T10:18:56Z</time>
      </trkpt>
      <trkpt lat="43.02585338249428" lon="-1.343009387422605">
        <time>2021-03-18T10:18:56Z</time>
      </trkpt>
      <trkpt lat="43.02582303200967" lon="-1.344480055048815">
        <time>2021-03-18T10:18:56Z</time>
      </trkpt>
      <trkpt lat="43.02656996180958" lon="-1.347410168130792">
        <time>2021-03-18T10:18:56Z</time>
      </trkpt>
      <trkpt lat="43.02695248857671" lon="-1.350238788915552">
        <time>2021-03-18T10:18:56Z</time>
      </trkpt>
      <trkpt lat="43.02694757392328" lon="-1.350274409145967">
        <time>2021-03-18T10:18:56Z</time>
      </trkpt>
      <trkpt lat="43.02699335110402" lon="-1.352607994283284">
        <time>2021-03-18T10:18:56Z</time>
      </trkpt>
      <trkpt lat="43.02774745784497" lon="-1.353941595115759">
        <time>2021-03-18T10:18:56Z</time>
      </trkpt>
      <trkpt lat="43.03009091035667" lon="-1.357885355510782">
        <time>2021-03-18T10:18:56Z</time>
      </trkpt>
      <trkpt lat="43.03148610001742" lon="-1.358652391033409">
        <time>2021-03-18T10:18:56Z</time>
      </trkpt>
      <trkpt lat="43.03091453269114" lon="-1.365256011214747">
        <time>2021-03-18T10:18:56Z</time>
      </trkpt>
      <trkpt lat="43.02869502191022" lon="-1.3660366371629">
        <time>2021-03-18T10:18:56Z</time>
      </trkpt>
      <trkpt lat="43.02827896221483" lon="-1.367726205610229">
        <time>2021-03-18T10:18:56Z</time>
      </trkpt>
      <trkpt lat="43.02757513710156" lon="-1.367732074824264">
        <time>2021-03-18T10:18:56Z</time>
      </trkpt>
      <trkpt lat="43.02724935098541" lon="-1.366839858861982">
        <time>2021-03-18T10:18:56Z</time>
      </trkpt>
      <trkpt lat="43.02732000208118" lon="-1.366378012394393">
        <time>2021-03-18T10:18:56Z</time>
      </trkpt>
      <trkpt lat="43.02728694164751" lon="-1.365645224469203">
        <time>2021-03-18T10:18:56Z</time>
      </trkpt>
      <trkpt lat="43.02693132424054" lon="-1.366598244326494">
        <time>2021-03-18T10:18:56Z</time>
      </trkpt>
      <trkpt lat="43.02665456816425" lon="-1.366979955147235">
        <time>2021-03-18T10:18:56Z</time>
      </trkpt>
      <trkpt lat="43.02691749928768" lon="-1.36812176198938">
        <time>2021-03-18T10:18:56Z</time>
      </trkpt>
      <trkpt lat="43.0267439301029" lon="-1.369192640822819">
        <time>2021-03-18T10:18:56Z</time>
      </trkpt>
      <trkpt lat="43.0287172692667" lon="-1.371003292906776">
        <time>2021-03-18T10:18:56Z</time>
      </trkpt>
      <trkpt lat="43.03003721898441" lon="-1.370467912243754">
        <time>2021-03-18T10:18:56Z</time>
      </trkpt>
      <trkpt lat="43.02999671276853" lon="-1.372664508057445">
        <time>2021-03-18T10:18:56Z</time>
      </trkpt>
      <trkpt lat="43.03081193873028" lon="-1.374305410927627">
        <time>2021-03-18T10:18:56Z</time>
      </trkpt>
      <trkpt lat="43.03090392283063" lon="-1.37511865302601">
        <time>2021-03-18T10:18:56Z</time>
      </trkpt>
      <trkpt lat="43.03160158402195" lon="-1.375999617529726">
        <time>2021-03-18T10:18:56Z</time>
      </trkpt>
      <trkpt lat="43.03213828859515" lon="-1.376702094468015">
        <time>2021-03-18T10:18:56Z</time>
      </trkpt>
      <trkpt lat="43.03306079299415" lon="-1.376846675887512">
        <time>2021-03-18T10:18:56Z</time>
      </trkpt>
      <trkpt lat="43.03404916940709" lon="-1.377241773155724">
        <time>2021-03-18T10:18:56Z</time>
      </trkpt>
      <trkpt lat="43.03479753678644" lon="-1.378658106609003">
        <time>2021-03-18T10:18:56Z</time>
      </trkpt>
      <trkpt lat="43.03579207171546" lon="-1.379552050107739">
        <time>2021-03-18T10:18:56Z</time>
      </trkpt>
      <trkpt lat="43.03610747105613" lon="-1.381173007271374">
        <time>2021-03-18T10:18:56Z</time>
      </trkpt>
      <trkpt lat="43.03685804643077" lon="-1.381583097443894">
        <time>2021-03-18T10:18:56Z</time>
      </trkpt>
      <trkpt lat="43.03772829859753" lon="-1.383592132857324">
        <time>2021-03-18T10:18:56Z</time>
      </trkpt>
      <trkpt lat="43.0386207454638" lon="-1.385061226847003">
        <time>2021-03-18T10:18:56Z</time>
      </trkpt>
      <trkpt lat="43.03722777342024" lon="-1.386094947318874">
        <time>2021-03-18T10:18:56Z</time>
      </trkpt>
      <trkpt lat="43.03786215397485" lon="-1.386372445846211">
        <time>2021-03-18T10:18:56Z</time>
      </trkpt>
      <trkpt lat="43.03789785548383" lon="-1.386862916744427">
        <time>2021-03-18T10:18:56Z</time>
      </trkpt>
      <trkpt lat="43.03826916910412" lon="-1.386718533826575">
        <time>2021-03-18T10:18:56Z</time>
      </trkpt>
      <trkpt lat="43.03845585223864" lon="-1.387032572616518">
        <time>2021-03-18T10:18:56Z</time>
      </trkpt>
      <trkpt lat="43.04041174444319" lon="-1.386743849608386">
        <time>2021-03-18T10:18:56Z</time>
      </trkpt>
      <trkpt lat="43.04203918316681" lon="-1.385463823413318">
        <time>2021-03-18T10:18:56Z</time>
      </trkpt>
      <trkpt lat="43.04238710455199" lon="-1.386253265217415">
        <time>2021-03-18T10:18:56Z</time>
      </trkpt>
      <trkpt lat="43.04251815151799" lon="-1.387311930036714">
        <time>2021-03-18T10:18:56Z</time>
      </trkpt>
      <trkpt lat="43.04336947455354" lon="-1.387189071250909">
        <time>2021-03-18T10:18:56Z</time>
      </trkpt>
      <trkpt lat="43.04341110117839" lon="-1.38763663387703">
        <time>2021-03-18T10:18:56Z</time>
      </trkpt>
      <trkpt lat="43.04301912034212" lon="-1.388046727134222">
        <time>2021-03-18T10:18:56Z</time>
      </trkpt>
      <trkpt lat="43.04322657372929" lon="-1.388954590578014">
        <time>2021-03-18T10:18:56Z</time>
      </trkpt>
      <trkpt lat="43.04368583502307" lon="-1.390473728892697">
        <time>2021-03-18T10:18:56Z</time>
      </trkpt>
      <trkpt lat="43.04427843782312" lon="-1.391314559992913">
        <time>2021-03-18T10:18:56Z</time>
      </trkpt>
      <trkpt lat="43.0440638390759" lon="-1.391465140877535">
        <time>2021-03-18T10:18:56Z</time>
      </trkpt>
      <trkpt lat="43.0435676872141" lon="-1.391495786795098">
        <time>2021-03-18T10:18:56Z</time>
      </trkpt>
      <trkpt lat="43.04336169720127" lon="-1.391901761818377">
        <time>2021-03-18T10:18:56Z</time>
      </trkpt>
      <trkpt lat="43.04338725220722" lon="-1.392093401509114">
        <time>2021-03-18T10:18:56Z</time>
      </trkpt>
      <trkpt lat="43.04363005012668" lon="-1.392986720039872">
        <time>2021-03-18T10:18:56Z</time>
      </trkpt>
      <trkpt lat="43.04437604817677" lon="-1.393193230909356">
        <time>2021-03-18T10:18:56Z</time>
      </trkpt>
      <trkpt lat="43.04575581626453" lon="-1.394079178430382">
        <time>2021-03-18T10:18:56Z</time>
      </trkpt>
      <trkpt lat="43.04619848552331" lon="-1.395439927615773">
        <time>2021-03-18T10:18:56Z</time>
      </trkpt>
      <trkpt lat="43.04742906815119" lon="-1.396063380594286">
        <time>2021-03-18T10:18:56Z</time>
      </trkpt>
      <trkpt lat="43.0488754154027" lon="-1.395798554399612">
        <time>2021-03-18T10:18:56Z</time>
      </trkpt>
      <trkpt lat="43.04925149435989" lon="-1.396346660840186">
        <time>2021-03-18T10:18:56Z</time>
      </trkpt>
      <trkpt lat="43.05050692096592" lon="-1.396889133625099">
        <time>2021-03-18T10:18:56Z</time>
      </trkpt>
      <trkpt lat="43.05066545222315" lon="-1.396991922043855">
        <time>2021-03-18T10:18:56Z</time>
      </trkpt>
      <trkpt lat="43.0508651459383" lon="-1.397253048643039">
        <time>2021-03-18T10:18:56Z</time>
      </trkpt>
      <trkpt lat="43.05134279577379" lon="-1.396635361312745">
        <time>2021-03-18T10:18:56Z</time>
      </trkpt>
      <trkpt lat="43.0522302166025" lon="-1.395990564616298">
        <time>2021-03-18T10:18:56Z</time>
      </trkpt>
      <trkpt lat="43.05261565142009" lon="-1.395969981936438">
        <time>2021-03-18T10:18:56Z</time>
      </trkpt>
      <trkpt lat="43.05380015627348" lon="-1.395561382643598">
        <time>2021-03-18T10:18:56Z</time>
      </trkpt>
      <trkpt lat="43.0544332987566" lon="-1.39528796742724">
        <time>2021-03-18T10:18:56Z</time>
      </trkpt>
      <trkpt lat="43.05504254234587" lon="-1.395122874622873">
        <time>2021-03-18T10:18:56Z</time>
      </trkpt>
      <trkpt lat="43.05513982051097" lon="-1.393881689004439">
        <time>2021-03-18T10:18:56Z</time>
      </trkpt>
      <trkpt lat="43.05529662600561" lon="-1.393647817010448">
        <time>2021-03-18T10:18:56Z</time>
      </trkpt>
      <trkpt lat="43.05642442298436" lon="-1.393570582430846">
        <time>2021-03-18T10:18:56Z</time>
      </trkpt>
      <trkpt lat="43.05830359080125" lon="-1.395612089404418">
        <time>2021-03-18T10:18:56Z</time>
      </trkpt>
      <trkpt lat="43.05961721521104" lon="-1.396566473548062">
        <time>2021-03-18T10:18:56Z</time>
      </trkpt>
      <trkpt lat="43.06035407972613" lon="-1.394727217799618">
        <time>2021-03-18T10:18:56Z</time>
      </trkpt>
      <trkpt lat="43.06010386648208" lon="-1.39630154620392">
        <time>2021-03-18T10:18:56Z</time>
      </trkpt>
      <trkpt lat="43.06040531040708" lon="-1.396785353800395">
        <time>2021-03-18T10:18:56Z</time>
      </trkpt>
      <trkpt lat="43.0598344284162" lon="-1.397617511561804">
        <time>2021-03-18T10:18:56Z</time>
      </trkpt>
      <trkpt lat="43.06031105086272" lon="-1.398923458632908">
        <time>2021-03-18T10:18:56Z</time>
      </trkpt>
      <trkpt lat="43.06023583347286" lon="-1.399877467761633">
        <time>2021-03-18T10:18:56Z</time>
      </trkpt>
      <trkpt lat="43.06078598254502" lon="-1.401889420971968">
        <time>2021-03-18T10:18:56Z</time>
      </trkpt>
      <trkpt lat="43.06134511420021" lon="-1.401850746857867">
        <time>2021-03-18T10:18:56Z</time>
      </trkpt>
      <trkpt lat="43.0626111982302" lon="-1.403249944665543">
        <time>2021-03-18T10:18:56Z</time>
      </trkpt>
      <trkpt lat="43.06261978185086" lon="-1.404608930042924">
        <time>2021-03-18T10:18:56Z</time>
      </trkpt>
      <trkpt lat="43.06302391799907" lon="-1.405416181634017">
        <time>2021-03-18T10:18:56Z</time>
      </trkpt>
      <trkpt lat="43.06288411191012" lon="-1.406082619988069">
        <time>2021-03-18T10:18:56Z</time>
      </trkpt>
      <trkpt lat="43.06405541586267" lon="-1.40624053065794">
        <time>2021-03-18T10:18:56Z</time>
      </trkpt>
      <trkpt lat="43.06350373816967" lon="-1.407956858185661">
        <time>2021-03-18T10:18:56Z</time>
      </trkpt>
      <trkpt lat="43.06424191709294" lon="-1.409526668038049">
        <time>2021-03-18T10:18:56Z</time>
      </trkpt>
      <trkpt lat="43.06501260607121" lon="-1.410169231069582">
        <time>2021-03-18T10:18:56Z</time>
      </trkpt>
      <trkpt lat="43.0654045326091" lon="-1.411121426500466">
        <time>2021-03-18T10:18:56Z</time>
      </trkpt>
      <trkpt lat="43.06608247810928" lon="-1.411578494766511">
        <time>2021-03-18T10:18:56Z</time>
      </trkpt>
      <trkpt lat="43.06791948993637" lon="-1.413972711025201">
        <time>2021-03-18T10:18:56Z</time>
      </trkpt>
      <trkpt lat="43.06850676244592" lon="-1.4150443112339">
        <time>2021-03-18T10:18:56Z</time>
      </trkpt>
      <trkpt lat="43.06962668421856" lon="-1.416387180394659">
        <time>2021-03-18T10:18:56Z</time>
      </trkpt>
      <trkpt lat="43.07062416642395" lon="-1.416593025348212">
        <time>2021-03-18T10:18:56Z</time>
      </trkpt>
      <trkpt lat="43.07156288565482" lon="-1.417379905660101">
        <time>2021-03-18T10:18:56Z</time>
      </trkpt>
      <trkpt lat="43.07233533628416" lon="-1.417229039255812">
        <time>2021-03-18T10:18:56Z</time>
      </trkpt>
      <trkpt lat="43.07373697836372" lon="-1.418030455019234">
        <time>2021-03-18T10:18:56Z</time>
      </trkpt>
      <trkpt lat="43.0739751350815" lon="-1.418141593668147">
        <time>2021-03-18T10:18:56Z</time>
      </trkpt>
      <trkpt lat="43.07484233275815" lon="-1.418949394424963">
        <time>2021-03-18T10:18:56Z</time>
      </trkpt>
      <trkpt lat="43.07507265811799" lon="-1.419783523010796">
        <time>2021-03-18T10:18:56Z</time>
      </trkpt>
      <trkpt lat="43.07590814877622" lon="-1.420556676453474">
        <time>2021-03-18T10:18:56Z</time>
      </trkpt>
      <trkpt lat="43.07598854153624" lon="-1.420562918289812">
        <time>2021-03-18T10:18:56Z</time>
      </trkpt>
      <trkpt lat="43.07656591160981" lon="-1.420696879158679">
        <time>2021-03-18T10:18:56Z</time>
      </trkpt>
      <trkpt lat="43.07819233726555" lon="-1.421806434511536">
        <time>2021-03-18T10:18:56Z</time>
      </trkpt>
      <trkpt lat="43.07879203520264" lon="-1.421717720895203">
        <time>2021-03-18T10:18:56Z</time>
      </trkpt>
      <trkpt lat="43.0795654655494" lon="-1.422374136152402">
        <time>2021-03-18T10:18:56Z</time>
      </trkpt>
      <trkpt lat="43.0808529893138" lon="-1.422108436426831">
        <time>2021-03-18T10:18:56Z</time>
      </trkpt>
      <trkpt lat="43.08214773683769" lon="-1.422627552234741">
        <time>2021-03-18T10:18:56Z</time>
      </trkpt>
      <trkpt lat="43.08283259928338" lon="-1.423223236241142">
        <time>2021-03-18T10:18:56Z</time>
      </trkpt>
      <trkpt lat="43.08377239052809" lon="-1.423060019081684">
        <time>2021-03-18T10:18:56Z</time>
      </trkpt>
      <trkpt lat="43.08453512771008" lon="-1.423459446274336">
        <time>2021-03-18T10:18:56Z</time>
      </trkpt>
      <trkpt lat="43.0873188665712" lon="-1.424019232908222">
        <time>2021-03-18T10:18:56Z</time>
      </trkpt>
      <trkpt lat="43.0901373755104" lon="-1.42443747600309">
        <time>2021-03-18T10:18:56Z</time>
      </trkpt>
      <trkpt lat="43.09272989438994" lon="-1.42508024417205">
        <time>2021-03-18T10:18:56Z</time>
      </trkpt>
      <trkpt lat="43.09371339076362" lon="-1.424710665129341">
        <time>2021-03-18T10:18:56Z</time>
      </trkpt>
      <trkpt lat="43.09657227167306" lon="-1.425958608584574">
        <time>2021-03-18T10:18:56Z</time>
      </trkpt>
      <trkpt lat="43.09819344080307" lon="-1.426785099943376">
        <time>2021-03-18T10:18:56Z</time>
      </trkpt>
      <trkpt lat="43.09867523567547" lon="-1.427655128298756">
        <time>2021-03-18T10:18:56Z</time>
      </trkpt>
      <trkpt lat="43.0984157780411" lon="-1.429131453641102">
        <time>2021-03-18T10:18:56Z</time>
      </trkpt>
      <trkpt lat="43.09869578565056" lon="-1.429845167313294">
        <time>2021-03-18T10:18:56Z</time>
      </trkpt>
      <trkpt lat="43.09927714355722" lon="-1.430060180466076">
        <time>2021-03-18T10:18:56Z</time>
      </trkpt>
      <trkpt lat="43.1015200030265" lon="-1.433210538413419">
        <time>2021-03-18T10:18:56Z</time>
      </trkpt>
      <trkpt lat="43.10250393151641" lon="-1.433994160306173">
        <time>2021-03-18T10:18:56Z</time>
      </trkpt>
      <trkpt lat="43.10291443459742" lon="-1.434788568395994">
        <time>2021-03-18T10:18:56Z</time>
      </trkpt>
      <trkpt lat="43.10310015143405" lon="-1.433477948979899">
        <time>2021-03-18T10:18:56Z</time>
      </trkpt>
      <trkpt lat="43.10418064903194" lon="-1.433982613200122">
        <time>2021-03-18T10:18:56Z</time>
      </trkpt>
      <trkpt lat="43.10462471287111" lon="-1.433882606565389">
        <time>2021-03-18T10:18:56Z</time>
      </trkpt>
      <trkpt lat="43.10498798870783" lon="-1.43319460048689">
        <time>2021-03-18T10:18:56Z</time>
      </trkpt>
      <trkpt lat="43.10531469274511" lon="-1.432752147944686">
        <time>2021-03-18T10:18:56Z</time>
      </trkpt>
      <trkpt lat="43.10547347018176" lon="-1.433414413638751">
        <time>2021-03-18T10:18:56Z</time>
      </trkpt>
      <trkpt lat="43.10586509695568" lon="-1.432853421093403">
        <time>2021-03-18T10:18:56Z</time>
      </trkpt>
      <trkpt lat="43.10607756201531" lon="-1.433684852935098">
        <time>2021-03-18T10:18:56Z</time>
      </trkpt>
      <trkpt lat="43.10734533094097" lon="-1.434972079423518">
        <time>2021-03-18T10:18:56Z</time>
      </trkpt>
      <trkpt lat="43.10758851865312" lon="-1.43577386341245">
        <time>2021-03-18T10:18:56Z</time>
      </trkpt>
      <trkpt lat="43.10796702514708" lon="-1.435560319422479">
        <time>2021-03-18T10:18:56Z</time>
      </trkpt>
      <trkpt lat="43.10869801890716" lon="-1.437917943019308">
        <time>2021-03-18T10:18:56Z</time>
      </trkpt>
      <trkpt lat="43.10917497033086" lon="-1.438119949921763">
        <time>2021-03-18T10:18:56Z</time>
      </trkpt>
      <trkpt lat="43.10974554451124" lon="-1.439103802398511">
        <time>2021-03-18T10:18:56Z</time>
      </trkpt>
      <trkpt lat="43.11025392685561" lon="-1.440820874436486">
        <time>2021-03-18T10:18:56Z</time>
      </trkpt>
      <trkpt lat="43.11111464500863" lon="-1.439854417065494">
        <time>2021-03-18T10:18:56Z</time>
      </trkpt>
      <trkpt lat="43.11206235286629" lon="-1.439114649720952">
        <time>2021-03-18T10:18:56Z</time>
      </trkpt>
      <trkpt lat="43.11225621039016" lon="-1.438819871922301">
        <time>2021-03-18T10:18:56Z</time>
      </trkpt>
      <trkpt lat="43.11249296367731" lon="-1.439090755534322">
        <time>2021-03-18T10:18:56Z</time>
      </trkpt>
      <trkpt lat="43.11251281572206" lon="-1.439151531390081">
        <time>2021-03-18T10:18:56Z</time>
      </trkpt>
      <trkpt lat="43.11346899597827" lon="-1.439022252406312">
        <time>2021-03-18T10:18:56Z</time>
      </trkpt>
      <trkpt lat="43.1135014908321" lon="-1.439010154992891">
        <time>2021-03-18T10:18:56Z</time>
      </trkpt>
      <trkpt lat="43.11448939771285" lon="-1.439416892628164">
        <time>2021-03-18T10:18:56Z</time>
      </trkpt>
      <trkpt lat="43.11656785563599" lon="-1.439678281739729">
        <time>2021-03-18T10:18:56Z</time>
      </trkpt>
      <trkpt lat="43.11699141857406" lon="-1.438695887453599">
        <time>2021-03-18T10:18:56Z</time>
      </trkpt>
      <trkpt lat="43.11733554172318" lon="-1.439061262381373">
        <time>2021-03-18T10:18:56Z</time>
      </trkpt>
      <trkpt lat="43.11777690373375" lon="-1.440054895624398">
        <time>2021-03-18T10:18:56Z</time>
      </trkpt>
      <trkpt lat="43.11895047362388" lon="-1.440473231099189">
        <time>2021-03-18T10:18:56Z</time>
      </trkpt>
      <trkpt lat="43.11998639962641" lon="-1.440712649749604">
        <time>2021-03-18T10:18:56Z</time>
      </trkpt>
      <trkpt lat="43.12043782281704" lon="-1.439601763935716">
        <time>2021-03-18T10:18:56Z</time>
      </trkpt>
      <trkpt lat="43.12077293024018" lon="-1.440079965381907">
        <time>2021-03-18T10:18:56Z</time>
      </trkpt>
      <trkpt lat="43.12064694453606" lon="-1.440969143961713">
        <time>2021-03-18T10:18:56Z</time>
      </trkpt>
      <trkpt lat="43.12088295495241" lon="-1.441444950383056">
        <time>2021-03-18T10:18:56Z</time>
      </trkpt>
      <trkpt lat="43.12056329142764" lon="-1.442414152866106">
        <time>2021-03-18T10:18:56Z</time>
      </trkpt>
      <trkpt lat="43.12090988867976" lon="-1.443419927439652">
        <time>2021-03-18T10:18:56Z</time>
      </trkpt>
      <trkpt lat="43.12151227629085" lon="-1.444185858278735">
        <time>2021-03-18T10:18:56Z</time>
      </trkpt>
      <trkpt lat="43.12196242728324" lon="-1.444286438614105">
        <time>2021-03-18T10:18:56Z</time>
      </trkpt>
      <trkpt lat="43.12302556313512" lon="-1.445186871417874">
        <time>2021-03-18T10:18:56Z</time>
      </trkpt>
      <trkpt lat="43.12382215272022" lon="-1.444847276595411">
        <time>2021-03-18T10:18:56Z</time>
      </trkpt>
      <trkpt lat="43.12505661775235" lon="-1.448073442091412">
        <time>2021-03-18T10:18:56Z</time>
      </trkpt>
      <trkpt lat="43.12582358937844" lon="-1.449137666940408">
        <time>2021-03-18T10:18:56Z</time>
      </trkpt>
      <trkpt lat="43.12643145277298" lon="-1.449459421011144">
        <time>2021-03-18T10:18:56Z</time>
      </trkpt>
      <trkpt lat="43.12719535909113" lon="-1.449258457358935">
        <time>2021-03-18T10:18:56Z</time>
      </trkpt>
      <trkpt lat="43.1276783918746" lon="-1.449334772962991">
        <time>2021-03-18T10:18:56Z</time>
      </trkpt>
      <trkpt lat="43.12766016771384" lon="-1.450280185188217">
        <time>2021-03-18T10:18:56Z</time>
      </trkpt>
      <trkpt lat="43.12773655378297" lon="-1.450759394307903">
        <time>2021-03-18T10:18:56Z</time>
      </trkpt>
      <trkpt lat="43.12806614450908" lon="-1.451681575780958">
        <time>2021-03-18T10:18:56Z</time>
      </trkpt>
      <trkpt lat="43.12823333085309" lon="-1.452333022940834">
        <time>2021-03-18T10:18:56Z</time>
      </trkpt>
      <trkpt lat="43.12862734518976" lon="-1.452984430611098">
        <time>2021-03-18T10:18:56Z</time>
      </trkpt>
      <trkpt lat="43.1291875395871" lon="-1.453938847005585">
        <time>2021-03-18T10:18:56Z</time>
      </trkpt>
      <trkpt lat="43.12991366515835" lon="-1.455458346609136">
        <time>2021-03-18T10:18:56Z</time>
      </trkpt>
      <trkpt lat="43.13004525788352" lon="-1.45592024715241">
        <time>2021-03-18T10:18:56Z</time>
      </trkpt>
      <trkpt lat="43.13074106878583" lon="-1.457449244711054">
        <time>2021-03-18T10:18:56Z</time>
      </trkpt>
      <trkpt lat="43.13086302765123" lon="-1.458075035722845">
        <time>2021-03-18T10:18:56Z</time>
      </trkpt>
      <trkpt lat="43.13086628963759" lon="-1.458249259609432">
        <time>2021-03-18T10:18:56Z</time>
      </trkpt>
      <trkpt lat="43.13099947776393" lon="-1.459045438165406">
        <time>2021-03-18T10:18:56Z</time>
      </trkpt>
      <trkpt lat="43.13096081647603" lon="-1.459227551893794">
        <time>2021-03-18T10:18:56Z</time>
      </trkpt>
      <trkpt lat="43.13093866770466" lon="-1.459762460388382">
        <time>2021-03-18T10:18:56Z</time>
      </trkpt>
      <trkpt lat="43.13108625030284" lon="-1.460188339959371">
        <time>2021-03-18T10:18:56Z</time>
      </trkpt>
      <trkpt lat="43.13104525463096" lon="-1.460430783351693">
        <time>2021-03-18T10:18:56Z</time>
      </trkpt>
      <trkpt lat="43.13091680272253" lon="-1.460520241341898">
        <time>2021-03-18T10:18:56Z</time>
      </trkpt>
      <trkpt lat="43.13091168319861" lon="-1.460651259041678">
        <time>2021-03-18T10:18:56Z</time>
      </trkpt>
      <trkpt lat="43.13137478081723" lon="-1.46135884176683">
        <time>2021-03-18T10:18:56Z</time>
      </trkpt>
      <trkpt lat="43.13143240117903" lon="-1.461539021024384">
        <time>2021-03-18T10:18:56Z</time>
      </trkpt>
      <trkpt lat="43.13180394869823" lon="-1.461677675238094">
        <time>2021-03-18T10:18:56Z</time>
      </trkpt>
      <trkpt lat="43.13202521598794" lon="-1.461949714483185">
        <time>2021-03-18T10:18:56Z</time>
      </trkpt>
      <trkpt lat="43.13209513084883" lon="-1.462793370738611">
        <time>2021-03-18T10:18:56Z</time>
      </trkpt>
      <trkpt lat="43.13208720791084" lon="-1.463325232589242">
        <time>2021-03-18T10:18:56Z</time>
      </trkpt>
      <trkpt lat="43.13230621437535" lon="-1.463912302961568">
        <time>2021-03-18T10:18:56Z</time>
      </trkpt>
      <trkpt lat="43.13241791552574" lon="-1.464042309628479">
        <time>2021-03-18T10:18:56Z</time>
      </trkpt>
      <trkpt lat="43.13241937181997" lon="-1.464219085360532">
        <time>2021-03-18T10:18:56Z</time>
      </trkpt>
      <trkpt lat="43.13324046567261" lon="-1.465450934642242">
        <time>2021-03-18T10:18:56Z</time>
      </trkpt>
      <trkpt lat="43.13342719246639" lon="-1.465476815118854">
        <time>2021-03-18T10:18:56Z</time>
      </trkpt>
      <trkpt lat="43.13380376302036" lon="-1.466600153839667">
        <time>2021-03-18T10:18:56Z</time>
      </trkpt>
      <trkpt lat="43.13383321229663" lon="-1.466778594444519">
        <time>2021-03-18T10:18:56Z</time>
      </trkpt>
      <trkpt lat="43.13492016557741" lon="-1.468512392016121">
        <time>2021-03-18T10:18:56Z</time>
      </trkpt>
      <trkpt lat="43.13529946490987" lon="-1.469352763124113">
        <time>2021-03-18T10:18:56Z</time>
      </trkpt>
      <trkpt lat="43.13545491624042" lon="-1.47029840274767">
        <time>2021-03-18T10:18:56Z</time>
      </trkpt>
      <trkpt lat="43.13546711023388" lon="-1.47072667618943">
        <time>2021-03-18T10:18:56Z</time>
      </trkpt>
      <trkpt lat="43.13550908638015" lon="-1.471321093826082">
        <time>2021-03-18T10:18:56Z</time>
      </trkpt>
      <trkpt lat="43.13575363902644" lon="-1.471759978076315">
        <time>2021-03-18T10:18:56Z</time>
      </trkpt>
      <trkpt lat="43.13621774589293" lon="-1.471659828434185">
        <time>2021-03-18T10:18:56Z</time>
      </trkpt>
      <trkpt lat="43.13710112315238" lon="-1.471887748533779">
        <time>2021-03-18T10:18:56Z</time>
      </trkpt>
      <trkpt lat="43.13751845331651" lon="-1.473087274386625">
        <time>2021-03-18T10:18:56Z</time>
      </trkpt>
      <trkpt lat="43.13758037042132" lon="-1.47431414179696">
        <time>2021-03-18T10:18:56Z</time>
      </trkpt>
      <trkpt lat="43.13818758538144" lon="-1.475763232055337">
        <time>2021-03-18T10:18:56Z</time>
      </trkpt>
      <trkpt lat="43.13864588907706" lon="-1.476279867344007">
        <time>2021-03-18T10:18:56Z</time>
      </trkpt>
      <trkpt lat="43.13929105295516" lon="-1.476816937569">
        <time>2021-03-18T10:18:56Z</time>
      </trkpt>
      <trkpt lat="43.13998156788733" lon="-1.478081174201561">
        <time>2021-03-18T10:18:56Z</time>
      </trkpt>
      <trkpt lat="43.14050479213081" lon="-1.478512382071622">
        <time>2021-03-18T10:18:56Z</time>
      </trkpt>
      <trkpt lat="43.14078569076283" lon="-1.480308556861415">
        <time>2021-03-18T10:18:56Z</time>
      </trkpt>
      <trkpt lat="43.14133983047398" lon="-1.480810671217269">
        <time>2021-03-18T10:18:56Z</time>
      </trkpt>
      <trkpt lat="43.14230110415114" lon="-1.482025723828314">
        <time>2021-03-18T10:18:56Z</time>
      </trkpt>
      <trkpt lat="43.14259143044319" lon="-1.482226130701271">
        <time>2021-03-18T10:18:56Z</time>
      </trkpt>
      <trkpt lat="43.14356585826818" lon="-1.483484519727143">
        <time>2021-03-18T10:18:56Z</time>
      </trkpt>
      <trkpt lat="43.1436157278287" lon="-1.48515626173205">
        <time>2021-03-18T10:18:56Z</time>
      </trkpt>
      <trkpt lat="43.14312732660839" lon="-1.486106140355078">
        <time>2021-03-18T10:18:56Z</time>
      </trkpt>
      <trkpt lat="43.14303753861272" lon="-1.489156775375424">
        <time>2021-03-18T10:18:56Z</time>
      </trkpt>
      <trkpt lat="43.14430232196636" lon="-1.491756516273641">
        <time>2021-03-18T10:18:56Z</time>
      </trkpt>
      <trkpt lat="43.14427316499256" lon="-1.49196172867848">
        <time>2021-03-18T10:18:56Z</time>
      </trkpt>
      <trkpt lat="43.14398666757793" lon="-1.492451257295053">
        <time>2021-03-18T10:18:56Z</time>
      </trkpt>
      <trkpt lat="43.14427810905887" lon="-1.49329177018649">
        <time>2021-03-18T10:18:56Z</time>
      </trkpt>
      <trkpt lat="43.14402538294794" lon="-1.493795137412901">
        <time>2021-03-18T10:18:56Z</time>
      </trkpt>
      <trkpt lat="43.14390909901412" lon="-1.493992721719827">
        <time>2021-03-18T10:18:56Z</time>
      </trkpt>
      <trkpt lat="43.14350804364311" lon="-1.493516050915219">
        <time>2021-03-18T10:18:56Z</time>
      </trkpt>
      <trkpt lat="43.14349703797182" lon="-1.494268494386469">
        <time>2021-03-18T10:18:56Z</time>
      </trkpt>
      <trkpt lat="43.14310669823607" lon="-1.494626157617032">
        <time>2021-03-18T10:18:56Z</time>
      </trkpt>
      <trkpt lat="43.14296067017244" lon="-1.494594891087726">
        <time>2021-03-18T10:18:56Z</time>
      </trkpt>
      <trkpt lat="43.14304665328583" lon="-1.494135632263905">
        <time>2021-03-18T10:18:56Z</time>
      </trkpt>
      <trkpt lat="43.14190748077378" lon="-1.495182558957883">
        <time>2021-03-18T10:18:56Z</time>
      </trkpt>
      <trkpt lat="43.14147478684059" lon="-1.495705725187571">
        <time>2021-03-18T10:18:56Z</time>
      </trkpt>
      <trkpt lat="43.14132592260597" lon="-1.495500025453814">
        <time>2021-03-18T10:18:56Z</time>
      </trkpt>
      <trkpt lat="43.14032379292937" lon="-1.496384593499666">
        <time>2021-03-18T10:18:56Z</time>
      </trkpt>
      <trkpt lat="43.14037266120646" lon="-1.497125407631824">
        <time>2021-03-18T10:18:56Z</time>
      </trkpt>
      <trkpt lat="43.14046917780967" lon="-1.498199956763219">
        <time>2021-03-18T10:18:56Z</time>
      </trkpt>
      <trkpt lat="43.14050610773497" lon="-1.498729769805507">
        <time>2021-03-18T10:18:56Z</time>
      </trkpt>
      <trkpt lat="43.14077357419558" lon="-1.499346128534392">
        <time>2021-03-18T10:18:56Z</time>
      </trkpt>
      <trkpt lat="43.1412987688989" lon="-1.500379618777068">
        <time>2021-03-18T10:18:56Z</time>
      </trkpt>
      <trkpt lat="43.14121270616135" lon="-1.500743553862136">
        <time>2021-03-18T10:18:56Z</time>
      </trkpt>
      <trkpt lat="43.14155268713456" lon="-1.501391431758018">
        <time>2021-03-18T10:18:56Z</time>
      </trkpt>
      <trkpt lat="43.14093924828626" lon="-1.501506360336602">
        <time>2021-03-18T10:18:56Z</time>
      </trkpt>
      <trkpt lat="43.14068382405009" lon="-1.50137794420901">
        <time>2021-03-18T10:18:56Z</time>
      </trkpt>
      <trkpt lat="43.14027651640772" lon="-1.500721246355314">
        <time>2021-03-18T10:18:56Z</time>
      </trkpt>
      <trkpt lat="43.14022166419053" lon="-1.501043138509046">
        <time>2021-03-18T10:18:56Z</time>
      </trkpt>
      <trkpt lat="43.14038384275358" lon="-1.501635430528666">
        <time>2021-03-18T10:18:56Z</time>
      </trkpt>
      <trkpt lat="43.14090711748732" lon="-1.502492963150908">
        <time>2021-03-18T10:18:56Z</time>
      </trkpt>
      <trkpt lat="43.14133614138694" lon="-1.502932671238189">
        <time>2021-03-18T10:18:56Z</time>
      </trkpt>
      <trkpt lat="43.14211946114095" lon="-1.503680723968948">
        <time>2021-03-18T10:18:56Z</time>
      </trkpt>
      <trkpt lat="43.14194978005934" lon="-1.504413922344651">
        <time>2021-03-18T10:18:56Z</time>
      </trkpt>
      <trkpt lat="43.14287621073949" lon="-1.505306580478012">
        <time>2021-03-18T10:18:56Z</time>
      </trkpt>
      <trkpt lat="43.14307545847029" lon="-1.505458301137728">
        <time>2021-03-18T10:18:56Z</time>
      </trkpt>
      <trkpt lat="43.14496915982718" lon="-1.506151911443179">
        <time>2021-03-18T10:18:56Z</time>
      </trkpt>
      <trkpt lat="43.1456777047419" lon="-1.507023741940324">
        <time>2021-03-18T10:18:56Z</time>
      </trkpt>
      <trkpt lat="43.1464029747719" lon="-1.506874887374941">
        <time>2021-03-18T10:18:56Z</time>
      </trkpt>
      <trkpt lat="43.14655242175306" lon="-1.506496789294566">
        <time>2021-03-18T10:18:56Z</time>
      </trkpt>
      <trkpt lat="43.14703764389986" lon="-1.506210530155623">
        <time>2021-03-18T10:18:56Z</time>
      </trkpt>
      <trkpt lat="43.14758858800208" lon="-1.506528233995899">
        <time>2021-03-18T10:18:56Z</time>
      </trkpt>
      <trkpt lat="43.14742897668589" lon="-1.507923651470938">
        <time>2021-03-18T10:18:56Z</time>
      </trkpt>
      <trkpt lat="43.14789986594494" lon="-1.508755954389064">
        <time>2021-03-18T10:18:56Z</time>
      </trkpt>
      <trkpt lat="43.14800820354576" lon="-1.50955030951606">
        <time>2021-03-18T10:18:56Z</time>
      </trkpt>
      <trkpt lat="43.14809149069692" lon="-1.511381043952108">
        <time>2021-03-18T10:18:56Z</time>
      </trkpt>
      <trkpt lat="43.14831678618729" lon="-1.512427518376234">
        <time>2021-03-18T10:18:56Z</time>
      </trkpt>
      <trkpt lat="43.14856786042253" lon="-1.513095386065007">
        <time>2021-03-18T10:18:56Z</time>
      </trkpt>
      <trkpt lat="43.14655747981873" lon="-1.51602937000175">
        <time>2021-03-18T10:18:56Z</time>
      </trkpt>
      <trkpt lat="43.14617710841459" lon="-1.516814421438378">
        <time>2021-03-18T10:18:56Z</time>
      </trkpt>
      <trkpt lat="43.14559251514399" lon="-1.517872697472993">
        <time>2021-03-18T10:18:56Z</time>
      </trkpt>
      <trkpt lat="43.14435659001232" lon="-1.518634986614142">
        <time>2021-03-18T10:18:56Z</time>
      </trkpt>
      <trkpt lat="43.14310090102354" lon="-1.520025653397622">
        <time>2021-03-18T10:18:56Z</time>
      </trkpt>
      <trkpt lat="43.14325923619001" lon="-1.519787867673161">
        <time>2021-03-18T10:19:06Z</time>
      </trkpt>
      <trkpt lat="43.14415599589025" lon="-1.521105057878159">
        <time>2021-03-18T10:19:06Z</time>
      </trkpt>
      <trkpt lat="43.14448113496391" lon="-1.522474092076256">
        <time>2021-03-18T10:19:06Z</time>
      </trkpt>
      <trkpt lat="43.14509327298433" lon="-1.523593932037287">
        <time>2021-03-18T10:19:06Z</time>
      </trkpt>
      <trkpt lat="43.14502504619254" lon="-1.523850569708721">
        <time>2021-03-18T10:19:06Z</time>
      </trkpt>
      <trkpt lat="43.14548462726454" lon="-1.524801192168042">
        <time>2021-03-18T10:19:06Z</time>
      </trkpt>
      <trkpt lat="43.1459597323913" lon="-1.52688314179428">
        <time>2021-03-18T10:19:06Z</time>
      </trkpt>
      <trkpt lat="43.14570681461856" lon="-1.527243064447241">
        <time>2021-03-18T10:19:06Z</time>
      </trkpt>
      <trkpt lat="43.14517663353067" lon="-1.527374381027741">
        <time>2021-03-18T10:19:06Z</time>
      </trkpt>
      <trkpt lat="43.14479543447036" lon="-1.528040035016171">
        <time>2021-03-18T10:19:06Z</time>
      </trkpt>
      <trkpt lat="43.14519178047333" lon="-1.528834490561291">
        <time>2021-03-18T10:19:06Z</time>
      </trkpt>
      <trkpt lat="43.14543778076983" lon="-1.529352351721705">
        <time>2021-03-18T10:19:06Z</time>
      </trkpt>
      <trkpt lat="43.14561678308954" lon="-1.528921150717092">
        <time>2021-03-18T10:19:06Z</time>
      </trkpt>
      <trkpt lat="43.14621991557428" lon="-1.528253745854147">
        <time>2021-03-18T10:19:06Z</time>
      </trkpt>
      <trkpt lat="43.14618841025832" lon="-1.528952785854232">
        <time>2021-03-18T10:19:06Z</time>
      </trkpt>
      <trkpt lat="43.1466695230183" lon="-1.529971396419367">
        <time>2021-03-18T10:19:06Z</time>
      </trkpt>
      <trkpt lat="43.14795436516472" lon="-1.528929798248523">
        <time>2021-03-18T10:19:06Z</time>
      </trkpt>
      <trkpt lat="43.1491802634592" lon="-1.52922531764058">
        <time>2021-03-18T10:19:06Z</time>
      </trkpt>
      <trkpt lat="43.14920259451868" lon="-1.529224899321451">
        <time>2021-03-18T10:19:06Z</time>
      </trkpt>
      <trkpt lat="43.1497334399456" lon="-1.529719893772938">
        <time>2021-03-18T10:19:06Z</time>
      </trkpt>
      <trkpt lat="43.1501237913478" lon="-1.529799901838991">
        <time>2021-03-18T10:19:06Z</time>
      </trkpt>
      <trkpt lat="43.15087416418658" lon="-1.530353572606105">
        <time>2021-03-18T10:19:06Z</time>
      </trkpt>
      <trkpt lat="43.15094423433545" lon="-1.530952989812086">
        <time>2021-03-18T10:19:06Z</time>
      </trkpt>
      <trkpt lat="43.15224079096828" lon="-1.532150290552258">
        <time>2021-03-18T10:19:06Z</time>
      </trkpt>
      <trkpt lat="43.15239834461352" lon="-1.532410516358771">
        <time>2021-03-18T10:19:06Z</time>
      </trkpt>
      <trkpt lat="43.15231483192169" lon="-1.533176972217212">
        <time>2021-03-18T10:19:06Z</time>
      </trkpt>
      <trkpt lat="43.15199625503901" lon="-1.533708093576565">
        <time>2021-03-18T10:19:06Z</time>
      </trkpt>
      <trkpt lat="43.15151818101384" lon="-1.533716451564836">
        <time>2021-03-18T10:19:06Z</time>
      </trkpt>
      <trkpt lat="43.1487350750441" lon="-1.535097279279536">
        <time>2021-03-18T10:19:06Z</time>
      </trkpt>
      <trkpt lat="43.15042228246121" lon="-1.537592367977707">
        <time>2021-03-18T10:19:06Z</time>
      </trkpt>
      <trkpt lat="43.15271351656468" lon="-1.537272617480647">
        <time>2021-03-18T10:19:06Z</time>
      </trkpt>
      <trkpt lat="43.15295037202633" lon="-1.538506487628172">
        <time>2021-03-18T10:19:06Z</time>
      </trkpt>
      <trkpt lat="43.15337842357297" lon="-1.538633303643531">
        <time>2021-03-18T10:19:06Z</time>
      </trkpt>
      <trkpt lat="43.15365255776997" lon="-1.539279095052449">
        <time>2021-03-18T10:19:06Z</time>
      </trkpt>
      <trkpt lat="43.15327782671922" lon="-1.539622537202618">
        <time>2021-03-18T10:19:06Z</time>
      </trkpt>
      <trkpt lat="43.15326069771818" lon="-1.540573217838552">
        <time>2021-03-18T10:19:06Z</time>
      </trkpt>
      <trkpt lat="43.15294726922205" lon="-1.541017773577953">
        <time>2021-03-18T10:19:06Z</time>
      </trkpt>
      <trkpt lat="43.15313006958129" lon="-1.541785628625628">
        <time>2021-03-18T10:19:06Z</time>
      </trkpt>
      <trkpt lat="43.15407490422864" lon="-1.542095800636394">
        <time>2021-03-18T10:19:06Z</time>
      </trkpt>
      <trkpt lat="43.15370608168892" lon="-1.542504453079598">
        <time>2021-03-18T10:19:06Z</time>
      </trkpt>
      <trkpt lat="43.15321009470149" lon="-1.542272017062515">
        <time>2021-03-18T10:19:06Z</time>
      </trkpt>
      <trkpt lat="43.15211188778686" lon="-1.543040981172652">
        <time>2021-03-18T10:19:06Z</time>
      </trkpt>
      <trkpt lat="43.15225585260698" lon="-1.543649510518536">
        <time>2021-03-18T10:19:06Z</time>
      </trkpt>
      <trkpt lat="43.15235577673087" lon="-1.544795623077924">
        <time>2021-03-18T10:19:06Z</time>
      </trkpt>
      <trkpt lat="43.15286090672866" lon="-1.546238039882152">
        <time>2021-03-18T10:19:06Z</time>
      </trkpt>
      <trkpt lat="43.15394143765077" lon="-1.548568445724301">
        <time>2021-03-18T10:19:06Z</time>
      </trkpt>
      <trkpt lat="43.15464633751405" lon="-1.550634534438505">
        <time>2021-03-18T10:19:06Z</time>
      </trkpt>
      <trkpt lat="43.15475115482371" lon="-1.549983650440946">
        <time>2021-03-18T10:19:06Z</time>
      </trkpt>
      <trkpt lat="43.15554990752359" lon="-1.551623951969251">
        <time>2021-03-18T10:19:06Z</time>
      </trkpt>
      <trkpt lat="43.15595865760702" lon="-1.553560328252989">
        <time>2021-03-18T10:19:06Z</time>
      </trkpt>
      <trkpt lat="43.15642691415307" lon="-1.553231321410988">
        <time>2021-03-18T10:19:06Z</time>
      </trkpt>
      <trkpt lat="43.15665206880082" lon="-1.553654113584649">
        <time>2021-03-18T10:19:06Z</time>
      </trkpt>
      <trkpt lat="43.15689373650559" lon="-1.553667419740157">
        <time>2021-03-18T10:19:06Z</time>
      </trkpt>
      <trkpt lat="43.15746428936475" lon="-1.553127752985892">
        <time>2021-03-18T10:19:06Z</time>
      </trkpt>
      <trkpt lat="43.15867153026233" lon="-1.554543583393566">
        <time>2021-03-18T10:19:06Z</time>
      </trkpt>
      <trkpt lat="43.15888104791732" lon="-1.553631793143764">
        <time>2021-03-18T10:19:06Z</time>
      </trkpt>
      <trkpt lat="43.15917676178159" lon="-1.553615760518097">
        <time>2021-03-18T10:19:06Z</time>
      </trkpt>
      <trkpt lat="43.16083053042168" lon="-1.555118342830091">
        <time>2021-03-18T10:19:06Z</time>
      </trkpt>
      <trkpt lat="43.16111596826088" lon="-1.555561338349628">
        <time>2021-03-18T10:19:06Z</time>
      </trkpt>
      <trkpt lat="43.16144043364083" lon="-1.555639642734724">
        <time>2021-03-18T10:19:06Z</time>
      </trkpt>
      <trkpt lat="43.16176345995528" lon="-1.555788285480276">
        <time>2021-03-18T10:19:06Z</time>
      </trkpt>
      <trkpt lat="43.16177540803074" lon="-1.555791826150853">
        <time>2021-03-18T10:19:06Z</time>
      </trkpt>
      <trkpt lat="43.16205336067525" lon="-1.555872367914472">
        <time>2021-03-18T10:19:06Z</time>
      </trkpt>
      <trkpt lat="43.16270368716992" lon="-1.555934596280102">
        <time>2021-03-18T10:19:06Z</time>
      </trkpt>
      <trkpt lat="43.16332452402956" lon="-1.556542571477548">
        <time>2021-03-18T10:19:06Z</time>
      </trkpt>
      <trkpt lat="43.1642108422731" lon="-1.556676176369138">
        <time>2021-03-18T10:19:06Z</time>
      </trkpt>
      <trkpt lat="43.16478639450897" lon="-1.556744883884855">
        <time>2021-03-18T10:19:06Z</time>
      </trkpt>
      <trkpt lat="43.16515259101681" lon="-1.557006360771748">
        <time>2021-03-18T10:19:06Z</time>
      </trkpt>
      <trkpt lat="43.16549446425454" lon="-1.556896376312997">
        <time>2021-03-18T10:19:06Z</time>
      </trkpt>
      <trkpt lat="43.16555007256844" lon="-1.556611935337104">
        <time>2021-03-18T10:19:06Z</time>
      </trkpt>
      <trkpt lat="43.16574108032" lon="-1.556238920552564">
        <time>2021-03-18T10:19:06Z</time>
      </trkpt>
      <trkpt lat="43.16542296955936" lon="-1.555854349729248">
        <time>2021-03-18T10:19:06Z</time>
      </trkpt>
      <trkpt lat="43.16536186121039" lon="-1.555549321648024">
        <time>2021-03-18T10:19:06Z</time>
      </trkpt>
      <trkpt lat="43.1654349277178" lon="-1.555482897462792">
        <time>2021-03-18T10:19:06Z</time>
      </trkpt>
      <trkpt lat="43.16559472519715" lon="-1.555449554507985">
        <time>2021-03-18T10:19:06Z</time>
      </trkpt>
      <trkpt lat="43.16597125879096" lon="-1.555474500355163">
        <time>2021-03-18T10:19:06Z</time>
      </trkpt>
      <trkpt lat="43.16619084696251" lon="-1.555164087162663">
        <time>2021-03-18T10:19:06Z</time>
      </trkpt>
      <trkpt lat="43.16626104838668" lon="-1.554885116658435">
        <time>2021-03-18T10:19:06Z</time>
      </trkpt>
      <trkpt lat="43.16624840072636" lon="-1.554852632351021">
        <time>2021-03-18T10:19:06Z</time>
      </trkpt>
      <trkpt lat="43.16608647144327" lon="-1.554682615003911">
        <time>2021-03-18T10:19:06Z</time>
      </trkpt>
      <trkpt lat="43.16631810308524" lon="-1.554757857779431">
        <time>2021-03-18T10:19:06Z</time>
      </trkpt>
      <trkpt lat="43.16656547915731" lon="-1.554309427543357">
        <time>2021-03-18T10:19:06Z</time>
      </trkpt>
      <trkpt lat="43.16657323885173" lon="-1.553802170014416">
        <time>2021-03-18T10:19:06Z</time>
      </trkpt>
      <trkpt lat="43.1665700308298" lon="-1.553768583910188">
        <time>2021-03-18T10:19:06Z</time>
      </trkpt>
      <trkpt lat="43.16653254132825" lon="-1.553316493201389">
        <time>2021-03-18T10:19:06Z</time>
      </trkpt>
      <trkpt lat="43.16652756427314" lon="-1.553292476679038">
        <time>2021-03-18T10:19:06Z</time>
      </trkpt>
      <trkpt lat="43.16617509588057" lon="-1.5524944832527">
        <time>2021-03-18T10:19:06Z</time>
      </trkpt>
      <trkpt lat="43.16583014554188" lon="-1.551382224495603">
        <time>2021-03-18T10:19:06Z</time>
      </trkpt>
      <trkpt lat="43.16587421615463" lon="-1.550820636513096">
        <time>2021-03-18T10:19:06Z</time>
      </trkpt>
      <trkpt lat="43.16536573807495" lon="-1.549591753942953">
        <time>2021-03-18T10:19:06Z</time>
      </trkpt>
      <trkpt lat="43.16517111540425" lon="-1.547437969271652">
        <time>2021-03-18T10:19:06Z</time>
      </trkpt>
      <trkpt lat="43.16539805949729" lon="-1.546579956562261">
        <time>2021-03-18T10:19:06Z</time>
      </trkpt>
      <trkpt lat="43.16533918554423" lon="-1.545945098675989">
        <time>2021-03-18T10:19:06Z</time>
      </trkpt>
      <trkpt lat="43.16503378403922" lon="-1.545314755323555">
        <time>2021-03-18T10:19:06Z</time>
      </trkpt>
      <trkpt lat="43.16512730986871" lon="-1.544735593497817">
        <time>2021-03-18T10:19:06Z</time>
      </trkpt>
      <trkpt lat="43.16456296212385" lon="-1.544662943246452">
        <time>2021-03-18T10:19:06Z</time>
      </trkpt>
      <trkpt lat="43.16459413899253" lon="-1.544484473890149">
        <time>2021-03-18T10:19:06Z</time>
      </trkpt>
      <trkpt lat="43.16475111896515" lon="-1.544249554540476">
        <time>2021-03-18T10:19:06Z</time>
      </trkpt>
      <trkpt lat="43.16515299381535" lon="-1.544189402741614">
        <time>2021-03-18T10:19:06Z</time>
      </trkpt>
      <trkpt lat="43.16570560361123" lon="-1.544447378567395">
        <time>2021-03-18T10:19:06Z</time>
      </trkpt>
      <trkpt lat="43.16685007307287" lon="-1.544070140002539">
        <time>2021-03-18T10:19:06Z</time>
      </trkpt>
      <trkpt lat="43.16724897905089" lon="-1.544696994003506">
        <time>2021-03-18T10:19:06Z</time>
      </trkpt>
      <trkpt lat="43.1680262709029" lon="-1.544961072147598">
        <time>2021-03-18T10:19:06Z</time>
      </trkpt>
      <trkpt lat="43.16832017005687" lon="-1.544685841353682">
        <time>2021-03-18T10:19:06Z</time>
      </trkpt>
      <trkpt lat="43.16893953268292" lon="-1.545139115601039">
        <time>2021-03-18T10:19:06Z</time>
      </trkpt>
      <trkpt lat="43.1694838223907" lon="-1.545686189864709">
        <time>2021-03-18T10:19:06Z</time>
      </trkpt>
      <trkpt lat="43.17004431759655" lon="-1.546556727579483">
        <time>2021-03-18T10:19:06Z</time>
      </trkpt>
      <trkpt lat="43.17089439569649" lon="-1.547515819937736">
        <time>2021-03-18T10:19:06Z</time>
      </trkpt>
      <trkpt lat="43.17159398850353" lon="-1.546699233051916">
        <time>2021-03-18T10:19:06Z</time>
      </trkpt>
      <trkpt lat="43.17207125228369" lon="-1.546761670056982">
        <time>2021-03-18T10:19:06Z</time>
      </trkpt>
      <trkpt lat="43.17242747839958" lon="-1.547208354068391">
        <time>2021-03-18T10:19:06Z</time>
      </trkpt>
      <trkpt lat="43.17259680125579" lon="-1.546977143682474">
        <time>2021-03-18T10:19:06Z</time>
      </trkpt>
      <trkpt lat="43.17330148514338" lon="-1.546952369364657">
        <time>2021-03-18T10:19:06Z</time>
      </trkpt>
      <trkpt lat="43.17352932575331" lon="-1.547230866557844">
        <time>2021-03-18T10:19:06Z</time>
      </trkpt>
      <trkpt lat="43.17348707929708" lon="-1.547691959862202">
        <time>2021-03-18T10:19:06Z</time>
      </trkpt>
      <trkpt lat="43.17385937928438" lon="-1.548052401032303">
        <time>2021-03-18T10:19:06Z</time>
      </trkpt>
      <trkpt lat="43.17407460030623" lon="-1.548553409518251">
        <time>2021-03-18T10:19:06Z</time>
      </trkpt>
      <trkpt lat="43.17459616124378" lon="-1.548602504002369">
        <time>2021-03-18T10:19:06Z</time>
      </trkpt>
      <trkpt lat="43.17501077348017" lon="-1.548934149638133">
        <time>2021-03-18T10:19:06Z</time>
      </trkpt>
      <trkpt lat="43.17525038989093" lon="-1.548755187879011">
        <time>2021-03-18T10:19:06Z</time>
      </trkpt>
      <trkpt lat="43.17546322418756" lon="-1.549036122611778">
        <time>2021-03-18T10:19:06Z</time>
      </trkpt>
      <trkpt lat="43.17648006822807" lon="-1.549442561948095">
        <time>2021-03-18T10:19:06Z</time>
      </trkpt>
      <trkpt lat="43.17696505393152" lon="-1.549854083202338">
        <time>2021-03-18T10:19:06Z</time>
      </trkpt>
      <trkpt lat="43.17770598047685" lon="-1.54977065501366">
        <time>2021-03-18T10:19:06Z</time>
      </trkpt>
      <trkpt lat="43.17847606230339" lon="-1.549978752747175">
        <time>2021-03-18T10:19:06Z</time>
      </trkpt>
      <trkpt lat="43.17920010883184" lon="-1.550116518050621">
        <time>2021-03-18T10:19:06Z</time>
      </trkpt>
      <trkpt lat="43.17967268455625" lon="-1.550260183447479">
        <time>2021-03-18T10:19:06Z</time>
      </trkpt>
      <trkpt lat="43.17982024825412" lon="-1.550423068007499">
        <time>2021-03-18T10:19:06Z</time>
      </trkpt>
      <trkpt lat="43.18008078101966" lon="-1.550518555475662">
        <time>2021-03-18T10:19:06Z</time>
      </trkpt>
      <trkpt lat="43.18036180371495" lon="-1.550812801482902">
        <time>2021-03-18T10:19:06Z</time>
      </trkpt>
      <trkpt lat="43.18041946844131" lon="-1.551095801112232">
        <time>2021-03-18T10:19:06Z</time>
      </trkpt>
      <trkpt lat="43.18093400835835" lon="-1.551782754598627">
        <time>2021-03-18T10:19:06Z</time>
      </trkpt>
      <trkpt lat="43.18105448912225" lon="-1.552226239588529">
        <time>2021-03-18T10:19:06Z</time>
      </trkpt>
      <trkpt lat="43.18142985132579" lon="-1.552517314064451">
        <time>2021-03-18T10:19:06Z</time>
      </trkpt>
      <trkpt lat="43.18175662935261" lon="-1.552419655942922">
        <time>2021-03-18T10:19:06Z</time>
      </trkpt>
      <trkpt lat="43.1818754150064" lon="-1.552358585055944">
        <time>2021-03-18T10:19:06Z</time>
      </trkpt>
      <trkpt lat="43.18259363775346" lon="-1.552614991732245">
        <time>2021-03-18T10:19:06Z</time>
      </trkpt>
      <trkpt lat="43.18261419326324" lon="-1.55261193068471">
        <time>2021-03-18T10:19:06Z</time>
      </trkpt>
      <trkpt lat="43.18279796145488" lon="-1.552071604496668">
        <time>2021-03-18T10:19:06Z</time>
      </trkpt>
      <trkpt lat="43.18288967462074" lon="-1.551929013090205">
        <time>2021-03-18T10:19:06Z</time>
      </trkpt>
      <trkpt lat="43.18330218451759" lon="-1.552075878941096">
        <time>2021-03-18T10:19:06Z</time>
      </trkpt>
      <trkpt lat="43.18370752609472" lon="-1.552251385334514">
        <time>2021-03-18T10:19:06Z</time>
      </trkpt>
      <trkpt lat="43.18438251081106" lon="-1.552219038077392">
        <time>2021-03-18T10:19:06Z</time>
      </trkpt>
      <trkpt lat="43.18463173666992" lon="-1.551692725132645">
        <time>2021-03-18T10:19:06Z</time>
      </trkpt>
      <trkpt lat="43.18477391620466" lon="-1.551525262977263">
        <time>2021-03-18T10:19:06Z</time>
      </trkpt>
      <trkpt lat="43.1852677903136" lon="-1.551324246951288">
        <time>2021-03-18T10:19:06Z</time>
      </trkpt>
      <trkpt lat="43.18563380957104" lon="-1.551065590244465">
        <time>2021-03-18T10:19:06Z</time>
      </trkpt>
      <trkpt lat="43.18593582150214" lon="-1.550574139385477">
        <time>2021-03-18T10:19:06Z</time>
      </trkpt>
      <trkpt lat="43.18602467094559" lon="-1.550503926768666">
        <time>2021-03-18T10:19:06Z</time>
      </trkpt>
      <trkpt lat="43.18634178063996" lon="-1.550517214870295">
        <time>2021-03-18T10:19:06Z</time>
      </trkpt>
      <trkpt lat="43.18634145852359" lon="-1.550257590937653">
        <time>2021-03-18T10:19:06Z</time>
      </trkpt>
      <trkpt lat="43.18650544378625" lon="-1.549962147344183">
        <time>2021-03-18T10:19:06Z</time>
      </trkpt>
      <trkpt lat="43.18751823711425" lon="-1.547195969840318">
        <time>2021-03-18T10:19:06Z</time>
      </trkpt>
      <trkpt lat="43.18819228768069" lon="-1.546309045091214">
        <time>2021-03-18T10:19:06Z</time>
      </trkpt>
      <trkpt lat="43.18842163448884" lon="-1.54455872053622">
        <time>2021-03-18T10:19:06Z</time>
      </trkpt>
      <trkpt lat="43.18852190255496" lon="-1.542917229142549">
        <time>2021-03-18T10:19:06Z</time>
      </trkpt>
      <trkpt lat="43.18882851980271" lon="-1.541719829540348">
        <time>2021-03-18T10:19:06Z</time>
      </trkpt>
      <trkpt lat="43.18934992387611" lon="-1.5408937007769">
        <time>2021-03-18T10:19:06Z</time>
      </trkpt>
      <trkpt lat="43.19064625965729" lon="-1.540174473525474">
        <time>2021-03-18T10:19:06Z</time>
      </trkpt>
      <trkpt lat="43.19095590543683" lon="-1.539469071099703">
        <time>2021-03-18T10:19:06Z</time>
      </trkpt>
      <trkpt lat="43.19065204997337" lon="-1.538009167997505">
        <time>2021-03-18T10:19:06Z</time>
      </trkpt>
      <trkpt lat="43.19105860013504" lon="-1.537184579941179">
        <time>2021-03-18T10:19:06Z</time>
      </trkpt>
      <trkpt lat="43.19125942664225" lon="-1.536633854605424">
        <time>2021-03-18T10:19:06Z</time>
      </trkpt>
      <trkpt lat="43.19218948277511" lon="-1.535639952513436">
        <time>2021-03-18T10:19:06Z</time>
      </trkpt>
      <trkpt lat="43.19310699950311" lon="-1.534532590623081">
        <time>2021-03-18T10:19:06Z</time>
      </trkpt>
      <trkpt lat="43.19467853937465" lon="-1.534175145887911">
        <time>2021-03-18T10:19:06Z</time>
      </trkpt>
      <trkpt lat="43.19705534993238" lon="-1.534104965392246">
        <time>2021-03-18T10:19:06Z</time>
      </trkpt>
      <trkpt lat="43.19844230333512" lon="-1.53397994027083">
        <time>2021-03-18T10:19:06Z</time>
      </trkpt>
      <trkpt lat="43.19912078997903" lon="-1.534965876532832">
        <time>2021-03-18T10:19:06Z</time>
      </trkpt>
      <trkpt lat="43.19882871754835" lon="-1.535409340301749">
        <time>2021-03-18T10:19:06Z</time>
      </trkpt>
      <trkpt lat="43.19938147162829" lon="-1.53621657668137">
        <time>2021-03-18T10:19:06Z</time>
      </trkpt>
      <trkpt lat="43.19998932253358" lon="-1.536359030528228">
        <time>2021-03-18T10:19:06Z</time>
      </trkpt>
      <trkpt lat="43.20058172121145" lon="-1.53765123622936">
        <time>2021-03-18T10:19:06Z</time>
      </trkpt>
      <trkpt lat="43.20053850542909" lon="-1.538494467239797">
        <time>2021-03-18T10:19:06Z</time>
      </trkpt>
      <trkpt lat="43.20047776368968" lon="-1.539747520130406">
        <time>2021-03-18T10:19:06Z</time>
      </trkpt>
      <trkpt lat="43.20027155991109" lon="-1.540294518728792">
        <time>2021-03-18T10:19:06Z</time>
      </trkpt>
      <trkpt lat="43.20047645221467" lon="-1.540682535899466">
        <time>2021-03-18T10:19:06Z</time>
      </trkpt>
      <trkpt lat="43.20045608820022" lon="-1.541389713523316">
        <time>2021-03-18T10:19:06Z</time>
      </trkpt>
      <trkpt lat="43.20101058886522" lon="-1.541351895205638">
        <time>2021-03-18T10:19:06Z</time>
      </trkpt>
      <trkpt lat="43.2014892129284" lon="-1.541396867422719">
        <time>2021-03-18T10:19:06Z</time>
      </trkpt>
      <trkpt lat="43.20217862701207" lon="-1.542200775827074">
        <time>2021-03-18T10:19:06Z</time>
      </trkpt>
      <trkpt lat="43.20258188827272" lon="-1.542701343774297">
        <time>2021-03-18T10:19:06Z</time>
      </trkpt>
      <trkpt lat="43.20296110665623" lon="-1.543173554718883">
        <time>2021-03-18T10:19:06Z</time>
      </trkpt>
      <trkpt lat="43.20366196732328" lon="-1.544527126593348">
        <time>2021-03-18T10:19:06Z</time>
      </trkpt>
      <trkpt lat="43.20366072444125" lon="-1.545413094980862">
        <time>2021-03-18T10:19:06Z</time>
      </trkpt>
      <trkpt lat="43.20386382643788" lon="-1.546428188615281">
        <time>2021-03-18T10:19:06Z</time>
      </trkpt>
      <trkpt lat="43.20445268278869" lon="-1.546626434743934">
        <time>2021-03-18T10:19:06Z</time>
      </trkpt>
      <trkpt lat="43.20354133956834" lon="-1.547011455655467">
        <time>2021-03-18T10:19:06Z</time>
      </trkpt>
      <trkpt lat="43.20328636233788" lon="-1.546778974015618">
        <time>2021-03-18T10:19:06Z</time>
      </trkpt>
      <trkpt lat="43.20267460621388" lon="-1.5471139149703">
        <time>2021-03-18T10:19:06Z</time>
      </trkpt>
      <trkpt lat="43.20234887133742" lon="-1.547452192468393">
        <time>2021-03-18T10:19:06Z</time>
      </trkpt>
      <trkpt lat="43.20194430112877" lon="-1.547563096148112">
        <time>2021-03-18T10:19:06Z</time>
      </trkpt>
      <trkpt lat="43.20238868954671" lon="-1.548341443482227">
        <time>2021-03-18T10:19:06Z</time>
      </trkpt>
      <trkpt lat="43.20208491107411" lon="-1.549071643592874">
        <time>2021-03-18T10:19:06Z</time>
      </trkpt>
      <trkpt lat="43.20174693310577" lon="-1.549638210190552">
        <time>2021-03-18T10:19:06Z</time>
      </trkpt>
      <trkpt lat="43.20137470111551" lon="-1.549926881598509">
        <time>2021-03-18T10:19:06Z</time>
      </trkpt>
      <trkpt lat="43.20126025997851" lon="-1.550348697795441">
        <time>2021-03-18T10:19:06Z</time>
      </trkpt>
      <trkpt lat="43.20125758138534" lon="-1.550470242766998">
        <time>2021-03-18T10:19:06Z</time>
      </trkpt>
      <trkpt lat="43.20136953866797" lon="-1.551267232779954">
        <time>2021-03-18T10:19:06Z</time>
      </trkpt>
      <trkpt lat="43.20154877132001" lon="-1.552207393342036">
        <time>2021-03-18T10:19:06Z</time>
      </trkpt>
      <trkpt lat="43.20043224513785" lon="-1.551941315877604">
        <time>2021-03-18T10:19:06Z</time>
      </trkpt>
      <trkpt lat="43.20210436428165" lon="-1.554145014919911">
        <time>2021-03-18T10:19:06Z</time>
      </trkpt>
      <trkpt lat="43.20216999514499" lon="-1.554616552470267">
        <time>2021-03-18T10:19:06Z</time>
      </trkpt>
      <trkpt lat="43.20300281130671" lon="-1.557683760340716">
        <time>2021-03-18T10:19:06Z</time>
      </trkpt>
      <trkpt lat="43.20302307707774" lon="-1.558503246992353">
        <time>2021-03-18T10:19:06Z</time>
      </trkpt>
      <trkpt lat="43.20380704228889" lon="-1.559895882119921">
        <time>2021-03-18T10:19:06Z</time>
      </trkpt>
      <trkpt lat="43.20507752754232" lon="-1.563159171246721">
        <time>2021-03-18T10:19:06Z</time>
      </trkpt>
      <trkpt lat="43.20584774905854" lon="-1.562948319355904">
        <time>2021-03-18T10:19:06Z</time>
      </trkpt>
      <trkpt lat="43.2060931784878" lon="-1.563500328838917">
        <time>2021-03-18T10:19:06Z</time>
      </trkpt>
      <trkpt lat="43.20630755164735" lon="-1.56409871986165">
        <time>2021-03-18T10:19:06Z</time>
      </trkpt>
      <trkpt lat="43.20656907190119" lon="-1.564773131579791">
        <time>2021-03-18T10:19:06Z</time>
      </trkpt>
      <trkpt lat="43.20662468469405" lon="-1.565412886972862">
        <time>2021-03-18T10:19:06Z</time>
      </trkpt>
      <trkpt lat="43.20692791184398" lon="-1.566473956785526">
        <time>2021-03-18T10:19:06Z</time>
      </trkpt>
      <trkpt lat="43.20666662407988" lon="-1.567046201540158">
        <time>2021-03-18T10:19:06Z</time>
      </trkpt>
      <trkpt lat="43.20716781561298" lon="-1.568126851613644">
        <time>2021-03-18T10:19:06Z</time>
      </trkpt>
      <trkpt lat="43.20757840192188" lon="-1.568475337874072">
        <time>2021-03-18T10:19:06Z</time>
      </trkpt>
      <trkpt lat="43.2078942715508" lon="-1.569099473389313">
        <time>2021-03-18T10:19:06Z</time>
      </trkpt>
      <trkpt lat="43.20796227867665" lon="-1.569671865048713">
        <time>2021-03-18T10:19:06Z</time>
      </trkpt>
      <trkpt lat="43.20833071579427" lon="-1.570364799957036">
        <time>2021-03-18T10:19:06Z</time>
      </trkpt>
      <trkpt lat="43.20818144330499" lon="-1.570712271436975">
        <time>2021-03-18T10:19:06Z</time>
      </trkpt>
      <trkpt lat="43.2081170099999" lon="-1.570956571398615">
        <time>2021-03-18T10:19:06Z</time>
      </trkpt>
      <trkpt lat="43.2083985360283" lon="-1.571683685240382">
        <time>2021-03-18T10:19:06Z</time>
      </trkpt>
      <trkpt lat="43.20866130699757" lon="-1.572297473684422">
        <time>2021-03-18T10:19:06Z</time>
      </trkpt>
      <trkpt lat="43.20871701987602" lon="-1.572717690152135">
        <time>2021-03-18T10:19:06Z</time>
      </trkpt>
      <trkpt lat="43.20944679536747" lon="-1.573433518246444">
        <time>2021-03-18T10:19:06Z</time>
      </trkpt>
      <trkpt lat="43.20970913416863" lon="-1.574522079354608">
        <time>2021-03-18T10:19:06Z</time>
      </trkpt>
      <trkpt lat="43.21004770046098" lon="-1.57652093976246">
        <time>2021-03-18T10:19:06Z</time>
      </trkpt>
      <trkpt lat="43.21006846660622" lon="-1.576934613017881">
        <time>2021-03-18T10:19:06Z</time>
      </trkpt>
      <trkpt lat="43.20992040993362" lon="-1.578024109661703">
        <time>2021-03-18T10:19:06Z</time>
      </trkpt>
      <trkpt lat="43.2102332981914" lon="-1.578617553702462">
        <time>2021-03-18T10:19:06Z</time>
      </trkpt>
      <trkpt lat="43.21041656668844" lon="-1.579144250318842">
        <time>2021-03-18T10:19:06Z</time>
      </trkpt>
      <trkpt lat="43.21173550643213" lon="-1.580320639455916">
        <time>2021-03-18T10:19:06Z</time>
      </trkpt>
      <trkpt lat="43.21281000951254" lon="-1.580514607911303">
        <time>2021-03-18T10:19:06Z</time>
      </trkpt>
      <trkpt lat="43.21418809854992" lon="-1.58147181253144">
        <time>2021-03-18T10:19:06Z</time>
      </trkpt>
      <trkpt lat="43.21421090136877" lon="-1.581503409074712">
        <time>2021-03-18T10:19:06Z</time>
      </trkpt>
      <trkpt lat="43.2150681527047" lon="-1.581519806992305">
        <time>2021-03-18T10:19:06Z</time>
      </trkpt>
      <trkpt lat="43.21567528499411" lon="-1.582986321202444">
        <time>2021-03-18T10:19:06Z</time>
      </trkpt>
      <trkpt lat="43.2164149058929" lon="-1.58459506151339">
        <time>2021-03-18T10:19:06Z</time>
      </trkpt>
      <trkpt lat="43.21760918083514" lon="-1.586004438926635">
        <time>2021-03-18T10:19:06Z</time>
      </trkpt>
      <trkpt lat="43.21856926611709" lon="-1.586806526188364">
        <time>2021-03-18T10:19:06Z</time>
      </trkpt>
      <trkpt lat="43.21908897132559" lon="-1.586948470929565">
        <time>2021-03-18T10:19:06Z</time>
      </trkpt>
      <trkpt lat="43.21976350072777" lon="-1.587420313560571">
        <time>2021-03-18T10:19:06Z</time>
      </trkpt>
      <trkpt lat="43.2202626391024" lon="-1.587293397531475">
        <time>2021-03-18T10:19:06Z</time>
      </trkpt>
      <trkpt lat="43.22066402994939" lon="-1.587763651692017">
        <time>2021-03-18T10:19:06Z</time>
      </trkpt>
      <trkpt lat="43.22160177060156" lon="-1.587998748582602">
        <time>2021-03-18T10:19:06Z</time>
      </trkpt>
      <trkpt lat="43.22295639821573" lon="-1.588806611617351">
        <time>2021-03-18T10:19:06Z</time>
      </trkpt>
      <trkpt lat="43.22310310644015" lon="-1.589519100168099">
        <time>2021-03-18T10:19:06Z</time>
      </trkpt>
      <trkpt lat="43.22376241080433" lon="-1.589757240750452">
        <time>2021-03-18T10:19:06Z</time>
      </trkpt>
      <trkpt lat="43.22401266103564" lon="-1.590088077663028">
        <time>2021-03-18T10:19:06Z</time>
      </trkpt>
      <trkpt lat="43.22411229442002" lon="-1.590725570306172">
        <time>2021-03-18T10:19:06Z</time>
      </trkpt>
      <trkpt lat="43.2248501197269" lon="-1.591241357700297">
        <time>2021-03-18T10:19:06Z</time>
      </trkpt>
      <trkpt lat="43.22493669000228" lon="-1.591669892411683">
        <time>2021-03-18T10:19:06Z</time>
      </trkpt>
      <trkpt lat="43.22515769168828" lon="-1.592925531550428">
        <time>2021-03-18T10:19:06Z</time>
      </trkpt>
      <trkpt lat="43.22510868032649" lon="-1.5937634357521">
        <time>2021-03-18T10:19:06Z</time>
      </trkpt>
      <trkpt lat="43.22480425683053" lon="-1.594255559719717">
        <time>2021-03-18T10:19:06Z</time>
      </trkpt>
      <trkpt lat="43.22544951098232" lon="-1.594170249246432">
        <time>2021-03-18T10:19:06Z</time>
      </trkpt>
      <trkpt lat="43.22585395989093" lon="-1.593594918348409">
        <time>2021-03-18T10:19:06Z</time>
      </trkpt>
      <trkpt lat="43.22642370570628" lon="-1.592999837545585">
        <time>2021-03-18T10:19:06Z</time>
      </trkpt>
      <trkpt lat="43.22720521361001" lon="-1.591322063414289">
        <time>2021-03-18T10:19:06Z</time>
      </trkpt>
      <trkpt lat="43.22907735010095" lon="-1.590187515514131">
        <time>2021-03-18T10:19:06Z</time>
      </trkpt>
      <trkpt lat="43.23024735493171" lon="-1.590568993296034">
        <time>2021-03-18T10:19:06Z</time>
      </trkpt>
      <trkpt lat="43.23046626305813" lon="-1.590863839865644">
        <time>2021-03-18T10:19:06Z</time>
      </trkpt>
      <trkpt lat="43.23061141729696" lon="-1.590845661418846">
        <time>2021-03-18T10:19:06Z</time>
      </trkpt>
      <trkpt lat="43.23017570503708" lon="-1.591971551596235">
        <time>2021-03-18T10:19:06Z</time>
      </trkpt>
      <trkpt lat="43.22997911212989" lon="-1.59339702158831">
        <time>2021-03-18T10:19:06Z</time>
      </trkpt>
      <trkpt lat="43.23001076053842" lon="-1.594756003832327">
        <time>2021-03-18T10:19:06Z</time>
      </trkpt>
      <trkpt lat="43.2293852004465" lon="-1.596846686838854">
        <time>2021-03-18T10:19:06Z</time>
      </trkpt>
      <trkpt lat="43.22930074342757" lon="-1.598433209599051">
        <time>2021-03-18T10:19:06Z</time>
      </trkpt>
      <trkpt lat="43.22888219777316" lon="-1.599885663956987">
        <time>2021-03-18T10:19:06Z</time>
      </trkpt>
      <trkpt lat="43.22780964498367" lon="-1.60151910930363">
        <time>2021-03-18T10:19:06Z</time>
      </trkpt>
      <trkpt lat="43.22876864468443" lon="-1.602149591581605">
        <time>2021-03-18T10:19:06Z</time>
      </trkpt>
      <trkpt lat="43.22976934032378" lon="-1.604045166430572">
        <time>2021-03-18T10:19:06Z</time>
      </trkpt>
      <trkpt lat="43.22988659661869" lon="-1.601970382030257">
        <time>2021-03-18T10:19:06Z</time>
      </trkpt>
      <trkpt lat="43.23042065162817" lon="-1.600796895409591">
        <time>2021-03-18T10:19:06Z</time>
      </trkpt>
      <trkpt lat="43.23045058104502" lon="-1.600765242979104">
        <time>2021-03-18T10:19:06Z</time>
      </trkpt>
      <trkpt lat="43.23111855101121" lon="-1.599304342857779">
        <time>2021-03-18T10:19:06Z</time>
      </trkpt>
      <trkpt lat="43.23232645085808" lon="-1.597619043102799">
        <time>2021-03-18T10:19:06Z</time>
      </trkpt>
      <trkpt lat="43.2331513308403" lon="-1.597157626265721">
        <time>2021-03-18T10:19:06Z</time>
      </trkpt>
      <trkpt lat="43.23317291649448" lon="-1.595192920467858">
        <time>2021-03-18T10:19:06Z</time>
      </trkpt>
      <trkpt lat="43.23315185878691" lon="-1.595129201178933">
        <time>2021-03-18T10:19:06Z</time>
      </trkpt>
      <trkpt lat="43.23391337846087" lon="-1.593141091243923">
        <time>2021-03-18T10:19:06Z</time>
      </trkpt>
      <trkpt lat="43.2347219285556" lon="-1.591674874851274">
        <time>2021-03-18T10:19:06Z</time>
      </trkpt>
      <trkpt lat="43.23537806916183" lon="-1.593336828221998">
        <time>2021-03-18T10:19:06Z</time>
      </trkpt>
      <trkpt lat="43.23536973434292" lon="-1.595182210973457">
        <time>2021-03-18T10:19:06Z</time>
      </trkpt>
      <trkpt lat="43.23556169724115" lon="-1.59665613038195">
        <time>2021-03-18T10:19:06Z</time>
      </trkpt>
      <trkpt lat="43.23622023981883" lon="-1.597314612655858">
        <time>2021-03-18T10:19:06Z</time>
      </trkpt>
      <trkpt lat="43.23694788725357" lon="-1.597811921381618">
        <time>2021-03-18T10:19:06Z</time>
      </trkpt>
      <trkpt lat="43.23779795634954" lon="-1.597880829891706">
        <time>2021-03-18T10:19:06Z</time>
      </trkpt>
      <trkpt lat="43.23922888536847" lon="-1.598253656017578">
        <time>2021-03-18T10:19:06Z</time>
      </trkpt>
      <trkpt lat="43.23982664855313" lon="-1.597622258278295">
        <time>2021-03-18T10:19:06Z</time>
      </trkpt>
      <trkpt lat="43.24019902455562" lon="-1.596926589805827">
        <time>2021-03-18T10:19:06Z</time>
      </trkpt>
      <trkpt lat="43.24088157625246" lon="-1.596286275137829">
        <time>2021-03-18T10:19:06Z</time>
      </trkpt>
      <trkpt lat="43.24102556148674" lon="-1.595663556742111">
        <time>2021-03-18T10:19:06Z</time>
      </trkpt>
      <trkpt lat="43.24100766982011" lon="-1.595620942590613">
        <time>2021-03-18T10:19:06Z</time>
      </trkpt>
      <trkpt lat="43.24075835755041" lon="-1.595138993163077">
        <time>2021-03-18T10:19:06Z</time>
      </trkpt>
      <trkpt lat="43.24081487359567" lon="-1.595044419169081">
        <time>2021-03-18T10:19:06Z</time>
      </trkpt>
      <trkpt lat="43.24175200020346" lon="-1.593888250261908">
        <time>2021-03-18T10:19:06Z</time>
      </trkpt>
      <trkpt lat="43.24514646597054" lon="-1.594713197805884">
        <time>2021-03-18T10:19:06Z</time>
      </trkpt>
      <trkpt lat="43.24730762202687" lon="-1.595320019865035">
        <time>2021-03-18T10:19:06Z</time>
      </trkpt>
      <trkpt lat="43.24725739129516" lon="-1.594214664609169">
        <time>2021-03-18T10:19:06Z</time>
      </trkpt>
      <trkpt lat="43.24735136715614" lon="-1.593586431600744">
        <time>2021-03-18T10:19:06Z</time>
      </trkpt>
      <trkpt lat="43.24672504831273" lon="-1.593374655080714">
        <time>2021-03-18T10:19:06Z</time>
      </trkpt>
      <trkpt lat="43.2466542385679" lon="-1.592657717354618">
        <time>2021-03-18T10:19:06Z</time>
      </trkpt>
      <trkpt lat="43.24638340578274" lon="-1.592044842048722">
        <time>2021-03-18T10:19:06Z</time>
      </trkpt>
      <trkpt lat="43.24707254047514" lon="-1.590576954560492">
        <time>2021-03-18T10:19:06Z</time>
      </trkpt>
      <trkpt lat="43.24881166078951" lon="-1.589549895095357">
        <time>2021-03-18T10:19:06Z</time>
      </trkpt>
      <trkpt lat="43.24883925684517" lon="-1.589040720035032">
        <time>2021-03-18T10:19:06Z</time>
      </trkpt>
      <trkpt lat="43.2484799967809" lon="-1.588310024277682">
        <time>2021-03-18T10:19:06Z</time>
      </trkpt>
      <trkpt lat="43.24851717019006" lon="-1.587909847860248">
        <time>2021-03-18T10:19:06Z</time>
      </trkpt>
      <trkpt lat="43.24841594493414" lon="-1.58693014811414">
        <time>2021-03-18T10:19:06Z</time>
      </trkpt>
      <trkpt lat="43.2488441442972" lon="-1.586569034577926">
        <time>2021-03-18T10:19:06Z</time>
      </trkpt>
      <trkpt lat="43.24958079881307" lon="-1.585297762609901">
        <time>2021-03-18T10:19:06Z</time>
      </trkpt>
      <trkpt lat="43.25021541640344" lon="-1.584856006669043">
        <time>2021-03-18T10:19:06Z</time>
      </trkpt>
      <trkpt lat="43.25024731319814" lon="-1.584858421340716">
        <time>2021-03-18T10:19:06Z</time>
      </trkpt>
      <trkpt lat="43.25104575245391" lon="-1.585228253461254">
        <time>2021-03-18T10:19:06Z</time>
      </trkpt>
      <trkpt lat="43.25209922041238" lon="-1.585868142430196">
        <time>2021-03-18T10:19:06Z</time>
      </trkpt>
      <trkpt lat="43.25320175026851" lon="-1.586597470226172">
        <time>2021-03-18T10:19:06Z</time>
      </trkpt>
      <trkpt lat="43.25329030230892" lon="-1.587032822174603">
        <time>2021-03-18T10:19:06Z</time>
      </trkpt>
      <trkpt lat="43.25387555761682" lon="-1.58825397524055">
        <time>2021-03-18T10:19:06Z</time>
      </trkpt>
      <trkpt lat="43.25357728425465" lon="-1.589755048503069">
        <time>2021-03-18T10:19:06Z</time>
      </trkpt>
      <trkpt lat="43.25421609432518" lon="-1.590287543414384">
        <time>2021-03-18T10:19:06Z</time>
      </trkpt>
      <trkpt lat="43.25439508099412" lon="-1.59072200480203">
        <time>2021-03-18T10:19:06Z</time>
      </trkpt>
      <trkpt lat="43.25442914356308" lon="-1.592363667956397">
        <time>2021-03-18T10:19:06Z</time>
      </trkpt>
      <trkpt lat="43.25482249057607" lon="-1.592586617281518">
        <time>2021-03-18T10:19:06Z</time>
      </trkpt>
      <trkpt lat="43.2548520768577" lon="-1.593875872110104">
        <time>2021-03-18T10:19:06Z</time>
      </trkpt>
      <trkpt lat="43.25495357944674" lon="-1.594722276974401">
        <time>2021-03-18T10:19:06Z</time>
      </trkpt>
      <trkpt lat="43.25458841291491" lon="-1.596493162197783">
        <time>2021-03-18T10:19:06Z</time>
      </trkpt>
      <trkpt lat="43.25487345725047" lon="-1.596737224047903">
        <time>2021-03-18T10:19:06Z</time>
      </trkpt>
      <trkpt lat="43.25502744731209" lon="-1.597989071233575">
        <time>2021-03-18T10:19:06Z</time>
      </trkpt>
      <trkpt lat="43.25481891143593" lon="-1.598961346533906">
        <time>2021-03-18T10:19:06Z</time>
      </trkpt>
      <trkpt lat="43.25438707088924" lon="-1.600152043417846">
        <time>2021-03-18T10:19:06Z</time>
      </trkpt>
      <trkpt lat="43.25412711306756" lon="-1.600552509026131">
        <time>2021-03-18T10:19:06Z</time>
      </trkpt>
      <trkpt lat="43.25411700889629" lon="-1.601162178541723">
        <time>2021-03-18T10:19:06Z</time>
      </trkpt>
      <trkpt lat="43.25397512011185" lon="-1.601518227271492">
        <time>2021-03-18T10:19:06Z</time>
      </trkpt>
      <trkpt lat="43.25450640755768" lon="-1.602399780055014">
        <time>2021-03-18T10:19:06Z</time>
      </trkpt>
      <trkpt lat="43.25454082493864" lon="-1.602924370417973">
        <time>2021-03-18T10:19:06Z</time>
      </trkpt>
      <trkpt lat="43.25348451750653" lon="-1.604182877731215">
        <time>2021-03-18T10:19:06Z</time>
      </trkpt>
      <trkpt lat="43.25304081780653" lon="-1.604467947434808">
        <time>2021-03-18T10:19:06Z</time>
      </trkpt>
      <trkpt lat="43.25219026664652" lon="-1.607235352908938">
        <time>2021-03-18T10:19:06Z</time>
      </trkpt>
      <trkpt lat="43.25238661583511" lon="-1.608351875099751">
        <time>2021-03-18T10:19:06Z</time>
      </trkpt>
      <trkpt lat="43.25328398859602" lon="-1.609414329029475">
        <time>2021-03-18T10:19:06Z</time>
      </trkpt>
      <trkpt lat="43.25433977721011" lon="-1.609897809752792">
        <time>2021-03-18T10:19:06Z</time>
      </trkpt>
      <trkpt lat="43.25531305762301" lon="-1.60998465069309">
        <time>2021-03-18T10:19:06Z</time>
      </trkpt>
      <trkpt lat="43.2553841378604" lon="-1.610979356955878">
        <time>2021-03-18T10:19:06Z</time>
      </trkpt>
      <trkpt lat="43.25519843359182" lon="-1.612564588132155">
        <time>2021-03-18T10:19:06Z</time>
      </trkpt>
      <trkpt lat="43.25567348038541" lon="-1.613411453061378">
        <time>2021-03-18T10:19:06Z</time>
      </trkpt>
      <trkpt lat="43.25627958193411" lon="-1.614942877892954">
        <time>2021-03-18T10:19:06Z</time>
      </trkpt>
      <trkpt lat="43.25628936315968" lon="-1.61497550988831">
        <time>2021-03-18T10:19:06Z</time>
      </trkpt>
      <trkpt lat="43.25638447016657" lon="-1.61568427780175">
        <time>2021-03-18T10:19:06Z</time>
      </trkpt>
      <trkpt lat="43.25777530436751" lon="-1.616777674976581">
        <time>2021-03-18T10:19:06Z</time>
      </trkpt>
      <trkpt lat="43.25861465678335" lon="-1.617106960477327">
        <time>2021-03-18T10:19:06Z</time>
      </trkpt>
      <trkpt lat="43.25908292401821" lon="-1.616775587122491">
        <time>2021-03-18T10:19:06Z</time>
      </trkpt>
      <trkpt lat="43.25985050052624" lon="-1.618331117328474">
        <time>2021-03-18T10:19:06Z</time>
      </trkpt>
      <trkpt lat="43.26101909746479" lon="-1.61934459132365">
        <time>2021-03-18T10:19:06Z</time>
      </trkpt>
      <trkpt lat="43.26178961893096" lon="-1.619966366347598">
        <time>2021-03-18T10:19:06Z</time>
      </trkpt>
      <trkpt lat="43.26251217639837" lon="-1.621702751383993">
        <time>2021-03-18T10:19:06Z</time>
      </trkpt>
      <trkpt lat="43.26266391336654" lon="-1.622369270825652">
        <time>2021-03-18T10:19:06Z</time>
      </trkpt>
      <trkpt lat="43.26389391287206" lon="-1.623402050633317">
        <time>2021-03-18T10:19:06Z</time>
      </trkpt>
      <trkpt lat="43.26418819367463" lon="-1.624178575061736">
        <time>2021-03-18T10:19:06Z</time>
      </trkpt>
      <trkpt lat="43.26344378411519" lon="-1.625617208808217">
        <time>2021-03-18T10:19:06Z</time>
      </trkpt>
      <trkpt lat="43.26351697494136" lon="-1.625958886264115">
        <time>2021-03-18T10:19:06Z</time>
      </trkpt>
      <trkpt lat="43.26318071011808" lon="-1.627501248039353">
        <time>2021-03-18T10:19:06Z</time>
      </trkpt>
      <trkpt lat="43.26329865951296" lon="-1.628835590275866">
        <time>2021-03-18T10:19:06Z</time>
      </trkpt>
      <trkpt lat="43.26404172150713" lon="-1.629937799986977">
        <time>2021-03-18T10:19:06Z</time>
      </trkpt>
      <trkpt lat="43.265271787502" lon="-1.6303117829938">
        <time>2021-03-18T10:19:06Z</time>
      </trkpt>
      <trkpt lat="43.26564212841031" lon="-1.630086793607138">
        <time>2021-03-18T10:19:06Z</time>
      </trkpt>
      <trkpt lat="43.26603934689217" lon="-1.630115841416966">
        <time>2021-03-18T10:19:06Z</time>
      </trkpt>
      <trkpt lat="43.26629832060384" lon="-1.62996146008226">
        <time>2021-03-18T10:19:06Z</time>
      </trkpt>
      <trkpt lat="43.26664617050842" lon="-1.630536235516068">
        <time>2021-03-18T10:19:06Z</time>
      </trkpt>
      <trkpt lat="43.26762118839091" lon="-1.630351060461368">
        <time>2021-03-18T10:19:06Z</time>
      </trkpt>
      <trkpt lat="43.26758895947728" lon="-1.632381275355728">
        <time>2021-03-18T10:19:06Z</time>
      </trkpt>
      <trkpt lat="43.26759006510408" lon="-1.633456664645685">
        <time>2021-03-18T10:19:06Z</time>
      </trkpt>
      <trkpt lat="43.26828213515969" lon="-1.633320662040187">
        <time>2021-03-18T10:19:06Z</time>
      </trkpt>
      <trkpt lat="43.26898792244617" lon="-1.63332590241755">
        <time>2021-03-18T10:19:06Z</time>
      </trkpt>
      <trkpt lat="43.2691564405328" lon="-1.634971757610942">
        <time>2021-03-18T10:19:06Z</time>
      </trkpt>
      <trkpt lat="43.26977562445361" lon="-1.635016993744362">
        <time>2021-03-18T10:19:06Z</time>
      </trkpt>
      <trkpt lat="43.26981154797121" lon="-1.63502051743548">
        <time>2021-03-18T10:19:06Z</time>
      </trkpt>
      <trkpt lat="43.27025213318501" lon="-1.635890340395859">
        <time>2021-03-18T10:19:06Z</time>
      </trkpt>
      <trkpt lat="43.27027379968491" lon="-1.635926407762902">
        <time>2021-03-18T10:19:06Z</time>
      </trkpt>
      <trkpt lat="43.2705928390666" lon="-1.636683424528965">
        <time>2021-03-18T10:19:06Z</time>
      </trkpt>
      <trkpt lat="43.27063213217097" lon="-1.637813970916282">
        <time>2021-03-18T10:19:06Z</time>
      </trkpt>
      <trkpt lat="43.27141131517462" lon="-1.63725787829564">
        <time>2021-03-18T10:19:06Z</time>
      </trkpt>
      <trkpt lat="43.27236767884465" lon="-1.635772598124496">
        <time>2021-03-18T10:19:06Z</time>
      </trkpt>
      <trkpt lat="43.27278682294651" lon="-1.635054068090754">
        <time>2021-03-18T10:19:06Z</time>
      </trkpt>
      <trkpt lat="43.27527527997654" lon="-1.634238701703586">
        <time>2021-03-18T10:19:06Z</time>
      </trkpt>
      <trkpt lat="43.27646559778643" lon="-1.631498975115829">
        <time>2021-03-18T10:19:06Z</time>
      </trkpt>
      <trkpt lat="43.27810969532751" lon="-1.632299168452911">
        <time>2021-03-18T10:19:06Z</time>
      </trkpt>
      <trkpt lat="43.27811362212993" lon="-1.632903577573084">
        <time>2021-03-18T10:19:06Z</time>
      </trkpt>
      <trkpt lat="43.27993352826787" lon="-1.633509970787995">
        <time>2021-03-18T10:19:06Z</time>
      </trkpt>
      <trkpt lat="43.2806049762578" lon="-1.63431666041898">
        <time>2021-03-18T10:19:06Z</time>
      </trkpt>
      <trkpt lat="43.2817876443987" lon="-1.632402777999943">
        <time>2021-03-18T10:19:06Z</time>
      </trkpt>
      <trkpt lat="43.28242700135333" lon="-1.632090831862202">
        <time>2021-03-18T10:19:06Z</time>
      </trkpt>
      <trkpt lat="43.28314379379144" lon="-1.633400942441904">
        <time>2021-03-18T10:19:06Z</time>
      </trkpt>
      <trkpt lat="43.2831892214695" lon="-1.635395353454854">
        <time>2021-03-18T10:19:06Z</time>
      </trkpt>
      <trkpt lat="43.28348491066162" lon="-1.636151303049296">
        <time>2021-03-18T10:19:06Z</time>
      </trkpt>
      <trkpt lat="43.28294174024865" lon="-1.63717998203371">
        <time>2021-03-18T10:19:06Z</time>
      </trkpt>
      <trkpt lat="43.28295957882688" lon="-1.63860532696848">
        <time>2021-03-18T10:19:06Z</time>
      </trkpt>
      <trkpt lat="43.28334071731951" lon="-1.639446638945924">
        <time>2021-03-18T10:19:06Z</time>
      </trkpt>
      <trkpt lat="43.28355622109262" lon="-1.640082308457672">
        <time>2021-03-18T10:19:06Z</time>
      </trkpt>
      <trkpt lat="43.28523233536019" lon="-1.640897512398714">
        <time>2021-03-18T10:19:06Z</time>
      </trkpt>
      <trkpt lat="43.2877053727433" lon="-1.643165005809848">
        <time>2021-03-18T10:19:06Z</time>
      </trkpt>
      <trkpt lat="43.28765091678938" lon="-1.643985812151803">
        <time>2021-03-18T10:19:06Z</time>
      </trkpt>
      <trkpt lat="43.2877386133456" lon="-1.645384469411753">
        <time>2021-03-18T10:19:06Z</time>
      </trkpt>
      <trkpt lat="43.28823505843799" lon="-1.646416537652742">
        <time>2021-03-18T10:19:06Z</time>
      </trkpt>
      <trkpt lat="43.28946681894929" lon="-1.647057907507897">
        <time>2021-03-18T10:19:06Z</time>
      </trkpt>
      <trkpt lat="43.28967904378566" lon="-1.647932723269708">
        <time>2021-03-18T10:19:06Z</time>
      </trkpt>
      <trkpt lat="43.29105105942636" lon="-1.648449880040805">
        <time>2021-03-18T10:19:06Z</time>
      </trkpt>
      <trkpt lat="43.29129549229702" lon="-1.648455505016111">
        <time>2021-03-18T10:19:06Z</time>
      </trkpt>
      <trkpt lat="43.29264495391496" lon="-1.647428259680497">
        <time>2021-03-18T10:19:06Z</time>
      </trkpt>
      <trkpt lat="43.29326112572733" lon="-1.647760994165931">
        <time>2021-03-18T10:19:06Z</time>
      </trkpt>
      <trkpt lat="43.29374003752942" lon="-1.647632544125537">
        <time>2021-03-18T10:19:06Z</time>
      </trkpt>
      <trkpt lat="43.29516132546843" lon="-1.649196607946165">
        <time>2021-03-18T10:19:06Z</time>
      </trkpt>
      <trkpt lat="43.29612632058384" lon="-1.650974948204906">
        <time>2021-03-18T10:19:06Z</time>
      </trkpt>
      <trkpt lat="43.29650572064882" lon="-1.652900623910191">
        <time>2021-03-18T10:19:06Z</time>
      </trkpt>
      <trkpt lat="43.29702071273776" lon="-1.653682402771118">
        <time>2021-03-18T10:19:06Z</time>
      </trkpt>
      <trkpt lat="43.29711154252041" lon="-1.655189538709089">
        <time>2021-03-18T10:19:06Z</time>
      </trkpt>
      <trkpt lat="43.29703587347667" lon="-1.655843793038782">
        <time>2021-03-18T10:19:06Z</time>
      </trkpt>
      <trkpt lat="43.29760373655536" lon="-1.656147319690484">
        <time>2021-03-18T10:19:06Z</time>
      </trkpt>
      <trkpt lat="43.29746450499393" lon="-1.657261489190605">
        <time>2021-03-18T10:19:06Z</time>
      </trkpt>
      <trkpt lat="43.29663930394975" lon="-1.658910048397261">
        <time>2021-03-18T10:19:06Z</time>
      </trkpt>
      <trkpt lat="43.29656636330562" lon="-1.65939793851152">
        <time>2021-03-18T10:19:06Z</time>
      </trkpt>
      <trkpt lat="43.29694950037912" lon="-1.660148686076555">
        <time>2021-03-18T10:19:06Z</time>
      </trkpt>
      <trkpt lat="43.2968931232268" lon="-1.660794783394232">
        <time>2021-03-18T10:19:06Z</time>
      </trkpt>
      <trkpt lat="43.29725763257619" lon="-1.661507336962941">
        <time>2021-03-18T10:19:06Z</time>
      </trkpt>
      <trkpt lat="43.2987607511222" lon="-1.659752545300423">
        <time>2021-03-18T10:19:06Z</time>
      </trkpt>
      <trkpt lat="43.29973731624384" lon="-1.657847860399423">
        <time>2021-03-18T10:19:06Z</time>
      </trkpt>
      <trkpt lat="43.29963962368446" lon="-1.657192030714924">
        <time>2021-03-18T10:19:06Z</time>
      </trkpt>
      <trkpt lat="43.30045809759117" lon="-1.656401618920248">
        <time>2021-03-18T10:19:06Z</time>
      </trkpt>
      <trkpt lat="43.30072922097847" lon="-1.658546023886995">
        <time>2021-03-18T10:19:06Z</time>
      </trkpt>
      <trkpt lat="43.30077755648279" lon="-1.661802147927491">
        <time>2021-03-18T10:19:06Z</time>
      </trkpt>
      <trkpt lat="43.30093143962148" lon="-1.663692204626831">
        <time>2021-03-18T10:19:06Z</time>
      </trkpt>
      <trkpt lat="43.30045750127773" lon="-1.664523298156577">
        <time>2021-03-18T10:19:06Z</time>
      </trkpt>
      <trkpt lat="43.29965714180819" lon="-1.664966568516785">
        <time>2021-03-18T10:19:06Z</time>
      </trkpt>
      <trkpt lat="43.29977700474372" lon="-1.666764917527951">
        <time>2021-03-18T10:19:06Z</time>
      </trkpt>
      <trkpt lat="43.29998968472927" lon="-1.668491803222743">
        <time>2021-03-18T10:19:06Z</time>
      </trkpt>
      <trkpt lat="43.29977494597113" lon="-1.669264704673663">
        <time>2021-03-18T10:19:06Z</time>
      </trkpt>
      <trkpt lat="43.29973387168665" lon="-1.670368858236914">
        <time>2021-03-18T10:19:06Z</time>
      </trkpt>
      <trkpt lat="43.30032172325538" lon="-1.670888191445551">
        <time>2021-03-18T10:19:06Z</time>
      </trkpt>
      <trkpt lat="43.30047847447833" lon="-1.672250831001382">
        <time>2021-03-18T10:19:06Z</time>
      </trkpt>
      <trkpt lat="43.29923840144207" lon="-1.674639057465102">
        <time>2021-03-18T10:19:06Z</time>
      </trkpt>
      <trkpt lat="43.30025369978929" lon="-1.677281100759265">
        <time>2021-03-18T10:19:06Z</time>
      </trkpt>
      <trkpt lat="43.30020608467234" lon="-1.678912008747164">
        <time>2021-03-18T10:19:06Z</time>
      </trkpt>
      <trkpt lat="43.30097894179816" lon="-1.678968888987542">
        <time>2021-03-18T10:19:06Z</time>
      </trkpt>
      <trkpt lat="43.30162207680718" lon="-1.679423638504035">
        <time>2021-03-18T10:19:06Z</time>
      </trkpt>
      <trkpt lat="43.30200807331469" lon="-1.679352972143012">
        <time>2021-03-18T10:19:06Z</time>
      </trkpt>
      <trkpt lat="43.30278735870765" lon="-1.680405423996579">
        <time>2021-03-18T10:19:06Z</time>
      </trkpt>
      <trkpt lat="43.30280093066522" lon="-1.681090971354741">
        <time>2021-03-18T10:19:06Z</time>
      </trkpt>
      <trkpt lat="43.3034764525792" lon="-1.681336640929764">
        <time>2021-03-18T10:19:06Z</time>
      </trkpt>
      <trkpt lat="43.30386017931656" lon="-1.680901043040745">
        <time>2021-03-18T10:19:06Z</time>
      </trkpt>
      <trkpt lat="43.30443263005625" lon="-1.680586794536876">
        <time>2021-03-18T10:19:06Z</time>
      </trkpt>
      <trkpt lat="43.30498424046882" lon="-1.680445980597747">
        <time>2021-03-18T10:19:06Z</time>
      </trkpt>
      <trkpt lat="43.30567575098984" lon="-1.680716119047976">
        <time>2021-03-18T10:19:06Z</time>
      </trkpt>
      <trkpt lat="43.30619566103991" lon="-1.681441233378576">
        <time>2021-03-18T10:19:06Z</time>
      </trkpt>
      <trkpt lat="43.30641829448091" lon="-1.680996170360016">
        <time>2021-03-18T10:19:06Z</time>
      </trkpt>
      <trkpt lat="43.30717793906614" lon="-1.681170187435336">
        <time>2021-03-18T10:19:06Z</time>
      </trkpt>
      <trkpt lat="43.30740377181861" lon="-1.682098717560064">
        <time>2021-03-18T10:19:06Z</time>
      </trkpt>
      <trkpt lat="43.30783254491089" lon="-1.681651363112838">
        <time>2021-03-18T10:19:06Z</time>
      </trkpt>
      <trkpt lat="43.30857628982422" lon="-1.682605906112341">
        <time>2021-03-18T10:19:06Z</time>
      </trkpt>
      <trkpt lat="43.30923995735773" lon="-1.682823945508739">
        <time>2021-03-18T10:19:06Z</time>
      </trkpt>
      <trkpt lat="43.30927703690071" lon="-1.683527140861326">
        <time>2021-03-18T10:19:06Z</time>
      </trkpt>
      <trkpt lat="43.30907695911818" lon="-1.684552680534779">
        <time>2021-03-18T10:19:06Z</time>
      </trkpt>
      <trkpt lat="43.30932057379479" lon="-1.684146296709578">
        <time>2021-03-18T10:19:06Z</time>
      </trkpt>
      <trkpt lat="43.30977288023113" lon="-1.684480693843761">
        <time>2021-03-18T10:19:06Z</time>
      </trkpt>
      <trkpt lat="43.30936994446904" lon="-1.68552041392668">
        <time>2021-03-18T10:19:06Z</time>
      </trkpt>
      <trkpt lat="43.30943409700342" lon="-1.686152591223871">
        <time>2021-03-18T10:19:06Z</time>
      </trkpt>
      <trkpt lat="43.31016915277929" lon="-1.687395232580035">
        <time>2021-03-18T10:19:06Z</time>
      </trkpt>
      <trkpt lat="43.31054415980665" lon="-1.687591978698122">
        <time>2021-03-18T10:19:06Z</time>
      </trkpt>
      <trkpt lat="43.31062997918917" lon="-1.687919726325889">
        <time>2021-03-18T10:19:06Z</time>
      </trkpt>
      <trkpt lat="43.31128464146727" lon="-1.688951246634779">
        <time>2021-03-18T10:19:06Z</time>
      </trkpt>
      <trkpt lat="43.31222439119224" lon="-1.688708841272746">
        <time>2021-03-18T10:19:06Z</time>
      </trkpt>
      <trkpt lat="43.31242765993793" lon="-1.688798151698251">
        <time>2021-03-18T10:19:06Z</time>
      </trkpt>
      <trkpt lat="43.31233402148458" lon="-1.689786169864942">
        <time>2021-03-18T10:19:06Z</time>
      </trkpt>
      <trkpt lat="43.31242707158915" lon="-1.690292718607214">
        <time>2021-03-18T10:19:06Z</time>
      </trkpt>
      <trkpt lat="43.31280778252657" lon="-1.690724121650742">
        <time>2021-03-18T10:19:06Z</time>
      </trkpt>
      <trkpt lat="43.31306703250163" lon="-1.691055917203095">
        <time>2021-03-18T10:19:06Z</time>
      </trkpt>
      <trkpt lat="43.31429589963405" lon="-1.690482495643519">
        <time>2021-03-18T10:19:06Z</time>
      </trkpt>
      <trkpt lat="43.31431949668387" lon="-1.690502928349666">
        <time>2021-03-18T10:19:06Z</time>
      </trkpt>
      <trkpt lat="43.31465798185756" lon="-1.690806793643953">
        <time>2021-03-18T10:19:06Z</time>
      </trkpt>
      <trkpt lat="43.31500798063709" lon="-1.690663009659964">
        <time>2021-03-18T10:19:06Z</time>
      </trkpt>
      <trkpt lat="43.31564142176798" lon="-1.690059209936664">
        <time>2021-03-18T10:19:06Z</time>
      </trkpt>
      <trkpt lat="43.31657950729507" lon="-1.689813896898841">
        <time>2021-03-18T10:19:06Z</time>
      </trkpt>
      <trkpt lat="43.31695815793595" lon="-1.69006910002846">
        <time>2021-03-18T10:19:06Z</time>
      </trkpt>
      <trkpt lat="43.31771760924121" lon="-1.691688853027716">
        <time>2021-03-18T10:19:06Z</time>
      </trkpt>
      <trkpt lat="43.31825756342073" lon="-1.6918702751145">
        <time>2021-03-18T10:19:06Z</time>
      </trkpt>
      <trkpt lat="43.3187262139759" lon="-1.69252384156348">
        <time>2021-03-18T10:19:06Z</time>
      </trkpt>
      <trkpt lat="43.31867925796237" lon="-1.69305046234856">
        <time>2021-03-18T10:19:06Z</time>
      </trkpt>
      <trkpt lat="43.31836854016509" lon="-1.693423477072659">
        <time>2021-03-18T10:19:06Z</time>
      </trkpt>
      <trkpt lat="43.31902865900109" lon="-1.694837183353348">
        <time>2021-03-18T10:19:06Z</time>
      </trkpt>
      <trkpt lat="43.3190142326763" lon="-1.69548769965963">
        <time>2021-03-18T10:19:06Z</time>
      </trkpt>
      <trkpt lat="43.31889023234716" lon="-1.69734315880314">
        <time>2021-03-18T10:19:06Z</time>
      </trkpt>
      <trkpt lat="43.31905469103073" lon="-1.698383002950548">
        <time>2021-03-18T10:19:06Z</time>
      </trkpt>
      <trkpt lat="43.31947117224403" lon="-1.698985858618803">
        <time>2021-03-18T10:19:06Z</time>
      </trkpt>
      <trkpt lat="43.32052447398774" lon="-1.699271696537088">
        <time>2021-03-18T10:19:06Z</time>
      </trkpt>
      <trkpt lat="43.32052271015562" lon="-1.699325839840798">
        <time>2021-03-18T10:19:06Z</time>
      </trkpt>
      <trkpt lat="43.32078416838212" lon="-1.699716101087248">
        <time>2021-03-18T10:19:06Z</time>
      </trkpt>
      <trkpt lat="43.3191231601702" lon="-1.699639106623923">
        <time>2021-03-18T10:19:06Z</time>
      </trkpt>
      <trkpt lat="43.31900193657094" lon="-1.69995918093218">
        <time>2021-03-18T10:19:06Z</time>
      </trkpt>
      <trkpt lat="43.31892918971063" lon="-1.700882639298535">
        <time>2021-03-18T10:19:06Z</time>
      </trkpt>
      <trkpt lat="43.31944458516803" lon="-1.701444701984629">
        <time>2021-03-18T10:19:06Z</time>
      </trkpt>
      <trkpt lat="43.3194255419586" lon="-1.702165072058721">
        <time>2021-03-18T10:19:06Z</time>
      </trkpt>
      <trkpt lat="43.31901995338987" lon="-1.702806370613961">
        <time>2021-03-18T10:19:06Z</time>
      </trkpt>
      <trkpt lat="43.31892146117354" lon="-1.703402500279092">
        <time>2021-03-18T10:19:06Z</time>
      </trkpt>
      <trkpt lat="43.31865785614698" lon="-1.703989796350847">
        <time>2021-03-18T10:19:06Z</time>
      </trkpt>
      <trkpt lat="43.31863122669529" lon="-1.704228372112403">
        <time>2021-03-18T10:19:06Z</time>
      </trkpt>
      <trkpt lat="43.31906470121484" lon="-1.706989510161194">
        <time>2021-03-18T10:19:06Z</time>
      </trkpt>
      <trkpt lat="43.31919035072188" lon="-1.708377005266494">
        <time>2021-03-18T10:19:06Z</time>
      </trkpt>
      <trkpt lat="43.3184008943846" lon="-1.70956885583745">
        <time>2021-03-18T10:19:06Z</time>
      </trkpt>
      <trkpt lat="43.31748109208438" lon="-1.709955380777585">
        <time>2021-03-18T10:19:06Z</time>
      </trkpt>
      <trkpt lat="43.31850263775069" lon="-1.710473826779054">
        <time>2021-03-18T10:19:06Z</time>
      </trkpt>
      <trkpt lat="43.31838810573421" lon="-1.711664371697964">
        <time>2021-03-18T10:19:06Z</time>
      </trkpt>
      <trkpt lat="43.31803090848638" lon="-1.711791367590057">
        <time>2021-03-18T10:19:06Z</time>
      </trkpt>
      <trkpt lat="43.31688318678322" lon="-1.711489858078948">
        <time>2021-03-18T10:19:06Z</time>
      </trkpt>
      <trkpt lat="43.31605032918564" lon="-1.713416313557179">
        <time>2021-03-18T10:19:06Z</time>
      </trkpt>
      <trkpt lat="43.31639283382434" lon="-1.713920751937885">
        <time>2021-03-18T10:19:06Z</time>
      </trkpt>
      <trkpt lat="43.31651742546443" lon="-1.714311243404607">
        <time>2021-03-18T10:19:06Z</time>
      </trkpt>
      <trkpt lat="43.31715711493641" lon="-1.716599155978522">
        <time>2021-03-18T10:19:06Z</time>
      </trkpt>
      <trkpt lat="43.31680117718252" lon="-1.717350781366521">
        <time>2021-03-18T10:19:06Z</time>
      </trkpt>
      <trkpt lat="43.31667199087938" lon="-1.718492916062501">
        <time>2021-03-18T10:19:06Z</time>
      </trkpt>
      <trkpt lat="43.31607266807102" lon="-1.71911812054023">
        <time>2021-03-18T10:19:06Z</time>
      </trkpt>
      <trkpt lat="43.31573640822712" lon="-1.720163268232821">
        <time>2021-03-18T10:19:06Z</time>
      </trkpt>
      <trkpt lat="43.31507581610786" lon="-1.72128921557882">
        <time>2021-03-18T10:19:06Z</time>
      </trkpt>
      <trkpt lat="43.31465661933699" lon="-1.723030770670518">
        <time>2021-03-18T10:19:06Z</time>
      </trkpt>
      <trkpt lat="43.31415166746093" lon="-1.727239901150888">
        <time>2021-03-18T10:19:06Z</time>
      </trkpt>
      <trkpt lat="43.31517490849141" lon="-1.728017459880921">
        <time>2021-03-18T10:19:06Z</time>
      </trkpt>
      <trkpt lat="43.31615402272762" lon="-1.728243725448913">
        <time>2021-03-18T10:19:06Z</time>
      </trkpt>
      <trkpt lat="43.31679780166437" lon="-1.727858297759088">
        <time>2021-03-18T10:19:06Z</time>
      </trkpt>
      <trkpt lat="43.31803088859157" lon="-1.728056635803527">
        <time>2021-03-18T10:19:06Z</time>
      </trkpt>
      <trkpt lat="43.31808325379" lon="-1.728088212709746">
        <time>2021-03-18T10:19:06Z</time>
      </trkpt>
      <trkpt lat="43.31947604166577" lon="-1.728523130554724">
        <time>2021-03-18T10:19:06Z</time>
      </trkpt>
      <trkpt lat="43.32017989436927" lon="-1.728464971914251">
        <time>2021-03-18T10:19:06Z</time>
      </trkpt>
      <trkpt lat="43.32187759527498" lon="-1.727811833419912">
        <time>2021-03-18T10:19:06Z</time>
      </trkpt>
      <trkpt lat="43.32285871214245" lon="-1.72840059236416">
        <time>2021-03-18T10:19:06Z</time>
      </trkpt>
      <trkpt lat="43.32327353313853" lon="-1.72908198725604">
        <time>2021-03-18T10:19:06Z</time>
      </trkpt>
      <trkpt lat="43.32385918893111" lon="-1.729000360159578">
        <time>2021-03-18T10:19:06Z</time>
      </trkpt>
      <trkpt lat="43.32439186539256" lon="-1.729171951383948">
        <time>2021-03-18T10:19:06Z</time>
      </trkpt>
      <trkpt lat="43.32508729984709" lon="-1.729080508829969">
        <time>2021-03-18T10:19:06Z</time>
      </trkpt>
      <trkpt lat="43.32605142173885" lon="-1.730027398806436">
        <time>2021-03-18T10:19:06Z</time>
      </trkpt>
      <trkpt lat="43.32727043754648" lon="-1.7301690943805">
        <time>2021-03-18T10:19:06Z</time>
      </trkpt>
      <trkpt lat="43.3282162626121" lon="-1.731036820278186">
        <time>2021-03-18T10:19:06Z</time>
      </trkpt>
      <trkpt lat="43.32962912737298" lon="-1.730392158393711">
        <time>2021-03-18T10:19:06Z</time>
      </trkpt>
      <trkpt lat="43.32990272648321" lon="-1.731041804670774">
        <time>2021-03-18T10:19:06Z</time>
      </trkpt>
      <trkpt lat="43.32975061136426" lon="-1.73223685518673">
        <time>2021-03-18T10:19:06Z</time>
      </trkpt>
      <trkpt lat="43.33121591636324" lon="-1.734059516851896">
        <time>2021-03-18T10:19:06Z</time>
      </trkpt>
      <trkpt lat="43.33150629379779" lon="-1.734905389175121">
        <time>2021-03-18T10:19:06Z</time>
      </trkpt>
      <trkpt lat="43.33169554885038" lon="-1.735354478097081">
        <time>2021-03-18T10:19:06Z</time>
      </trkpt>
      <trkpt lat="43.33194099036921" lon="-1.736715727707343">
        <time>2021-03-18T10:19:06Z</time>
      </trkpt>
      <trkpt lat="43.33247809003306" lon="-1.737265295190804">
        <time>2021-03-18T10:19:06Z</time>
      </trkpt>
      <trkpt lat="43.33253256670346" lon="-1.738753319571368">
        <time>2021-03-18T10:19:06Z</time>
      </trkpt>
      <trkpt lat="43.3328605776046" lon="-1.740468484597474">
        <time>2021-03-18T10:19:06Z</time>
      </trkpt>
      <trkpt lat="43.3333477079648" lon="-1.740401487257068">
        <time>2021-03-18T10:19:06Z</time>
      </trkpt>
      <trkpt lat="43.33417995297211" lon="-1.74131499193467">
        <time>2021-03-18T10:19:06Z</time>
      </trkpt>
      <trkpt lat="43.33476777336909" lon="-1.741955216982217">
        <time>2021-03-18T10:19:06Z</time>
      </trkpt>
      <trkpt lat="43.33468429413166" lon="-1.742392386213093">
        <time>2021-03-18T10:19:06Z</time>
      </trkpt>
      <trkpt lat="43.33355416900833" lon="-1.743325434264145">
        <time>2021-03-18T10:19:06Z</time>
      </trkpt>
      <trkpt lat="43.33347941924473" lon="-1.744458162506138">
        <time>2021-03-18T10:19:06Z</time>
      </trkpt>
      <trkpt lat="43.33409022137668" lon="-1.74746344831353">
        <time>2021-03-18T10:19:06Z</time>
      </trkpt>
      <trkpt lat="43.33458864782683" lon="-1.74957095449538">
        <time>2021-03-18T10:19:06Z</time>
      </trkpt>
      <trkpt lat="43.33519002702926" lon="-1.750923222943718">
        <time>2021-03-18T10:19:06Z</time>
      </trkpt>
      <trkpt lat="43.33607763877631" lon="-1.750823248583677">
        <time>2021-03-18T10:19:06Z</time>
      </trkpt>
      <trkpt lat="43.33672289944161" lon="-1.751182966862052">
        <time>2021-03-18T10:19:06Z</time>
      </trkpt>
      <trkpt lat="43.33733625257145" lon="-1.75077069937815">
        <time>2021-03-18T10:19:06Z</time>
      </trkpt>
      <trkpt lat="43.33818836337446" lon="-1.75097333265242">
        <time>2021-03-18T10:19:06Z</time>
      </trkpt>
      <trkpt lat="43.33948321700753" lon="-1.751378393624025">
        <time>2021-03-18T10:19:06Z</time>
      </trkpt>
      <trkpt lat="43.33965869031468" lon="-1.75192344594762">
        <time>2021-03-18T10:19:06Z</time>
      </trkpt>
      <trkpt lat="43.33992575303904" lon="-1.75214908623983">
        <time>2021-03-18T10:19:06Z</time>
      </trkpt>
      <trkpt lat="43.34048726693009" lon="-1.75208320454628">
        <time>2021-03-18T10:19:06Z</time>
      </trkpt>
      <trkpt lat="43.34156532084835" lon="-1.752956762686134">
        <time>2021-03-18T10:19:06Z</time>
      </trkpt>
      <trkpt lat="43.34299321196164" lon="-1.754718920784884">
        <time>2021-03-18T10:19:06Z</time>
      </trkpt>
      <trkpt lat="43.3442118966173" lon="-1.75696728650131">
        <time>2021-03-18T10:19:06Z</time>
      </trkpt>
      <trkpt lat="43.34489074581123" lon="-1.757996841684477">
        <time>2021-03-18T10:19:06Z</time>
      </trkpt>
      <trkpt lat="43.3447027440758" lon="-1.759674167164047">
        <time>2021-03-18T10:19:06Z</time>
      </trkpt>
      <trkpt lat="43.34479880088975" lon="-1.76103072720042">
        <time>2021-03-18T10:19:06Z</time>
      </trkpt>
      <trkpt lat="43.34513627983943" lon="-1.761703245360371">
        <time>2021-03-18T10:19:06Z</time>
      </trkpt>
      <trkpt lat="43.34577685646646" lon="-1.762318376015963">
        <time>2021-03-18T10:19:06Z</time>
      </trkpt>
      <trkpt lat="43.34650344703238" lon="-1.765564493014135">
        <time>2021-03-18T10:19:06Z</time>
      </trkpt>
      <trkpt lat="43.34840313913298" lon="-1.76713651566215">
        <time>2021-03-18T10:19:06Z</time>
      </trkpt>
      <trkpt lat="43.34907601077899" lon="-1.768768771057245">
        <time>2021-03-18T10:19:06Z</time>
      </trkpt>
      <trkpt lat="43.34992225882068" lon="-1.769635198768103">
        <time>2021-03-18T10:19:06Z</time>
      </trkpt>
      <trkpt lat="43.35205718322038" lon="-1.770521041524271">
        <time>2021-03-18T10:19:06Z</time>
      </trkpt>
      <trkpt lat="43.35255927136655" lon="-1.77021467747695">
        <time>2021-03-18T10:19:06Z</time>
      </trkpt>
      <trkpt lat="43.35344981547873" lon="-1.771285512794908">
        <time>2021-03-18T10:19:06Z</time>
      </trkpt>
      <trkpt lat="43.35529827800882" lon="-1.768167681947199">
        <time>2021-03-18T10:19:06Z</time>
      </trkpt>
      <trkpt lat="43.35634637227989" lon="-1.766062679497141">
        <time>2021-03-18T10:19:06Z</time>
      </trkpt>
      <trkpt lat="43.3585984546606" lon="-1.764816789696644">
        <time>2021-03-18T10:19:06Z</time>
      </trkpt>
      <trkpt lat="43.35935337766362" lon="-1.763361645816203">
        <time>2021-03-18T10:19:06Z</time>
      </trkpt>
      <trkpt lat="43.36025905187385" lon="-1.762866296701077">
        <time>2021-03-18T10:19:06Z</time>
      </trkpt>
      <trkpt lat="43.36031418120642" lon="-1.762997047975484">
        <time>2021-03-18T10:19:06Z</time>
      </trkpt>
      <trkpt lat="43.36034971164126" lon="-1.76298247349664">
        <time>2021-03-18T10:19:06Z</time>
      </trkpt>
      <trkpt lat="43.36064697090774" lon="-1.762865839119114">
        <time>2021-03-18T10:19:06Z</time>
      </trkpt>
      <trkpt lat="43.36186818580124" lon="-1.764715905540195">
        <time>2021-03-18T10:19:06Z</time>
      </trkpt>
      <trkpt lat="43.36229138979672" lon="-1.764622151362364">
        <time>2021-03-18T10:19:06Z</time>
      </trkpt>
      <trkpt lat="43.36234319972201" lon="-1.765833000445524">
        <time>2021-03-18T10:19:06Z</time>
      </trkpt>
      <trkpt lat="43.36426337647329" lon="-1.76532006465651">
        <time>2021-03-18T10:19:06Z</time>
      </trkpt>
      <trkpt lat="43.36562945632438" lon="-1.765433421418358">
        <time>2021-03-18T10:19:06Z</time>
      </trkpt>
      <trkpt lat="43.3667707654556" lon="-1.765490255199829">
        <time>2021-03-18T10:19:06Z</time>
      </trkpt>
      <trkpt lat="43.36801902126785" lon="-1.765236853073277">
        <time>2021-03-18T10:19:06Z</time>
      </trkpt>
      <trkpt lat="43.36817792177588" lon="-1.76571029329869">
        <time>2021-03-18T10:19:06Z</time>
      </trkpt>
      <trkpt lat="43.369529223992" lon="-1.765054422154565">
        <time>2021-03-18T10:19:06Z</time>
      </trkpt>
      <trkpt lat="43.37014154606002" lon="-1.7659909766897">
        <time>2021-03-18T10:19:06Z</time>
      </trkpt>
      <trkpt lat="43.37168719504285" lon="-1.76751869420802">
        <time>2021-03-18T10:19:06Z</time>
      </trkpt>
      <trkpt lat="43.37277226729516" lon="-1.76839328438494">
        <time>2021-03-18T10:19:06Z</time>
      </trkpt>
      <trkpt lat="43.37348275973779" lon="-1.769122505297415">
        <time>2021-03-18T10:19:06Z</time>
      </trkpt>
      <trkpt lat="43.37436969739359" lon="-1.769118206114565">
        <time>2021-03-18T10:19:06Z</time>
      </trkpt>
    </trkseg>
  </trk>
</gpx>
